<?xml version="1.0" encoding="UTF-8" standalone="no" ?>
<gpx xmlns="http://www.topografix.com/GPX/1/1" xmlns:xsi="http://www.w3.org/2001/XMLSchema-instance" xsi:schemaLocation="http://www.topografix.com/GPX/1/1 http://www.topografix.com/GPX/1/1/gpx.xsd" version="1.1" creator="VisuGPX - https://www.visugpx.com">
  <metadata>
    <name>SO-NE-Bouaye St Meme Le Tenu La Marne St Philbert Pont St Martin St Aignan</name>
    <desc><![CDATA[SO-NE-Bouaye St Meme Le Tenu La Marne St Philbert Pont St Martin St Aignan]]></desc>
  </metadata>
  <trk>
    <name><![CDATA[2021-07-17 09:00 +02:00]]></name>
    <trkseg>
      <trkpt lat="47.16774" lon="-1.62658">
        <ele>72</ele>
        <time>2021-07-17T07:00:33.000Z</time>
      </trkpt>
      <trkpt lat="47.16776" lon="-1.62672">
        <ele>67</ele>
        <time>2021-07-17T07:02:02.000Z</time>
      </trkpt>
      <trkpt lat="47.16766" lon="-1.62678">
        <ele>68</ele>
        <time>2021-07-17T07:02:05.000Z</time>
      </trkpt>
      <trkpt lat="47.16757" lon="-1.62673">
        <ele>69</ele>
        <time>2021-07-17T07:02:07.000Z</time>
      </trkpt>
      <trkpt lat="47.16748" lon="-1.62673">
        <ele>70</ele>
        <time>2021-07-17T07:02:09.000Z</time>
      </trkpt>
      <trkpt lat="47.16739" lon="-1.6268">
        <ele>70</ele>
        <time>2021-07-17T07:02:11.000Z</time>
      </trkpt>
      <trkpt lat="47.1673" lon="-1.62685">
        <ele>70</ele>
        <time>2021-07-17T07:02:13.000Z</time>
      </trkpt>
      <trkpt lat="47.16718" lon="-1.62694">
        <ele>70</ele>
        <time>2021-07-17T07:02:16.000Z</time>
      </trkpt>
      <trkpt lat="47.16709" lon="-1.62688">
        <ele>70</ele>
        <time>2021-07-17T07:02:18.000Z</time>
      </trkpt>
      <trkpt lat="47.16702" lon="-1.62674">
        <ele>69</ele>
        <time>2021-07-17T07:02:20.000Z</time>
      </trkpt>
      <trkpt lat="47.16699" lon="-1.62658">
        <ele>69</ele>
        <time>2021-07-17T07:02:22.000Z</time>
      </trkpt>
      <trkpt lat="47.16697" lon="-1.6264">
        <ele>69</ele>
        <time>2021-07-17T07:02:24.000Z</time>
      </trkpt>
      <trkpt lat="47.16695" lon="-1.62622">
        <ele>69</ele>
        <time>2021-07-17T07:02:26.000Z</time>
      </trkpt>
      <trkpt lat="47.16696" lon="-1.62604">
        <ele>69</ele>
        <time>2021-07-17T07:02:28.000Z</time>
      </trkpt>
      <trkpt lat="47.16697" lon="-1.62585">
        <ele>69</ele>
        <time>2021-07-17T07:02:30.000Z</time>
      </trkpt>
      <trkpt lat="47.16698" lon="-1.62567">
        <ele>69</ele>
        <time>2021-07-17T07:02:32.000Z</time>
      </trkpt>
      <trkpt lat="47.167" lon="-1.62549">
        <ele>68</ele>
        <time>2021-07-17T07:02:34.000Z</time>
      </trkpt>
      <trkpt lat="47.16702" lon="-1.62529">
        <ele>67</ele>
        <time>2021-07-17T07:02:36.000Z</time>
      </trkpt>
      <trkpt lat="47.16704" lon="-1.62512">
        <ele>67</ele>
        <time>2021-07-17T07:02:38.000Z</time>
      </trkpt>
      <trkpt lat="47.16707" lon="-1.62495">
        <ele>67</ele>
        <time>2021-07-17T07:02:40.000Z</time>
      </trkpt>
      <trkpt lat="47.1671" lon="-1.62478">
        <ele>67</ele>
        <time>2021-07-17T07:02:42.000Z</time>
      </trkpt>
      <trkpt lat="47.16713" lon="-1.62462">
        <ele>67</ele>
        <time>2021-07-17T07:02:44.000Z</time>
      </trkpt>
      <trkpt lat="47.16716" lon="-1.62445">
        <ele>67</ele>
        <time>2021-07-17T07:02:46.000Z</time>
      </trkpt>
      <trkpt lat="47.16718" lon="-1.62429">
        <ele>67</ele>
        <time>2021-07-17T07:02:48.000Z</time>
      </trkpt>
      <trkpt lat="47.16724" lon="-1.62416">
        <ele>67</ele>
        <time>2021-07-17T07:02:50.000Z</time>
      </trkpt>
      <trkpt lat="47.16718" lon="-1.624">
        <ele>67</ele>
        <time>2021-07-17T07:02:53.000Z</time>
      </trkpt>
      <trkpt lat="47.1671" lon="-1.62388">
        <ele>67</ele>
        <time>2021-07-17T07:02:55.000Z</time>
      </trkpt>
      <trkpt lat="47.16702" lon="-1.62376">
        <ele>67</ele>
        <time>2021-07-17T07:02:57.000Z</time>
      </trkpt>
      <trkpt lat="47.16693" lon="-1.62366">
        <ele>68</ele>
        <time>2021-07-17T07:02:59.000Z</time>
      </trkpt>
      <trkpt lat="47.16681" lon="-1.62362">
        <ele>68</ele>
        <time>2021-07-17T07:03:01.000Z</time>
      </trkpt>
      <trkpt lat="47.1667" lon="-1.62361">
        <ele>69</ele>
        <time>2021-07-17T07:03:03.000Z</time>
      </trkpt>
      <trkpt lat="47.16659" lon="-1.62364">
        <ele>69</ele>
        <time>2021-07-17T07:03:05.000Z</time>
      </trkpt>
      <trkpt lat="47.16649" lon="-1.62372">
        <ele>69</ele>
        <time>2021-07-17T07:03:07.000Z</time>
      </trkpt>
      <trkpt lat="47.16639" lon="-1.6238">
        <ele>69</ele>
        <time>2021-07-17T07:03:09.000Z</time>
      </trkpt>
      <trkpt lat="47.16631" lon="-1.6239">
        <ele>69</ele>
        <time>2021-07-17T07:03:11.000Z</time>
      </trkpt>
      <trkpt lat="47.16622" lon="-1.62402">
        <ele>69</ele>
        <time>2021-07-17T07:03:13.000Z</time>
      </trkpt>
      <trkpt lat="47.16615" lon="-1.62414">
        <ele>69</ele>
        <time>2021-07-17T07:03:15.000Z</time>
      </trkpt>
      <trkpt lat="47.16608" lon="-1.62428">
        <ele>70</ele>
        <time>2021-07-17T07:03:17.000Z</time>
      </trkpt>
      <trkpt lat="47.16602" lon="-1.62441">
        <ele>71</ele>
        <time>2021-07-17T07:03:19.000Z</time>
      </trkpt>
      <trkpt lat="47.16596" lon="-1.62455">
        <ele>71</ele>
        <time>2021-07-17T07:03:21.000Z</time>
      </trkpt>
      <trkpt lat="47.16589" lon="-1.62469">
        <ele>71</ele>
        <time>2021-07-17T07:03:23.000Z</time>
      </trkpt>
      <trkpt lat="47.16583" lon="-1.62482">
        <ele>71</ele>
        <time>2021-07-17T07:03:25.000Z</time>
      </trkpt>
      <trkpt lat="47.16578" lon="-1.62496">
        <ele>71</ele>
        <time>2021-07-17T07:03:27.000Z</time>
      </trkpt>
      <trkpt lat="47.16573" lon="-1.6251">
        <ele>71</ele>
        <time>2021-07-17T07:03:29.000Z</time>
      </trkpt>
      <trkpt lat="47.16567" lon="-1.62524">
        <ele>71</ele>
        <time>2021-07-17T07:03:31.000Z</time>
      </trkpt>
      <trkpt lat="47.1656" lon="-1.62536">
        <ele>71</ele>
        <time>2021-07-17T07:03:33.000Z</time>
      </trkpt>
      <trkpt lat="47.16551" lon="-1.62547">
        <ele>72</ele>
        <time>2021-07-17T07:03:35.000Z</time>
      </trkpt>
      <trkpt lat="47.16542" lon="-1.62557">
        <ele>72</ele>
        <time>2021-07-17T07:03:37.000Z</time>
      </trkpt>
      <trkpt lat="47.16532" lon="-1.62564">
        <ele>72</ele>
        <time>2021-07-17T07:03:39.000Z</time>
      </trkpt>
      <trkpt lat="47.1652" lon="-1.62565">
        <ele>73</ele>
        <time>2021-07-17T07:03:41.000Z</time>
      </trkpt>
      <trkpt lat="47.16509" lon="-1.62562">
        <ele>74</ele>
        <time>2021-07-17T07:03:43.000Z</time>
      </trkpt>
      <trkpt lat="47.16499" lon="-1.62558">
        <ele>75</ele>
        <time>2021-07-17T07:03:45.000Z</time>
      </trkpt>
      <trkpt lat="47.16488" lon="-1.62555">
        <ele>75</ele>
        <time>2021-07-17T07:03:47.000Z</time>
      </trkpt>
      <trkpt lat="47.16477" lon="-1.62552">
        <ele>75</ele>
        <time>2021-07-17T07:03:49.000Z</time>
      </trkpt>
      <trkpt lat="47.16467" lon="-1.62548">
        <ele>76</ele>
        <time>2021-07-17T07:03:51.000Z</time>
      </trkpt>
      <trkpt lat="47.16457" lon="-1.62546">
        <ele>76</ele>
        <time>2021-07-17T07:03:53.000Z</time>
      </trkpt>
      <trkpt lat="47.16446" lon="-1.62542">
        <ele>76</ele>
        <time>2021-07-17T07:03:55.000Z</time>
      </trkpt>
      <trkpt lat="47.16436" lon="-1.62541">
        <ele>76</ele>
        <time>2021-07-17T07:03:57.000Z</time>
      </trkpt>
      <trkpt lat="47.16426" lon="-1.62548">
        <ele>77</ele>
        <time>2021-07-17T07:03:59.000Z</time>
      </trkpt>
      <trkpt lat="47.16417" lon="-1.62557">
        <ele>76</ele>
        <time>2021-07-17T07:04:01.000Z</time>
      </trkpt>
      <trkpt lat="47.16407" lon="-1.62566">
        <ele>75</ele>
        <time>2021-07-17T07:04:03.000Z</time>
      </trkpt>
      <trkpt lat="47.16397" lon="-1.62575">
        <ele>75</ele>
        <time>2021-07-17T07:04:05.000Z</time>
      </trkpt>
      <trkpt lat="47.16385" lon="-1.62581">
        <ele>75</ele>
        <time>2021-07-17T07:04:07.000Z</time>
      </trkpt>
      <trkpt lat="47.16373" lon="-1.62584">
        <ele>75</ele>
        <time>2021-07-17T07:04:09.000Z</time>
      </trkpt>
      <trkpt lat="47.1636" lon="-1.62582">
        <ele>74</ele>
        <time>2021-07-17T07:04:11.000Z</time>
      </trkpt>
      <trkpt lat="47.16348" lon="-1.6258">
        <ele>74</ele>
        <time>2021-07-17T07:04:13.000Z</time>
      </trkpt>
      <trkpt lat="47.16336" lon="-1.62575">
        <ele>74</ele>
        <time>2021-07-17T07:04:15.000Z</time>
      </trkpt>
      <trkpt lat="47.16324" lon="-1.62571">
        <ele>74</ele>
        <time>2021-07-17T07:04:17.000Z</time>
      </trkpt>
      <trkpt lat="47.16312" lon="-1.62571">
        <ele>74</ele>
        <time>2021-07-17T07:04:19.000Z</time>
      </trkpt>
      <trkpt lat="47.163" lon="-1.62578">
        <ele>74</ele>
        <time>2021-07-17T07:04:21.000Z</time>
      </trkpt>
      <trkpt lat="47.16292" lon="-1.62589">
        <ele>74</ele>
        <time>2021-07-17T07:04:23.000Z</time>
      </trkpt>
      <trkpt lat="47.16287" lon="-1.62605">
        <ele>74</ele>
        <time>2021-07-17T07:04:25.000Z</time>
      </trkpt>
      <trkpt lat="47.16283" lon="-1.62622">
        <ele>74</ele>
        <time>2021-07-17T07:04:27.000Z</time>
      </trkpt>
      <trkpt lat="47.16281" lon="-1.62639">
        <ele>74</ele>
        <time>2021-07-17T07:04:29.000Z</time>
      </trkpt>
      <trkpt lat="47.16279" lon="-1.62655">
        <ele>74</ele>
        <time>2021-07-17T07:04:31.000Z</time>
      </trkpt>
      <trkpt lat="47.16278" lon="-1.62673">
        <ele>74</ele>
        <time>2021-07-17T07:04:33.000Z</time>
      </trkpt>
      <trkpt lat="47.16279" lon="-1.62687">
        <ele>74</ele>
        <time>2021-07-17T07:04:35.000Z</time>
      </trkpt>
      <trkpt lat="47.16279" lon="-1.62704">
        <ele>74</ele>
        <time>2021-07-17T07:04:39.000Z</time>
      </trkpt>
      <trkpt lat="47.16283" lon="-1.62721">
        <ele>74</ele>
        <time>2021-07-17T07:04:42.000Z</time>
      </trkpt>
      <trkpt lat="47.16277" lon="-1.62737">
        <ele>74</ele>
        <time>2021-07-17T07:04:45.000Z</time>
      </trkpt>
      <trkpt lat="47.16266" lon="-1.62737">
        <ele>74</ele>
        <time>2021-07-17T07:04:47.000Z</time>
      </trkpt>
      <trkpt lat="47.16255" lon="-1.62741">
        <ele>73</ele>
        <time>2021-07-17T07:04:49.000Z</time>
      </trkpt>
      <trkpt lat="47.16242" lon="-1.62748">
        <ele>73</ele>
        <time>2021-07-17T07:04:51.000Z</time>
      </trkpt>
      <trkpt lat="47.16229" lon="-1.62755">
        <ele>73</ele>
        <time>2021-07-17T07:04:53.000Z</time>
      </trkpt>
      <trkpt lat="47.16216" lon="-1.62761">
        <ele>72</ele>
        <time>2021-07-17T07:04:55.000Z</time>
      </trkpt>
      <trkpt lat="47.16201" lon="-1.62771">
        <ele>72</ele>
        <time>2021-07-17T07:04:57.000Z</time>
      </trkpt>
      <trkpt lat="47.16187" lon="-1.62783">
        <ele>71</ele>
        <time>2021-07-17T07:04:59.000Z</time>
      </trkpt>
      <trkpt lat="47.16173" lon="-1.62796">
        <ele>71</ele>
        <time>2021-07-17T07:05:01.000Z</time>
      </trkpt>
      <trkpt lat="47.16159" lon="-1.62809">
        <ele>70</ele>
        <time>2021-07-17T07:05:03.000Z</time>
      </trkpt>
      <trkpt lat="47.16144" lon="-1.62821">
        <ele>69</ele>
        <time>2021-07-17T07:05:05.000Z</time>
      </trkpt>
      <trkpt lat="47.1613" lon="-1.62834">
        <ele>69</ele>
        <time>2021-07-17T07:05:07.000Z</time>
      </trkpt>
      <trkpt lat="47.16116" lon="-1.62846">
        <ele>69</ele>
        <time>2021-07-17T07:05:09.000Z</time>
      </trkpt>
      <trkpt lat="47.16101" lon="-1.62859">
        <ele>69</ele>
        <time>2021-07-17T07:05:11.000Z</time>
      </trkpt>
      <trkpt lat="47.16088" lon="-1.62871">
        <ele>69</ele>
        <time>2021-07-17T07:05:13.000Z</time>
      </trkpt>
      <trkpt lat="47.16074" lon="-1.62883">
        <ele>68</ele>
        <time>2021-07-17T07:05:15.000Z</time>
      </trkpt>
      <trkpt lat="47.16061" lon="-1.62894">
        <ele>68</ele>
        <time>2021-07-17T07:05:17.000Z</time>
      </trkpt>
      <trkpt lat="47.16047" lon="-1.62906">
        <ele>67</ele>
        <time>2021-07-17T07:05:19.000Z</time>
      </trkpt>
      <trkpt lat="47.16034" lon="-1.62918">
        <ele>67</ele>
        <time>2021-07-17T07:05:21.000Z</time>
      </trkpt>
      <trkpt lat="47.16021" lon="-1.62929">
        <ele>66</ele>
        <time>2021-07-17T07:05:23.000Z</time>
      </trkpt>
      <trkpt lat="47.16008" lon="-1.62941">
        <ele>66</ele>
        <time>2021-07-17T07:05:25.000Z</time>
      </trkpt>
      <trkpt lat="47.15994" lon="-1.62954">
        <ele>65</ele>
        <time>2021-07-17T07:05:27.000Z</time>
      </trkpt>
      <trkpt lat="47.1598" lon="-1.62966">
        <ele>64</ele>
        <time>2021-07-17T07:05:29.000Z</time>
      </trkpt>
      <trkpt lat="47.15965" lon="-1.62979">
        <ele>64</ele>
        <time>2021-07-17T07:05:31.000Z</time>
      </trkpt>
      <trkpt lat="47.15951" lon="-1.62992">
        <ele>63</ele>
        <time>2021-07-17T07:05:33.000Z</time>
      </trkpt>
      <trkpt lat="47.15937" lon="-1.63005">
        <ele>62</ele>
        <time>2021-07-17T07:05:35.000Z</time>
      </trkpt>
      <trkpt lat="47.15923" lon="-1.63018">
        <ele>62</ele>
        <time>2021-07-17T07:05:37.000Z</time>
      </trkpt>
      <trkpt lat="47.15909" lon="-1.6303">
        <ele>62</ele>
        <time>2021-07-17T07:05:39.000Z</time>
      </trkpt>
      <trkpt lat="47.15894" lon="-1.63042">
        <ele>62</ele>
        <time>2021-07-17T07:05:41.000Z</time>
      </trkpt>
      <trkpt lat="47.15881" lon="-1.63054">
        <ele>61</ele>
        <time>2021-07-17T07:05:43.000Z</time>
      </trkpt>
      <trkpt lat="47.15869" lon="-1.63065">
        <ele>61</ele>
        <time>2021-07-17T07:05:45.000Z</time>
      </trkpt>
      <trkpt lat="47.15856" lon="-1.63076">
        <ele>61</ele>
        <time>2021-07-17T07:05:47.000Z</time>
      </trkpt>
      <trkpt lat="47.15844" lon="-1.63087">
        <ele>61</ele>
        <time>2021-07-17T07:05:49.000Z</time>
      </trkpt>
      <trkpt lat="47.15833" lon="-1.63097">
        <ele>62</ele>
        <time>2021-07-17T07:05:51.000Z</time>
      </trkpt>
      <trkpt lat="47.15822" lon="-1.63107">
        <ele>62</ele>
        <time>2021-07-17T07:05:53.000Z</time>
      </trkpt>
      <trkpt lat="47.15811" lon="-1.63116">
        <ele>62</ele>
        <time>2021-07-17T07:05:55.000Z</time>
      </trkpt>
      <trkpt lat="47.158" lon="-1.63126">
        <ele>63</ele>
        <time>2021-07-17T07:05:57.000Z</time>
      </trkpt>
      <trkpt lat="47.15789" lon="-1.63135">
        <ele>63</ele>
        <time>2021-07-17T07:05:59.000Z</time>
      </trkpt>
      <trkpt lat="47.15778" lon="-1.63145">
        <ele>63</ele>
        <time>2021-07-17T07:06:01.000Z</time>
      </trkpt>
      <trkpt lat="47.15768" lon="-1.63156">
        <ele>64</ele>
        <time>2021-07-17T07:06:03.000Z</time>
      </trkpt>
      <trkpt lat="47.15757" lon="-1.63165">
        <ele>64</ele>
        <time>2021-07-17T07:06:05.000Z</time>
      </trkpt>
      <trkpt lat="47.15746" lon="-1.63175">
        <ele>65</ele>
        <time>2021-07-17T07:06:07.000Z</time>
      </trkpt>
      <trkpt lat="47.15734" lon="-1.63185">
        <ele>65</ele>
        <time>2021-07-17T07:06:09.000Z</time>
      </trkpt>
      <trkpt lat="47.15723" lon="-1.63195">
        <ele>65</ele>
        <time>2021-07-17T07:06:11.000Z</time>
      </trkpt>
      <trkpt lat="47.15712" lon="-1.63204">
        <ele>65</ele>
        <time>2021-07-17T07:06:13.000Z</time>
      </trkpt>
      <trkpt lat="47.15701" lon="-1.63214">
        <ele>65</ele>
        <time>2021-07-17T07:06:15.000Z</time>
      </trkpt>
      <trkpt lat="47.15689" lon="-1.63225">
        <ele>65</ele>
        <time>2021-07-17T07:06:17.000Z</time>
      </trkpt>
      <trkpt lat="47.15677" lon="-1.63235">
        <ele>65</ele>
        <time>2021-07-17T07:06:19.000Z</time>
      </trkpt>
      <trkpt lat="47.15665" lon="-1.63245">
        <ele>65</ele>
        <time>2021-07-17T07:06:21.000Z</time>
      </trkpt>
      <trkpt lat="47.15654" lon="-1.63255">
        <ele>66</ele>
        <time>2021-07-17T07:06:23.000Z</time>
      </trkpt>
      <trkpt lat="47.15642" lon="-1.63265">
        <ele>66</ele>
        <time>2021-07-17T07:06:25.000Z</time>
      </trkpt>
      <trkpt lat="47.15631" lon="-1.63276">
        <ele>66</ele>
        <time>2021-07-17T07:06:27.000Z</time>
      </trkpt>
      <trkpt lat="47.15619" lon="-1.63286">
        <ele>65</ele>
        <time>2021-07-17T07:06:29.000Z</time>
      </trkpt>
      <trkpt lat="47.15607" lon="-1.63296">
        <ele>66</ele>
        <time>2021-07-17T07:06:31.000Z</time>
      </trkpt>
      <trkpt lat="47.15596" lon="-1.63307">
        <ele>66</ele>
        <time>2021-07-17T07:06:33.000Z</time>
      </trkpt>
      <trkpt lat="47.15585" lon="-1.63317">
        <ele>67</ele>
        <time>2021-07-17T07:06:35.000Z</time>
      </trkpt>
      <trkpt lat="47.15574" lon="-1.63326">
        <ele>67</ele>
        <time>2021-07-17T07:06:37.000Z</time>
      </trkpt>
      <trkpt lat="47.15563" lon="-1.63336">
        <ele>68</ele>
        <time>2021-07-17T07:06:39.000Z</time>
      </trkpt>
      <trkpt lat="47.15552" lon="-1.63346">
        <ele>68</ele>
        <time>2021-07-17T07:06:41.000Z</time>
      </trkpt>
      <trkpt lat="47.15541" lon="-1.63355">
        <ele>69</ele>
        <time>2021-07-17T07:06:43.000Z</time>
      </trkpt>
      <trkpt lat="47.15531" lon="-1.63364">
        <ele>69</ele>
        <time>2021-07-17T07:06:45.000Z</time>
      </trkpt>
      <trkpt lat="47.15521" lon="-1.63373">
        <ele>70</ele>
        <time>2021-07-17T07:06:47.000Z</time>
      </trkpt>
      <trkpt lat="47.15511" lon="-1.63383">
        <ele>70</ele>
        <time>2021-07-17T07:06:49.000Z</time>
      </trkpt>
      <trkpt lat="47.155" lon="-1.63393">
        <ele>71</ele>
        <time>2021-07-17T07:06:51.000Z</time>
      </trkpt>
      <trkpt lat="47.1549" lon="-1.63402">
        <ele>71</ele>
        <time>2021-07-17T07:06:53.000Z</time>
      </trkpt>
      <trkpt lat="47.15479" lon="-1.63411">
        <ele>71</ele>
        <time>2021-07-17T07:06:55.000Z</time>
      </trkpt>
      <trkpt lat="47.15469" lon="-1.63421">
        <ele>71</ele>
        <time>2021-07-17T07:06:57.000Z</time>
      </trkpt>
      <trkpt lat="47.15458" lon="-1.63431">
        <ele>72</ele>
        <time>2021-07-17T07:06:59.000Z</time>
      </trkpt>
      <trkpt lat="47.15447" lon="-1.63441">
        <ele>72</ele>
        <time>2021-07-17T07:07:01.000Z</time>
      </trkpt>
      <trkpt lat="47.15437" lon="-1.63451">
        <ele>73</ele>
        <time>2021-07-17T07:07:03.000Z</time>
      </trkpt>
      <trkpt lat="47.15427" lon="-1.6346">
        <ele>73</ele>
        <time>2021-07-17T07:07:05.000Z</time>
      </trkpt>
      <trkpt lat="47.15417" lon="-1.6347">
        <ele>73</ele>
        <time>2021-07-17T07:07:07.000Z</time>
      </trkpt>
      <trkpt lat="47.15408" lon="-1.63481">
        <ele>73</ele>
        <time>2021-07-17T07:07:09.000Z</time>
      </trkpt>
      <trkpt lat="47.15399" lon="-1.63493">
        <ele>73</ele>
        <time>2021-07-17T07:07:11.000Z</time>
      </trkpt>
      <trkpt lat="47.1539" lon="-1.63504">
        <ele>73</ele>
        <time>2021-07-17T07:07:13.000Z</time>
      </trkpt>
      <trkpt lat="47.1538" lon="-1.63511">
        <ele>73</ele>
        <time>2021-07-17T07:07:15.000Z</time>
      </trkpt>
      <trkpt lat="47.15369" lon="-1.63514">
        <ele>74</ele>
        <time>2021-07-17T07:07:17.000Z</time>
      </trkpt>
      <trkpt lat="47.15358" lon="-1.63524">
        <ele>74</ele>
        <time>2021-07-17T07:07:19.000Z</time>
      </trkpt>
      <trkpt lat="47.15348" lon="-1.63535">
        <ele>74</ele>
        <time>2021-07-17T07:07:21.000Z</time>
      </trkpt>
      <trkpt lat="47.15338" lon="-1.63545">
        <ele>74</ele>
        <time>2021-07-17T07:07:23.000Z</time>
      </trkpt>
      <trkpt lat="47.15327" lon="-1.63554">
        <ele>74</ele>
        <time>2021-07-17T07:07:25.000Z</time>
      </trkpt>
      <trkpt lat="47.15315" lon="-1.63561">
        <ele>74</ele>
        <time>2021-07-17T07:07:27.000Z</time>
      </trkpt>
      <trkpt lat="47.15304" lon="-1.63569">
        <ele>74</ele>
        <time>2021-07-17T07:07:29.000Z</time>
      </trkpt>
      <trkpt lat="47.15293" lon="-1.63579">
        <ele>74</ele>
        <time>2021-07-17T07:07:31.000Z</time>
      </trkpt>
      <trkpt lat="47.15281" lon="-1.63588">
        <ele>74</ele>
        <time>2021-07-17T07:07:33.000Z</time>
      </trkpt>
      <trkpt lat="47.1527" lon="-1.63598">
        <ele>74</ele>
        <time>2021-07-17T07:07:35.000Z</time>
      </trkpt>
      <trkpt lat="47.15259" lon="-1.63607">
        <ele>74</ele>
        <time>2021-07-17T07:07:37.000Z</time>
      </trkpt>
      <trkpt lat="47.15247" lon="-1.63617">
        <ele>74</ele>
        <time>2021-07-17T07:07:39.000Z</time>
      </trkpt>
      <trkpt lat="47.15236" lon="-1.63627">
        <ele>73</ele>
        <time>2021-07-17T07:07:41.000Z</time>
      </trkpt>
      <trkpt lat="47.15224" lon="-1.63638">
        <ele>73</ele>
        <time>2021-07-17T07:07:43.000Z</time>
      </trkpt>
      <trkpt lat="47.15212" lon="-1.63647">
        <ele>73</ele>
        <time>2021-07-17T07:07:45.000Z</time>
      </trkpt>
      <trkpt lat="47.152" lon="-1.63658">
        <ele>73</ele>
        <time>2021-07-17T07:07:47.000Z</time>
      </trkpt>
      <trkpt lat="47.15188" lon="-1.63669">
        <ele>73</ele>
        <time>2021-07-17T07:07:49.000Z</time>
      </trkpt>
      <trkpt lat="47.15176" lon="-1.63679">
        <ele>72</ele>
        <time>2021-07-17T07:07:51.000Z</time>
      </trkpt>
      <trkpt lat="47.15164" lon="-1.6369">
        <ele>72</ele>
        <time>2021-07-17T07:07:53.000Z</time>
      </trkpt>
      <trkpt lat="47.15153" lon="-1.63701">
        <ele>72</ele>
        <time>2021-07-17T07:07:55.000Z</time>
      </trkpt>
      <trkpt lat="47.15142" lon="-1.63712">
        <ele>72</ele>
        <time>2021-07-17T07:07:57.000Z</time>
      </trkpt>
      <trkpt lat="47.1513" lon="-1.63723">
        <ele>71</ele>
        <time>2021-07-17T07:07:59.000Z</time>
      </trkpt>
      <trkpt lat="47.1512" lon="-1.63734">
        <ele>71</ele>
        <time>2021-07-17T07:08:01.000Z</time>
      </trkpt>
      <trkpt lat="47.15109" lon="-1.63746">
        <ele>72</ele>
        <time>2021-07-17T07:08:03.000Z</time>
      </trkpt>
      <trkpt lat="47.15098" lon="-1.63758">
        <ele>72</ele>
        <time>2021-07-17T07:08:05.000Z</time>
      </trkpt>
      <trkpt lat="47.15087" lon="-1.6377">
        <ele>72</ele>
        <time>2021-07-17T07:08:07.000Z</time>
      </trkpt>
      <trkpt lat="47.15076" lon="-1.63783">
        <ele>72</ele>
        <time>2021-07-17T07:08:09.000Z</time>
      </trkpt>
      <trkpt lat="47.15066" lon="-1.63796">
        <ele>72</ele>
        <time>2021-07-17T07:08:11.000Z</time>
      </trkpt>
      <trkpt lat="47.15055" lon="-1.63809">
        <ele>72</ele>
        <time>2021-07-17T07:08:13.000Z</time>
      </trkpt>
      <trkpt lat="47.15045" lon="-1.63822">
        <ele>72</ele>
        <time>2021-07-17T07:08:15.000Z</time>
      </trkpt>
      <trkpt lat="47.15035" lon="-1.63836">
        <ele>72</ele>
        <time>2021-07-17T07:08:17.000Z</time>
      </trkpt>
      <trkpt lat="47.15025" lon="-1.6385">
        <ele>72</ele>
        <time>2021-07-17T07:08:19.000Z</time>
      </trkpt>
      <trkpt lat="47.15015" lon="-1.63864">
        <ele>72</ele>
        <time>2021-07-17T07:08:21.000Z</time>
      </trkpt>
      <trkpt lat="47.15006" lon="-1.63878">
        <ele>73</ele>
        <time>2021-07-17T07:08:23.000Z</time>
      </trkpt>
      <trkpt lat="47.14997" lon="-1.63893">
        <ele>73</ele>
        <time>2021-07-17T07:08:25.000Z</time>
      </trkpt>
      <trkpt lat="47.14987" lon="-1.63907">
        <ele>73</ele>
        <time>2021-07-17T07:08:27.000Z</time>
      </trkpt>
      <trkpt lat="47.14978" lon="-1.63921">
        <ele>72</ele>
        <time>2021-07-17T07:08:29.000Z</time>
      </trkpt>
      <trkpt lat="47.1497" lon="-1.63935">
        <ele>73</ele>
        <time>2021-07-17T07:08:31.000Z</time>
      </trkpt>
      <trkpt lat="47.14961" lon="-1.6395">
        <ele>73</ele>
        <time>2021-07-17T07:08:33.000Z</time>
      </trkpt>
      <trkpt lat="47.14953" lon="-1.63964">
        <ele>73</ele>
        <time>2021-07-17T07:08:35.000Z</time>
      </trkpt>
      <trkpt lat="47.14945" lon="-1.63979">
        <ele>73</ele>
        <time>2021-07-17T07:08:37.000Z</time>
      </trkpt>
      <trkpt lat="47.14937" lon="-1.63995">
        <ele>73</ele>
        <time>2021-07-17T07:08:39.000Z</time>
      </trkpt>
      <trkpt lat="47.14928" lon="-1.6401">
        <ele>74</ele>
        <time>2021-07-17T07:08:41.000Z</time>
      </trkpt>
      <trkpt lat="47.1492" lon="-1.64026">
        <ele>74</ele>
        <time>2021-07-17T07:08:43.000Z</time>
      </trkpt>
      <trkpt lat="47.14912" lon="-1.64041">
        <ele>73</ele>
        <time>2021-07-17T07:08:45.000Z</time>
      </trkpt>
      <trkpt lat="47.14905" lon="-1.64057">
        <ele>73</ele>
        <time>2021-07-17T07:08:47.000Z</time>
      </trkpt>
      <trkpt lat="47.14897" lon="-1.64073">
        <ele>73</ele>
        <time>2021-07-17T07:08:49.000Z</time>
      </trkpt>
      <trkpt lat="47.1489" lon="-1.64091">
        <ele>73</ele>
        <time>2021-07-17T07:08:51.000Z</time>
      </trkpt>
      <trkpt lat="47.14885" lon="-1.64109">
        <ele>73</ele>
        <time>2021-07-17T07:08:53.000Z</time>
      </trkpt>
      <trkpt lat="47.14878" lon="-1.64126">
        <ele>73</ele>
        <time>2021-07-17T07:08:55.000Z</time>
      </trkpt>
      <trkpt lat="47.14872" lon="-1.64142">
        <ele>73</ele>
        <time>2021-07-17T07:08:57.000Z</time>
      </trkpt>
      <trkpt lat="47.14864" lon="-1.64158">
        <ele>73</ele>
        <time>2021-07-17T07:08:59.000Z</time>
      </trkpt>
      <trkpt lat="47.14856" lon="-1.64173">
        <ele>73</ele>
        <time>2021-07-17T07:09:01.000Z</time>
      </trkpt>
      <trkpt lat="47.1485" lon="-1.6419">
        <ele>73</ele>
        <time>2021-07-17T07:09:03.000Z</time>
      </trkpt>
      <trkpt lat="47.14844" lon="-1.64208">
        <ele>73</ele>
        <time>2021-07-17T07:09:05.000Z</time>
      </trkpt>
      <trkpt lat="47.14838" lon="-1.64226">
        <ele>73</ele>
        <time>2021-07-17T07:09:07.000Z</time>
      </trkpt>
      <trkpt lat="47.14832" lon="-1.64244">
        <ele>73</ele>
        <time>2021-07-17T07:09:09.000Z</time>
      </trkpt>
      <trkpt lat="47.14827" lon="-1.64262">
        <ele>73</ele>
        <time>2021-07-17T07:09:11.000Z</time>
      </trkpt>
      <trkpt lat="47.14822" lon="-1.6428">
        <ele>73</ele>
        <time>2021-07-17T07:09:13.000Z</time>
      </trkpt>
      <trkpt lat="47.14816" lon="-1.64299">
        <ele>74</ele>
        <time>2021-07-17T07:09:15.000Z</time>
      </trkpt>
      <trkpt lat="47.14811" lon="-1.64317">
        <ele>74</ele>
        <time>2021-07-17T07:09:17.000Z</time>
      </trkpt>
      <trkpt lat="47.14806" lon="-1.64335">
        <ele>74</ele>
        <time>2021-07-17T07:09:19.000Z</time>
      </trkpt>
      <trkpt lat="47.14801" lon="-1.64354">
        <ele>74</ele>
        <time>2021-07-17T07:09:21.000Z</time>
      </trkpt>
      <trkpt lat="47.14797" lon="-1.64374">
        <ele>74</ele>
        <time>2021-07-17T07:09:23.000Z</time>
      </trkpt>
      <trkpt lat="47.14792" lon="-1.64393">
        <ele>74</ele>
        <time>2021-07-17T07:09:25.000Z</time>
      </trkpt>
      <trkpt lat="47.14789" lon="-1.64412">
        <ele>74</ele>
        <time>2021-07-17T07:09:27.000Z</time>
      </trkpt>
      <trkpt lat="47.14785" lon="-1.64431">
        <ele>74</ele>
        <time>2021-07-17T07:09:29.000Z</time>
      </trkpt>
      <trkpt lat="47.14781" lon="-1.64451">
        <ele>74</ele>
        <time>2021-07-17T07:09:31.000Z</time>
      </trkpt>
      <trkpt lat="47.14778" lon="-1.6447">
        <ele>74</ele>
        <time>2021-07-17T07:09:33.000Z</time>
      </trkpt>
      <trkpt lat="47.14774" lon="-1.64489">
        <ele>74</ele>
        <time>2021-07-17T07:09:35.000Z</time>
      </trkpt>
      <trkpt lat="47.14771" lon="-1.64508">
        <ele>74</ele>
        <time>2021-07-17T07:09:37.000Z</time>
      </trkpt>
      <trkpt lat="47.14768" lon="-1.64527">
        <ele>74</ele>
        <time>2021-07-17T07:09:39.000Z</time>
      </trkpt>
      <trkpt lat="47.14766" lon="-1.64547">
        <ele>74</ele>
        <time>2021-07-17T07:09:41.000Z</time>
      </trkpt>
      <trkpt lat="47.14762" lon="-1.64566">
        <ele>73</ele>
        <time>2021-07-17T07:09:43.000Z</time>
      </trkpt>
      <trkpt lat="47.14759" lon="-1.64586">
        <ele>73</ele>
        <time>2021-07-17T07:09:45.000Z</time>
      </trkpt>
      <trkpt lat="47.14756" lon="-1.64606">
        <ele>73</ele>
        <time>2021-07-17T07:09:47.000Z</time>
      </trkpt>
      <trkpt lat="47.14753" lon="-1.64625">
        <ele>73</ele>
        <time>2021-07-17T07:09:49.000Z</time>
      </trkpt>
      <trkpt lat="47.14749" lon="-1.64645">
        <ele>73</ele>
        <time>2021-07-17T07:09:51.000Z</time>
      </trkpt>
      <trkpt lat="47.14746" lon="-1.64665">
        <ele>73</ele>
        <time>2021-07-17T07:09:53.000Z</time>
      </trkpt>
      <trkpt lat="47.14743" lon="-1.64685">
        <ele>73</ele>
        <time>2021-07-17T07:09:55.000Z</time>
      </trkpt>
      <trkpt lat="47.14739" lon="-1.64704">
        <ele>73</ele>
        <time>2021-07-17T07:09:57.000Z</time>
      </trkpt>
      <trkpt lat="47.14736" lon="-1.64725">
        <ele>72</ele>
        <time>2021-07-17T07:09:59.000Z</time>
      </trkpt>
      <trkpt lat="47.14731" lon="-1.64745">
        <ele>72</ele>
        <time>2021-07-17T07:10:01.000Z</time>
      </trkpt>
      <trkpt lat="47.14726" lon="-1.64766">
        <ele>71</ele>
        <time>2021-07-17T07:10:03.000Z</time>
      </trkpt>
      <trkpt lat="47.14721" lon="-1.64787">
        <ele>70</ele>
        <time>2021-07-17T07:10:05.000Z</time>
      </trkpt>
      <trkpt lat="47.14716" lon="-1.64808">
        <ele>70</ele>
        <time>2021-07-17T07:10:07.000Z</time>
      </trkpt>
      <trkpt lat="47.1471" lon="-1.64829">
        <ele>69</ele>
        <time>2021-07-17T07:10:09.000Z</time>
      </trkpt>
      <trkpt lat="47.14703" lon="-1.64849">
        <ele>69</ele>
        <time>2021-07-17T07:10:11.000Z</time>
      </trkpt>
      <trkpt lat="47.14697" lon="-1.6487">
        <ele>69</ele>
        <time>2021-07-17T07:10:13.000Z</time>
      </trkpt>
      <trkpt lat="47.14691" lon="-1.64891">
        <ele>68</ele>
        <time>2021-07-17T07:10:15.000Z</time>
      </trkpt>
      <trkpt lat="47.14685" lon="-1.64912">
        <ele>68</ele>
        <time>2021-07-17T07:10:17.000Z</time>
      </trkpt>
      <trkpt lat="47.14678" lon="-1.64932">
        <ele>68</ele>
        <time>2021-07-17T07:10:19.000Z</time>
      </trkpt>
      <trkpt lat="47.14671" lon="-1.64953">
        <ele>68</ele>
        <time>2021-07-17T07:10:21.000Z</time>
      </trkpt>
      <trkpt lat="47.14664" lon="-1.64973">
        <ele>67</ele>
        <time>2021-07-17T07:10:23.000Z</time>
      </trkpt>
      <trkpt lat="47.14657" lon="-1.64993">
        <ele>67</ele>
        <time>2021-07-17T07:10:25.000Z</time>
      </trkpt>
      <trkpt lat="47.1465" lon="-1.65012">
        <ele>66</ele>
        <time>2021-07-17T07:10:27.000Z</time>
      </trkpt>
      <trkpt lat="47.14643" lon="-1.65032">
        <ele>66</ele>
        <time>2021-07-17T07:10:29.000Z</time>
      </trkpt>
      <trkpt lat="47.14635" lon="-1.65051">
        <ele>66</ele>
        <time>2021-07-17T07:10:31.000Z</time>
      </trkpt>
      <trkpt lat="47.14628" lon="-1.65071">
        <ele>66</ele>
        <time>2021-07-17T07:10:33.000Z</time>
      </trkpt>
      <trkpt lat="47.1462" lon="-1.65089">
        <ele>65</ele>
        <time>2021-07-17T07:10:35.000Z</time>
      </trkpt>
      <trkpt lat="47.14613" lon="-1.65108">
        <ele>65</ele>
        <time>2021-07-17T07:10:37.000Z</time>
      </trkpt>
      <trkpt lat="47.14606" lon="-1.65127">
        <ele>65</ele>
        <time>2021-07-17T07:10:39.000Z</time>
      </trkpt>
      <trkpt lat="47.14599" lon="-1.65146">
        <ele>65</ele>
        <time>2021-07-17T07:10:41.000Z</time>
      </trkpt>
      <trkpt lat="47.14592" lon="-1.65166">
        <ele>65</ele>
        <time>2021-07-17T07:10:43.000Z</time>
      </trkpt>
      <trkpt lat="47.14586" lon="-1.65186">
        <ele>64</ele>
        <time>2021-07-17T07:10:45.000Z</time>
      </trkpt>
      <trkpt lat="47.14581" lon="-1.65207">
        <ele>65</ele>
        <time>2021-07-17T07:10:47.000Z</time>
      </trkpt>
      <trkpt lat="47.14576" lon="-1.65227">
        <ele>65</ele>
        <time>2021-07-17T07:10:49.000Z</time>
      </trkpt>
      <trkpt lat="47.14572" lon="-1.65247">
        <ele>65</ele>
        <time>2021-07-17T07:10:51.000Z</time>
      </trkpt>
      <trkpt lat="47.14567" lon="-1.65268">
        <ele>65</ele>
        <time>2021-07-17T07:10:53.000Z</time>
      </trkpt>
      <trkpt lat="47.14563" lon="-1.65288">
        <ele>65</ele>
        <time>2021-07-17T07:10:55.000Z</time>
      </trkpt>
      <trkpt lat="47.14558" lon="-1.65308">
        <ele>64</ele>
        <time>2021-07-17T07:10:57.000Z</time>
      </trkpt>
      <trkpt lat="47.14554" lon="-1.65328">
        <ele>64</ele>
        <time>2021-07-17T07:10:59.000Z</time>
      </trkpt>
      <trkpt lat="47.1455" lon="-1.65348">
        <ele>64</ele>
        <time>2021-07-17T07:11:01.000Z</time>
      </trkpt>
      <trkpt lat="47.14545" lon="-1.65367">
        <ele>64</ele>
        <time>2021-07-17T07:11:03.000Z</time>
      </trkpt>
      <trkpt lat="47.1454" lon="-1.65385">
        <ele>65</ele>
        <time>2021-07-17T07:11:05.000Z</time>
      </trkpt>
      <trkpt lat="47.14535" lon="-1.65404">
        <ele>65</ele>
        <time>2021-07-17T07:11:07.000Z</time>
      </trkpt>
      <trkpt lat="47.1453" lon="-1.65422">
        <ele>65</ele>
        <time>2021-07-17T07:11:09.000Z</time>
      </trkpt>
      <trkpt lat="47.14524" lon="-1.6544">
        <ele>65</ele>
        <time>2021-07-17T07:11:11.000Z</time>
      </trkpt>
      <trkpt lat="47.14518" lon="-1.65459">
        <ele>65</ele>
        <time>2021-07-17T07:11:13.000Z</time>
      </trkpt>
      <trkpt lat="47.14511" lon="-1.65477">
        <ele>65</ele>
        <time>2021-07-17T07:11:15.000Z</time>
      </trkpt>
      <trkpt lat="47.14504" lon="-1.65495">
        <ele>65</ele>
        <time>2021-07-17T07:11:17.000Z</time>
      </trkpt>
      <trkpt lat="47.14497" lon="-1.65512">
        <ele>64</ele>
        <time>2021-07-17T07:11:19.000Z</time>
      </trkpt>
      <trkpt lat="47.1449" lon="-1.6553">
        <ele>65</ele>
        <time>2021-07-17T07:11:21.000Z</time>
      </trkpt>
      <trkpt lat="47.14482" lon="-1.65548">
        <ele>65</ele>
        <time>2021-07-17T07:11:23.000Z</time>
      </trkpt>
      <trkpt lat="47.14475" lon="-1.65566">
        <ele>65</ele>
        <time>2021-07-17T07:11:25.000Z</time>
      </trkpt>
      <trkpt lat="47.14468" lon="-1.65584">
        <ele>65</ele>
        <time>2021-07-17T07:11:27.000Z</time>
      </trkpt>
      <trkpt lat="47.14461" lon="-1.65603">
        <ele>64</ele>
        <time>2021-07-17T07:11:29.000Z</time>
      </trkpt>
      <trkpt lat="47.14454" lon="-1.65622">
        <ele>64</ele>
        <time>2021-07-17T07:11:31.000Z</time>
      </trkpt>
      <trkpt lat="47.14447" lon="-1.65641">
        <ele>64</ele>
        <time>2021-07-17T07:11:33.000Z</time>
      </trkpt>
      <trkpt lat="47.14441" lon="-1.6566">
        <ele>64</ele>
        <time>2021-07-17T07:11:35.000Z</time>
      </trkpt>
      <trkpt lat="47.14435" lon="-1.65679">
        <ele>64</ele>
        <time>2021-07-17T07:11:37.000Z</time>
      </trkpt>
      <trkpt lat="47.1443" lon="-1.65698">
        <ele>64</ele>
        <time>2021-07-17T07:11:39.000Z</time>
      </trkpt>
      <trkpt lat="47.14425" lon="-1.65717">
        <ele>64</ele>
        <time>2021-07-17T07:11:41.000Z</time>
      </trkpt>
      <trkpt lat="47.14421" lon="-1.65738">
        <ele>64</ele>
        <time>2021-07-17T07:11:43.000Z</time>
      </trkpt>
      <trkpt lat="47.14417" lon="-1.65757">
        <ele>64</ele>
        <time>2021-07-17T07:11:45.000Z</time>
      </trkpt>
      <trkpt lat="47.14414" lon="-1.65777">
        <ele>64</ele>
        <time>2021-07-17T07:11:47.000Z</time>
      </trkpt>
      <trkpt lat="47.1441" lon="-1.65806">
        <ele>64</ele>
        <time>2021-07-17T07:11:50.000Z</time>
      </trkpt>
      <trkpt lat="47.14407" lon="-1.65826">
        <ele>64</ele>
        <time>2021-07-17T07:11:52.000Z</time>
      </trkpt>
      <trkpt lat="47.14405" lon="-1.65845">
        <ele>65</ele>
        <time>2021-07-17T07:11:54.000Z</time>
      </trkpt>
      <trkpt lat="47.14404" lon="-1.65865">
        <ele>64</ele>
        <time>2021-07-17T07:11:56.000Z</time>
      </trkpt>
      <trkpt lat="47.14402" lon="-1.65893">
        <ele>65</ele>
        <time>2021-07-17T07:11:59.000Z</time>
      </trkpt>
      <trkpt lat="47.14402" lon="-1.65913">
        <ele>65</ele>
        <time>2021-07-17T07:12:01.000Z</time>
      </trkpt>
      <trkpt lat="47.144" lon="-1.65932">
        <ele>64</ele>
        <time>2021-07-17T07:12:03.000Z</time>
      </trkpt>
      <trkpt lat="47.14399" lon="-1.6596">
        <ele>65</ele>
        <time>2021-07-17T07:12:06.000Z</time>
      </trkpt>
      <trkpt lat="47.14398" lon="-1.65979">
        <ele>65</ele>
        <time>2021-07-17T07:12:08.000Z</time>
      </trkpt>
      <trkpt lat="47.14397" lon="-1.65998">
        <ele>65</ele>
        <time>2021-07-17T07:12:10.000Z</time>
      </trkpt>
      <trkpt lat="47.14397" lon="-1.66018">
        <ele>65</ele>
        <time>2021-07-17T07:12:12.000Z</time>
      </trkpt>
      <trkpt lat="47.14397" lon="-1.66037">
        <ele>65</ele>
        <time>2021-07-17T07:12:14.000Z</time>
      </trkpt>
      <trkpt lat="47.14396" lon="-1.66057">
        <ele>66</ele>
        <time>2021-07-17T07:12:16.000Z</time>
      </trkpt>
      <trkpt lat="47.14395" lon="-1.66076">
        <ele>65</ele>
        <time>2021-07-17T07:12:18.000Z</time>
      </trkpt>
      <trkpt lat="47.14392" lon="-1.66095">
        <ele>65</ele>
        <time>2021-07-17T07:12:20.000Z</time>
      </trkpt>
      <trkpt lat="47.14389" lon="-1.66113">
        <ele>66</ele>
        <time>2021-07-17T07:12:22.000Z</time>
      </trkpt>
      <trkpt lat="47.14386" lon="-1.66132">
        <ele>65</ele>
        <time>2021-07-17T07:12:24.000Z</time>
      </trkpt>
      <trkpt lat="47.14385" lon="-1.6615">
        <ele>65</ele>
        <time>2021-07-17T07:12:26.000Z</time>
      </trkpt>
      <trkpt lat="47.14387" lon="-1.66168">
        <ele>65</ele>
        <time>2021-07-17T07:12:28.000Z</time>
      </trkpt>
      <trkpt lat="47.14387" lon="-1.66187">
        <ele>65</ele>
        <time>2021-07-17T07:12:30.000Z</time>
      </trkpt>
      <trkpt lat="47.14379" lon="-1.66202">
        <ele>65</ele>
        <time>2021-07-17T07:12:32.000Z</time>
      </trkpt>
      <trkpt lat="47.14372" lon="-1.66219">
        <ele>65</ele>
        <time>2021-07-17T07:12:34.000Z</time>
      </trkpt>
      <trkpt lat="47.14367" lon="-1.66238">
        <ele>64</ele>
        <time>2021-07-17T07:12:36.000Z</time>
      </trkpt>
      <trkpt lat="47.14363" lon="-1.66258">
        <ele>64</ele>
        <time>2021-07-17T07:12:38.000Z</time>
      </trkpt>
      <trkpt lat="47.14359" lon="-1.66277">
        <ele>64</ele>
        <time>2021-07-17T07:12:40.000Z</time>
      </trkpt>
      <trkpt lat="47.14354" lon="-1.66296">
        <ele>64</ele>
        <time>2021-07-17T07:12:42.000Z</time>
      </trkpt>
      <trkpt lat="47.14349" lon="-1.66314">
        <ele>64</ele>
        <time>2021-07-17T07:12:44.000Z</time>
      </trkpt>
      <trkpt lat="47.14344" lon="-1.66333">
        <ele>64</ele>
        <time>2021-07-17T07:12:46.000Z</time>
      </trkpt>
      <trkpt lat="47.14339" lon="-1.66352">
        <ele>64</ele>
        <time>2021-07-17T07:12:48.000Z</time>
      </trkpt>
      <trkpt lat="47.14334" lon="-1.66371">
        <ele>64</ele>
        <time>2021-07-17T07:12:50.000Z</time>
      </trkpt>
      <trkpt lat="47.1433" lon="-1.6639">
        <ele>64</ele>
        <time>2021-07-17T07:12:52.000Z</time>
      </trkpt>
      <trkpt lat="47.14325" lon="-1.66409">
        <ele>65</ele>
        <time>2021-07-17T07:12:54.000Z</time>
      </trkpt>
      <trkpt lat="47.14321" lon="-1.66427">
        <ele>64</ele>
        <time>2021-07-17T07:12:56.000Z</time>
      </trkpt>
      <trkpt lat="47.14316" lon="-1.66446">
        <ele>64</ele>
        <time>2021-07-17T07:12:58.000Z</time>
      </trkpt>
      <trkpt lat="47.14311" lon="-1.66464">
        <ele>64</ele>
        <time>2021-07-17T07:13:00.000Z</time>
      </trkpt>
      <trkpt lat="47.14306" lon="-1.66484">
        <ele>63</ele>
        <time>2021-07-17T07:13:02.000Z</time>
      </trkpt>
      <trkpt lat="47.14301" lon="-1.66502">
        <ele>63</ele>
        <time>2021-07-17T07:13:04.000Z</time>
      </trkpt>
      <trkpt lat="47.14297" lon="-1.6652">
        <ele>64</ele>
        <time>2021-07-17T07:13:06.000Z</time>
      </trkpt>
      <trkpt lat="47.14292" lon="-1.66539">
        <ele>63</ele>
        <time>2021-07-17T07:13:08.000Z</time>
      </trkpt>
      <trkpt lat="47.14287" lon="-1.66558">
        <ele>63</ele>
        <time>2021-07-17T07:13:10.000Z</time>
      </trkpt>
      <trkpt lat="47.14282" lon="-1.66577">
        <ele>63</ele>
        <time>2021-07-17T07:13:12.000Z</time>
      </trkpt>
      <trkpt lat="47.14277" lon="-1.66596">
        <ele>63</ele>
        <time>2021-07-17T07:13:14.000Z</time>
      </trkpt>
      <trkpt lat="47.14271" lon="-1.66616">
        <ele>63</ele>
        <time>2021-07-17T07:13:16.000Z</time>
      </trkpt>
      <trkpt lat="47.14265" lon="-1.66637">
        <ele>62</ele>
        <time>2021-07-17T07:13:18.000Z</time>
      </trkpt>
      <trkpt lat="47.14258" lon="-1.66657">
        <ele>62</ele>
        <time>2021-07-17T07:13:20.000Z</time>
      </trkpt>
      <trkpt lat="47.14251" lon="-1.66677">
        <ele>62</ele>
        <time>2021-07-17T07:13:22.000Z</time>
      </trkpt>
      <trkpt lat="47.14244" lon="-1.66697">
        <ele>61</ele>
        <time>2021-07-17T07:13:24.000Z</time>
      </trkpt>
      <trkpt lat="47.14238" lon="-1.66717">
        <ele>61</ele>
        <time>2021-07-17T07:13:26.000Z</time>
      </trkpt>
      <trkpt lat="47.14232" lon="-1.66736">
        <ele>61</ele>
        <time>2021-07-17T07:13:28.000Z</time>
      </trkpt>
      <trkpt lat="47.14225" lon="-1.66756">
        <ele>61</ele>
        <time>2021-07-17T07:13:30.000Z</time>
      </trkpt>
      <trkpt lat="47.14219" lon="-1.66775">
        <ele>61</ele>
        <time>2021-07-17T07:13:32.000Z</time>
      </trkpt>
      <trkpt lat="47.14213" lon="-1.66794">
        <ele>61</ele>
        <time>2021-07-17T07:13:34.000Z</time>
      </trkpt>
      <trkpt lat="47.14207" lon="-1.66813">
        <ele>61</ele>
        <time>2021-07-17T07:13:36.000Z</time>
      </trkpt>
      <trkpt lat="47.14201" lon="-1.66831">
        <ele>61</ele>
        <time>2021-07-17T07:13:38.000Z</time>
      </trkpt>
      <trkpt lat="47.14194" lon="-1.66849">
        <ele>61</ele>
        <time>2021-07-17T07:13:40.000Z</time>
      </trkpt>
      <trkpt lat="47.1419" lon="-1.66867">
        <ele>61</ele>
        <time>2021-07-17T07:13:42.000Z</time>
      </trkpt>
      <trkpt lat="47.14187" lon="-1.66887">
        <ele>62</ele>
        <time>2021-07-17T07:13:44.000Z</time>
      </trkpt>
      <trkpt lat="47.14182" lon="-1.66904">
        <ele>62</ele>
        <time>2021-07-17T07:13:46.000Z</time>
      </trkpt>
      <trkpt lat="47.14178" lon="-1.66923">
        <ele>62</ele>
        <time>2021-07-17T07:13:48.000Z</time>
      </trkpt>
      <trkpt lat="47.14174" lon="-1.66941">
        <ele>62</ele>
        <time>2021-07-17T07:13:50.000Z</time>
      </trkpt>
      <trkpt lat="47.14173" lon="-1.66961">
        <ele>63</ele>
        <time>2021-07-17T07:13:52.000Z</time>
      </trkpt>
      <trkpt lat="47.14171" lon="-1.6698">
        <ele>63</ele>
        <time>2021-07-17T07:13:54.000Z</time>
      </trkpt>
      <trkpt lat="47.1417" lon="-1.67">
        <ele>63</ele>
        <time>2021-07-17T07:13:56.000Z</time>
      </trkpt>
      <trkpt lat="47.14171" lon="-1.67019">
        <ele>63</ele>
        <time>2021-07-17T07:13:58.000Z</time>
      </trkpt>
      <trkpt lat="47.14172" lon="-1.67038">
        <ele>63</ele>
        <time>2021-07-17T07:14:00.000Z</time>
      </trkpt>
      <trkpt lat="47.14174" lon="-1.67056">
        <ele>63</ele>
        <time>2021-07-17T07:14:02.000Z</time>
      </trkpt>
      <trkpt lat="47.14175" lon="-1.67075">
        <ele>63</ele>
        <time>2021-07-17T07:14:04.000Z</time>
      </trkpt>
      <trkpt lat="47.14177" lon="-1.67094">
        <ele>64</ele>
        <time>2021-07-17T07:14:06.000Z</time>
      </trkpt>
      <trkpt lat="47.1418" lon="-1.67113">
        <ele>64</ele>
        <time>2021-07-17T07:14:08.000Z</time>
      </trkpt>
      <trkpt lat="47.14183" lon="-1.6713">
        <ele>64</ele>
        <time>2021-07-17T07:14:10.000Z</time>
      </trkpt>
      <trkpt lat="47.14186" lon="-1.67148">
        <ele>64</ele>
        <time>2021-07-17T07:14:12.000Z</time>
      </trkpt>
      <trkpt lat="47.1419" lon="-1.67166">
        <ele>64</ele>
        <time>2021-07-17T07:14:14.000Z</time>
      </trkpt>
      <trkpt lat="47.14193" lon="-1.67181">
        <ele>64</ele>
        <time>2021-07-17T07:14:16.000Z</time>
      </trkpt>
      <trkpt lat="47.14197" lon="-1.67195">
        <ele>63</ele>
        <time>2021-07-17T07:14:18.000Z</time>
      </trkpt>
      <trkpt lat="47.14202" lon="-1.6721">
        <ele>63</ele>
        <time>2021-07-17T07:14:21.000Z</time>
      </trkpt>
      <trkpt lat="47.14205" lon="-1.67224">
        <ele>63</ele>
        <time>2021-07-17T07:14:24.000Z</time>
      </trkpt>
      <trkpt lat="47.14212" lon="-1.67233">
        <ele>64</ele>
        <time>2021-07-17T07:14:29.000Z</time>
      </trkpt>
      <trkpt lat="47.14215" lon="-1.6725">
        <ele>64</ele>
        <time>2021-07-17T07:14:32.000Z</time>
      </trkpt>
      <trkpt lat="47.14219" lon="-1.67269">
        <ele>64</ele>
        <time>2021-07-17T07:14:34.000Z</time>
      </trkpt>
      <trkpt lat="47.14225" lon="-1.67285">
        <ele>65</ele>
        <time>2021-07-17T07:14:36.000Z</time>
      </trkpt>
      <trkpt lat="47.14231" lon="-1.67302">
        <ele>65</ele>
        <time>2021-07-17T07:14:38.000Z</time>
      </trkpt>
      <trkpt lat="47.14237" lon="-1.67319">
        <ele>64</ele>
        <time>2021-07-17T07:14:40.000Z</time>
      </trkpt>
      <trkpt lat="47.14244" lon="-1.67337">
        <ele>65</ele>
        <time>2021-07-17T07:14:42.000Z</time>
      </trkpt>
      <trkpt lat="47.1425" lon="-1.67353">
        <ele>65</ele>
        <time>2021-07-17T07:14:44.000Z</time>
      </trkpt>
      <trkpt lat="47.14257" lon="-1.67369">
        <ele>65</ele>
        <time>2021-07-17T07:14:46.000Z</time>
      </trkpt>
      <trkpt lat="47.14263" lon="-1.67385">
        <ele>65</ele>
        <time>2021-07-17T07:14:48.000Z</time>
      </trkpt>
      <trkpt lat="47.14269" lon="-1.67401">
        <ele>65</ele>
        <time>2021-07-17T07:14:50.000Z</time>
      </trkpt>
      <trkpt lat="47.14276" lon="-1.67417">
        <ele>65</ele>
        <time>2021-07-17T07:14:52.000Z</time>
      </trkpt>
      <trkpt lat="47.14282" lon="-1.67434">
        <ele>64</ele>
        <time>2021-07-17T07:14:54.000Z</time>
      </trkpt>
      <trkpt lat="47.14288" lon="-1.67451">
        <ele>64</ele>
        <time>2021-07-17T07:14:56.000Z</time>
      </trkpt>
      <trkpt lat="47.14293" lon="-1.67469">
        <ele>64</ele>
        <time>2021-07-17T07:14:58.000Z</time>
      </trkpt>
      <trkpt lat="47.14298" lon="-1.67487">
        <ele>64</ele>
        <time>2021-07-17T07:15:00.000Z</time>
      </trkpt>
      <trkpt lat="47.14303" lon="-1.67506">
        <ele>64</ele>
        <time>2021-07-17T07:15:02.000Z</time>
      </trkpt>
      <trkpt lat="47.14307" lon="-1.67525">
        <ele>64</ele>
        <time>2021-07-17T07:15:04.000Z</time>
      </trkpt>
      <trkpt lat="47.1431" lon="-1.67544">
        <ele>64</ele>
        <time>2021-07-17T07:15:06.000Z</time>
      </trkpt>
      <trkpt lat="47.14311" lon="-1.67564">
        <ele>64</ele>
        <time>2021-07-17T07:15:08.000Z</time>
      </trkpt>
      <trkpt lat="47.14312" lon="-1.67585">
        <ele>64</ele>
        <time>2021-07-17T07:15:10.000Z</time>
      </trkpt>
      <trkpt lat="47.14313" lon="-1.67604">
        <ele>64</ele>
        <time>2021-07-17T07:15:12.000Z</time>
      </trkpt>
      <trkpt lat="47.14314" lon="-1.67624">
        <ele>64</ele>
        <time>2021-07-17T07:15:14.000Z</time>
      </trkpt>
      <trkpt lat="47.14316" lon="-1.67643">
        <ele>64</ele>
        <time>2021-07-17T07:15:16.000Z</time>
      </trkpt>
      <trkpt lat="47.14318" lon="-1.67662">
        <ele>64</ele>
        <time>2021-07-17T07:15:18.000Z</time>
      </trkpt>
      <trkpt lat="47.14321" lon="-1.67681">
        <ele>64</ele>
        <time>2021-07-17T07:15:20.000Z</time>
      </trkpt>
      <trkpt lat="47.14325" lon="-1.67698">
        <ele>64</ele>
        <time>2021-07-17T07:15:22.000Z</time>
      </trkpt>
      <trkpt lat="47.1433" lon="-1.67716">
        <ele>64</ele>
        <time>2021-07-17T07:15:24.000Z</time>
      </trkpt>
      <trkpt lat="47.14335" lon="-1.67733">
        <ele>64</ele>
        <time>2021-07-17T07:15:26.000Z</time>
      </trkpt>
      <trkpt lat="47.1434" lon="-1.67751">
        <ele>64</ele>
        <time>2021-07-17T07:15:28.000Z</time>
      </trkpt>
      <trkpt lat="47.14345" lon="-1.67769">
        <ele>64</ele>
        <time>2021-07-17T07:15:30.000Z</time>
      </trkpt>
      <trkpt lat="47.1435" lon="-1.67788">
        <ele>64</ele>
        <time>2021-07-17T07:15:32.000Z</time>
      </trkpt>
      <trkpt lat="47.14355" lon="-1.67806">
        <ele>63</ele>
        <time>2021-07-17T07:15:34.000Z</time>
      </trkpt>
      <trkpt lat="47.14359" lon="-1.67824">
        <ele>63</ele>
        <time>2021-07-17T07:15:36.000Z</time>
      </trkpt>
      <trkpt lat="47.14363" lon="-1.67843">
        <ele>63</ele>
        <time>2021-07-17T07:15:38.000Z</time>
      </trkpt>
      <trkpt lat="47.14372" lon="-1.67857">
        <ele>63</ele>
        <time>2021-07-17T07:15:40.000Z</time>
      </trkpt>
      <trkpt lat="47.14378" lon="-1.67874">
        <ele>63</ele>
        <time>2021-07-17T07:15:42.000Z</time>
      </trkpt>
      <trkpt lat="47.14376" lon="-1.67893">
        <ele>63</ele>
        <time>2021-07-17T07:15:44.000Z</time>
      </trkpt>
      <trkpt lat="47.14371" lon="-1.6791">
        <ele>63</ele>
        <time>2021-07-17T07:15:46.000Z</time>
      </trkpt>
      <trkpt lat="47.14371" lon="-1.6793">
        <ele>63</ele>
        <time>2021-07-17T07:15:48.000Z</time>
      </trkpt>
      <trkpt lat="47.14372" lon="-1.67948">
        <ele>63</ele>
        <time>2021-07-17T07:15:50.000Z</time>
      </trkpt>
      <trkpt lat="47.14373" lon="-1.67968">
        <ele>63</ele>
        <time>2021-07-17T07:15:52.000Z</time>
      </trkpt>
      <trkpt lat="47.14373" lon="-1.67987">
        <ele>63</ele>
        <time>2021-07-17T07:15:54.000Z</time>
      </trkpt>
      <trkpt lat="47.14373" lon="-1.68006">
        <ele>64</ele>
        <time>2021-07-17T07:15:56.000Z</time>
      </trkpt>
      <trkpt lat="47.14375" lon="-1.68025">
        <ele>64</ele>
        <time>2021-07-17T07:15:58.000Z</time>
      </trkpt>
      <trkpt lat="47.14376" lon="-1.68045">
        <ele>65</ele>
        <time>2021-07-17T07:16:00.000Z</time>
      </trkpt>
      <trkpt lat="47.14377" lon="-1.68065">
        <ele>65</ele>
        <time>2021-07-17T07:16:02.000Z</time>
      </trkpt>
      <trkpt lat="47.14378" lon="-1.68084">
        <ele>65</ele>
        <time>2021-07-17T07:16:04.000Z</time>
      </trkpt>
      <trkpt lat="47.14379" lon="-1.68103">
        <ele>64</ele>
        <time>2021-07-17T07:16:06.000Z</time>
      </trkpt>
      <trkpt lat="47.14381" lon="-1.68122">
        <ele>64</ele>
        <time>2021-07-17T07:16:08.000Z</time>
      </trkpt>
      <trkpt lat="47.14382" lon="-1.6814">
        <ele>65</ele>
        <time>2021-07-17T07:16:10.000Z</time>
      </trkpt>
      <trkpt lat="47.14384" lon="-1.68159">
        <ele>64</ele>
        <time>2021-07-17T07:16:12.000Z</time>
      </trkpt>
      <trkpt lat="47.14386" lon="-1.68177">
        <ele>65</ele>
        <time>2021-07-17T07:16:14.000Z</time>
      </trkpt>
      <trkpt lat="47.14388" lon="-1.68196">
        <ele>64</ele>
        <time>2021-07-17T07:16:16.000Z</time>
      </trkpt>
      <trkpt lat="47.1439" lon="-1.68214">
        <ele>64</ele>
        <time>2021-07-17T07:16:18.000Z</time>
      </trkpt>
      <trkpt lat="47.14398" lon="-1.68227">
        <ele>63</ele>
        <time>2021-07-17T07:16:20.000Z</time>
      </trkpt>
      <trkpt lat="47.14406" lon="-1.68238">
        <ele>64</ele>
        <time>2021-07-17T07:16:22.000Z</time>
      </trkpt>
      <trkpt lat="47.14402" lon="-1.68252">
        <ele>65</ele>
        <time>2021-07-17T07:16:24.000Z</time>
      </trkpt>
      <trkpt lat="47.14397" lon="-1.68269">
        <ele>64</ele>
        <time>2021-07-17T07:16:26.000Z</time>
      </trkpt>
      <trkpt lat="47.144" lon="-1.68288">
        <ele>63</ele>
        <time>2021-07-17T07:16:28.000Z</time>
      </trkpt>
      <trkpt lat="47.14403" lon="-1.68307">
        <ele>63</ele>
        <time>2021-07-17T07:16:30.000Z</time>
      </trkpt>
      <trkpt lat="47.14405" lon="-1.68327">
        <ele>63</ele>
        <time>2021-07-17T07:16:32.000Z</time>
      </trkpt>
      <trkpt lat="47.14407" lon="-1.68347">
        <ele>64</ele>
        <time>2021-07-17T07:16:34.000Z</time>
      </trkpt>
      <trkpt lat="47.14408" lon="-1.68366">
        <ele>64</ele>
        <time>2021-07-17T07:16:36.000Z</time>
      </trkpt>
      <trkpt lat="47.14409" lon="-1.68385">
        <ele>64</ele>
        <time>2021-07-17T07:16:38.000Z</time>
      </trkpt>
      <trkpt lat="47.14409" lon="-1.68404">
        <ele>64</ele>
        <time>2021-07-17T07:16:40.000Z</time>
      </trkpt>
      <trkpt lat="47.14408" lon="-1.68423">
        <ele>64</ele>
        <time>2021-07-17T07:16:42.000Z</time>
      </trkpt>
      <trkpt lat="47.14408" lon="-1.68442">
        <ele>64</ele>
        <time>2021-07-17T07:16:44.000Z</time>
      </trkpt>
      <trkpt lat="47.14407" lon="-1.68461">
        <ele>64</ele>
        <time>2021-07-17T07:16:46.000Z</time>
      </trkpt>
      <trkpt lat="47.14407" lon="-1.6848">
        <ele>64</ele>
        <time>2021-07-17T07:16:48.000Z</time>
      </trkpt>
      <trkpt lat="47.14408" lon="-1.68498">
        <ele>64</ele>
        <time>2021-07-17T07:16:50.000Z</time>
      </trkpt>
      <trkpt lat="47.14407" lon="-1.68516">
        <ele>65</ele>
        <time>2021-07-17T07:16:52.000Z</time>
      </trkpt>
      <trkpt lat="47.14405" lon="-1.68534">
        <ele>65</ele>
        <time>2021-07-17T07:16:54.000Z</time>
      </trkpt>
      <trkpt lat="47.14403" lon="-1.6855">
        <ele>66</ele>
        <time>2021-07-17T07:16:56.000Z</time>
      </trkpt>
      <trkpt lat="47.14402" lon="-1.68569">
        <ele>65</ele>
        <time>2021-07-17T07:16:58.000Z</time>
      </trkpt>
      <trkpt lat="47.14405" lon="-1.68589">
        <ele>65</ele>
        <time>2021-07-17T07:17:00.000Z</time>
      </trkpt>
      <trkpt lat="47.14407" lon="-1.68608">
        <ele>66</ele>
        <time>2021-07-17T07:17:02.000Z</time>
      </trkpt>
      <trkpt lat="47.1441" lon="-1.68623">
        <ele>66</ele>
        <time>2021-07-17T07:17:04.000Z</time>
      </trkpt>
      <trkpt lat="47.14414" lon="-1.68636">
        <ele>66</ele>
        <time>2021-07-17T07:17:06.000Z</time>
      </trkpt>
      <trkpt lat="47.14416" lon="-1.68652">
        <ele>66</ele>
        <time>2021-07-17T07:17:08.000Z</time>
      </trkpt>
      <trkpt lat="47.1442" lon="-1.68668">
        <ele>65</ele>
        <time>2021-07-17T07:17:10.000Z</time>
      </trkpt>
      <trkpt lat="47.14427" lon="-1.6868">
        <ele>65</ele>
        <time>2021-07-17T07:17:12.000Z</time>
      </trkpt>
      <trkpt lat="47.14422" lon="-1.68698">
        <ele>66</ele>
        <time>2021-07-17T07:17:15.000Z</time>
      </trkpt>
      <trkpt lat="47.14418" lon="-1.68715">
        <ele>65</ele>
        <time>2021-07-17T07:17:17.000Z</time>
      </trkpt>
      <trkpt lat="47.14417" lon="-1.68733">
        <ele>65</ele>
        <time>2021-07-17T07:17:19.000Z</time>
      </trkpt>
      <trkpt lat="47.14416" lon="-1.68752">
        <ele>66</ele>
        <time>2021-07-17T07:17:21.000Z</time>
      </trkpt>
      <trkpt lat="47.14416" lon="-1.68771">
        <ele>66</ele>
        <time>2021-07-17T07:17:23.000Z</time>
      </trkpt>
      <trkpt lat="47.14414" lon="-1.6879">
        <ele>67</ele>
        <time>2021-07-17T07:17:25.000Z</time>
      </trkpt>
      <trkpt lat="47.14412" lon="-1.6881">
        <ele>67</ele>
        <time>2021-07-17T07:17:27.000Z</time>
      </trkpt>
      <trkpt lat="47.1441" lon="-1.68828">
        <ele>67</ele>
        <time>2021-07-17T07:17:29.000Z</time>
      </trkpt>
      <trkpt lat="47.14409" lon="-1.68847">
        <ele>67</ele>
        <time>2021-07-17T07:17:31.000Z</time>
      </trkpt>
      <trkpt lat="47.14408" lon="-1.68866">
        <ele>68</ele>
        <time>2021-07-17T07:17:33.000Z</time>
      </trkpt>
      <trkpt lat="47.14406" lon="-1.68885">
        <ele>68</ele>
        <time>2021-07-17T07:17:35.000Z</time>
      </trkpt>
      <trkpt lat="47.14404" lon="-1.68904">
        <ele>68</ele>
        <time>2021-07-17T07:17:37.000Z</time>
      </trkpt>
      <trkpt lat="47.14403" lon="-1.68922">
        <ele>68</ele>
        <time>2021-07-17T07:17:39.000Z</time>
      </trkpt>
      <trkpt lat="47.14402" lon="-1.68941">
        <ele>68</ele>
        <time>2021-07-17T07:17:41.000Z</time>
      </trkpt>
      <trkpt lat="47.14402" lon="-1.68959">
        <ele>69</ele>
        <time>2021-07-17T07:17:43.000Z</time>
      </trkpt>
      <trkpt lat="47.14401" lon="-1.68977">
        <ele>69</ele>
        <time>2021-07-17T07:17:45.000Z</time>
      </trkpt>
      <trkpt lat="47.14402" lon="-1.68995">
        <ele>69</ele>
        <time>2021-07-17T07:17:47.000Z</time>
      </trkpt>
      <trkpt lat="47.14401" lon="-1.69013">
        <ele>69</ele>
        <time>2021-07-17T07:17:49.000Z</time>
      </trkpt>
      <trkpt lat="47.14399" lon="-1.69031">
        <ele>69</ele>
        <time>2021-07-17T07:17:51.000Z</time>
      </trkpt>
      <trkpt lat="47.14399" lon="-1.69049">
        <ele>70</ele>
        <time>2021-07-17T07:17:53.000Z</time>
      </trkpt>
      <trkpt lat="47.14398" lon="-1.69067">
        <ele>69</ele>
        <time>2021-07-17T07:17:55.000Z</time>
      </trkpt>
      <trkpt lat="47.14399" lon="-1.69085">
        <ele>70</ele>
        <time>2021-07-17T07:17:57.000Z</time>
      </trkpt>
      <trkpt lat="47.14398" lon="-1.69103">
        <ele>70</ele>
        <time>2021-07-17T07:17:59.000Z</time>
      </trkpt>
      <trkpt lat="47.14398" lon="-1.69121">
        <ele>70</ele>
        <time>2021-07-17T07:18:01.000Z</time>
      </trkpt>
      <trkpt lat="47.14398" lon="-1.6914">
        <ele>70</ele>
        <time>2021-07-17T07:18:03.000Z</time>
      </trkpt>
      <trkpt lat="47.14398" lon="-1.69158">
        <ele>70</ele>
        <time>2021-07-17T07:18:05.000Z</time>
      </trkpt>
      <trkpt lat="47.14397" lon="-1.69177">
        <ele>69</ele>
        <time>2021-07-17T07:18:07.000Z</time>
      </trkpt>
      <trkpt lat="47.14397" lon="-1.69196">
        <ele>69</ele>
        <time>2021-07-17T07:18:09.000Z</time>
      </trkpt>
      <trkpt lat="47.14397" lon="-1.69217">
        <ele>69</ele>
        <time>2021-07-17T07:18:11.000Z</time>
      </trkpt>
      <trkpt lat="47.14397" lon="-1.69237">
        <ele>68</ele>
        <time>2021-07-17T07:18:13.000Z</time>
      </trkpt>
      <trkpt lat="47.14397" lon="-1.69255">
        <ele>68</ele>
        <time>2021-07-17T07:18:15.000Z</time>
      </trkpt>
      <trkpt lat="47.14396" lon="-1.69275">
        <ele>68</ele>
        <time>2021-07-17T07:18:17.000Z</time>
      </trkpt>
      <trkpt lat="47.14396" lon="-1.69294">
        <ele>68</ele>
        <time>2021-07-17T07:18:19.000Z</time>
      </trkpt>
      <trkpt lat="47.14397" lon="-1.69315">
        <ele>68</ele>
        <time>2021-07-17T07:18:21.000Z</time>
      </trkpt>
      <trkpt lat="47.14395" lon="-1.69334">
        <ele>68</ele>
        <time>2021-07-17T07:18:23.000Z</time>
      </trkpt>
      <trkpt lat="47.14393" lon="-1.69352">
        <ele>67</ele>
        <time>2021-07-17T07:18:25.000Z</time>
      </trkpt>
      <trkpt lat="47.14391" lon="-1.6937">
        <ele>67</ele>
        <time>2021-07-17T07:18:27.000Z</time>
      </trkpt>
      <trkpt lat="47.14388" lon="-1.69388">
        <ele>68</ele>
        <time>2021-07-17T07:18:29.000Z</time>
      </trkpt>
      <trkpt lat="47.14386" lon="-1.69407">
        <ele>68</ele>
        <time>2021-07-17T07:18:31.000Z</time>
      </trkpt>
      <trkpt lat="47.14384" lon="-1.69427">
        <ele>68</ele>
        <time>2021-07-17T07:18:33.000Z</time>
      </trkpt>
      <trkpt lat="47.14384" lon="-1.69448">
        <ele>67</ele>
        <time>2021-07-17T07:18:35.000Z</time>
      </trkpt>
      <trkpt lat="47.14383" lon="-1.69469">
        <ele>67</ele>
        <time>2021-07-17T07:18:37.000Z</time>
      </trkpt>
      <trkpt lat="47.14383" lon="-1.6949">
        <ele>67</ele>
        <time>2021-07-17T07:18:39.000Z</time>
      </trkpt>
      <trkpt lat="47.14382" lon="-1.69512">
        <ele>67</ele>
        <time>2021-07-17T07:18:41.000Z</time>
      </trkpt>
      <trkpt lat="47.14378" lon="-1.69534">
        <ele>67</ele>
        <time>2021-07-17T07:18:43.000Z</time>
      </trkpt>
      <trkpt lat="47.14372" lon="-1.69556">
        <ele>66</ele>
        <time>2021-07-17T07:18:45.000Z</time>
      </trkpt>
      <trkpt lat="47.14365" lon="-1.69579">
        <ele>65</ele>
        <time>2021-07-17T07:18:47.000Z</time>
      </trkpt>
      <trkpt lat="47.14358" lon="-1.69601">
        <ele>64</ele>
        <time>2021-07-17T07:18:49.000Z</time>
      </trkpt>
      <trkpt lat="47.14351" lon="-1.69623">
        <ele>63</ele>
        <time>2021-07-17T07:18:51.000Z</time>
      </trkpt>
      <trkpt lat="47.14344" lon="-1.69645">
        <ele>62</ele>
        <time>2021-07-17T07:18:53.000Z</time>
      </trkpt>
      <trkpt lat="47.14337" lon="-1.69669">
        <ele>61</ele>
        <time>2021-07-17T07:18:55.000Z</time>
      </trkpt>
      <trkpt lat="47.14332" lon="-1.69693">
        <ele>61</ele>
        <time>2021-07-17T07:18:57.000Z</time>
      </trkpt>
      <trkpt lat="47.1432" lon="-1.6971">
        <ele>61</ele>
        <time>2021-07-17T07:18:59.000Z</time>
      </trkpt>
      <trkpt lat="47.14304" lon="-1.69713">
        <ele>61</ele>
        <time>2021-07-17T07:19:01.000Z</time>
      </trkpt>
      <trkpt lat="47.14287" lon="-1.6971">
        <ele>61</ele>
        <time>2021-07-17T07:19:03.000Z</time>
      </trkpt>
      <trkpt lat="47.1427" lon="-1.69709">
        <ele>61</ele>
        <time>2021-07-17T07:19:05.000Z</time>
      </trkpt>
      <trkpt lat="47.14253" lon="-1.69709">
        <ele>60</ele>
        <time>2021-07-17T07:19:07.000Z</time>
      </trkpt>
      <trkpt lat="47.14237" lon="-1.69711">
        <ele>60</ele>
        <time>2021-07-17T07:19:09.000Z</time>
      </trkpt>
      <trkpt lat="47.1422" lon="-1.69714">
        <ele>60</ele>
        <time>2021-07-17T07:19:11.000Z</time>
      </trkpt>
      <trkpt lat="47.14204" lon="-1.69717">
        <ele>60</ele>
        <time>2021-07-17T07:19:13.000Z</time>
      </trkpt>
      <trkpt lat="47.14187" lon="-1.6972">
        <ele>59</ele>
        <time>2021-07-17T07:19:15.000Z</time>
      </trkpt>
      <trkpt lat="47.1417" lon="-1.69723">
        <ele>59</ele>
        <time>2021-07-17T07:19:17.000Z</time>
      </trkpt>
      <trkpt lat="47.14153" lon="-1.69725">
        <ele>59</ele>
        <time>2021-07-17T07:19:19.000Z</time>
      </trkpt>
      <trkpt lat="47.14136" lon="-1.69728">
        <ele>59</ele>
        <time>2021-07-17T07:19:21.000Z</time>
      </trkpt>
      <trkpt lat="47.1412" lon="-1.6973">
        <ele>59</ele>
        <time>2021-07-17T07:19:23.000Z</time>
      </trkpt>
      <trkpt lat="47.14103" lon="-1.69732">
        <ele>59</ele>
        <time>2021-07-17T07:19:25.000Z</time>
      </trkpt>
      <trkpt lat="47.14087" lon="-1.69733">
        <ele>60</ele>
        <time>2021-07-17T07:19:27.000Z</time>
      </trkpt>
      <trkpt lat="47.1407" lon="-1.69734">
        <ele>60</ele>
        <time>2021-07-17T07:19:29.000Z</time>
      </trkpt>
      <trkpt lat="47.14055" lon="-1.69733">
        <ele>60</ele>
        <time>2021-07-17T07:19:31.000Z</time>
      </trkpt>
      <trkpt lat="47.14039" lon="-1.69732">
        <ele>60</ele>
        <time>2021-07-17T07:19:33.000Z</time>
      </trkpt>
      <trkpt lat="47.14024" lon="-1.69731">
        <ele>60</ele>
        <time>2021-07-17T07:19:35.000Z</time>
      </trkpt>
      <trkpt lat="47.14008" lon="-1.6973">
        <ele>60</ele>
        <time>2021-07-17T07:19:37.000Z</time>
      </trkpt>
      <trkpt lat="47.13993" lon="-1.69728">
        <ele>60</ele>
        <time>2021-07-17T07:19:39.000Z</time>
      </trkpt>
      <trkpt lat="47.13977" lon="-1.69727">
        <ele>60</ele>
        <time>2021-07-17T07:19:41.000Z</time>
      </trkpt>
      <trkpt lat="47.13962" lon="-1.69726">
        <ele>60</ele>
        <time>2021-07-17T07:19:43.000Z</time>
      </trkpt>
      <trkpt lat="47.13946" lon="-1.69724">
        <ele>59</ele>
        <time>2021-07-17T07:19:45.000Z</time>
      </trkpt>
      <trkpt lat="47.13929" lon="-1.69723">
        <ele>59</ele>
        <time>2021-07-17T07:19:47.000Z</time>
      </trkpt>
      <trkpt lat="47.13912" lon="-1.69723">
        <ele>59</ele>
        <time>2021-07-17T07:19:49.000Z</time>
      </trkpt>
      <trkpt lat="47.13895" lon="-1.69724">
        <ele>59</ele>
        <time>2021-07-17T07:19:51.000Z</time>
      </trkpt>
      <trkpt lat="47.1388" lon="-1.69725">
        <ele>59</ele>
        <time>2021-07-17T07:19:53.000Z</time>
      </trkpt>
      <trkpt lat="47.13865" lon="-1.69728">
        <ele>59</ele>
        <time>2021-07-17T07:19:55.000Z</time>
      </trkpt>
      <trkpt lat="47.13849" lon="-1.69731">
        <ele>59</ele>
        <time>2021-07-17T07:19:57.000Z</time>
      </trkpt>
      <trkpt lat="47.13833" lon="-1.69732">
        <ele>59</ele>
        <time>2021-07-17T07:19:59.000Z</time>
      </trkpt>
      <trkpt lat="47.13818" lon="-1.69731">
        <ele>59</ele>
        <time>2021-07-17T07:20:01.000Z</time>
      </trkpt>
      <trkpt lat="47.13802" lon="-1.6973">
        <ele>59</ele>
        <time>2021-07-17T07:20:03.000Z</time>
      </trkpt>
      <trkpt lat="47.13785" lon="-1.69728">
        <ele>59</ele>
        <time>2021-07-17T07:20:05.000Z</time>
      </trkpt>
      <trkpt lat="47.13769" lon="-1.69728">
        <ele>59</ele>
        <time>2021-07-17T07:20:07.000Z</time>
      </trkpt>
      <trkpt lat="47.13752" lon="-1.69729">
        <ele>59</ele>
        <time>2021-07-17T07:20:09.000Z</time>
      </trkpt>
      <trkpt lat="47.13736" lon="-1.69733">
        <ele>60</ele>
        <time>2021-07-17T07:20:11.000Z</time>
      </trkpt>
      <trkpt lat="47.13721" lon="-1.69737">
        <ele>60</ele>
        <time>2021-07-17T07:20:13.000Z</time>
      </trkpt>
      <trkpt lat="47.13705" lon="-1.69739">
        <ele>60</ele>
        <time>2021-07-17T07:20:15.000Z</time>
      </trkpt>
      <trkpt lat="47.13689" lon="-1.6974">
        <ele>60</ele>
        <time>2021-07-17T07:20:17.000Z</time>
      </trkpt>
      <trkpt lat="47.13673" lon="-1.69741">
        <ele>59</ele>
        <time>2021-07-17T07:20:19.000Z</time>
      </trkpt>
      <trkpt lat="47.13656" lon="-1.6974">
        <ele>59</ele>
        <time>2021-07-17T07:20:21.000Z</time>
      </trkpt>
      <trkpt lat="47.1364" lon="-1.6974">
        <ele>59</ele>
        <time>2021-07-17T07:20:23.000Z</time>
      </trkpt>
      <trkpt lat="47.13623" lon="-1.6974">
        <ele>59</ele>
        <time>2021-07-17T07:20:25.000Z</time>
      </trkpt>
      <trkpt lat="47.13606" lon="-1.6974">
        <ele>59</ele>
        <time>2021-07-17T07:20:27.000Z</time>
      </trkpt>
      <trkpt lat="47.1359" lon="-1.6974">
        <ele>59</ele>
        <time>2021-07-17T07:20:29.000Z</time>
      </trkpt>
      <trkpt lat="47.13574" lon="-1.69741">
        <ele>59</ele>
        <time>2021-07-17T07:20:31.000Z</time>
      </trkpt>
      <trkpt lat="47.13557" lon="-1.69741">
        <ele>58</ele>
        <time>2021-07-17T07:20:33.000Z</time>
      </trkpt>
      <trkpt lat="47.13541" lon="-1.69742">
        <ele>58</ele>
        <time>2021-07-17T07:20:35.000Z</time>
      </trkpt>
      <trkpt lat="47.13524" lon="-1.69742">
        <ele>57</ele>
        <time>2021-07-17T07:20:37.000Z</time>
      </trkpt>
      <trkpt lat="47.13507" lon="-1.69743">
        <ele>57</ele>
        <time>2021-07-17T07:20:39.000Z</time>
      </trkpt>
      <trkpt lat="47.13491" lon="-1.69744">
        <ele>56</ele>
        <time>2021-07-17T07:20:41.000Z</time>
      </trkpt>
      <trkpt lat="47.13475" lon="-1.69747">
        <ele>56</ele>
        <time>2021-07-17T07:20:43.000Z</time>
      </trkpt>
      <trkpt lat="47.13459" lon="-1.69751">
        <ele>56</ele>
        <time>2021-07-17T07:20:45.000Z</time>
      </trkpt>
      <trkpt lat="47.13443" lon="-1.69758">
        <ele>55</ele>
        <time>2021-07-17T07:20:47.000Z</time>
      </trkpt>
      <trkpt lat="47.13427" lon="-1.69765">
        <ele>56</ele>
        <time>2021-07-17T07:20:49.000Z</time>
      </trkpt>
      <trkpt lat="47.13411" lon="-1.69771">
        <ele>56</ele>
        <time>2021-07-17T07:20:51.000Z</time>
      </trkpt>
      <trkpt lat="47.13396" lon="-1.69779">
        <ele>56</ele>
        <time>2021-07-17T07:20:53.000Z</time>
      </trkpt>
      <trkpt lat="47.13381" lon="-1.69787">
        <ele>56</ele>
        <time>2021-07-17T07:20:55.000Z</time>
      </trkpt>
      <trkpt lat="47.13367" lon="-1.69795">
        <ele>56</ele>
        <time>2021-07-17T07:20:57.000Z</time>
      </trkpt>
      <trkpt lat="47.13353" lon="-1.69802">
        <ele>55</ele>
        <time>2021-07-17T07:20:59.000Z</time>
      </trkpt>
      <trkpt lat="47.13338" lon="-1.6981">
        <ele>56</ele>
        <time>2021-07-17T07:21:01.000Z</time>
      </trkpt>
      <trkpt lat="47.13324" lon="-1.69817">
        <ele>56</ele>
        <time>2021-07-17T07:21:03.000Z</time>
      </trkpt>
      <trkpt lat="47.1331" lon="-1.69825">
        <ele>56</ele>
        <time>2021-07-17T07:21:05.000Z</time>
      </trkpt>
      <trkpt lat="47.13296" lon="-1.69833">
        <ele>57</ele>
        <time>2021-07-17T07:21:07.000Z</time>
      </trkpt>
      <trkpt lat="47.13281" lon="-1.6984">
        <ele>58</ele>
        <time>2021-07-17T07:21:09.000Z</time>
      </trkpt>
      <trkpt lat="47.13267" lon="-1.69847">
        <ele>59</ele>
        <time>2021-07-17T07:21:11.000Z</time>
      </trkpt>
      <trkpt lat="47.13254" lon="-1.69855">
        <ele>59</ele>
        <time>2021-07-17T07:21:13.000Z</time>
      </trkpt>
      <trkpt lat="47.1324" lon="-1.69862">
        <ele>56</ele>
        <time>2021-07-17T07:21:15.000Z</time>
      </trkpt>
      <trkpt lat="47.13226" lon="-1.6987">
        <ele>56</ele>
        <time>2021-07-17T07:21:17.000Z</time>
      </trkpt>
      <trkpt lat="47.1321" lon="-1.69879">
        <ele>56</ele>
        <time>2021-07-17T07:21:19.000Z</time>
      </trkpt>
      <trkpt lat="47.13194" lon="-1.69888">
        <ele>56</ele>
        <time>2021-07-17T07:21:21.000Z</time>
      </trkpt>
      <trkpt lat="47.13177" lon="-1.69896">
        <ele>55</ele>
        <time>2021-07-17T07:21:23.000Z</time>
      </trkpt>
      <trkpt lat="47.13161" lon="-1.69906">
        <ele>55</ele>
        <time>2021-07-17T07:21:25.000Z</time>
      </trkpt>
      <trkpt lat="47.13145" lon="-1.69914">
        <ele>55</ele>
        <time>2021-07-17T07:21:27.000Z</time>
      </trkpt>
      <trkpt lat="47.1313" lon="-1.69922">
        <ele>54</ele>
        <time>2021-07-17T07:21:29.000Z</time>
      </trkpt>
      <trkpt lat="47.13115" lon="-1.6993">
        <ele>55</ele>
        <time>2021-07-17T07:21:31.000Z</time>
      </trkpt>
      <trkpt lat="47.13099" lon="-1.69938">
        <ele>55</ele>
        <time>2021-07-17T07:21:33.000Z</time>
      </trkpt>
      <trkpt lat="47.13084" lon="-1.69946">
        <ele>55</ele>
        <time>2021-07-17T07:21:35.000Z</time>
      </trkpt>
      <trkpt lat="47.13069" lon="-1.69954">
        <ele>56</ele>
        <time>2021-07-17T07:21:37.000Z</time>
      </trkpt>
      <trkpt lat="47.13053" lon="-1.69962">
        <ele>55</ele>
        <time>2021-07-17T07:21:39.000Z</time>
      </trkpt>
      <trkpt lat="47.13037" lon="-1.69971">
        <ele>55</ele>
        <time>2021-07-17T07:21:41.000Z</time>
      </trkpt>
      <trkpt lat="47.13022" lon="-1.69978">
        <ele>55</ele>
        <time>2021-07-17T07:21:43.000Z</time>
      </trkpt>
      <trkpt lat="47.13007" lon="-1.69985">
        <ele>54</ele>
        <time>2021-07-17T07:21:45.000Z</time>
      </trkpt>
      <trkpt lat="47.12992" lon="-1.69993">
        <ele>54</ele>
        <time>2021-07-17T07:21:47.000Z</time>
      </trkpt>
      <trkpt lat="47.12978" lon="-1.70001">
        <ele>55</ele>
        <time>2021-07-17T07:21:49.000Z</time>
      </trkpt>
      <trkpt lat="47.12963" lon="-1.70009">
        <ele>55</ele>
        <time>2021-07-17T07:21:51.000Z</time>
      </trkpt>
      <trkpt lat="47.12948" lon="-1.70017">
        <ele>55</ele>
        <time>2021-07-17T07:21:53.000Z</time>
      </trkpt>
      <trkpt lat="47.12933" lon="-1.70025">
        <ele>55</ele>
        <time>2021-07-17T07:21:55.000Z</time>
      </trkpt>
      <trkpt lat="47.12919" lon="-1.70033">
        <ele>56</ele>
        <time>2021-07-17T07:21:57.000Z</time>
      </trkpt>
      <trkpt lat="47.12904" lon="-1.7004">
        <ele>56</ele>
        <time>2021-07-17T07:21:59.000Z</time>
      </trkpt>
      <trkpt lat="47.12889" lon="-1.70049">
        <ele>56</ele>
        <time>2021-07-17T07:22:01.000Z</time>
      </trkpt>
      <trkpt lat="47.12874" lon="-1.70056">
        <ele>56</ele>
        <time>2021-07-17T07:22:03.000Z</time>
      </trkpt>
      <trkpt lat="47.12858" lon="-1.70064">
        <ele>56</ele>
        <time>2021-07-17T07:22:05.000Z</time>
      </trkpt>
      <trkpt lat="47.12843" lon="-1.70072">
        <ele>55</ele>
        <time>2021-07-17T07:22:07.000Z</time>
      </trkpt>
      <trkpt lat="47.12828" lon="-1.70079">
        <ele>55</ele>
        <time>2021-07-17T07:22:09.000Z</time>
      </trkpt>
      <trkpt lat="47.12813" lon="-1.70087">
        <ele>55</ele>
        <time>2021-07-17T07:22:11.000Z</time>
      </trkpt>
      <trkpt lat="47.12798" lon="-1.70094">
        <ele>56</ele>
        <time>2021-07-17T07:22:13.000Z</time>
      </trkpt>
      <trkpt lat="47.12783" lon="-1.70103">
        <ele>56</ele>
        <time>2021-07-17T07:22:15.000Z</time>
      </trkpt>
      <trkpt lat="47.12768" lon="-1.70111">
        <ele>56</ele>
        <time>2021-07-17T07:22:17.000Z</time>
      </trkpt>
      <trkpt lat="47.12752" lon="-1.70119">
        <ele>55</ele>
        <time>2021-07-17T07:22:19.000Z</time>
      </trkpt>
      <trkpt lat="47.12737" lon="-1.70127">
        <ele>55</ele>
        <time>2021-07-17T07:22:21.000Z</time>
      </trkpt>
      <trkpt lat="47.12722" lon="-1.70134">
        <ele>55</ele>
        <time>2021-07-17T07:22:23.000Z</time>
      </trkpt>
      <trkpt lat="47.12707" lon="-1.70142">
        <ele>55</ele>
        <time>2021-07-17T07:22:25.000Z</time>
      </trkpt>
      <trkpt lat="47.12692" lon="-1.70151">
        <ele>55</ele>
        <time>2021-07-17T07:22:27.000Z</time>
      </trkpt>
      <trkpt lat="47.12677" lon="-1.70158">
        <ele>55</ele>
        <time>2021-07-17T07:22:29.000Z</time>
      </trkpt>
      <trkpt lat="47.12662" lon="-1.70167">
        <ele>56</ele>
        <time>2021-07-17T07:22:31.000Z</time>
      </trkpt>
      <trkpt lat="47.12646" lon="-1.70174">
        <ele>56</ele>
        <time>2021-07-17T07:22:33.000Z</time>
      </trkpt>
      <trkpt lat="47.1263" lon="-1.70182">
        <ele>55</ele>
        <time>2021-07-17T07:22:35.000Z</time>
      </trkpt>
      <trkpt lat="47.12615" lon="-1.7019">
        <ele>56</ele>
        <time>2021-07-17T07:22:37.000Z</time>
      </trkpt>
      <trkpt lat="47.126" lon="-1.70198">
        <ele>56</ele>
        <time>2021-07-17T07:22:39.000Z</time>
      </trkpt>
      <trkpt lat="47.12585" lon="-1.70206">
        <ele>56</ele>
        <time>2021-07-17T07:22:41.000Z</time>
      </trkpt>
      <trkpt lat="47.1257" lon="-1.70214">
        <ele>57</ele>
        <time>2021-07-17T07:22:43.000Z</time>
      </trkpt>
      <trkpt lat="47.12555" lon="-1.70221">
        <ele>57</ele>
        <time>2021-07-17T07:22:45.000Z</time>
      </trkpt>
      <trkpt lat="47.1254" lon="-1.70229">
        <ele>57</ele>
        <time>2021-07-17T07:22:47.000Z</time>
      </trkpt>
      <trkpt lat="47.12525" lon="-1.70237">
        <ele>57</ele>
        <time>2021-07-17T07:22:49.000Z</time>
      </trkpt>
      <trkpt lat="47.12511" lon="-1.70244">
        <ele>57</ele>
        <time>2021-07-17T07:22:51.000Z</time>
      </trkpt>
      <trkpt lat="47.12496" lon="-1.70252">
        <ele>58</ele>
        <time>2021-07-17T07:22:53.000Z</time>
      </trkpt>
      <trkpt lat="47.12481" lon="-1.7026">
        <ele>57</ele>
        <time>2021-07-17T07:22:55.000Z</time>
      </trkpt>
      <trkpt lat="47.12466" lon="-1.7027">
        <ele>57</ele>
        <time>2021-07-17T07:22:57.000Z</time>
      </trkpt>
      <trkpt lat="47.12451" lon="-1.70282">
        <ele>58</ele>
        <time>2021-07-17T07:22:59.000Z</time>
      </trkpt>
      <trkpt lat="47.12438" lon="-1.70297">
        <ele>57</ele>
        <time>2021-07-17T07:23:01.000Z</time>
      </trkpt>
      <trkpt lat="47.12427" lon="-1.70315">
        <ele>58</ele>
        <time>2021-07-17T07:23:03.000Z</time>
      </trkpt>
      <trkpt lat="47.12419" lon="-1.70335">
        <ele>58</ele>
        <time>2021-07-17T07:23:05.000Z</time>
      </trkpt>
      <trkpt lat="47.12413" lon="-1.70356">
        <ele>58</ele>
        <time>2021-07-17T07:23:07.000Z</time>
      </trkpt>
      <trkpt lat="47.12409" lon="-1.70378">
        <ele>57</ele>
        <time>2021-07-17T07:23:09.000Z</time>
      </trkpt>
      <trkpt lat="47.12404" lon="-1.70401">
        <ele>57</ele>
        <time>2021-07-17T07:23:11.000Z</time>
      </trkpt>
      <trkpt lat="47.124" lon="-1.70422">
        <ele>57</ele>
        <time>2021-07-17T07:23:13.000Z</time>
      </trkpt>
      <trkpt lat="47.12395" lon="-1.70444">
        <ele>57</ele>
        <time>2021-07-17T07:23:15.000Z</time>
      </trkpt>
      <trkpt lat="47.1239" lon="-1.70465">
        <ele>57</ele>
        <time>2021-07-17T07:23:17.000Z</time>
      </trkpt>
      <trkpt lat="47.12384" lon="-1.70485">
        <ele>57</ele>
        <time>2021-07-17T07:23:19.000Z</time>
      </trkpt>
      <trkpt lat="47.12377" lon="-1.70507">
        <ele>57</ele>
        <time>2021-07-17T07:23:21.000Z</time>
      </trkpt>
      <trkpt lat="47.12369" lon="-1.70528">
        <ele>56</ele>
        <time>2021-07-17T07:23:23.000Z</time>
      </trkpt>
      <trkpt lat="47.1236" lon="-1.70548">
        <ele>56</ele>
        <time>2021-07-17T07:23:25.000Z</time>
      </trkpt>
      <trkpt lat="47.1235" lon="-1.70568">
        <ele>56</ele>
        <time>2021-07-17T07:23:27.000Z</time>
      </trkpt>
      <trkpt lat="47.12338" lon="-1.70586">
        <ele>55</ele>
        <time>2021-07-17T07:23:29.000Z</time>
      </trkpt>
      <trkpt lat="47.12326" lon="-1.70604">
        <ele>54</ele>
        <time>2021-07-17T07:23:31.000Z</time>
      </trkpt>
      <trkpt lat="47.12314" lon="-1.70621">
        <ele>54</ele>
        <time>2021-07-17T07:23:33.000Z</time>
      </trkpt>
      <trkpt lat="47.12303" lon="-1.70637">
        <ele>54</ele>
        <time>2021-07-17T07:23:35.000Z</time>
      </trkpt>
      <trkpt lat="47.12292" lon="-1.70654">
        <ele>54</ele>
        <time>2021-07-17T07:23:37.000Z</time>
      </trkpt>
      <trkpt lat="47.12281" lon="-1.70671">
        <ele>54</ele>
        <time>2021-07-17T07:23:39.000Z</time>
      </trkpt>
      <trkpt lat="47.12269" lon="-1.70687">
        <ele>54</ele>
        <time>2021-07-17T07:23:41.000Z</time>
      </trkpt>
      <trkpt lat="47.12258" lon="-1.70703">
        <ele>54</ele>
        <time>2021-07-17T07:23:43.000Z</time>
      </trkpt>
      <trkpt lat="47.12245" lon="-1.70719">
        <ele>54</ele>
        <time>2021-07-17T07:23:45.000Z</time>
      </trkpt>
      <trkpt lat="47.12233" lon="-1.70733">
        <ele>54</ele>
        <time>2021-07-17T07:23:47.000Z</time>
      </trkpt>
      <trkpt lat="47.12219" lon="-1.70745">
        <ele>55</ele>
        <time>2021-07-17T07:23:49.000Z</time>
      </trkpt>
      <trkpt lat="47.12206" lon="-1.70757">
        <ele>55</ele>
        <time>2021-07-17T07:23:51.000Z</time>
      </trkpt>
      <trkpt lat="47.12192" lon="-1.70768">
        <ele>55</ele>
        <time>2021-07-17T07:23:53.000Z</time>
      </trkpt>
      <trkpt lat="47.12179" lon="-1.70778">
        <ele>55</ele>
        <time>2021-07-17T07:23:55.000Z</time>
      </trkpt>
      <trkpt lat="47.12164" lon="-1.70788">
        <ele>55</ele>
        <time>2021-07-17T07:23:57.000Z</time>
      </trkpt>
      <trkpt lat="47.1215" lon="-1.70797">
        <ele>56</ele>
        <time>2021-07-17T07:23:59.000Z</time>
      </trkpt>
      <trkpt lat="47.12136" lon="-1.70806">
        <ele>56</ele>
        <time>2021-07-17T07:24:01.000Z</time>
      </trkpt>
      <trkpt lat="47.12122" lon="-1.70816">
        <ele>56</ele>
        <time>2021-07-17T07:24:03.000Z</time>
      </trkpt>
      <trkpt lat="47.12108" lon="-1.70825">
        <ele>56</ele>
        <time>2021-07-17T07:24:05.000Z</time>
      </trkpt>
      <trkpt lat="47.12093" lon="-1.70834">
        <ele>57</ele>
        <time>2021-07-17T07:24:07.000Z</time>
      </trkpt>
      <trkpt lat="47.12079" lon="-1.70844">
        <ele>57</ele>
        <time>2021-07-17T07:24:09.000Z</time>
      </trkpt>
      <trkpt lat="47.12065" lon="-1.70853">
        <ele>57</ele>
        <time>2021-07-17T07:24:11.000Z</time>
      </trkpt>
      <trkpt lat="47.1205" lon="-1.70862">
        <ele>57</ele>
        <time>2021-07-17T07:24:13.000Z</time>
      </trkpt>
      <trkpt lat="47.12036" lon="-1.70872">
        <ele>57</ele>
        <time>2021-07-17T07:24:15.000Z</time>
      </trkpt>
      <trkpt lat="47.12021" lon="-1.70881">
        <ele>57</ele>
        <time>2021-07-17T07:24:17.000Z</time>
      </trkpt>
      <trkpt lat="47.12007" lon="-1.70891">
        <ele>57</ele>
        <time>2021-07-17T07:24:19.000Z</time>
      </trkpt>
      <trkpt lat="47.11991" lon="-1.709">
        <ele>57</ele>
        <time>2021-07-17T07:24:21.000Z</time>
      </trkpt>
      <trkpt lat="47.11977" lon="-1.70911">
        <ele>56</ele>
        <time>2021-07-17T07:24:23.000Z</time>
      </trkpt>
      <trkpt lat="47.11961" lon="-1.7092">
        <ele>56</ele>
        <time>2021-07-17T07:24:25.000Z</time>
      </trkpt>
      <trkpt lat="47.11945" lon="-1.70931">
        <ele>55</ele>
        <time>2021-07-17T07:24:27.000Z</time>
      </trkpt>
      <trkpt lat="47.11929" lon="-1.70941">
        <ele>55</ele>
        <time>2021-07-17T07:24:29.000Z</time>
      </trkpt>
      <trkpt lat="47.11914" lon="-1.70951">
        <ele>55</ele>
        <time>2021-07-17T07:24:31.000Z</time>
      </trkpt>
      <trkpt lat="47.11898" lon="-1.70961">
        <ele>55</ele>
        <time>2021-07-17T07:24:33.000Z</time>
      </trkpt>
      <trkpt lat="47.11883" lon="-1.70971">
        <ele>55</ele>
        <time>2021-07-17T07:24:35.000Z</time>
      </trkpt>
      <trkpt lat="47.11867" lon="-1.70981">
        <ele>54</ele>
        <time>2021-07-17T07:24:37.000Z</time>
      </trkpt>
      <trkpt lat="47.11852" lon="-1.70991">
        <ele>54</ele>
        <time>2021-07-17T07:24:39.000Z</time>
      </trkpt>
      <trkpt lat="47.11837" lon="-1.71">
        <ele>55</ele>
        <time>2021-07-17T07:24:41.000Z</time>
      </trkpt>
      <trkpt lat="47.11823" lon="-1.7101">
        <ele>55</ele>
        <time>2021-07-17T07:24:43.000Z</time>
      </trkpt>
      <trkpt lat="47.11808" lon="-1.71019">
        <ele>55</ele>
        <time>2021-07-17T07:24:45.000Z</time>
      </trkpt>
      <trkpt lat="47.11794" lon="-1.71029">
        <ele>55</ele>
        <time>2021-07-17T07:24:47.000Z</time>
      </trkpt>
      <trkpt lat="47.1178" lon="-1.71039">
        <ele>55</ele>
        <time>2021-07-17T07:24:49.000Z</time>
      </trkpt>
      <trkpt lat="47.11766" lon="-1.71047">
        <ele>56</ele>
        <time>2021-07-17T07:24:51.000Z</time>
      </trkpt>
      <trkpt lat="47.11752" lon="-1.71056">
        <ele>56</ele>
        <time>2021-07-17T07:24:53.000Z</time>
      </trkpt>
      <trkpt lat="47.11738" lon="-1.71066">
        <ele>56</ele>
        <time>2021-07-17T07:24:55.000Z</time>
      </trkpt>
      <trkpt lat="47.11724" lon="-1.71075">
        <ele>56</ele>
        <time>2021-07-17T07:24:57.000Z</time>
      </trkpt>
      <trkpt lat="47.1171" lon="-1.71085">
        <ele>57</ele>
        <time>2021-07-17T07:24:59.000Z</time>
      </trkpt>
      <trkpt lat="47.11696" lon="-1.71094">
        <ele>57</ele>
        <time>2021-07-17T07:25:01.000Z</time>
      </trkpt>
      <trkpt lat="47.11682" lon="-1.71102">
        <ele>57</ele>
        <time>2021-07-17T07:25:03.000Z</time>
      </trkpt>
      <trkpt lat="47.11667" lon="-1.71113">
        <ele>57</ele>
        <time>2021-07-17T07:25:05.000Z</time>
      </trkpt>
      <trkpt lat="47.11653" lon="-1.71123">
        <ele>57</ele>
        <time>2021-07-17T07:25:07.000Z</time>
      </trkpt>
      <trkpt lat="47.11639" lon="-1.71134">
        <ele>57</ele>
        <time>2021-07-17T07:25:09.000Z</time>
      </trkpt>
      <trkpt lat="47.11625" lon="-1.71147">
        <ele>56</ele>
        <time>2021-07-17T07:25:11.000Z</time>
      </trkpt>
      <trkpt lat="47.11612" lon="-1.7116">
        <ele>56</ele>
        <time>2021-07-17T07:25:13.000Z</time>
      </trkpt>
      <trkpt lat="47.11599" lon="-1.71174">
        <ele>56</ele>
        <time>2021-07-17T07:25:15.000Z</time>
      </trkpt>
      <trkpt lat="47.11586" lon="-1.7119">
        <ele>56</ele>
        <time>2021-07-17T07:25:17.000Z</time>
      </trkpt>
      <trkpt lat="47.11573" lon="-1.71207">
        <ele>55</ele>
        <time>2021-07-17T07:25:19.000Z</time>
      </trkpt>
      <trkpt lat="47.11561" lon="-1.71224">
        <ele>55</ele>
        <time>2021-07-17T07:25:21.000Z</time>
      </trkpt>
      <trkpt lat="47.1155" lon="-1.71242">
        <ele>55</ele>
        <time>2021-07-17T07:25:23.000Z</time>
      </trkpt>
      <trkpt lat="47.11539" lon="-1.71262">
        <ele>55</ele>
        <time>2021-07-17T07:25:25.000Z</time>
      </trkpt>
      <trkpt lat="47.11528" lon="-1.71282">
        <ele>54</ele>
        <time>2021-07-17T07:25:27.000Z</time>
      </trkpt>
      <trkpt lat="47.11517" lon="-1.71302">
        <ele>53</ele>
        <time>2021-07-17T07:25:29.000Z</time>
      </trkpt>
      <trkpt lat="47.11507" lon="-1.71322">
        <ele>53</ele>
        <time>2021-07-17T07:25:31.000Z</time>
      </trkpt>
      <trkpt lat="47.11497" lon="-1.71341">
        <ele>53</ele>
        <time>2021-07-17T07:25:33.000Z</time>
      </trkpt>
      <trkpt lat="47.11487" lon="-1.7136">
        <ele>53</ele>
        <time>2021-07-17T07:25:35.000Z</time>
      </trkpt>
      <trkpt lat="47.11472" lon="-1.7139">
        <ele>52</ele>
        <time>2021-07-17T07:25:38.000Z</time>
      </trkpt>
      <trkpt lat="47.11462" lon="-1.71409">
        <ele>51</ele>
        <time>2021-07-17T07:25:40.000Z</time>
      </trkpt>
      <trkpt lat="47.11452" lon="-1.71428">
        <ele>51</ele>
        <time>2021-07-17T07:25:42.000Z</time>
      </trkpt>
      <trkpt lat="47.11442" lon="-1.71447">
        <ele>51</ele>
        <time>2021-07-17T07:25:44.000Z</time>
      </trkpt>
      <trkpt lat="47.11433" lon="-1.71466">
        <ele>50</ele>
        <time>2021-07-17T07:25:46.000Z</time>
      </trkpt>
      <trkpt lat="47.11423" lon="-1.71485">
        <ele>50</ele>
        <time>2021-07-17T07:25:48.000Z</time>
      </trkpt>
      <trkpt lat="47.11414" lon="-1.71504">
        <ele>50</ele>
        <time>2021-07-17T07:25:50.000Z</time>
      </trkpt>
      <trkpt lat="47.11404" lon="-1.71524">
        <ele>50</ele>
        <time>2021-07-17T07:25:52.000Z</time>
      </trkpt>
      <trkpt lat="47.11395" lon="-1.71542">
        <ele>50</ele>
        <time>2021-07-17T07:25:54.000Z</time>
      </trkpt>
      <trkpt lat="47.11385" lon="-1.7156">
        <ele>50</ele>
        <time>2021-07-17T07:25:56.000Z</time>
      </trkpt>
      <trkpt lat="47.11371" lon="-1.71588">
        <ele>51</ele>
        <time>2021-07-17T07:25:59.000Z</time>
      </trkpt>
      <trkpt lat="47.11357" lon="-1.71615">
        <ele>51</ele>
        <time>2021-07-17T07:26:02.000Z</time>
      </trkpt>
      <trkpt lat="47.11339" lon="-1.71639">
        <ele>52</ele>
        <time>2021-07-17T07:26:05.000Z</time>
      </trkpt>
      <trkpt lat="47.11326" lon="-1.71652">
        <ele>52</ele>
        <time>2021-07-17T07:26:07.000Z</time>
      </trkpt>
      <trkpt lat="47.1131" lon="-1.71662">
        <ele>53</ele>
        <time>2021-07-17T07:26:09.000Z</time>
      </trkpt>
      <trkpt lat="47.11295" lon="-1.71672">
        <ele>53</ele>
        <time>2021-07-17T07:26:11.000Z</time>
      </trkpt>
      <trkpt lat="47.11278" lon="-1.71678">
        <ele>54</ele>
        <time>2021-07-17T07:26:13.000Z</time>
      </trkpt>
      <trkpt lat="47.11261" lon="-1.71677">
        <ele>54</ele>
        <time>2021-07-17T07:26:15.000Z</time>
      </trkpt>
      <trkpt lat="47.11245" lon="-1.71679">
        <ele>54</ele>
        <time>2021-07-17T07:26:17.000Z</time>
      </trkpt>
      <trkpt lat="47.11224" lon="-1.71694">
        <ele>54</ele>
        <time>2021-07-17T07:26:20.000Z</time>
      </trkpt>
      <trkpt lat="47.11212" lon="-1.71705">
        <ele>54</ele>
        <time>2021-07-17T07:26:22.000Z</time>
      </trkpt>
      <trkpt lat="47.112" lon="-1.71716">
        <ele>55</ele>
        <time>2021-07-17T07:26:24.000Z</time>
      </trkpt>
      <trkpt lat="47.11187" lon="-1.71728">
        <ele>55</ele>
        <time>2021-07-17T07:26:26.000Z</time>
      </trkpt>
      <trkpt lat="47.11174" lon="-1.71739">
        <ele>56</ele>
        <time>2021-07-17T07:26:28.000Z</time>
      </trkpt>
      <trkpt lat="47.11162" lon="-1.7175">
        <ele>56</ele>
        <time>2021-07-17T07:26:30.000Z</time>
      </trkpt>
      <trkpt lat="47.11149" lon="-1.71761">
        <ele>57</ele>
        <time>2021-07-17T07:26:32.000Z</time>
      </trkpt>
      <trkpt lat="47.11137" lon="-1.71772">
        <ele>57</ele>
        <time>2021-07-17T07:26:34.000Z</time>
      </trkpt>
      <trkpt lat="47.11125" lon="-1.71782">
        <ele>57</ele>
        <time>2021-07-17T07:26:36.000Z</time>
      </trkpt>
      <trkpt lat="47.11113" lon="-1.71793">
        <ele>58</ele>
        <time>2021-07-17T07:26:38.000Z</time>
      </trkpt>
      <trkpt lat="47.11101" lon="-1.71804">
        <ele>58</ele>
        <time>2021-07-17T07:26:40.000Z</time>
      </trkpt>
      <trkpt lat="47.11089" lon="-1.71816">
        <ele>58</ele>
        <time>2021-07-17T07:26:42.000Z</time>
      </trkpt>
      <trkpt lat="47.11077" lon="-1.71828">
        <ele>58</ele>
        <time>2021-07-17T07:26:44.000Z</time>
      </trkpt>
      <trkpt lat="47.11065" lon="-1.71842">
        <ele>58</ele>
        <time>2021-07-17T07:26:46.000Z</time>
      </trkpt>
      <trkpt lat="47.11054" lon="-1.71856">
        <ele>58</ele>
        <time>2021-07-17T07:26:48.000Z</time>
      </trkpt>
      <trkpt lat="47.11043" lon="-1.7187">
        <ele>58</ele>
        <time>2021-07-17T07:26:50.000Z</time>
      </trkpt>
      <trkpt lat="47.11033" lon="-1.71884">
        <ele>59</ele>
        <time>2021-07-17T07:26:52.000Z</time>
      </trkpt>
      <trkpt lat="47.11023" lon="-1.71899">
        <ele>59</ele>
        <time>2021-07-17T07:26:54.000Z</time>
      </trkpt>
      <trkpt lat="47.11013" lon="-1.71913">
        <ele>59</ele>
        <time>2021-07-17T07:26:56.000Z</time>
      </trkpt>
      <trkpt lat="47.11003" lon="-1.71927">
        <ele>59</ele>
        <time>2021-07-17T07:26:58.000Z</time>
      </trkpt>
      <trkpt lat="47.10993" lon="-1.71943">
        <ele>58</ele>
        <time>2021-07-17T07:27:00.000Z</time>
      </trkpt>
      <trkpt lat="47.10982" lon="-1.71957">
        <ele>59</ele>
        <time>2021-07-17T07:27:02.000Z</time>
      </trkpt>
      <trkpt lat="47.10971" lon="-1.71973">
        <ele>59</ele>
        <time>2021-07-17T07:27:04.000Z</time>
      </trkpt>
      <trkpt lat="47.10961" lon="-1.71989">
        <ele>58</ele>
        <time>2021-07-17T07:27:06.000Z</time>
      </trkpt>
      <trkpt lat="47.1095" lon="-1.72004">
        <ele>58</ele>
        <time>2021-07-17T07:27:08.000Z</time>
      </trkpt>
      <trkpt lat="47.10939" lon="-1.7202">
        <ele>58</ele>
        <time>2021-07-17T07:27:10.000Z</time>
      </trkpt>
      <trkpt lat="47.10928" lon="-1.72035">
        <ele>58</ele>
        <time>2021-07-17T07:27:12.000Z</time>
      </trkpt>
      <trkpt lat="47.10917" lon="-1.7205">
        <ele>57</ele>
        <time>2021-07-17T07:27:14.000Z</time>
      </trkpt>
      <trkpt lat="47.10906" lon="-1.72066">
        <ele>58</ele>
        <time>2021-07-17T07:27:16.000Z</time>
      </trkpt>
      <trkpt lat="47.10896" lon="-1.72081">
        <ele>58</ele>
        <time>2021-07-17T07:27:18.000Z</time>
      </trkpt>
      <trkpt lat="47.10885" lon="-1.72096">
        <ele>58</ele>
        <time>2021-07-17T07:27:20.000Z</time>
      </trkpt>
      <trkpt lat="47.10874" lon="-1.72113">
        <ele>58</ele>
        <time>2021-07-17T07:27:22.000Z</time>
      </trkpt>
      <trkpt lat="47.10863" lon="-1.72127">
        <ele>58</ele>
        <time>2021-07-17T07:27:24.000Z</time>
      </trkpt>
      <trkpt lat="47.10851" lon="-1.72138">
        <ele>57</ele>
        <time>2021-07-17T07:27:26.000Z</time>
      </trkpt>
      <trkpt lat="47.10837" lon="-1.72144">
        <ele>57</ele>
        <time>2021-07-17T07:27:28.000Z</time>
      </trkpt>
      <trkpt lat="47.10822" lon="-1.7214">
        <ele>57</ele>
        <time>2021-07-17T07:27:30.000Z</time>
      </trkpt>
      <trkpt lat="47.1081" lon="-1.72128">
        <ele>57</ele>
        <time>2021-07-17T07:27:32.000Z</time>
      </trkpt>
      <trkpt lat="47.10797" lon="-1.72115">
        <ele>56</ele>
        <time>2021-07-17T07:27:34.000Z</time>
      </trkpt>
      <trkpt lat="47.10783" lon="-1.72107">
        <ele>57</ele>
        <time>2021-07-17T07:27:36.000Z</time>
      </trkpt>
      <trkpt lat="47.10769" lon="-1.72102">
        <ele>57</ele>
        <time>2021-07-17T07:27:38.000Z</time>
      </trkpt>
      <trkpt lat="47.10755" lon="-1.721">
        <ele>57</ele>
        <time>2021-07-17T07:27:40.000Z</time>
      </trkpt>
      <trkpt lat="47.10741" lon="-1.721">
        <ele>57</ele>
        <time>2021-07-17T07:27:42.000Z</time>
      </trkpt>
      <trkpt lat="47.10727" lon="-1.72103">
        <ele>56</ele>
        <time>2021-07-17T07:27:44.000Z</time>
      </trkpt>
      <trkpt lat="47.10713" lon="-1.72108">
        <ele>56</ele>
        <time>2021-07-17T07:27:46.000Z</time>
      </trkpt>
      <trkpt lat="47.10698" lon="-1.72112">
        <ele>57</ele>
        <time>2021-07-17T07:27:48.000Z</time>
      </trkpt>
      <trkpt lat="47.10683" lon="-1.72116">
        <ele>57</ele>
        <time>2021-07-17T07:27:50.000Z</time>
      </trkpt>
      <trkpt lat="47.10669" lon="-1.7212">
        <ele>57</ele>
        <time>2021-07-17T07:27:52.000Z</time>
      </trkpt>
      <trkpt lat="47.10655" lon="-1.72124">
        <ele>57</ele>
        <time>2021-07-17T07:27:54.000Z</time>
      </trkpt>
      <trkpt lat="47.10641" lon="-1.72128">
        <ele>56</ele>
        <time>2021-07-17T07:27:56.000Z</time>
      </trkpt>
      <trkpt lat="47.10626" lon="-1.72134">
        <ele>57</ele>
        <time>2021-07-17T07:27:58.000Z</time>
      </trkpt>
      <trkpt lat="47.10613" lon="-1.72143">
        <ele>57</ele>
        <time>2021-07-17T07:28:00.000Z</time>
      </trkpt>
      <trkpt lat="47.106" lon="-1.72156">
        <ele>57</ele>
        <time>2021-07-17T07:28:02.000Z</time>
      </trkpt>
      <trkpt lat="47.10588" lon="-1.7217">
        <ele>57</ele>
        <time>2021-07-17T07:28:04.000Z</time>
      </trkpt>
      <trkpt lat="47.10577" lon="-1.72186">
        <ele>57</ele>
        <time>2021-07-17T07:28:06.000Z</time>
      </trkpt>
      <trkpt lat="47.10567" lon="-1.72202">
        <ele>57</ele>
        <time>2021-07-17T07:28:08.000Z</time>
      </trkpt>
      <trkpt lat="47.10557" lon="-1.72217">
        <ele>57</ele>
        <time>2021-07-17T07:28:10.000Z</time>
      </trkpt>
      <trkpt lat="47.10546" lon="-1.72232">
        <ele>58</ele>
        <time>2021-07-17T07:28:12.000Z</time>
      </trkpt>
      <trkpt lat="47.10537" lon="-1.72247">
        <ele>58</ele>
        <time>2021-07-17T07:28:14.000Z</time>
      </trkpt>
      <trkpt lat="47.10527" lon="-1.72261">
        <ele>58</ele>
        <time>2021-07-17T07:28:16.000Z</time>
      </trkpt>
      <trkpt lat="47.10517" lon="-1.72275">
        <ele>59</ele>
        <time>2021-07-17T07:28:18.000Z</time>
      </trkpt>
      <trkpt lat="47.10505" lon="-1.72285">
        <ele>60</ele>
        <time>2021-07-17T07:28:20.000Z</time>
      </trkpt>
      <trkpt lat="47.10492" lon="-1.72293">
        <ele>60</ele>
        <time>2021-07-17T07:28:22.000Z</time>
      </trkpt>
      <trkpt lat="47.1048" lon="-1.723">
        <ele>60</ele>
        <time>2021-07-17T07:28:24.000Z</time>
      </trkpt>
      <trkpt lat="47.10467" lon="-1.72308">
        <ele>59</ele>
        <time>2021-07-17T07:28:26.000Z</time>
      </trkpt>
      <trkpt lat="47.10453" lon="-1.72314">
        <ele>59</ele>
        <time>2021-07-17T07:28:28.000Z</time>
      </trkpt>
      <trkpt lat="47.1044" lon="-1.72321">
        <ele>59</ele>
        <time>2021-07-17T07:28:30.000Z</time>
      </trkpt>
      <trkpt lat="47.10428" lon="-1.72328">
        <ele>59</ele>
        <time>2021-07-17T07:28:32.000Z</time>
      </trkpt>
      <trkpt lat="47.10415" lon="-1.72335">
        <ele>59</ele>
        <time>2021-07-17T07:28:34.000Z</time>
      </trkpt>
      <trkpt lat="47.10403" lon="-1.7234">
        <ele>59</ele>
        <time>2021-07-17T07:28:36.000Z</time>
      </trkpt>
      <trkpt lat="47.10391" lon="-1.72346">
        <ele>59</ele>
        <time>2021-07-17T07:28:38.000Z</time>
      </trkpt>
      <trkpt lat="47.10379" lon="-1.72353">
        <ele>60</ele>
        <time>2021-07-17T07:28:40.000Z</time>
      </trkpt>
      <trkpt lat="47.10366" lon="-1.7236">
        <ele>60</ele>
        <time>2021-07-17T07:28:42.000Z</time>
      </trkpt>
      <trkpt lat="47.10354" lon="-1.72366">
        <ele>60</ele>
        <time>2021-07-17T07:28:44.000Z</time>
      </trkpt>
      <trkpt lat="47.10341" lon="-1.72373">
        <ele>60</ele>
        <time>2021-07-17T07:28:46.000Z</time>
      </trkpt>
      <trkpt lat="47.10329" lon="-1.72379">
        <ele>60</ele>
        <time>2021-07-17T07:28:48.000Z</time>
      </trkpt>
      <trkpt lat="47.10316" lon="-1.72386">
        <ele>61</ele>
        <time>2021-07-17T07:28:50.000Z</time>
      </trkpt>
      <trkpt lat="47.10304" lon="-1.72393">
        <ele>62</ele>
        <time>2021-07-17T07:28:52.000Z</time>
      </trkpt>
      <trkpt lat="47.10291" lon="-1.724">
        <ele>62</ele>
        <time>2021-07-17T07:28:54.000Z</time>
      </trkpt>
      <trkpt lat="47.10278" lon="-1.72407">
        <ele>62</ele>
        <time>2021-07-17T07:28:56.000Z</time>
      </trkpt>
      <trkpt lat="47.10266" lon="-1.72416">
        <ele>62</ele>
        <time>2021-07-17T07:28:58.000Z</time>
      </trkpt>
      <trkpt lat="47.10255" lon="-1.72428">
        <ele>62</ele>
        <time>2021-07-17T07:29:00.000Z</time>
      </trkpt>
      <trkpt lat="47.10246" lon="-1.72442">
        <ele>62</ele>
        <time>2021-07-17T07:29:02.000Z</time>
      </trkpt>
      <trkpt lat="47.10237" lon="-1.72456">
        <ele>61</ele>
        <time>2021-07-17T07:29:04.000Z</time>
      </trkpt>
      <trkpt lat="47.10228" lon="-1.72471">
        <ele>61</ele>
        <time>2021-07-17T07:29:06.000Z</time>
      </trkpt>
      <trkpt lat="47.10219" lon="-1.72485">
        <ele>61</ele>
        <time>2021-07-17T07:29:08.000Z</time>
      </trkpt>
      <trkpt lat="47.10211" lon="-1.725">
        <ele>60</ele>
        <time>2021-07-17T07:29:10.000Z</time>
      </trkpt>
      <trkpt lat="47.10202" lon="-1.72514">
        <ele>60</ele>
        <time>2021-07-17T07:29:12.000Z</time>
      </trkpt>
      <trkpt lat="47.10193" lon="-1.7253">
        <ele>60</ele>
        <time>2021-07-17T07:29:14.000Z</time>
      </trkpt>
      <trkpt lat="47.10184" lon="-1.72545">
        <ele>60</ele>
        <time>2021-07-17T07:29:16.000Z</time>
      </trkpt>
      <trkpt lat="47.10174" lon="-1.72558">
        <ele>60</ele>
        <time>2021-07-17T07:29:18.000Z</time>
      </trkpt>
      <trkpt lat="47.10164" lon="-1.72571">
        <ele>61</ele>
        <time>2021-07-17T07:29:20.000Z</time>
      </trkpt>
      <trkpt lat="47.10155" lon="-1.72584">
        <ele>61</ele>
        <time>2021-07-17T07:29:22.000Z</time>
      </trkpt>
      <trkpt lat="47.10145" lon="-1.72596">
        <ele>61</ele>
        <time>2021-07-17T07:29:24.000Z</time>
      </trkpt>
      <trkpt lat="47.10135" lon="-1.72607">
        <ele>62</ele>
        <time>2021-07-17T07:29:26.000Z</time>
      </trkpt>
      <trkpt lat="47.10124" lon="-1.72618">
        <ele>62</ele>
        <time>2021-07-17T07:29:28.000Z</time>
      </trkpt>
      <trkpt lat="47.10114" lon="-1.72629">
        <ele>62</ele>
        <time>2021-07-17T07:29:30.000Z</time>
      </trkpt>
      <trkpt lat="47.10102" lon="-1.7264">
        <ele>62</ele>
        <time>2021-07-17T07:29:32.000Z</time>
      </trkpt>
      <trkpt lat="47.10091" lon="-1.72652">
        <ele>62</ele>
        <time>2021-07-17T07:29:34.000Z</time>
      </trkpt>
      <trkpt lat="47.10079" lon="-1.72663">
        <ele>62</ele>
        <time>2021-07-17T07:29:36.000Z</time>
      </trkpt>
      <trkpt lat="47.10068" lon="-1.72674">
        <ele>62</ele>
        <time>2021-07-17T07:29:38.000Z</time>
      </trkpt>
      <trkpt lat="47.10056" lon="-1.72686">
        <ele>62</ele>
        <time>2021-07-17T07:29:40.000Z</time>
      </trkpt>
      <trkpt lat="47.10044" lon="-1.72697">
        <ele>62</ele>
        <time>2021-07-17T07:29:42.000Z</time>
      </trkpt>
      <trkpt lat="47.10032" lon="-1.72708">
        <ele>61</ele>
        <time>2021-07-17T07:29:44.000Z</time>
      </trkpt>
      <trkpt lat="47.10021" lon="-1.72718">
        <ele>62</ele>
        <time>2021-07-17T07:29:46.000Z</time>
      </trkpt>
      <trkpt lat="47.10009" lon="-1.72728">
        <ele>62</ele>
        <time>2021-07-17T07:29:48.000Z</time>
      </trkpt>
      <trkpt lat="47.09996" lon="-1.72737">
        <ele>62</ele>
        <time>2021-07-17T07:29:50.000Z</time>
      </trkpt>
      <trkpt lat="47.09983" lon="-1.72746">
        <ele>62</ele>
        <time>2021-07-17T07:29:52.000Z</time>
      </trkpt>
      <trkpt lat="47.0997" lon="-1.72753">
        <ele>62</ele>
        <time>2021-07-17T07:29:54.000Z</time>
      </trkpt>
      <trkpt lat="47.09956" lon="-1.7276">
        <ele>62</ele>
        <time>2021-07-17T07:29:56.000Z</time>
      </trkpt>
      <trkpt lat="47.09943" lon="-1.72768">
        <ele>61</ele>
        <time>2021-07-17T07:29:58.000Z</time>
      </trkpt>
      <trkpt lat="47.0993" lon="-1.72775">
        <ele>61</ele>
        <time>2021-07-17T07:30:00.000Z</time>
      </trkpt>
      <trkpt lat="47.09917" lon="-1.72781">
        <ele>61</ele>
        <time>2021-07-17T07:30:02.000Z</time>
      </trkpt>
      <trkpt lat="47.09904" lon="-1.72788">
        <ele>61</ele>
        <time>2021-07-17T07:30:04.000Z</time>
      </trkpt>
      <trkpt lat="47.09891" lon="-1.72794">
        <ele>61</ele>
        <time>2021-07-17T07:30:06.000Z</time>
      </trkpt>
      <trkpt lat="47.09878" lon="-1.72801">
        <ele>61</ele>
        <time>2021-07-17T07:30:08.000Z</time>
      </trkpt>
      <trkpt lat="47.09865" lon="-1.72808">
        <ele>60</ele>
        <time>2021-07-17T07:30:10.000Z</time>
      </trkpt>
      <trkpt lat="47.09851" lon="-1.72815">
        <ele>60</ele>
        <time>2021-07-17T07:30:12.000Z</time>
      </trkpt>
      <trkpt lat="47.09838" lon="-1.72822">
        <ele>60</ele>
        <time>2021-07-17T07:30:14.000Z</time>
      </trkpt>
      <trkpt lat="47.09824" lon="-1.72829">
        <ele>60</ele>
        <time>2021-07-17T07:30:16.000Z</time>
      </trkpt>
      <trkpt lat="47.09811" lon="-1.72836">
        <ele>59</ele>
        <time>2021-07-17T07:30:18.000Z</time>
      </trkpt>
      <trkpt lat="47.09799" lon="-1.72845">
        <ele>58</ele>
        <time>2021-07-17T07:30:20.000Z</time>
      </trkpt>
      <trkpt lat="47.09787" lon="-1.72857">
        <ele>58</ele>
        <time>2021-07-17T07:30:22.000Z</time>
      </trkpt>
      <trkpt lat="47.09777" lon="-1.72869">
        <ele>58</ele>
        <time>2021-07-17T07:30:24.000Z</time>
      </trkpt>
      <trkpt lat="47.09765" lon="-1.72873">
        <ele>58</ele>
        <time>2021-07-17T07:30:26.000Z</time>
      </trkpt>
      <trkpt lat="47.09755" lon="-1.72861">
        <ele>58</ele>
        <time>2021-07-17T07:30:28.000Z</time>
      </trkpt>
      <trkpt lat="47.09747" lon="-1.72844">
        <ele>58</ele>
        <time>2021-07-17T07:30:30.000Z</time>
      </trkpt>
      <trkpt lat="47.0974" lon="-1.72827">
        <ele>58</ele>
        <time>2021-07-17T07:30:32.000Z</time>
      </trkpt>
      <trkpt lat="47.09732" lon="-1.7281">
        <ele>58</ele>
        <time>2021-07-17T07:30:34.000Z</time>
      </trkpt>
      <trkpt lat="47.09724" lon="-1.72792">
        <ele>57</ele>
        <time>2021-07-17T07:30:36.000Z</time>
      </trkpt>
      <trkpt lat="47.09717" lon="-1.72774">
        <ele>57</ele>
        <time>2021-07-17T07:30:38.000Z</time>
      </trkpt>
      <trkpt lat="47.09709" lon="-1.72758">
        <ele>56</ele>
        <time>2021-07-17T07:30:40.000Z</time>
      </trkpt>
      <trkpt lat="47.09698" lon="-1.72744">
        <ele>56</ele>
        <time>2021-07-17T07:30:42.000Z</time>
      </trkpt>
      <trkpt lat="47.09685" lon="-1.72734">
        <ele>56</ele>
        <time>2021-07-17T07:30:44.000Z</time>
      </trkpt>
      <trkpt lat="47.09671" lon="-1.72729">
        <ele>55</ele>
        <time>2021-07-17T07:30:46.000Z</time>
      </trkpt>
      <trkpt lat="47.09657" lon="-1.72727">
        <ele>56</ele>
        <time>2021-07-17T07:30:48.000Z</time>
      </trkpt>
      <trkpt lat="47.09643" lon="-1.72724">
        <ele>56</ele>
        <time>2021-07-17T07:30:50.000Z</time>
      </trkpt>
      <trkpt lat="47.09629" lon="-1.72718">
        <ele>56</ele>
        <time>2021-07-17T07:30:52.000Z</time>
      </trkpt>
      <trkpt lat="47.09614" lon="-1.72711">
        <ele>55</ele>
        <time>2021-07-17T07:30:54.000Z</time>
      </trkpt>
      <trkpt lat="47.09599" lon="-1.72704">
        <ele>55</ele>
        <time>2021-07-17T07:30:56.000Z</time>
      </trkpt>
      <trkpt lat="47.09584" lon="-1.72698">
        <ele>55</ele>
        <time>2021-07-17T07:30:58.000Z</time>
      </trkpt>
      <trkpt lat="47.09569" lon="-1.7269">
        <ele>54</ele>
        <time>2021-07-17T07:31:00.000Z</time>
      </trkpt>
      <trkpt lat="47.09554" lon="-1.72684">
        <ele>54</ele>
        <time>2021-07-17T07:31:02.000Z</time>
      </trkpt>
      <trkpt lat="47.09539" lon="-1.72683">
        <ele>54</ele>
        <time>2021-07-17T07:31:04.000Z</time>
      </trkpt>
      <trkpt lat="47.09526" lon="-1.72693">
        <ele>54</ele>
        <time>2021-07-17T07:31:06.000Z</time>
      </trkpt>
      <trkpt lat="47.09516" lon="-1.72712">
        <ele>54</ele>
        <time>2021-07-17T07:31:08.000Z</time>
      </trkpt>
      <trkpt lat="47.09508" lon="-1.7273">
        <ele>54</ele>
        <time>2021-07-17T07:31:10.000Z</time>
      </trkpt>
      <trkpt lat="47.09499" lon="-1.72749">
        <ele>54</ele>
        <time>2021-07-17T07:31:12.000Z</time>
      </trkpt>
      <trkpt lat="47.0949" lon="-1.72768">
        <ele>53</ele>
        <time>2021-07-17T07:31:14.000Z</time>
      </trkpt>
      <trkpt lat="47.09481" lon="-1.72786">
        <ele>53</ele>
        <time>2021-07-17T07:31:16.000Z</time>
      </trkpt>
      <trkpt lat="47.09472" lon="-1.72804">
        <ele>53</ele>
        <time>2021-07-17T07:31:18.000Z</time>
      </trkpt>
      <trkpt lat="47.09464" lon="-1.72823">
        <ele>53</ele>
        <time>2021-07-17T07:31:20.000Z</time>
      </trkpt>
      <trkpt lat="47.09455" lon="-1.7284">
        <ele>53</ele>
        <time>2021-07-17T07:31:22.000Z</time>
      </trkpt>
      <trkpt lat="47.09446" lon="-1.72858">
        <ele>53</ele>
        <time>2021-07-17T07:31:24.000Z</time>
      </trkpt>
      <trkpt lat="47.09437" lon="-1.72875">
        <ele>53</ele>
        <time>2021-07-17T07:31:26.000Z</time>
      </trkpt>
      <trkpt lat="47.09429" lon="-1.72892">
        <ele>53</ele>
        <time>2021-07-17T07:31:28.000Z</time>
      </trkpt>
      <trkpt lat="47.0942" lon="-1.72909">
        <ele>54</ele>
        <time>2021-07-17T07:31:30.000Z</time>
      </trkpt>
      <trkpt lat="47.09411" lon="-1.72926">
        <ele>54</ele>
        <time>2021-07-17T07:31:32.000Z</time>
      </trkpt>
      <trkpt lat="47.09403" lon="-1.72945">
        <ele>53</ele>
        <time>2021-07-17T07:31:34.000Z</time>
      </trkpt>
      <trkpt lat="47.09396" lon="-1.72964">
        <ele>53</ele>
        <time>2021-07-17T07:31:36.000Z</time>
      </trkpt>
      <trkpt lat="47.09391" lon="-1.72985">
        <ele>54</ele>
        <time>2021-07-17T07:31:38.000Z</time>
      </trkpt>
      <trkpt lat="47.09389" lon="-1.73006">
        <ele>54</ele>
        <time>2021-07-17T07:31:40.000Z</time>
      </trkpt>
      <trkpt lat="47.09388" lon="-1.73027">
        <ele>54</ele>
        <time>2021-07-17T07:31:42.000Z</time>
      </trkpt>
      <trkpt lat="47.09386" lon="-1.73048">
        <ele>54</ele>
        <time>2021-07-17T07:31:44.000Z</time>
      </trkpt>
      <trkpt lat="47.09383" lon="-1.73068">
        <ele>54</ele>
        <time>2021-07-17T07:31:46.000Z</time>
      </trkpt>
      <trkpt lat="47.09378" lon="-1.73088">
        <ele>56</ele>
        <time>2021-07-17T07:31:48.000Z</time>
      </trkpt>
      <trkpt lat="47.09368" lon="-1.73104">
        <ele>57</ele>
        <time>2021-07-17T07:31:50.000Z</time>
      </trkpt>
      <trkpt lat="47.09356" lon="-1.73117">
        <ele>57</ele>
        <time>2021-07-17T07:31:52.000Z</time>
      </trkpt>
      <trkpt lat="47.09342" lon="-1.73128">
        <ele>57</ele>
        <time>2021-07-17T07:31:54.000Z</time>
      </trkpt>
      <trkpt lat="47.09327" lon="-1.73138">
        <ele>57</ele>
        <time>2021-07-17T07:31:56.000Z</time>
      </trkpt>
      <trkpt lat="47.09314" lon="-1.73148">
        <ele>56</ele>
        <time>2021-07-17T07:31:58.000Z</time>
      </trkpt>
      <trkpt lat="47.09301" lon="-1.73157">
        <ele>57</ele>
        <time>2021-07-17T07:32:00.000Z</time>
      </trkpt>
      <trkpt lat="47.09289" lon="-1.73167">
        <ele>56</ele>
        <time>2021-07-17T07:32:02.000Z</time>
      </trkpt>
      <trkpt lat="47.09277" lon="-1.73178">
        <ele>57</ele>
        <time>2021-07-17T07:32:04.000Z</time>
      </trkpt>
      <trkpt lat="47.09265" lon="-1.73188">
        <ele>58</ele>
        <time>2021-07-17T07:32:06.000Z</time>
      </trkpt>
      <trkpt lat="47.09252" lon="-1.73198">
        <ele>58</ele>
        <time>2021-07-17T07:32:08.000Z</time>
      </trkpt>
      <trkpt lat="47.09239" lon="-1.73208">
        <ele>58</ele>
        <time>2021-07-17T07:32:10.000Z</time>
      </trkpt>
      <trkpt lat="47.09226" lon="-1.73219">
        <ele>59</ele>
        <time>2021-07-17T07:32:12.000Z</time>
      </trkpt>
      <trkpt lat="47.09213" lon="-1.73229">
        <ele>59</ele>
        <time>2021-07-17T07:32:14.000Z</time>
      </trkpt>
      <trkpt lat="47.092" lon="-1.73239">
        <ele>59</ele>
        <time>2021-07-17T07:32:16.000Z</time>
      </trkpt>
      <trkpt lat="47.09186" lon="-1.73249">
        <ele>58</ele>
        <time>2021-07-17T07:32:18.000Z</time>
      </trkpt>
      <trkpt lat="47.09173" lon="-1.73258">
        <ele>57</ele>
        <time>2021-07-17T07:32:20.000Z</time>
      </trkpt>
      <trkpt lat="47.0916" lon="-1.73269">
        <ele>57</ele>
        <time>2021-07-17T07:32:22.000Z</time>
      </trkpt>
      <trkpt lat="47.09147" lon="-1.73279">
        <ele>56</ele>
        <time>2021-07-17T07:32:24.000Z</time>
      </trkpt>
      <trkpt lat="47.09134" lon="-1.73289">
        <ele>56</ele>
        <time>2021-07-17T07:32:26.000Z</time>
      </trkpt>
      <trkpt lat="47.09121" lon="-1.73299">
        <ele>56</ele>
        <time>2021-07-17T07:32:28.000Z</time>
      </trkpt>
      <trkpt lat="47.09108" lon="-1.7331">
        <ele>56</ele>
        <time>2021-07-17T07:32:30.000Z</time>
      </trkpt>
      <trkpt lat="47.09096" lon="-1.73321">
        <ele>56</ele>
        <time>2021-07-17T07:32:32.000Z</time>
      </trkpt>
      <trkpt lat="47.09084" lon="-1.73332">
        <ele>56</ele>
        <time>2021-07-17T07:32:34.000Z</time>
      </trkpt>
      <trkpt lat="47.09072" lon="-1.73344">
        <ele>57</ele>
        <time>2021-07-17T07:32:36.000Z</time>
      </trkpt>
      <trkpt lat="47.09059" lon="-1.73355">
        <ele>57</ele>
        <time>2021-07-17T07:32:38.000Z</time>
      </trkpt>
      <trkpt lat="47.09047" lon="-1.73367">
        <ele>56</ele>
        <time>2021-07-17T07:32:40.000Z</time>
      </trkpt>
      <trkpt lat="47.09034" lon="-1.73377">
        <ele>57</ele>
        <time>2021-07-17T07:32:42.000Z</time>
      </trkpt>
      <trkpt lat="47.09021" lon="-1.73388">
        <ele>57</ele>
        <time>2021-07-17T07:32:44.000Z</time>
      </trkpt>
      <trkpt lat="47.09009" lon="-1.73399">
        <ele>57</ele>
        <time>2021-07-17T07:32:46.000Z</time>
      </trkpt>
      <trkpt lat="47.08998" lon="-1.73411">
        <ele>56</ele>
        <time>2021-07-17T07:32:48.000Z</time>
      </trkpt>
      <trkpt lat="47.08987" lon="-1.73425">
        <ele>56</ele>
        <time>2021-07-17T07:32:50.000Z</time>
      </trkpt>
      <trkpt lat="47.08977" lon="-1.73439">
        <ele>56</ele>
        <time>2021-07-17T07:32:52.000Z</time>
      </trkpt>
      <trkpt lat="47.08966" lon="-1.73452">
        <ele>55</ele>
        <time>2021-07-17T07:32:54.000Z</time>
      </trkpt>
      <trkpt lat="47.08958" lon="-1.73468">
        <ele>55</ele>
        <time>2021-07-17T07:32:56.000Z</time>
      </trkpt>
      <trkpt lat="47.08951" lon="-1.73487">
        <ele>55</ele>
        <time>2021-07-17T07:32:58.000Z</time>
      </trkpt>
      <trkpt lat="47.08945" lon="-1.73507">
        <ele>55</ele>
        <time>2021-07-17T07:33:00.000Z</time>
      </trkpt>
      <trkpt lat="47.08941" lon="-1.73528">
        <ele>56</ele>
        <time>2021-07-17T07:33:02.000Z</time>
      </trkpt>
      <trkpt lat="47.08936" lon="-1.73548">
        <ele>56</ele>
        <time>2021-07-17T07:33:04.000Z</time>
      </trkpt>
      <trkpt lat="47.08932" lon="-1.73567">
        <ele>55</ele>
        <time>2021-07-17T07:33:06.000Z</time>
      </trkpt>
      <trkpt lat="47.08927" lon="-1.73586">
        <ele>54</ele>
        <time>2021-07-17T07:33:08.000Z</time>
      </trkpt>
      <trkpt lat="47.08924" lon="-1.73606">
        <ele>54</ele>
        <time>2021-07-17T07:33:10.000Z</time>
      </trkpt>
      <trkpt lat="47.08921" lon="-1.73626">
        <ele>54</ele>
        <time>2021-07-17T07:33:12.000Z</time>
      </trkpt>
      <trkpt lat="47.08917" lon="-1.73647">
        <ele>54</ele>
        <time>2021-07-17T07:33:14.000Z</time>
      </trkpt>
      <trkpt lat="47.08911" lon="-1.73667">
        <ele>54</ele>
        <time>2021-07-17T07:33:16.000Z</time>
      </trkpt>
      <trkpt lat="47.08902" lon="-1.73684">
        <ele>54</ele>
        <time>2021-07-17T07:33:18.000Z</time>
      </trkpt>
      <trkpt lat="47.08893" lon="-1.73702">
        <ele>54</ele>
        <time>2021-07-17T07:33:20.000Z</time>
      </trkpt>
      <trkpt lat="47.08885" lon="-1.7372">
        <ele>54</ele>
        <time>2021-07-17T07:33:22.000Z</time>
      </trkpt>
      <trkpt lat="47.08876" lon="-1.73738">
        <ele>54</ele>
        <time>2021-07-17T07:33:24.000Z</time>
      </trkpt>
      <trkpt lat="47.08867" lon="-1.73755">
        <ele>54</ele>
        <time>2021-07-17T07:33:26.000Z</time>
      </trkpt>
      <trkpt lat="47.08859" lon="-1.73771">
        <ele>54</ele>
        <time>2021-07-17T07:33:28.000Z</time>
      </trkpt>
      <trkpt lat="47.08849" lon="-1.73787">
        <ele>54</ele>
        <time>2021-07-17T07:33:30.000Z</time>
      </trkpt>
      <trkpt lat="47.08838" lon="-1.73801">
        <ele>54</ele>
        <time>2021-07-17T07:33:32.000Z</time>
      </trkpt>
      <trkpt lat="47.08826" lon="-1.73815">
        <ele>53</ele>
        <time>2021-07-17T07:33:34.000Z</time>
      </trkpt>
      <trkpt lat="47.08815" lon="-1.73828">
        <ele>53</ele>
        <time>2021-07-17T07:33:36.000Z</time>
      </trkpt>
      <trkpt lat="47.08804" lon="-1.73842">
        <ele>53</ele>
        <time>2021-07-17T07:33:38.000Z</time>
      </trkpt>
      <trkpt lat="47.08793" lon="-1.73856">
        <ele>53</ele>
        <time>2021-07-17T07:33:40.000Z</time>
      </trkpt>
      <trkpt lat="47.08784" lon="-1.73872">
        <ele>52</ele>
        <time>2021-07-17T07:33:42.000Z</time>
      </trkpt>
      <trkpt lat="47.08774" lon="-1.7389">
        <ele>52</ele>
        <time>2021-07-17T07:33:44.000Z</time>
      </trkpt>
      <trkpt lat="47.08765" lon="-1.73908">
        <ele>52</ele>
        <time>2021-07-17T07:33:46.000Z</time>
      </trkpt>
      <trkpt lat="47.08756" lon="-1.73925">
        <ele>52</ele>
        <time>2021-07-17T07:33:48.000Z</time>
      </trkpt>
      <trkpt lat="47.08747" lon="-1.73943">
        <ele>52</ele>
        <time>2021-07-17T07:33:50.000Z</time>
      </trkpt>
      <trkpt lat="47.08739" lon="-1.73961">
        <ele>52</ele>
        <time>2021-07-17T07:33:52.000Z</time>
      </trkpt>
      <trkpt lat="47.08731" lon="-1.73978">
        <ele>52</ele>
        <time>2021-07-17T07:33:54.000Z</time>
      </trkpt>
      <trkpt lat="47.08722" lon="-1.73996">
        <ele>52</ele>
        <time>2021-07-17T07:33:56.000Z</time>
      </trkpt>
      <trkpt lat="47.08715" lon="-1.74014">
        <ele>53</ele>
        <time>2021-07-17T07:33:58.000Z</time>
      </trkpt>
      <trkpt lat="47.08707" lon="-1.74032">
        <ele>53</ele>
        <time>2021-07-17T07:34:00.000Z</time>
      </trkpt>
      <trkpt lat="47.087" lon="-1.7405">
        <ele>53</ele>
        <time>2021-07-17T07:34:02.000Z</time>
      </trkpt>
      <trkpt lat="47.08692" lon="-1.74069">
        <ele>53</ele>
        <time>2021-07-17T07:34:04.000Z</time>
      </trkpt>
      <trkpt lat="47.08684" lon="-1.74087">
        <ele>53</ele>
        <time>2021-07-17T07:34:06.000Z</time>
      </trkpt>
      <trkpt lat="47.08677" lon="-1.74106">
        <ele>53</ele>
        <time>2021-07-17T07:34:08.000Z</time>
      </trkpt>
      <trkpt lat="47.0867" lon="-1.74124">
        <ele>53</ele>
        <time>2021-07-17T07:34:10.000Z</time>
      </trkpt>
      <trkpt lat="47.08661" lon="-1.74141">
        <ele>54</ele>
        <time>2021-07-17T07:34:12.000Z</time>
      </trkpt>
      <trkpt lat="47.08651" lon="-1.74156">
        <ele>53</ele>
        <time>2021-07-17T07:34:14.000Z</time>
      </trkpt>
      <trkpt lat="47.08641" lon="-1.7417">
        <ele>53</ele>
        <time>2021-07-17T07:34:16.000Z</time>
      </trkpt>
      <trkpt lat="47.0863" lon="-1.74184">
        <ele>53</ele>
        <time>2021-07-17T07:34:18.000Z</time>
      </trkpt>
      <trkpt lat="47.08619" lon="-1.74197">
        <ele>52</ele>
        <time>2021-07-17T07:34:20.000Z</time>
      </trkpt>
      <trkpt lat="47.08608" lon="-1.7421">
        <ele>52</ele>
        <time>2021-07-17T07:34:22.000Z</time>
      </trkpt>
      <trkpt lat="47.08597" lon="-1.74224">
        <ele>52</ele>
        <time>2021-07-17T07:34:24.000Z</time>
      </trkpt>
      <trkpt lat="47.08587" lon="-1.74237">
        <ele>53</ele>
        <time>2021-07-17T07:34:26.000Z</time>
      </trkpt>
      <trkpt lat="47.08576" lon="-1.7425">
        <ele>53</ele>
        <time>2021-07-17T07:34:28.000Z</time>
      </trkpt>
      <trkpt lat="47.08565" lon="-1.74264">
        <ele>53</ele>
        <time>2021-07-17T07:34:30.000Z</time>
      </trkpt>
      <trkpt lat="47.08555" lon="-1.74277">
        <ele>54</ele>
        <time>2021-07-17T07:34:32.000Z</time>
      </trkpt>
      <trkpt lat="47.08545" lon="-1.74293">
        <ele>53</ele>
        <time>2021-07-17T07:34:34.000Z</time>
      </trkpt>
      <trkpt lat="47.0854" lon="-1.74312">
        <ele>53</ele>
        <time>2021-07-17T07:34:36.000Z</time>
      </trkpt>
      <trkpt lat="47.08536" lon="-1.74332">
        <ele>54</ele>
        <time>2021-07-17T07:34:38.000Z</time>
      </trkpt>
      <trkpt lat="47.08534" lon="-1.74353">
        <ele>54</ele>
        <time>2021-07-17T07:34:40.000Z</time>
      </trkpt>
      <trkpt lat="47.08528" lon="-1.74372">
        <ele>54</ele>
        <time>2021-07-17T07:34:42.000Z</time>
      </trkpt>
      <trkpt lat="47.08519" lon="-1.74388">
        <ele>55</ele>
        <time>2021-07-17T07:34:44.000Z</time>
      </trkpt>
      <trkpt lat="47.08508" lon="-1.74401">
        <ele>56</ele>
        <time>2021-07-17T07:34:46.000Z</time>
      </trkpt>
      <trkpt lat="47.08496" lon="-1.74415">
        <ele>56</ele>
        <time>2021-07-17T07:34:48.000Z</time>
      </trkpt>
      <trkpt lat="47.08485" lon="-1.74428">
        <ele>56</ele>
        <time>2021-07-17T07:34:50.000Z</time>
      </trkpt>
      <trkpt lat="47.08474" lon="-1.7444">
        <ele>56</ele>
        <time>2021-07-17T07:34:52.000Z</time>
      </trkpt>
      <trkpt lat="47.08463" lon="-1.74453">
        <ele>56</ele>
        <time>2021-07-17T07:34:54.000Z</time>
      </trkpt>
      <trkpt lat="47.08451" lon="-1.74465">
        <ele>56</ele>
        <time>2021-07-17T07:34:56.000Z</time>
      </trkpt>
      <trkpt lat="47.08439" lon="-1.74477">
        <ele>55</ele>
        <time>2021-07-17T07:34:58.000Z</time>
      </trkpt>
      <trkpt lat="47.08428" lon="-1.7449">
        <ele>55</ele>
        <time>2021-07-17T07:35:00.000Z</time>
      </trkpt>
      <trkpt lat="47.08417" lon="-1.74502">
        <ele>55</ele>
        <time>2021-07-17T07:35:02.000Z</time>
      </trkpt>
      <trkpt lat="47.08405" lon="-1.74516">
        <ele>54</ele>
        <time>2021-07-17T07:35:04.000Z</time>
      </trkpt>
      <trkpt lat="47.08395" lon="-1.7453">
        <ele>55</ele>
        <time>2021-07-17T07:35:06.000Z</time>
      </trkpt>
      <trkpt lat="47.08385" lon="-1.74543">
        <ele>55</ele>
        <time>2021-07-17T07:35:08.000Z</time>
      </trkpt>
      <trkpt lat="47.08375" lon="-1.74555">
        <ele>57</ele>
        <time>2021-07-17T07:35:10.000Z</time>
      </trkpt>
      <trkpt lat="47.08364" lon="-1.74565">
        <ele>57</ele>
        <time>2021-07-17T07:35:12.000Z</time>
      </trkpt>
      <trkpt lat="47.08351" lon="-1.74573">
        <ele>57</ele>
        <time>2021-07-17T07:35:14.000Z</time>
      </trkpt>
      <trkpt lat="47.08339" lon="-1.74578">
        <ele>57</ele>
        <time>2021-07-17T07:35:16.000Z</time>
      </trkpt>
      <trkpt lat="47.08324" lon="-1.74585">
        <ele>57</ele>
        <time>2021-07-17T07:35:18.000Z</time>
      </trkpt>
      <trkpt lat="47.08312" lon="-1.74594">
        <ele>57</ele>
        <time>2021-07-17T07:35:20.000Z</time>
      </trkpt>
      <trkpt lat="47.08301" lon="-1.74608">
        <ele>57</ele>
        <time>2021-07-17T07:35:22.000Z</time>
      </trkpt>
      <trkpt lat="47.0829" lon="-1.74623">
        <ele>57</ele>
        <time>2021-07-17T07:35:24.000Z</time>
      </trkpt>
      <trkpt lat="47.08279" lon="-1.74638">
        <ele>57</ele>
        <time>2021-07-17T07:35:26.000Z</time>
      </trkpt>
      <trkpt lat="47.08269" lon="-1.74652">
        <ele>57</ele>
        <time>2021-07-17T07:35:28.000Z</time>
      </trkpt>
      <trkpt lat="47.08259" lon="-1.74667">
        <ele>57</ele>
        <time>2021-07-17T07:35:30.000Z</time>
      </trkpt>
      <trkpt lat="47.0825" lon="-1.74681">
        <ele>58</ele>
        <time>2021-07-17T07:35:32.000Z</time>
      </trkpt>
      <trkpt lat="47.0824" lon="-1.74696">
        <ele>58</ele>
        <time>2021-07-17T07:35:34.000Z</time>
      </trkpt>
      <trkpt lat="47.08231" lon="-1.74712">
        <ele>58</ele>
        <time>2021-07-17T07:35:36.000Z</time>
      </trkpt>
      <trkpt lat="47.08222" lon="-1.74728">
        <ele>59</ele>
        <time>2021-07-17T07:35:38.000Z</time>
      </trkpt>
      <trkpt lat="47.08215" lon="-1.74746">
        <ele>59</ele>
        <time>2021-07-17T07:35:40.000Z</time>
      </trkpt>
      <trkpt lat="47.08209" lon="-1.74765">
        <ele>58</ele>
        <time>2021-07-17T07:35:42.000Z</time>
      </trkpt>
      <trkpt lat="47.08206" lon="-1.74785">
        <ele>58</ele>
        <time>2021-07-17T07:35:44.000Z</time>
      </trkpt>
      <trkpt lat="47.08202" lon="-1.74804">
        <ele>58</ele>
        <time>2021-07-17T07:35:46.000Z</time>
      </trkpt>
      <trkpt lat="47.08197" lon="-1.74823">
        <ele>58</ele>
        <time>2021-07-17T07:35:48.000Z</time>
      </trkpt>
      <trkpt lat="47.08186" lon="-1.74837">
        <ele>57</ele>
        <time>2021-07-17T07:35:50.000Z</time>
      </trkpt>
      <trkpt lat="47.08174" lon="-1.74849">
        <ele>57</ele>
        <time>2021-07-17T07:35:52.000Z</time>
      </trkpt>
      <trkpt lat="47.08161" lon="-1.74859">
        <ele>57</ele>
        <time>2021-07-17T07:35:54.000Z</time>
      </trkpt>
      <trkpt lat="47.08148" lon="-1.74868">
        <ele>57</ele>
        <time>2021-07-17T07:35:56.000Z</time>
      </trkpt>
      <trkpt lat="47.08134" lon="-1.74875">
        <ele>56</ele>
        <time>2021-07-17T07:35:58.000Z</time>
      </trkpt>
      <trkpt lat="47.08121" lon="-1.7488">
        <ele>56</ele>
        <time>2021-07-17T07:36:00.000Z</time>
      </trkpt>
      <trkpt lat="47.08106" lon="-1.74883">
        <ele>56</ele>
        <time>2021-07-17T07:36:02.000Z</time>
      </trkpt>
      <trkpt lat="47.08093" lon="-1.74885">
        <ele>56</ele>
        <time>2021-07-17T07:36:04.000Z</time>
      </trkpt>
      <trkpt lat="47.08081" lon="-1.74892">
        <ele>56</ele>
        <time>2021-07-17T07:36:06.000Z</time>
      </trkpt>
      <trkpt lat="47.0807" lon="-1.74902">
        <ele>57</ele>
        <time>2021-07-17T07:36:08.000Z</time>
      </trkpt>
      <trkpt lat="47.08059" lon="-1.74915">
        <ele>57</ele>
        <time>2021-07-17T07:36:10.000Z</time>
      </trkpt>
      <trkpt lat="47.08048" lon="-1.74928">
        <ele>57</ele>
        <time>2021-07-17T07:36:12.000Z</time>
      </trkpt>
      <trkpt lat="47.08036" lon="-1.74939">
        <ele>56</ele>
        <time>2021-07-17T07:36:14.000Z</time>
      </trkpt>
      <trkpt lat="47.08023" lon="-1.74948">
        <ele>56</ele>
        <time>2021-07-17T07:36:16.000Z</time>
      </trkpt>
      <trkpt lat="47.08011" lon="-1.74955">
        <ele>56</ele>
        <time>2021-07-17T07:36:18.000Z</time>
      </trkpt>
      <trkpt lat="47.07999" lon="-1.74962">
        <ele>56</ele>
        <time>2021-07-17T07:36:20.000Z</time>
      </trkpt>
      <trkpt lat="47.07987" lon="-1.74968">
        <ele>56</ele>
        <time>2021-07-17T07:36:22.000Z</time>
      </trkpt>
      <trkpt lat="47.07974" lon="-1.74975">
        <ele>56</ele>
        <time>2021-07-17T07:36:24.000Z</time>
      </trkpt>
      <trkpt lat="47.07962" lon="-1.74982">
        <ele>56</ele>
        <time>2021-07-17T07:36:26.000Z</time>
      </trkpt>
      <trkpt lat="47.07949" lon="-1.74989">
        <ele>57</ele>
        <time>2021-07-17T07:36:28.000Z</time>
      </trkpt>
      <trkpt lat="47.07937" lon="-1.74996">
        <ele>57</ele>
        <time>2021-07-17T07:36:30.000Z</time>
      </trkpt>
      <trkpt lat="47.07925" lon="-1.75005">
        <ele>57</ele>
        <time>2021-07-17T07:36:32.000Z</time>
      </trkpt>
      <trkpt lat="47.07912" lon="-1.75012">
        <ele>57</ele>
        <time>2021-07-17T07:36:34.000Z</time>
      </trkpt>
      <trkpt lat="47.079" lon="-1.7502">
        <ele>58</ele>
        <time>2021-07-17T07:36:36.000Z</time>
      </trkpt>
      <trkpt lat="47.07887" lon="-1.75029">
        <ele>57</ele>
        <time>2021-07-17T07:36:38.000Z</time>
      </trkpt>
      <trkpt lat="47.07875" lon="-1.75036">
        <ele>57</ele>
        <time>2021-07-17T07:36:40.000Z</time>
      </trkpt>
      <trkpt lat="47.07861" lon="-1.75043">
        <ele>56</ele>
        <time>2021-07-17T07:36:42.000Z</time>
      </trkpt>
      <trkpt lat="47.07847" lon="-1.75048">
        <ele>56</ele>
        <time>2021-07-17T07:36:44.000Z</time>
      </trkpt>
      <trkpt lat="47.07834" lon="-1.75052">
        <ele>56</ele>
        <time>2021-07-17T07:36:46.000Z</time>
      </trkpt>
      <trkpt lat="47.07822" lon="-1.75054">
        <ele>56</ele>
        <time>2021-07-17T07:36:48.000Z</time>
      </trkpt>
      <trkpt lat="47.07809" lon="-1.75055">
        <ele>55</ele>
        <time>2021-07-17T07:36:50.000Z</time>
      </trkpt>
      <trkpt lat="47.07797" lon="-1.75055">
        <ele>55</ele>
        <time>2021-07-17T07:36:52.000Z</time>
      </trkpt>
      <trkpt lat="47.07785" lon="-1.75055">
        <ele>55</ele>
        <time>2021-07-17T07:36:54.000Z</time>
      </trkpt>
      <trkpt lat="47.07773" lon="-1.75055">
        <ele>55</ele>
        <time>2021-07-17T07:36:56.000Z</time>
      </trkpt>
      <trkpt lat="47.07761" lon="-1.75056">
        <ele>55</ele>
        <time>2021-07-17T07:36:58.000Z</time>
      </trkpt>
      <trkpt lat="47.07749" lon="-1.75058">
        <ele>54</ele>
        <time>2021-07-17T07:37:00.000Z</time>
      </trkpt>
      <trkpt lat="47.07737" lon="-1.75059">
        <ele>54</ele>
        <time>2021-07-17T07:37:02.000Z</time>
      </trkpt>
      <trkpt lat="47.07727" lon="-1.75059">
        <ele>53</ele>
        <time>2021-07-17T07:37:04.000Z</time>
      </trkpt>
      <trkpt lat="47.07717" lon="-1.75061">
        <ele>54</ele>
        <time>2021-07-17T07:37:06.000Z</time>
      </trkpt>
      <trkpt lat="47.07712" lon="-1.75079">
        <ele>54</ele>
        <time>2021-07-17T07:37:09.000Z</time>
      </trkpt>
      <trkpt lat="47.07712" lon="-1.75096">
        <ele>54</ele>
        <time>2021-07-17T07:37:11.000Z</time>
      </trkpt>
      <trkpt lat="47.07712" lon="-1.75115">
        <ele>54</ele>
        <time>2021-07-17T07:37:13.000Z</time>
      </trkpt>
      <trkpt lat="47.07714" lon="-1.75133">
        <ele>54</ele>
        <time>2021-07-17T07:37:15.000Z</time>
      </trkpt>
      <trkpt lat="47.07718" lon="-1.75151">
        <ele>54</ele>
        <time>2021-07-17T07:37:17.000Z</time>
      </trkpt>
      <trkpt lat="47.07723" lon="-1.75169">
        <ele>55</ele>
        <time>2021-07-17T07:37:19.000Z</time>
      </trkpt>
      <trkpt lat="47.07728" lon="-1.75186">
        <ele>55</ele>
        <time>2021-07-17T07:37:21.000Z</time>
      </trkpt>
      <trkpt lat="47.07733" lon="-1.75203">
        <ele>54</ele>
        <time>2021-07-17T07:37:23.000Z</time>
      </trkpt>
      <trkpt lat="47.07739" lon="-1.7522">
        <ele>55</ele>
        <time>2021-07-17T07:37:25.000Z</time>
      </trkpt>
      <trkpt lat="47.07745" lon="-1.75238">
        <ele>55</ele>
        <time>2021-07-17T07:37:27.000Z</time>
      </trkpt>
      <trkpt lat="47.07751" lon="-1.75257">
        <ele>54</ele>
        <time>2021-07-17T07:37:29.000Z</time>
      </trkpt>
      <trkpt lat="47.07757" lon="-1.75274">
        <ele>55</ele>
        <time>2021-07-17T07:37:31.000Z</time>
      </trkpt>
      <trkpt lat="47.07764" lon="-1.75291">
        <ele>55</ele>
        <time>2021-07-17T07:37:33.000Z</time>
      </trkpt>
      <trkpt lat="47.07771" lon="-1.75308">
        <ele>56</ele>
        <time>2021-07-17T07:37:35.000Z</time>
      </trkpt>
      <trkpt lat="47.07778" lon="-1.75325">
        <ele>57</ele>
        <time>2021-07-17T07:37:37.000Z</time>
      </trkpt>
      <trkpt lat="47.07785" lon="-1.75341">
        <ele>57</ele>
        <time>2021-07-17T07:37:39.000Z</time>
      </trkpt>
      <trkpt lat="47.07792" lon="-1.75357">
        <ele>57</ele>
        <time>2021-07-17T07:37:41.000Z</time>
      </trkpt>
      <trkpt lat="47.07799" lon="-1.75372">
        <ele>57</ele>
        <time>2021-07-17T07:37:43.000Z</time>
      </trkpt>
      <trkpt lat="47.07805" lon="-1.75386">
        <ele>57</ele>
        <time>2021-07-17T07:37:45.000Z</time>
      </trkpt>
      <trkpt lat="47.07811" lon="-1.75399">
        <ele>57</ele>
        <time>2021-07-17T07:37:47.000Z</time>
      </trkpt>
      <trkpt lat="47.07816" lon="-1.75415">
        <ele>57</ele>
        <time>2021-07-17T07:37:50.000Z</time>
      </trkpt>
      <trkpt lat="47.07806" lon="-1.75428">
        <ele>57</ele>
        <time>2021-07-17T07:37:53.000Z</time>
      </trkpt>
      <trkpt lat="47.07795" lon="-1.75432">
        <ele>57</ele>
        <time>2021-07-17T07:37:55.000Z</time>
      </trkpt>
      <trkpt lat="47.07783" lon="-1.75436">
        <ele>56</ele>
        <time>2021-07-17T07:37:57.000Z</time>
      </trkpt>
      <trkpt lat="47.07771" lon="-1.75441">
        <ele>57</ele>
        <time>2021-07-17T07:37:59.000Z</time>
      </trkpt>
      <trkpt lat="47.07759" lon="-1.75445">
        <ele>57</ele>
        <time>2021-07-17T07:38:01.000Z</time>
      </trkpt>
      <trkpt lat="47.07747" lon="-1.75451">
        <ele>57</ele>
        <time>2021-07-17T07:38:03.000Z</time>
      </trkpt>
      <trkpt lat="47.07735" lon="-1.75455">
        <ele>57</ele>
        <time>2021-07-17T07:38:05.000Z</time>
      </trkpt>
      <trkpt lat="47.07723" lon="-1.75459">
        <ele>58</ele>
        <time>2021-07-17T07:38:07.000Z</time>
      </trkpt>
      <trkpt lat="47.07711" lon="-1.75465">
        <ele>58</ele>
        <time>2021-07-17T07:38:09.000Z</time>
      </trkpt>
      <trkpt lat="47.077" lon="-1.75469">
        <ele>59</ele>
        <time>2021-07-17T07:38:11.000Z</time>
      </trkpt>
      <trkpt lat="47.07688" lon="-1.75474">
        <ele>59</ele>
        <time>2021-07-17T07:38:13.000Z</time>
      </trkpt>
      <trkpt lat="47.07676" lon="-1.75478">
        <ele>59</ele>
        <time>2021-07-17T07:38:15.000Z</time>
      </trkpt>
      <trkpt lat="47.07664" lon="-1.75482">
        <ele>60</ele>
        <time>2021-07-17T07:38:17.000Z</time>
      </trkpt>
      <trkpt lat="47.07652" lon="-1.75487">
        <ele>60</ele>
        <time>2021-07-17T07:38:19.000Z</time>
      </trkpt>
      <trkpt lat="47.07641" lon="-1.75492">
        <ele>60</ele>
        <time>2021-07-17T07:38:21.000Z</time>
      </trkpt>
      <trkpt lat="47.07629" lon="-1.75497">
        <ele>61</ele>
        <time>2021-07-17T07:38:23.000Z</time>
      </trkpt>
      <trkpt lat="47.07618" lon="-1.75501">
        <ele>61</ele>
        <time>2021-07-17T07:38:25.000Z</time>
      </trkpt>
      <trkpt lat="47.07606" lon="-1.75506">
        <ele>61</ele>
        <time>2021-07-17T07:38:27.000Z</time>
      </trkpt>
      <trkpt lat="47.07594" lon="-1.7551">
        <ele>61</ele>
        <time>2021-07-17T07:38:29.000Z</time>
      </trkpt>
      <trkpt lat="47.07583" lon="-1.75514">
        <ele>62</ele>
        <time>2021-07-17T07:38:31.000Z</time>
      </trkpt>
      <trkpt lat="47.07571" lon="-1.75519">
        <ele>62</ele>
        <time>2021-07-17T07:38:33.000Z</time>
      </trkpt>
      <trkpt lat="47.0756" lon="-1.75523">
        <ele>63</ele>
        <time>2021-07-17T07:38:35.000Z</time>
      </trkpt>
      <trkpt lat="47.07549" lon="-1.75527">
        <ele>63</ele>
        <time>2021-07-17T07:38:37.000Z</time>
      </trkpt>
      <trkpt lat="47.07537" lon="-1.75532">
        <ele>63</ele>
        <time>2021-07-17T07:38:39.000Z</time>
      </trkpt>
      <trkpt lat="47.07525" lon="-1.75536">
        <ele>64</ele>
        <time>2021-07-17T07:38:41.000Z</time>
      </trkpt>
      <trkpt lat="47.07513" lon="-1.75541">
        <ele>64</ele>
        <time>2021-07-17T07:38:43.000Z</time>
      </trkpt>
      <trkpt lat="47.07501" lon="-1.75545">
        <ele>64</ele>
        <time>2021-07-17T07:38:45.000Z</time>
      </trkpt>
      <trkpt lat="47.0749" lon="-1.7555">
        <ele>64</ele>
        <time>2021-07-17T07:38:47.000Z</time>
      </trkpt>
      <trkpt lat="47.07478" lon="-1.75554">
        <ele>65</ele>
        <time>2021-07-17T07:38:49.000Z</time>
      </trkpt>
      <trkpt lat="47.07467" lon="-1.75558">
        <ele>65</ele>
        <time>2021-07-17T07:38:51.000Z</time>
      </trkpt>
      <trkpt lat="47.07456" lon="-1.75563">
        <ele>65</ele>
        <time>2021-07-17T07:38:53.000Z</time>
      </trkpt>
      <trkpt lat="47.07439" lon="-1.7557">
        <ele>66</ele>
        <time>2021-07-17T07:38:56.000Z</time>
      </trkpt>
      <trkpt lat="47.07427" lon="-1.75574">
        <ele>66</ele>
        <time>2021-07-17T07:38:58.000Z</time>
      </trkpt>
      <trkpt lat="47.0741" lon="-1.75581">
        <ele>66</ele>
        <time>2021-07-17T07:39:01.000Z</time>
      </trkpt>
      <trkpt lat="47.07399" lon="-1.75585">
        <ele>67</ele>
        <time>2021-07-17T07:39:03.000Z</time>
      </trkpt>
      <trkpt lat="47.07381" lon="-1.75592">
        <ele>67</ele>
        <time>2021-07-17T07:39:06.000Z</time>
      </trkpt>
      <trkpt lat="47.07364" lon="-1.75599">
        <ele>67</ele>
        <time>2021-07-17T07:39:09.000Z</time>
      </trkpt>
      <trkpt lat="47.07352" lon="-1.75604">
        <ele>68</ele>
        <time>2021-07-17T07:39:11.000Z</time>
      </trkpt>
      <trkpt lat="47.0734" lon="-1.75609">
        <ele>67</ele>
        <time>2021-07-17T07:39:13.000Z</time>
      </trkpt>
      <trkpt lat="47.07328" lon="-1.75614">
        <ele>67</ele>
        <time>2021-07-17T07:39:15.000Z</time>
      </trkpt>
      <trkpt lat="47.07317" lon="-1.75619">
        <ele>67</ele>
        <time>2021-07-17T07:39:17.000Z</time>
      </trkpt>
      <trkpt lat="47.07305" lon="-1.75625">
        <ele>67</ele>
        <time>2021-07-17T07:39:19.000Z</time>
      </trkpt>
      <trkpt lat="47.07293" lon="-1.75632">
        <ele>67</ele>
        <time>2021-07-17T07:39:21.000Z</time>
      </trkpt>
      <trkpt lat="47.07283" lon="-1.75639">
        <ele>67</ele>
        <time>2021-07-17T07:39:23.000Z</time>
      </trkpt>
      <trkpt lat="47.07272" lon="-1.75647">
        <ele>67</ele>
        <time>2021-07-17T07:39:25.000Z</time>
      </trkpt>
      <trkpt lat="47.07261" lon="-1.75657">
        <ele>67</ele>
        <time>2021-07-17T07:39:27.000Z</time>
      </trkpt>
      <trkpt lat="47.07251" lon="-1.75668">
        <ele>68</ele>
        <time>2021-07-17T07:39:29.000Z</time>
      </trkpt>
      <trkpt lat="47.07241" lon="-1.7568">
        <ele>68</ele>
        <time>2021-07-17T07:39:31.000Z</time>
      </trkpt>
      <trkpt lat="47.0723" lon="-1.75692">
        <ele>69</ele>
        <time>2021-07-17T07:39:33.000Z</time>
      </trkpt>
      <trkpt lat="47.0722" lon="-1.75704">
        <ele>69</ele>
        <time>2021-07-17T07:39:35.000Z</time>
      </trkpt>
      <trkpt lat="47.0721" lon="-1.75716">
        <ele>69</ele>
        <time>2021-07-17T07:39:37.000Z</time>
      </trkpt>
      <trkpt lat="47.072" lon="-1.75728">
        <ele>69</ele>
        <time>2021-07-17T07:39:39.000Z</time>
      </trkpt>
      <trkpt lat="47.07189" lon="-1.7574">
        <ele>69</ele>
        <time>2021-07-17T07:39:41.000Z</time>
      </trkpt>
      <trkpt lat="47.07179" lon="-1.75753">
        <ele>69</ele>
        <time>2021-07-17T07:39:43.000Z</time>
      </trkpt>
      <trkpt lat="47.07168" lon="-1.75765">
        <ele>69</ele>
        <time>2021-07-17T07:39:45.000Z</time>
      </trkpt>
      <trkpt lat="47.07157" lon="-1.75778">
        <ele>69</ele>
        <time>2021-07-17T07:39:47.000Z</time>
      </trkpt>
      <trkpt lat="47.07147" lon="-1.7579">
        <ele>69</ele>
        <time>2021-07-17T07:39:49.000Z</time>
      </trkpt>
      <trkpt lat="47.07136" lon="-1.75803">
        <ele>70</ele>
        <time>2021-07-17T07:39:51.000Z</time>
      </trkpt>
      <trkpt lat="47.07125" lon="-1.75815">
        <ele>70</ele>
        <time>2021-07-17T07:39:53.000Z</time>
      </trkpt>
      <trkpt lat="47.07115" lon="-1.75827">
        <ele>70</ele>
        <time>2021-07-17T07:39:55.000Z</time>
      </trkpt>
      <trkpt lat="47.07104" lon="-1.7584">
        <ele>71</ele>
        <time>2021-07-17T07:39:57.000Z</time>
      </trkpt>
      <trkpt lat="47.07093" lon="-1.75853">
        <ele>71</ele>
        <time>2021-07-17T07:39:59.000Z</time>
      </trkpt>
      <trkpt lat="47.07082" lon="-1.75866">
        <ele>71</ele>
        <time>2021-07-17T07:40:01.000Z</time>
      </trkpt>
      <trkpt lat="47.07071" lon="-1.75878">
        <ele>71</ele>
        <time>2021-07-17T07:40:03.000Z</time>
      </trkpt>
      <trkpt lat="47.0706" lon="-1.7589">
        <ele>71</ele>
        <time>2021-07-17T07:40:05.000Z</time>
      </trkpt>
      <trkpt lat="47.07049" lon="-1.75902">
        <ele>71</ele>
        <time>2021-07-17T07:40:07.000Z</time>
      </trkpt>
      <trkpt lat="47.07039" lon="-1.75915">
        <ele>71</ele>
        <time>2021-07-17T07:40:09.000Z</time>
      </trkpt>
      <trkpt lat="47.07028" lon="-1.75928">
        <ele>71</ele>
        <time>2021-07-17T07:40:11.000Z</time>
      </trkpt>
      <trkpt lat="47.07017" lon="-1.7594">
        <ele>71</ele>
        <time>2021-07-17T07:40:13.000Z</time>
      </trkpt>
      <trkpt lat="47.07007" lon="-1.75953">
        <ele>71</ele>
        <time>2021-07-17T07:40:15.000Z</time>
      </trkpt>
      <trkpt lat="47.06996" lon="-1.75965">
        <ele>71</ele>
        <time>2021-07-17T07:40:17.000Z</time>
      </trkpt>
      <trkpt lat="47.06986" lon="-1.75978">
        <ele>72</ele>
        <time>2021-07-17T07:40:19.000Z</time>
      </trkpt>
      <trkpt lat="47.06975" lon="-1.7599">
        <ele>72</ele>
        <time>2021-07-17T07:40:21.000Z</time>
      </trkpt>
      <trkpt lat="47.06965" lon="-1.76003">
        <ele>72</ele>
        <time>2021-07-17T07:40:23.000Z</time>
      </trkpt>
      <trkpt lat="47.06954" lon="-1.76015">
        <ele>73</ele>
        <time>2021-07-17T07:40:25.000Z</time>
      </trkpt>
      <trkpt lat="47.06942" lon="-1.76026">
        <ele>73</ele>
        <time>2021-07-17T07:40:27.000Z</time>
      </trkpt>
      <trkpt lat="47.06931" lon="-1.76037">
        <ele>73</ele>
        <time>2021-07-17T07:40:29.000Z</time>
      </trkpt>
      <trkpt lat="47.06919" lon="-1.76046">
        <ele>73</ele>
        <time>2021-07-17T07:40:31.000Z</time>
      </trkpt>
      <trkpt lat="47.06906" lon="-1.76054">
        <ele>73</ele>
        <time>2021-07-17T07:40:33.000Z</time>
      </trkpt>
      <trkpt lat="47.06894" lon="-1.76062">
        <ele>74</ele>
        <time>2021-07-17T07:40:35.000Z</time>
      </trkpt>
      <trkpt lat="47.06881" lon="-1.76069">
        <ele>74</ele>
        <time>2021-07-17T07:40:37.000Z</time>
      </trkpt>
      <trkpt lat="47.06868" lon="-1.76075">
        <ele>74</ele>
        <time>2021-07-17T07:40:39.000Z</time>
      </trkpt>
      <trkpt lat="47.06855" lon="-1.76081">
        <ele>75</ele>
        <time>2021-07-17T07:40:41.000Z</time>
      </trkpt>
      <trkpt lat="47.06842" lon="-1.76087">
        <ele>75</ele>
        <time>2021-07-17T07:40:43.000Z</time>
      </trkpt>
      <trkpt lat="47.0683" lon="-1.76093">
        <ele>76</ele>
        <time>2021-07-17T07:40:45.000Z</time>
      </trkpt>
      <trkpt lat="47.06816" lon="-1.761">
        <ele>75</ele>
        <time>2021-07-17T07:40:47.000Z</time>
      </trkpt>
      <trkpt lat="47.06803" lon="-1.76105">
        <ele>76</ele>
        <time>2021-07-17T07:40:49.000Z</time>
      </trkpt>
      <trkpt lat="47.0679" lon="-1.76111">
        <ele>76</ele>
        <time>2021-07-17T07:40:51.000Z</time>
      </trkpt>
      <trkpt lat="47.06777" lon="-1.76116">
        <ele>77</ele>
        <time>2021-07-17T07:40:53.000Z</time>
      </trkpt>
      <trkpt lat="47.06765" lon="-1.76122">
        <ele>77</ele>
        <time>2021-07-17T07:40:55.000Z</time>
      </trkpt>
      <trkpt lat="47.06752" lon="-1.76128">
        <ele>78</ele>
        <time>2021-07-17T07:40:57.000Z</time>
      </trkpt>
      <trkpt lat="47.06739" lon="-1.76134">
        <ele>78</ele>
        <time>2021-07-17T07:40:59.000Z</time>
      </trkpt>
      <trkpt lat="47.06726" lon="-1.76139">
        <ele>79</ele>
        <time>2021-07-17T07:41:01.000Z</time>
      </trkpt>
      <trkpt lat="47.06714" lon="-1.76145">
        <ele>79</ele>
        <time>2021-07-17T07:41:03.000Z</time>
      </trkpt>
      <trkpt lat="47.06702" lon="-1.76149">
        <ele>80</ele>
        <time>2021-07-17T07:41:05.000Z</time>
      </trkpt>
      <trkpt lat="47.0669" lon="-1.76155">
        <ele>80</ele>
        <time>2021-07-17T07:41:07.000Z</time>
      </trkpt>
      <trkpt lat="47.06679" lon="-1.76159">
        <ele>81</ele>
        <time>2021-07-17T07:41:09.000Z</time>
      </trkpt>
      <trkpt lat="47.06669" lon="-1.76164">
        <ele>82</ele>
        <time>2021-07-17T07:41:11.000Z</time>
      </trkpt>
      <trkpt lat="47.06657" lon="-1.7617">
        <ele>82</ele>
        <time>2021-07-17T07:41:13.000Z</time>
      </trkpt>
      <trkpt lat="47.06646" lon="-1.76175">
        <ele>83</ele>
        <time>2021-07-17T07:41:15.000Z</time>
      </trkpt>
      <trkpt lat="47.06634" lon="-1.7618">
        <ele>83</ele>
        <time>2021-07-17T07:41:17.000Z</time>
      </trkpt>
      <trkpt lat="47.06621" lon="-1.76186">
        <ele>84</ele>
        <time>2021-07-17T07:41:19.000Z</time>
      </trkpt>
      <trkpt lat="47.06609" lon="-1.76192">
        <ele>84</ele>
        <time>2021-07-17T07:41:21.000Z</time>
      </trkpt>
      <trkpt lat="47.06597" lon="-1.76197">
        <ele>85</ele>
        <time>2021-07-17T07:41:23.000Z</time>
      </trkpt>
      <trkpt lat="47.06585" lon="-1.76203">
        <ele>85</ele>
        <time>2021-07-17T07:41:25.000Z</time>
      </trkpt>
      <trkpt lat="47.06574" lon="-1.76209">
        <ele>85</ele>
        <time>2021-07-17T07:41:27.000Z</time>
      </trkpt>
      <trkpt lat="47.06562" lon="-1.76214">
        <ele>85</ele>
        <time>2021-07-17T07:41:29.000Z</time>
      </trkpt>
      <trkpt lat="47.0655" lon="-1.7622">
        <ele>85</ele>
        <time>2021-07-17T07:41:31.000Z</time>
      </trkpt>
      <trkpt lat="47.06537" lon="-1.76225">
        <ele>85</ele>
        <time>2021-07-17T07:41:33.000Z</time>
      </trkpt>
      <trkpt lat="47.06525" lon="-1.76231">
        <ele>85</ele>
        <time>2021-07-17T07:41:35.000Z</time>
      </trkpt>
      <trkpt lat="47.06512" lon="-1.76238">
        <ele>84</ele>
        <time>2021-07-17T07:41:37.000Z</time>
      </trkpt>
      <trkpt lat="47.06499" lon="-1.76244">
        <ele>84</ele>
        <time>2021-07-17T07:41:39.000Z</time>
      </trkpt>
      <trkpt lat="47.06485" lon="-1.76251">
        <ele>84</ele>
        <time>2021-07-17T07:41:41.000Z</time>
      </trkpt>
      <trkpt lat="47.06472" lon="-1.76257">
        <ele>83</ele>
        <time>2021-07-17T07:41:43.000Z</time>
      </trkpt>
      <trkpt lat="47.06458" lon="-1.76263">
        <ele>83</ele>
        <time>2021-07-17T07:41:45.000Z</time>
      </trkpt>
      <trkpt lat="47.06444" lon="-1.7627">
        <ele>83</ele>
        <time>2021-07-17T07:41:47.000Z</time>
      </trkpt>
      <trkpt lat="47.06429" lon="-1.76278">
        <ele>82</ele>
        <time>2021-07-17T07:41:49.000Z</time>
      </trkpt>
      <trkpt lat="47.06414" lon="-1.76285">
        <ele>82</ele>
        <time>2021-07-17T07:41:51.000Z</time>
      </trkpt>
      <trkpt lat="47.06399" lon="-1.76292">
        <ele>81</ele>
        <time>2021-07-17T07:41:53.000Z</time>
      </trkpt>
      <trkpt lat="47.06384" lon="-1.763">
        <ele>81</ele>
        <time>2021-07-17T07:41:55.000Z</time>
      </trkpt>
      <trkpt lat="47.06369" lon="-1.76308">
        <ele>81</ele>
        <time>2021-07-17T07:41:57.000Z</time>
      </trkpt>
      <trkpt lat="47.06355" lon="-1.76315">
        <ele>81</ele>
        <time>2021-07-17T07:41:59.000Z</time>
      </trkpt>
      <trkpt lat="47.0634" lon="-1.76323">
        <ele>80</ele>
        <time>2021-07-17T07:42:01.000Z</time>
      </trkpt>
      <trkpt lat="47.06325" lon="-1.76331">
        <ele>80</ele>
        <time>2021-07-17T07:42:03.000Z</time>
      </trkpt>
      <trkpt lat="47.0631" lon="-1.76338">
        <ele>79</ele>
        <time>2021-07-17T07:42:05.000Z</time>
      </trkpt>
      <trkpt lat="47.06295" lon="-1.76345">
        <ele>79</ele>
        <time>2021-07-17T07:42:07.000Z</time>
      </trkpt>
      <trkpt lat="47.0628" lon="-1.76352">
        <ele>79</ele>
        <time>2021-07-17T07:42:09.000Z</time>
      </trkpt>
      <trkpt lat="47.06265" lon="-1.76359">
        <ele>78</ele>
        <time>2021-07-17T07:42:11.000Z</time>
      </trkpt>
      <trkpt lat="47.0625" lon="-1.76365">
        <ele>78</ele>
        <time>2021-07-17T07:42:13.000Z</time>
      </trkpt>
      <trkpt lat="47.06235" lon="-1.76372">
        <ele>78</ele>
        <time>2021-07-17T07:42:15.000Z</time>
      </trkpt>
      <trkpt lat="47.06219" lon="-1.76379">
        <ele>78</ele>
        <time>2021-07-17T07:42:17.000Z</time>
      </trkpt>
      <trkpt lat="47.06203" lon="-1.76386">
        <ele>78</ele>
        <time>2021-07-17T07:42:19.000Z</time>
      </trkpt>
      <trkpt lat="47.06188" lon="-1.76393">
        <ele>78</ele>
        <time>2021-07-17T07:42:21.000Z</time>
      </trkpt>
      <trkpt lat="47.06173" lon="-1.764">
        <ele>78</ele>
        <time>2021-07-17T07:42:23.000Z</time>
      </trkpt>
      <trkpt lat="47.06157" lon="-1.76406">
        <ele>78</ele>
        <time>2021-07-17T07:42:25.000Z</time>
      </trkpt>
      <trkpt lat="47.06142" lon="-1.76414">
        <ele>77</ele>
        <time>2021-07-17T07:42:27.000Z</time>
      </trkpt>
      <trkpt lat="47.06127" lon="-1.76421">
        <ele>77</ele>
        <time>2021-07-17T07:42:29.000Z</time>
      </trkpt>
      <trkpt lat="47.06112" lon="-1.76429">
        <ele>77</ele>
        <time>2021-07-17T07:42:31.000Z</time>
      </trkpt>
      <trkpt lat="47.06097" lon="-1.76436">
        <ele>77</ele>
        <time>2021-07-17T07:42:33.000Z</time>
      </trkpt>
      <trkpt lat="47.06082" lon="-1.76443">
        <ele>77</ele>
        <time>2021-07-17T07:42:35.000Z</time>
      </trkpt>
      <trkpt lat="47.06067" lon="-1.76451">
        <ele>76</ele>
        <time>2021-07-17T07:42:37.000Z</time>
      </trkpt>
      <trkpt lat="47.06051" lon="-1.76457">
        <ele>76</ele>
        <time>2021-07-17T07:42:39.000Z</time>
      </trkpt>
      <trkpt lat="47.06036" lon="-1.76464">
        <ele>76</ele>
        <time>2021-07-17T07:42:41.000Z</time>
      </trkpt>
      <trkpt lat="47.06021" lon="-1.76472">
        <ele>76</ele>
        <time>2021-07-17T07:42:43.000Z</time>
      </trkpt>
      <trkpt lat="47.06006" lon="-1.76479">
        <ele>76</ele>
        <time>2021-07-17T07:42:45.000Z</time>
      </trkpt>
      <trkpt lat="47.05991" lon="-1.76486">
        <ele>76</ele>
        <time>2021-07-17T07:42:47.000Z</time>
      </trkpt>
      <trkpt lat="47.05976" lon="-1.76493">
        <ele>76</ele>
        <time>2021-07-17T07:42:49.000Z</time>
      </trkpt>
      <trkpt lat="47.05961" lon="-1.765">
        <ele>76</ele>
        <time>2021-07-17T07:42:51.000Z</time>
      </trkpt>
      <trkpt lat="47.05945" lon="-1.76507">
        <ele>76</ele>
        <time>2021-07-17T07:42:53.000Z</time>
      </trkpt>
      <trkpt lat="47.05931" lon="-1.76514">
        <ele>75</ele>
        <time>2021-07-17T07:42:55.000Z</time>
      </trkpt>
      <trkpt lat="47.05916" lon="-1.76522">
        <ele>75</ele>
        <time>2021-07-17T07:42:57.000Z</time>
      </trkpt>
      <trkpt lat="47.05901" lon="-1.76529">
        <ele>75</ele>
        <time>2021-07-17T07:42:59.000Z</time>
      </trkpt>
      <trkpt lat="47.05886" lon="-1.76536">
        <ele>75</ele>
        <time>2021-07-17T07:43:01.000Z</time>
      </trkpt>
      <trkpt lat="47.05872" lon="-1.76543">
        <ele>74</ele>
        <time>2021-07-17T07:43:03.000Z</time>
      </trkpt>
      <trkpt lat="47.05857" lon="-1.7655">
        <ele>74</ele>
        <time>2021-07-17T07:43:05.000Z</time>
      </trkpt>
      <trkpt lat="47.05843" lon="-1.76557">
        <ele>73</ele>
        <time>2021-07-17T07:43:07.000Z</time>
      </trkpt>
      <trkpt lat="47.05828" lon="-1.76565">
        <ele>73</ele>
        <time>2021-07-17T07:43:09.000Z</time>
      </trkpt>
      <trkpt lat="47.05812" lon="-1.76571">
        <ele>73</ele>
        <time>2021-07-17T07:43:11.000Z</time>
      </trkpt>
      <trkpt lat="47.05797" lon="-1.76578">
        <ele>73</ele>
        <time>2021-07-17T07:43:13.000Z</time>
      </trkpt>
      <trkpt lat="47.05782" lon="-1.76586">
        <ele>72</ele>
        <time>2021-07-17T07:43:15.000Z</time>
      </trkpt>
      <trkpt lat="47.05766" lon="-1.76593">
        <ele>72</ele>
        <time>2021-07-17T07:43:17.000Z</time>
      </trkpt>
      <trkpt lat="47.0575" lon="-1.76601">
        <ele>72</ele>
        <time>2021-07-17T07:43:19.000Z</time>
      </trkpt>
      <trkpt lat="47.05734" lon="-1.76608">
        <ele>72</ele>
        <time>2021-07-17T07:43:21.000Z</time>
      </trkpt>
      <trkpt lat="47.05717" lon="-1.76616">
        <ele>71</ele>
        <time>2021-07-17T07:43:23.000Z</time>
      </trkpt>
      <trkpt lat="47.05701" lon="-1.76625">
        <ele>71</ele>
        <time>2021-07-17T07:43:25.000Z</time>
      </trkpt>
      <trkpt lat="47.05685" lon="-1.76632">
        <ele>71</ele>
        <time>2021-07-17T07:43:27.000Z</time>
      </trkpt>
      <trkpt lat="47.05669" lon="-1.76639">
        <ele>70</ele>
        <time>2021-07-17T07:43:29.000Z</time>
      </trkpt>
      <trkpt lat="47.05653" lon="-1.76647">
        <ele>70</ele>
        <time>2021-07-17T07:43:31.000Z</time>
      </trkpt>
      <trkpt lat="47.05638" lon="-1.76654">
        <ele>70</ele>
        <time>2021-07-17T07:43:33.000Z</time>
      </trkpt>
      <trkpt lat="47.05622" lon="-1.76662">
        <ele>70</ele>
        <time>2021-07-17T07:43:35.000Z</time>
      </trkpt>
      <trkpt lat="47.05607" lon="-1.76669">
        <ele>70</ele>
        <time>2021-07-17T07:43:37.000Z</time>
      </trkpt>
      <trkpt lat="47.05591" lon="-1.76676">
        <ele>70</ele>
        <time>2021-07-17T07:43:39.000Z</time>
      </trkpt>
      <trkpt lat="47.05577" lon="-1.76683">
        <ele>69</ele>
        <time>2021-07-17T07:43:41.000Z</time>
      </trkpt>
      <trkpt lat="47.05563" lon="-1.7669">
        <ele>70</ele>
        <time>2021-07-17T07:43:43.000Z</time>
      </trkpt>
      <trkpt lat="47.05549" lon="-1.76697">
        <ele>70</ele>
        <time>2021-07-17T07:43:45.000Z</time>
      </trkpt>
      <trkpt lat="47.05535" lon="-1.76704">
        <ele>70</ele>
        <time>2021-07-17T07:43:47.000Z</time>
      </trkpt>
      <trkpt lat="47.0552" lon="-1.76711">
        <ele>71</ele>
        <time>2021-07-17T07:43:49.000Z</time>
      </trkpt>
      <trkpt lat="47.05506" lon="-1.76718">
        <ele>70</ele>
        <time>2021-07-17T07:43:51.000Z</time>
      </trkpt>
      <trkpt lat="47.05491" lon="-1.76725">
        <ele>71</ele>
        <time>2021-07-17T07:43:53.000Z</time>
      </trkpt>
      <trkpt lat="47.05477" lon="-1.76731">
        <ele>71</ele>
        <time>2021-07-17T07:43:55.000Z</time>
      </trkpt>
      <trkpt lat="47.05463" lon="-1.76738">
        <ele>71</ele>
        <time>2021-07-17T07:43:57.000Z</time>
      </trkpt>
      <trkpt lat="47.05448" lon="-1.76745">
        <ele>70</ele>
        <time>2021-07-17T07:43:59.000Z</time>
      </trkpt>
      <trkpt lat="47.05433" lon="-1.76753">
        <ele>71</ele>
        <time>2021-07-17T07:44:01.000Z</time>
      </trkpt>
      <trkpt lat="47.05419" lon="-1.7676">
        <ele>71</ele>
        <time>2021-07-17T07:44:03.000Z</time>
      </trkpt>
      <trkpt lat="47.05404" lon="-1.76767">
        <ele>71</ele>
        <time>2021-07-17T07:44:05.000Z</time>
      </trkpt>
      <trkpt lat="47.0539" lon="-1.76774">
        <ele>72</ele>
        <time>2021-07-17T07:44:07.000Z</time>
      </trkpt>
      <trkpt lat="47.05376" lon="-1.76781">
        <ele>72</ele>
        <time>2021-07-17T07:44:09.000Z</time>
      </trkpt>
      <trkpt lat="47.05362" lon="-1.76787">
        <ele>72</ele>
        <time>2021-07-17T07:44:11.000Z</time>
      </trkpt>
      <trkpt lat="47.05347" lon="-1.76794">
        <ele>72</ele>
        <time>2021-07-17T07:44:13.000Z</time>
      </trkpt>
      <trkpt lat="47.05332" lon="-1.76801">
        <ele>71</ele>
        <time>2021-07-17T07:44:15.000Z</time>
      </trkpt>
      <trkpt lat="47.05317" lon="-1.76809">
        <ele>71</ele>
        <time>2021-07-17T07:44:17.000Z</time>
      </trkpt>
      <trkpt lat="47.05303" lon="-1.76815">
        <ele>72</ele>
        <time>2021-07-17T07:44:19.000Z</time>
      </trkpt>
      <trkpt lat="47.05289" lon="-1.76823">
        <ele>72</ele>
        <time>2021-07-17T07:44:21.000Z</time>
      </trkpt>
      <trkpt lat="47.05275" lon="-1.76829">
        <ele>72</ele>
        <time>2021-07-17T07:44:23.000Z</time>
      </trkpt>
      <trkpt lat="47.05261" lon="-1.76835">
        <ele>73</ele>
        <time>2021-07-17T07:44:25.000Z</time>
      </trkpt>
      <trkpt lat="47.05247" lon="-1.76842">
        <ele>73</ele>
        <time>2021-07-17T07:44:27.000Z</time>
      </trkpt>
      <trkpt lat="47.05233" lon="-1.76848">
        <ele>73</ele>
        <time>2021-07-17T07:44:29.000Z</time>
      </trkpt>
      <trkpt lat="47.05219" lon="-1.76855">
        <ele>73</ele>
        <time>2021-07-17T07:44:31.000Z</time>
      </trkpt>
      <trkpt lat="47.05205" lon="-1.76862">
        <ele>73</ele>
        <time>2021-07-17T07:44:33.000Z</time>
      </trkpt>
      <trkpt lat="47.05191" lon="-1.76869">
        <ele>73</ele>
        <time>2021-07-17T07:44:35.000Z</time>
      </trkpt>
      <trkpt lat="47.05177" lon="-1.76876">
        <ele>73</ele>
        <time>2021-07-17T07:44:37.000Z</time>
      </trkpt>
      <trkpt lat="47.05162" lon="-1.76882">
        <ele>73</ele>
        <time>2021-07-17T07:44:39.000Z</time>
      </trkpt>
      <trkpt lat="47.05148" lon="-1.76888">
        <ele>73</ele>
        <time>2021-07-17T07:44:41.000Z</time>
      </trkpt>
      <trkpt lat="47.05134" lon="-1.76895">
        <ele>73</ele>
        <time>2021-07-17T07:44:43.000Z</time>
      </trkpt>
      <trkpt lat="47.05121" lon="-1.76901">
        <ele>73</ele>
        <time>2021-07-17T07:44:45.000Z</time>
      </trkpt>
      <trkpt lat="47.05107" lon="-1.76908">
        <ele>73</ele>
        <time>2021-07-17T07:44:47.000Z</time>
      </trkpt>
      <trkpt lat="47.05093" lon="-1.76915">
        <ele>73</ele>
        <time>2021-07-17T07:44:49.000Z</time>
      </trkpt>
      <trkpt lat="47.05079" lon="-1.76922">
        <ele>74</ele>
        <time>2021-07-17T07:44:51.000Z</time>
      </trkpt>
      <trkpt lat="47.05065" lon="-1.76929">
        <ele>74</ele>
        <time>2021-07-17T07:44:53.000Z</time>
      </trkpt>
      <trkpt lat="47.05052" lon="-1.76936">
        <ele>74</ele>
        <time>2021-07-17T07:44:55.000Z</time>
      </trkpt>
      <trkpt lat="47.05039" lon="-1.76942">
        <ele>75</ele>
        <time>2021-07-17T07:44:57.000Z</time>
      </trkpt>
      <trkpt lat="47.05025" lon="-1.76949">
        <ele>75</ele>
        <time>2021-07-17T07:44:59.000Z</time>
      </trkpt>
      <trkpt lat="47.0501" lon="-1.76956">
        <ele>75</ele>
        <time>2021-07-17T07:45:01.000Z</time>
      </trkpt>
      <trkpt lat="47.04996" lon="-1.76963">
        <ele>75</ele>
        <time>2021-07-17T07:45:03.000Z</time>
      </trkpt>
      <trkpt lat="47.04981" lon="-1.76969">
        <ele>75</ele>
        <time>2021-07-17T07:45:05.000Z</time>
      </trkpt>
      <trkpt lat="47.04967" lon="-1.76976">
        <ele>75</ele>
        <time>2021-07-17T07:45:07.000Z</time>
      </trkpt>
      <trkpt lat="47.04952" lon="-1.76983">
        <ele>75</ele>
        <time>2021-07-17T07:45:09.000Z</time>
      </trkpt>
      <trkpt lat="47.04938" lon="-1.76991">
        <ele>74</ele>
        <time>2021-07-17T07:45:11.000Z</time>
      </trkpt>
      <trkpt lat="47.04923" lon="-1.76998">
        <ele>74</ele>
        <time>2021-07-17T07:45:13.000Z</time>
      </trkpt>
      <trkpt lat="47.04909" lon="-1.77005">
        <ele>74</ele>
        <time>2021-07-17T07:45:15.000Z</time>
      </trkpt>
      <trkpt lat="47.04894" lon="-1.77012">
        <ele>74</ele>
        <time>2021-07-17T07:45:17.000Z</time>
      </trkpt>
      <trkpt lat="47.04879" lon="-1.77019">
        <ele>73</ele>
        <time>2021-07-17T07:45:19.000Z</time>
      </trkpt>
      <trkpt lat="47.04865" lon="-1.77026">
        <ele>73</ele>
        <time>2021-07-17T07:45:21.000Z</time>
      </trkpt>
      <trkpt lat="47.04851" lon="-1.77033">
        <ele>73</ele>
        <time>2021-07-17T07:45:23.000Z</time>
      </trkpt>
      <trkpt lat="47.04836" lon="-1.7704">
        <ele>74</ele>
        <time>2021-07-17T07:45:25.000Z</time>
      </trkpt>
      <trkpt lat="47.04821" lon="-1.77047">
        <ele>74</ele>
        <time>2021-07-17T07:45:27.000Z</time>
      </trkpt>
      <trkpt lat="47.04807" lon="-1.77054">
        <ele>75</ele>
        <time>2021-07-17T07:45:29.000Z</time>
      </trkpt>
      <trkpt lat="47.04793" lon="-1.77061">
        <ele>75</ele>
        <time>2021-07-17T07:45:31.000Z</time>
      </trkpt>
      <trkpt lat="47.04779" lon="-1.77068">
        <ele>75</ele>
        <time>2021-07-17T07:45:33.000Z</time>
      </trkpt>
      <trkpt lat="47.04765" lon="-1.77075">
        <ele>74</ele>
        <time>2021-07-17T07:45:35.000Z</time>
      </trkpt>
      <trkpt lat="47.04751" lon="-1.77081">
        <ele>74</ele>
        <time>2021-07-17T07:45:37.000Z</time>
      </trkpt>
      <trkpt lat="47.04738" lon="-1.77088">
        <ele>74</ele>
        <time>2021-07-17T07:45:39.000Z</time>
      </trkpt>
      <trkpt lat="47.04724" lon="-1.77095">
        <ele>74</ele>
        <time>2021-07-17T07:45:41.000Z</time>
      </trkpt>
      <trkpt lat="47.0471" lon="-1.77102">
        <ele>74</ele>
        <time>2021-07-17T07:45:43.000Z</time>
      </trkpt>
      <trkpt lat="47.04697" lon="-1.77107">
        <ele>74</ele>
        <time>2021-07-17T07:45:45.000Z</time>
      </trkpt>
      <trkpt lat="47.04684" lon="-1.77114">
        <ele>75</ele>
        <time>2021-07-17T07:45:47.000Z</time>
      </trkpt>
      <trkpt lat="47.0467" lon="-1.7712">
        <ele>75</ele>
        <time>2021-07-17T07:45:49.000Z</time>
      </trkpt>
      <trkpt lat="47.04657" lon="-1.77126">
        <ele>75</ele>
        <time>2021-07-17T07:45:51.000Z</time>
      </trkpt>
      <trkpt lat="47.04644" lon="-1.77133">
        <ele>76</ele>
        <time>2021-07-17T07:45:53.000Z</time>
      </trkpt>
      <trkpt lat="47.04631" lon="-1.77139">
        <ele>76</ele>
        <time>2021-07-17T07:45:55.000Z</time>
      </trkpt>
      <trkpt lat="47.04617" lon="-1.77145">
        <ele>76</ele>
        <time>2021-07-17T07:45:57.000Z</time>
      </trkpt>
      <trkpt lat="47.04604" lon="-1.77152">
        <ele>76</ele>
        <time>2021-07-17T07:45:59.000Z</time>
      </trkpt>
      <trkpt lat="47.04591" lon="-1.77159">
        <ele>76</ele>
        <time>2021-07-17T07:46:01.000Z</time>
      </trkpt>
      <trkpt lat="47.04578" lon="-1.77165">
        <ele>77</ele>
        <time>2021-07-17T07:46:03.000Z</time>
      </trkpt>
      <trkpt lat="47.04565" lon="-1.77172">
        <ele>76</ele>
        <time>2021-07-17T07:46:05.000Z</time>
      </trkpt>
      <trkpt lat="47.04553" lon="-1.77179">
        <ele>76</ele>
        <time>2021-07-17T07:46:07.000Z</time>
      </trkpt>
      <trkpt lat="47.0454" lon="-1.77188">
        <ele>76</ele>
        <time>2021-07-17T07:46:09.000Z</time>
      </trkpt>
      <trkpt lat="47.04527" lon="-1.77196">
        <ele>76</ele>
        <time>2021-07-17T07:46:11.000Z</time>
      </trkpt>
      <trkpt lat="47.04515" lon="-1.77205">
        <ele>76</ele>
        <time>2021-07-17T07:46:13.000Z</time>
      </trkpt>
      <trkpt lat="47.04503" lon="-1.77214">
        <ele>76</ele>
        <time>2021-07-17T07:46:15.000Z</time>
      </trkpt>
      <trkpt lat="47.0449" lon="-1.77223">
        <ele>76</ele>
        <time>2021-07-17T07:46:17.000Z</time>
      </trkpt>
      <trkpt lat="47.04477" lon="-1.77231">
        <ele>77</ele>
        <time>2021-07-17T07:46:19.000Z</time>
      </trkpt>
      <trkpt lat="47.04465" lon="-1.7724">
        <ele>76</ele>
        <time>2021-07-17T07:46:21.000Z</time>
      </trkpt>
      <trkpt lat="47.04452" lon="-1.77249">
        <ele>77</ele>
        <time>2021-07-17T07:46:23.000Z</time>
      </trkpt>
      <trkpt lat="47.04439" lon="-1.77258">
        <ele>77</ele>
        <time>2021-07-17T07:46:25.000Z</time>
      </trkpt>
      <trkpt lat="47.04427" lon="-1.77267">
        <ele>78</ele>
        <time>2021-07-17T07:46:27.000Z</time>
      </trkpt>
      <trkpt lat="47.04415" lon="-1.77276">
        <ele>78</ele>
        <time>2021-07-17T07:46:29.000Z</time>
      </trkpt>
      <trkpt lat="47.04402" lon="-1.77285">
        <ele>77</ele>
        <time>2021-07-17T07:46:31.000Z</time>
      </trkpt>
      <trkpt lat="47.04389" lon="-1.77293">
        <ele>77</ele>
        <time>2021-07-17T07:46:33.000Z</time>
      </trkpt>
      <trkpt lat="47.04377" lon="-1.77302">
        <ele>77</ele>
        <time>2021-07-17T07:46:35.000Z</time>
      </trkpt>
      <trkpt lat="47.04364" lon="-1.7731">
        <ele>77</ele>
        <time>2021-07-17T07:46:37.000Z</time>
      </trkpt>
      <trkpt lat="47.04352" lon="-1.77319">
        <ele>78</ele>
        <time>2021-07-17T07:46:39.000Z</time>
      </trkpt>
      <trkpt lat="47.0434" lon="-1.77328">
        <ele>78</ele>
        <time>2021-07-17T07:46:41.000Z</time>
      </trkpt>
      <trkpt lat="47.04327" lon="-1.77337">
        <ele>78</ele>
        <time>2021-07-17T07:46:43.000Z</time>
      </trkpt>
      <trkpt lat="47.04314" lon="-1.77346">
        <ele>77</ele>
        <time>2021-07-17T07:46:45.000Z</time>
      </trkpt>
      <trkpt lat="47.04302" lon="-1.77355">
        <ele>78</ele>
        <time>2021-07-17T07:46:47.000Z</time>
      </trkpt>
      <trkpt lat="47.04289" lon="-1.77364">
        <ele>78</ele>
        <time>2021-07-17T07:46:49.000Z</time>
      </trkpt>
      <trkpt lat="47.04276" lon="-1.77372">
        <ele>78</ele>
        <time>2021-07-17T07:46:51.000Z</time>
      </trkpt>
      <trkpt lat="47.04263" lon="-1.77381">
        <ele>79</ele>
        <time>2021-07-17T07:46:53.000Z</time>
      </trkpt>
      <trkpt lat="47.0425" lon="-1.77391">
        <ele>78</ele>
        <time>2021-07-17T07:46:55.000Z</time>
      </trkpt>
      <trkpt lat="47.04237" lon="-1.774">
        <ele>78</ele>
        <time>2021-07-17T07:46:57.000Z</time>
      </trkpt>
      <trkpt lat="47.04224" lon="-1.77409">
        <ele>78</ele>
        <time>2021-07-17T07:46:59.000Z</time>
      </trkpt>
      <trkpt lat="47.04211" lon="-1.77418">
        <ele>78</ele>
        <time>2021-07-17T07:47:01.000Z</time>
      </trkpt>
      <trkpt lat="47.04199" lon="-1.77426">
        <ele>79</ele>
        <time>2021-07-17T07:47:03.000Z</time>
      </trkpt>
      <trkpt lat="47.04187" lon="-1.77435">
        <ele>79</ele>
        <time>2021-07-17T07:47:05.000Z</time>
      </trkpt>
      <trkpt lat="47.04175" lon="-1.77444">
        <ele>79</ele>
        <time>2021-07-17T07:47:07.000Z</time>
      </trkpt>
      <trkpt lat="47.04161" lon="-1.77453">
        <ele>79</ele>
        <time>2021-07-17T07:47:09.000Z</time>
      </trkpt>
      <trkpt lat="47.04149" lon="-1.77462">
        <ele>79</ele>
        <time>2021-07-17T07:47:11.000Z</time>
      </trkpt>
      <trkpt lat="47.04135" lon="-1.77471">
        <ele>79</ele>
        <time>2021-07-17T07:47:13.000Z</time>
      </trkpt>
      <trkpt lat="47.04122" lon="-1.7748">
        <ele>79</ele>
        <time>2021-07-17T07:47:15.000Z</time>
      </trkpt>
      <trkpt lat="47.04109" lon="-1.7749">
        <ele>79</ele>
        <time>2021-07-17T07:47:17.000Z</time>
      </trkpt>
      <trkpt lat="47.04096" lon="-1.77499">
        <ele>79</ele>
        <time>2021-07-17T07:47:19.000Z</time>
      </trkpt>
      <trkpt lat="47.04083" lon="-1.77508">
        <ele>79</ele>
        <time>2021-07-17T07:47:21.000Z</time>
      </trkpt>
      <trkpt lat="47.0407" lon="-1.77517">
        <ele>79</ele>
        <time>2021-07-17T07:47:23.000Z</time>
      </trkpt>
      <trkpt lat="47.04056" lon="-1.77527">
        <ele>78</ele>
        <time>2021-07-17T07:47:25.000Z</time>
      </trkpt>
      <trkpt lat="47.04044" lon="-1.77536">
        <ele>78</ele>
        <time>2021-07-17T07:47:27.000Z</time>
      </trkpt>
      <trkpt lat="47.04031" lon="-1.77544">
        <ele>78</ele>
        <time>2021-07-17T07:47:29.000Z</time>
      </trkpt>
      <trkpt lat="47.04018" lon="-1.77554">
        <ele>78</ele>
        <time>2021-07-17T07:47:31.000Z</time>
      </trkpt>
      <trkpt lat="47.04004" lon="-1.77563">
        <ele>78</ele>
        <time>2021-07-17T07:47:33.000Z</time>
      </trkpt>
      <trkpt lat="47.03991" lon="-1.77573">
        <ele>77</ele>
        <time>2021-07-17T07:47:35.000Z</time>
      </trkpt>
      <trkpt lat="47.03977" lon="-1.77582">
        <ele>77</ele>
        <time>2021-07-17T07:47:37.000Z</time>
      </trkpt>
      <trkpt lat="47.03963" lon="-1.77591">
        <ele>77</ele>
        <time>2021-07-17T07:47:39.000Z</time>
      </trkpt>
      <trkpt lat="47.03949" lon="-1.77601">
        <ele>77</ele>
        <time>2021-07-17T07:47:41.000Z</time>
      </trkpt>
      <trkpt lat="47.03935" lon="-1.77611">
        <ele>76</ele>
        <time>2021-07-17T07:47:43.000Z</time>
      </trkpt>
      <trkpt lat="47.0392" lon="-1.77621">
        <ele>76</ele>
        <time>2021-07-17T07:47:45.000Z</time>
      </trkpt>
      <trkpt lat="47.03905" lon="-1.77632">
        <ele>76</ele>
        <time>2021-07-17T07:47:47.000Z</time>
      </trkpt>
      <trkpt lat="47.0389" lon="-1.77643">
        <ele>76</ele>
        <time>2021-07-17T07:47:49.000Z</time>
      </trkpt>
      <trkpt lat="47.03875" lon="-1.77653">
        <ele>75</ele>
        <time>2021-07-17T07:47:51.000Z</time>
      </trkpt>
      <trkpt lat="47.03859" lon="-1.77665">
        <ele>75</ele>
        <time>2021-07-17T07:47:53.000Z</time>
      </trkpt>
      <trkpt lat="47.03843" lon="-1.77676">
        <ele>74</ele>
        <time>2021-07-17T07:47:55.000Z</time>
      </trkpt>
      <trkpt lat="47.03827" lon="-1.77687">
        <ele>74</ele>
        <time>2021-07-17T07:47:57.000Z</time>
      </trkpt>
      <trkpt lat="47.03811" lon="-1.77698">
        <ele>74</ele>
        <time>2021-07-17T07:47:59.000Z</time>
      </trkpt>
      <trkpt lat="47.03803" lon="-1.77703">
        <ele>74</ele>
        <time>2021-07-17T07:48:00.000Z</time>
      </trkpt>
      <trkpt lat="47.03795" lon="-1.77709">
        <ele>74</ele>
        <time>2021-07-17T07:48:01.000Z</time>
      </trkpt>
      <trkpt lat="47.03779" lon="-1.7772">
        <ele>73</ele>
        <time>2021-07-17T07:48:03.000Z</time>
      </trkpt>
      <trkpt lat="47.03764" lon="-1.77731">
        <ele>73</ele>
        <time>2021-07-17T07:48:05.000Z</time>
      </trkpt>
      <trkpt lat="47.03748" lon="-1.77742">
        <ele>74</ele>
        <time>2021-07-17T07:48:07.000Z</time>
      </trkpt>
      <trkpt lat="47.03733" lon="-1.77752">
        <ele>73</ele>
        <time>2021-07-17T07:48:09.000Z</time>
      </trkpt>
      <trkpt lat="47.03718" lon="-1.77764">
        <ele>73</ele>
        <time>2021-07-17T07:48:11.000Z</time>
      </trkpt>
      <trkpt lat="47.03703" lon="-1.77775">
        <ele>72</ele>
        <time>2021-07-17T07:48:13.000Z</time>
      </trkpt>
      <trkpt lat="47.03688" lon="-1.77785">
        <ele>72</ele>
        <time>2021-07-17T07:48:15.000Z</time>
      </trkpt>
      <trkpt lat="47.03673" lon="-1.77796">
        <ele>72</ele>
        <time>2021-07-17T07:48:17.000Z</time>
      </trkpt>
      <trkpt lat="47.03658" lon="-1.77807">
        <ele>72</ele>
        <time>2021-07-17T07:48:19.000Z</time>
      </trkpt>
      <trkpt lat="47.03643" lon="-1.77817">
        <ele>72</ele>
        <time>2021-07-17T07:48:21.000Z</time>
      </trkpt>
      <trkpt lat="47.03628" lon="-1.77827">
        <ele>72</ele>
        <time>2021-07-17T07:48:23.000Z</time>
      </trkpt>
      <trkpt lat="47.03613" lon="-1.77838">
        <ele>72</ele>
        <time>2021-07-17T07:48:25.000Z</time>
      </trkpt>
      <trkpt lat="47.03597" lon="-1.77849">
        <ele>72</ele>
        <time>2021-07-17T07:48:27.000Z</time>
      </trkpt>
      <trkpt lat="47.03583" lon="-1.77859">
        <ele>72</ele>
        <time>2021-07-17T07:48:29.000Z</time>
      </trkpt>
      <trkpt lat="47.03568" lon="-1.7787">
        <ele>71</ele>
        <time>2021-07-17T07:48:31.000Z</time>
      </trkpt>
      <trkpt lat="47.03553" lon="-1.77882">
        <ele>71</ele>
        <time>2021-07-17T07:48:33.000Z</time>
      </trkpt>
      <trkpt lat="47.03539" lon="-1.77894">
        <ele>71</ele>
        <time>2021-07-17T07:48:35.000Z</time>
      </trkpt>
      <trkpt lat="47.03525" lon="-1.77905">
        <ele>71</ele>
        <time>2021-07-17T07:48:37.000Z</time>
      </trkpt>
      <trkpt lat="47.03511" lon="-1.77918">
        <ele>70</ele>
        <time>2021-07-17T07:48:39.000Z</time>
      </trkpt>
      <trkpt lat="47.03498" lon="-1.77931">
        <ele>71</ele>
        <time>2021-07-17T07:48:41.000Z</time>
      </trkpt>
      <trkpt lat="47.03484" lon="-1.77945">
        <ele>71</ele>
        <time>2021-07-17T07:48:43.000Z</time>
      </trkpt>
      <trkpt lat="47.03471" lon="-1.77957">
        <ele>71</ele>
        <time>2021-07-17T07:48:45.000Z</time>
      </trkpt>
      <trkpt lat="47.03458" lon="-1.77969">
        <ele>71</ele>
        <time>2021-07-17T07:48:47.000Z</time>
      </trkpt>
      <trkpt lat="47.03444" lon="-1.77982">
        <ele>70</ele>
        <time>2021-07-17T07:48:49.000Z</time>
      </trkpt>
      <trkpt lat="47.03431" lon="-1.77996">
        <ele>70</ele>
        <time>2021-07-17T07:48:51.000Z</time>
      </trkpt>
      <trkpt lat="47.03417" lon="-1.78009">
        <ele>69</ele>
        <time>2021-07-17T07:48:53.000Z</time>
      </trkpt>
      <trkpt lat="47.03404" lon="-1.78021">
        <ele>69</ele>
        <time>2021-07-17T07:48:55.000Z</time>
      </trkpt>
      <trkpt lat="47.0339" lon="-1.78034">
        <ele>69</ele>
        <time>2021-07-17T07:48:57.000Z</time>
      </trkpt>
      <trkpt lat="47.03377" lon="-1.78047">
        <ele>69</ele>
        <time>2021-07-17T07:48:59.000Z</time>
      </trkpt>
      <trkpt lat="47.03363" lon="-1.7806">
        <ele>68</ele>
        <time>2021-07-17T07:49:01.000Z</time>
      </trkpt>
      <trkpt lat="47.03349" lon="-1.78074">
        <ele>68</ele>
        <time>2021-07-17T07:49:03.000Z</time>
      </trkpt>
      <trkpt lat="47.03335" lon="-1.78088">
        <ele>68</ele>
        <time>2021-07-17T07:49:05.000Z</time>
      </trkpt>
      <trkpt lat="47.03321" lon="-1.78101">
        <ele>67</ele>
        <time>2021-07-17T07:49:07.000Z</time>
      </trkpt>
      <trkpt lat="47.03307" lon="-1.78114">
        <ele>67</ele>
        <time>2021-07-17T07:49:09.000Z</time>
      </trkpt>
      <trkpt lat="47.03294" lon="-1.78127">
        <ele>67</ele>
        <time>2021-07-17T07:49:11.000Z</time>
      </trkpt>
      <trkpt lat="47.0328" lon="-1.7814">
        <ele>67</ele>
        <time>2021-07-17T07:49:13.000Z</time>
      </trkpt>
      <trkpt lat="47.03266" lon="-1.78152">
        <ele>67</ele>
        <time>2021-07-17T07:49:15.000Z</time>
      </trkpt>
      <trkpt lat="47.03253" lon="-1.78165">
        <ele>67</ele>
        <time>2021-07-17T07:49:17.000Z</time>
      </trkpt>
      <trkpt lat="47.03241" lon="-1.78177">
        <ele>68</ele>
        <time>2021-07-17T07:49:19.000Z</time>
      </trkpt>
      <trkpt lat="47.03228" lon="-1.78189">
        <ele>68</ele>
        <time>2021-07-17T07:49:21.000Z</time>
      </trkpt>
      <trkpt lat="47.03216" lon="-1.78199">
        <ele>69</ele>
        <time>2021-07-17T07:49:23.000Z</time>
      </trkpt>
      <trkpt lat="47.03205" lon="-1.7821">
        <ele>69</ele>
        <time>2021-07-17T07:49:25.000Z</time>
      </trkpt>
      <trkpt lat="47.03192" lon="-1.78222">
        <ele>69</ele>
        <time>2021-07-17T07:49:27.000Z</time>
      </trkpt>
      <trkpt lat="47.03181" lon="-1.78233">
        <ele>70</ele>
        <time>2021-07-17T07:49:29.000Z</time>
      </trkpt>
      <trkpt lat="47.03169" lon="-1.78244">
        <ele>69</ele>
        <time>2021-07-17T07:49:31.000Z</time>
      </trkpt>
      <trkpt lat="47.03157" lon="-1.78255">
        <ele>70</ele>
        <time>2021-07-17T07:49:33.000Z</time>
      </trkpt>
      <trkpt lat="47.03146" lon="-1.78266">
        <ele>70</ele>
        <time>2021-07-17T07:49:35.000Z</time>
      </trkpt>
      <trkpt lat="47.03134" lon="-1.78279">
        <ele>70</ele>
        <time>2021-07-17T07:49:37.000Z</time>
      </trkpt>
      <trkpt lat="47.03123" lon="-1.7829">
        <ele>70</ele>
        <time>2021-07-17T07:49:39.000Z</time>
      </trkpt>
      <trkpt lat="47.03111" lon="-1.783">
        <ele>70</ele>
        <time>2021-07-17T07:49:41.000Z</time>
      </trkpt>
      <trkpt lat="47.03099" lon="-1.78312">
        <ele>70</ele>
        <time>2021-07-17T07:49:43.000Z</time>
      </trkpt>
      <trkpt lat="47.03087" lon="-1.78323">
        <ele>70</ele>
        <time>2021-07-17T07:49:45.000Z</time>
      </trkpt>
      <trkpt lat="47.03076" lon="-1.78335">
        <ele>70</ele>
        <time>2021-07-17T07:49:47.000Z</time>
      </trkpt>
      <trkpt lat="47.03064" lon="-1.78347">
        <ele>71</ele>
        <time>2021-07-17T07:49:49.000Z</time>
      </trkpt>
      <trkpt lat="47.03052" lon="-1.78358">
        <ele>72</ele>
        <time>2021-07-17T07:49:51.000Z</time>
      </trkpt>
      <trkpt lat="47.0304" lon="-1.7837">
        <ele>72</ele>
        <time>2021-07-17T07:49:53.000Z</time>
      </trkpt>
      <trkpt lat="47.03026" lon="-1.78382">
        <ele>72</ele>
        <time>2021-07-17T07:49:55.000Z</time>
      </trkpt>
      <trkpt lat="47.03012" lon="-1.78395">
        <ele>71</ele>
        <time>2021-07-17T07:49:57.000Z</time>
      </trkpt>
      <trkpt lat="47.02999" lon="-1.78408">
        <ele>70</ele>
        <time>2021-07-17T07:49:59.000Z</time>
      </trkpt>
      <trkpt lat="47.02985" lon="-1.78421">
        <ele>70</ele>
        <time>2021-07-17T07:50:01.000Z</time>
      </trkpt>
      <trkpt lat="47.0297" lon="-1.78436">
        <ele>69</ele>
        <time>2021-07-17T07:50:03.000Z</time>
      </trkpt>
      <trkpt lat="47.02956" lon="-1.7845">
        <ele>68</ele>
        <time>2021-07-17T07:50:05.000Z</time>
      </trkpt>
      <trkpt lat="47.02941" lon="-1.78464">
        <ele>68</ele>
        <time>2021-07-17T07:50:07.000Z</time>
      </trkpt>
      <trkpt lat="47.02927" lon="-1.78478">
        <ele>67</ele>
        <time>2021-07-17T07:50:09.000Z</time>
      </trkpt>
      <trkpt lat="47.02919" lon="-1.78486">
        <ele>67</ele>
        <time>2021-07-17T07:50:10.000Z</time>
      </trkpt>
      <trkpt lat="47.02911" lon="-1.78493">
        <ele>67</ele>
        <time>2021-07-17T07:50:11.000Z</time>
      </trkpt>
      <trkpt lat="47.02903" lon="-1.785">
        <ele>66</ele>
        <time>2021-07-17T07:50:12.000Z</time>
      </trkpt>
      <trkpt lat="47.02896" lon="-1.78508">
        <ele>66</ele>
        <time>2021-07-17T07:50:13.000Z</time>
      </trkpt>
      <trkpt lat="47.02888" lon="-1.78515">
        <ele>66</ele>
        <time>2021-07-17T07:50:14.000Z</time>
      </trkpt>
      <trkpt lat="47.0288" lon="-1.78522">
        <ele>66</ele>
        <time>2021-07-17T07:50:15.000Z</time>
      </trkpt>
      <trkpt lat="47.02872" lon="-1.78529">
        <ele>66</ele>
        <time>2021-07-17T07:50:16.000Z</time>
      </trkpt>
      <trkpt lat="47.02865" lon="-1.78537">
        <ele>66</ele>
        <time>2021-07-17T07:50:17.000Z</time>
      </trkpt>
      <trkpt lat="47.0285" lon="-1.78552">
        <ele>65</ele>
        <time>2021-07-17T07:50:19.000Z</time>
      </trkpt>
      <trkpt lat="47.02833" lon="-1.78565">
        <ele>63</ele>
        <time>2021-07-17T07:50:21.000Z</time>
      </trkpt>
      <trkpt lat="47.02825" lon="-1.78572">
        <ele>63</ele>
        <time>2021-07-17T07:50:22.000Z</time>
      </trkpt>
      <trkpt lat="47.02817" lon="-1.78578">
        <ele>62</ele>
        <time>2021-07-17T07:50:23.000Z</time>
      </trkpt>
      <trkpt lat="47.02809" lon="-1.78585">
        <ele>61</ele>
        <time>2021-07-17T07:50:24.000Z</time>
      </trkpt>
      <trkpt lat="47.028" lon="-1.78591">
        <ele>60</ele>
        <time>2021-07-17T07:50:25.000Z</time>
      </trkpt>
      <trkpt lat="47.02792" lon="-1.78596">
        <ele>59</ele>
        <time>2021-07-17T07:50:26.000Z</time>
      </trkpt>
      <trkpt lat="47.02776" lon="-1.78607">
        <ele>59</ele>
        <time>2021-07-17T07:50:28.000Z</time>
      </trkpt>
      <trkpt lat="47.0276" lon="-1.78617">
        <ele>59</ele>
        <time>2021-07-17T07:50:30.000Z</time>
      </trkpt>
      <trkpt lat="47.02744" lon="-1.78628">
        <ele>59</ele>
        <time>2021-07-17T07:50:32.000Z</time>
      </trkpt>
      <trkpt lat="47.02728" lon="-1.78637">
        <ele>59</ele>
        <time>2021-07-17T07:50:34.000Z</time>
      </trkpt>
      <trkpt lat="47.02713" lon="-1.78647">
        <ele>59</ele>
        <time>2021-07-17T07:50:36.000Z</time>
      </trkpt>
      <trkpt lat="47.02698" lon="-1.78657">
        <ele>59</ele>
        <time>2021-07-17T07:50:38.000Z</time>
      </trkpt>
      <trkpt lat="47.02683" lon="-1.78667">
        <ele>59</ele>
        <time>2021-07-17T07:50:40.000Z</time>
      </trkpt>
      <trkpt lat="47.02669" lon="-1.78676">
        <ele>59</ele>
        <time>2021-07-17T07:50:42.000Z</time>
      </trkpt>
      <trkpt lat="47.02655" lon="-1.78685">
        <ele>59</ele>
        <time>2021-07-17T07:50:44.000Z</time>
      </trkpt>
      <trkpt lat="47.02641" lon="-1.78695">
        <ele>60</ele>
        <time>2021-07-17T07:50:46.000Z</time>
      </trkpt>
      <trkpt lat="47.02628" lon="-1.78703">
        <ele>60</ele>
        <time>2021-07-17T07:50:48.000Z</time>
      </trkpt>
      <trkpt lat="47.02614" lon="-1.78712">
        <ele>60</ele>
        <time>2021-07-17T07:50:50.000Z</time>
      </trkpt>
      <trkpt lat="47.026" lon="-1.7872">
        <ele>60</ele>
        <time>2021-07-17T07:50:52.000Z</time>
      </trkpt>
      <trkpt lat="47.02587" lon="-1.78729">
        <ele>60</ele>
        <time>2021-07-17T07:50:54.000Z</time>
      </trkpt>
      <trkpt lat="47.02573" lon="-1.78738">
        <ele>59</ele>
        <time>2021-07-17T07:50:56.000Z</time>
      </trkpt>
      <trkpt lat="47.0256" lon="-1.78747">
        <ele>59</ele>
        <time>2021-07-17T07:50:58.000Z</time>
      </trkpt>
      <trkpt lat="47.02547" lon="-1.78756">
        <ele>60</ele>
        <time>2021-07-17T07:51:00.000Z</time>
      </trkpt>
      <trkpt lat="47.02533" lon="-1.78765">
        <ele>60</ele>
        <time>2021-07-17T07:51:02.000Z</time>
      </trkpt>
      <trkpt lat="47.02519" lon="-1.78774">
        <ele>60</ele>
        <time>2021-07-17T07:51:04.000Z</time>
      </trkpt>
      <trkpt lat="47.02506" lon="-1.78782">
        <ele>60</ele>
        <time>2021-07-17T07:51:06.000Z</time>
      </trkpt>
      <trkpt lat="47.02493" lon="-1.78792">
        <ele>60</ele>
        <time>2021-07-17T07:51:08.000Z</time>
      </trkpt>
      <trkpt lat="47.02479" lon="-1.78801">
        <ele>60</ele>
        <time>2021-07-17T07:51:10.000Z</time>
      </trkpt>
      <trkpt lat="47.02466" lon="-1.78809">
        <ele>60</ele>
        <time>2021-07-17T07:51:12.000Z</time>
      </trkpt>
      <trkpt lat="47.02453" lon="-1.78818">
        <ele>59</ele>
        <time>2021-07-17T07:51:14.000Z</time>
      </trkpt>
      <trkpt lat="47.02439" lon="-1.78826">
        <ele>59</ele>
        <time>2021-07-17T07:51:16.000Z</time>
      </trkpt>
      <trkpt lat="47.02426" lon="-1.78835">
        <ele>59</ele>
        <time>2021-07-17T07:51:18.000Z</time>
      </trkpt>
      <trkpt lat="47.02413" lon="-1.78844">
        <ele>59</ele>
        <time>2021-07-17T07:51:20.000Z</time>
      </trkpt>
      <trkpt lat="47.024" lon="-1.78852">
        <ele>59</ele>
        <time>2021-07-17T07:51:22.000Z</time>
      </trkpt>
      <trkpt lat="47.02387" lon="-1.78861">
        <ele>59</ele>
        <time>2021-07-17T07:51:24.000Z</time>
      </trkpt>
      <trkpt lat="47.02374" lon="-1.78868">
        <ele>58</ele>
        <time>2021-07-17T07:51:26.000Z</time>
      </trkpt>
      <trkpt lat="47.02361" lon="-1.78877">
        <ele>59</ele>
        <time>2021-07-17T07:51:28.000Z</time>
      </trkpt>
      <trkpt lat="47.02348" lon="-1.78885">
        <ele>59</ele>
        <time>2021-07-17T07:51:30.000Z</time>
      </trkpt>
      <trkpt lat="47.02336" lon="-1.78893">
        <ele>59</ele>
        <time>2021-07-17T07:51:32.000Z</time>
      </trkpt>
      <trkpt lat="47.02323" lon="-1.78902">
        <ele>59</ele>
        <time>2021-07-17T07:51:34.000Z</time>
      </trkpt>
      <trkpt lat="47.0231" lon="-1.78911">
        <ele>58</ele>
        <time>2021-07-17T07:51:36.000Z</time>
      </trkpt>
      <trkpt lat="47.02298" lon="-1.78919">
        <ele>58</ele>
        <time>2021-07-17T07:51:38.000Z</time>
      </trkpt>
      <trkpt lat="47.02285" lon="-1.78929">
        <ele>58</ele>
        <time>2021-07-17T07:51:40.000Z</time>
      </trkpt>
      <trkpt lat="47.02272" lon="-1.7894">
        <ele>58</ele>
        <time>2021-07-17T07:51:42.000Z</time>
      </trkpt>
      <trkpt lat="47.02259" lon="-1.7895">
        <ele>57</ele>
        <time>2021-07-17T07:51:44.000Z</time>
      </trkpt>
      <trkpt lat="47.02247" lon="-1.78963">
        <ele>57</ele>
        <time>2021-07-17T07:51:46.000Z</time>
      </trkpt>
      <trkpt lat="47.02229" lon="-1.78984">
        <ele>56</ele>
        <time>2021-07-17T07:51:49.000Z</time>
      </trkpt>
      <trkpt lat="47.02213" lon="-1.79005">
        <ele>56</ele>
        <time>2021-07-17T07:51:52.000Z</time>
      </trkpt>
      <trkpt lat="47.02204" lon="-1.7902">
        <ele>56</ele>
        <time>2021-07-17T07:51:54.000Z</time>
      </trkpt>
      <trkpt lat="47.02187" lon="-1.79024">
        <ele>56</ele>
        <time>2021-07-17T07:51:57.000Z</time>
      </trkpt>
      <trkpt lat="47.02181" lon="-1.79007">
        <ele>55</ele>
        <time>2021-07-17T07:51:59.000Z</time>
      </trkpt>
      <trkpt lat="47.02176" lon="-1.7899">
        <ele>55</ele>
        <time>2021-07-17T07:52:01.000Z</time>
      </trkpt>
      <trkpt lat="47.02171" lon="-1.78972">
        <ele>56</ele>
        <time>2021-07-17T07:52:03.000Z</time>
      </trkpt>
      <trkpt lat="47.02165" lon="-1.78954">
        <ele>56</ele>
        <time>2021-07-17T07:52:05.000Z</time>
      </trkpt>
      <trkpt lat="47.0216" lon="-1.78936">
        <ele>56</ele>
        <time>2021-07-17T07:52:07.000Z</time>
      </trkpt>
      <trkpt lat="47.02155" lon="-1.78918">
        <ele>56</ele>
        <time>2021-07-17T07:52:09.000Z</time>
      </trkpt>
      <trkpt lat="47.0215" lon="-1.78901">
        <ele>56</ele>
        <time>2021-07-17T07:52:11.000Z</time>
      </trkpt>
      <trkpt lat="47.02145" lon="-1.78885">
        <ele>57</ele>
        <time>2021-07-17T07:52:13.000Z</time>
      </trkpt>
      <trkpt lat="47.0214" lon="-1.7887">
        <ele>57</ele>
        <time>2021-07-17T07:52:15.000Z</time>
      </trkpt>
      <trkpt lat="47.02135" lon="-1.78854">
        <ele>58</ele>
        <time>2021-07-17T07:52:17.000Z</time>
      </trkpt>
      <trkpt lat="47.0213" lon="-1.78838">
        <ele>58</ele>
        <time>2021-07-17T07:52:19.000Z</time>
      </trkpt>
      <trkpt lat="47.02126" lon="-1.78821">
        <ele>58</ele>
        <time>2021-07-17T07:52:21.000Z</time>
      </trkpt>
      <trkpt lat="47.02121" lon="-1.78804">
        <ele>58</ele>
        <time>2021-07-17T07:52:23.000Z</time>
      </trkpt>
      <trkpt lat="47.02116" lon="-1.78789">
        <ele>58</ele>
        <time>2021-07-17T07:52:25.000Z</time>
      </trkpt>
      <trkpt lat="47.02112" lon="-1.78773">
        <ele>59</ele>
        <time>2021-07-17T07:52:27.000Z</time>
      </trkpt>
      <trkpt lat="47.02107" lon="-1.78758">
        <ele>59</ele>
        <time>2021-07-17T07:52:29.000Z</time>
      </trkpt>
      <trkpt lat="47.02102" lon="-1.78743">
        <ele>59</ele>
        <time>2021-07-17T07:52:31.000Z</time>
      </trkpt>
      <trkpt lat="47.02097" lon="-1.78728">
        <ele>59</ele>
        <time>2021-07-17T07:52:33.000Z</time>
      </trkpt>
      <trkpt lat="47.02091" lon="-1.78712">
        <ele>58</ele>
        <time>2021-07-17T07:52:35.000Z</time>
      </trkpt>
      <trkpt lat="47.02084" lon="-1.78697">
        <ele>58</ele>
        <time>2021-07-17T07:52:37.000Z</time>
      </trkpt>
      <trkpt lat="47.02076" lon="-1.78681">
        <ele>57</ele>
        <time>2021-07-17T07:52:39.000Z</time>
      </trkpt>
      <trkpt lat="47.02067" lon="-1.78667">
        <ele>57</ele>
        <time>2021-07-17T07:52:41.000Z</time>
      </trkpt>
      <trkpt lat="47.02058" lon="-1.78652">
        <ele>57</ele>
        <time>2021-07-17T07:52:43.000Z</time>
      </trkpt>
      <trkpt lat="47.02047" lon="-1.78637">
        <ele>56</ele>
        <time>2021-07-17T07:52:45.000Z</time>
      </trkpt>
      <trkpt lat="47.02036" lon="-1.78623">
        <ele>55</ele>
        <time>2021-07-17T07:52:47.000Z</time>
      </trkpt>
      <trkpt lat="47.02025" lon="-1.78609">
        <ele>55</ele>
        <time>2021-07-17T07:52:49.000Z</time>
      </trkpt>
      <trkpt lat="47.02013" lon="-1.78595">
        <ele>54</ele>
        <time>2021-07-17T07:52:51.000Z</time>
      </trkpt>
      <trkpt lat="47.02002" lon="-1.78582">
        <ele>54</ele>
        <time>2021-07-17T07:52:53.000Z</time>
      </trkpt>
      <trkpt lat="47.0199" lon="-1.78568">
        <ele>55</ele>
        <time>2021-07-17T07:52:55.000Z</time>
      </trkpt>
      <trkpt lat="47.01979" lon="-1.78555">
        <ele>55</ele>
        <time>2021-07-17T07:52:57.000Z</time>
      </trkpt>
      <trkpt lat="47.01968" lon="-1.78542">
        <ele>55</ele>
        <time>2021-07-17T07:52:59.000Z</time>
      </trkpt>
      <trkpt lat="47.01958" lon="-1.78528">
        <ele>55</ele>
        <time>2021-07-17T07:53:01.000Z</time>
      </trkpt>
      <trkpt lat="47.01948" lon="-1.78516">
        <ele>55</ele>
        <time>2021-07-17T07:53:03.000Z</time>
      </trkpt>
      <trkpt lat="47.01938" lon="-1.78503">
        <ele>55</ele>
        <time>2021-07-17T07:53:05.000Z</time>
      </trkpt>
      <trkpt lat="47.01929" lon="-1.78493">
        <ele>55</ele>
        <time>2021-07-17T07:53:07.000Z</time>
      </trkpt>
      <trkpt lat="47.01919" lon="-1.78482">
        <ele>56</ele>
        <time>2021-07-17T07:53:09.000Z</time>
      </trkpt>
      <trkpt lat="47.01911" lon="-1.78471">
        <ele>56</ele>
        <time>2021-07-17T07:53:11.000Z</time>
      </trkpt>
      <trkpt lat="47.01901" lon="-1.78461">
        <ele>57</ele>
        <time>2021-07-17T07:53:13.000Z</time>
      </trkpt>
      <trkpt lat="47.01893" lon="-1.78451">
        <ele>57</ele>
        <time>2021-07-17T07:53:15.000Z</time>
      </trkpt>
      <trkpt lat="47.01884" lon="-1.7844">
        <ele>57</ele>
        <time>2021-07-17T07:53:17.000Z</time>
      </trkpt>
      <trkpt lat="47.01876" lon="-1.78429">
        <ele>57</ele>
        <time>2021-07-17T07:53:19.000Z</time>
      </trkpt>
      <trkpt lat="47.01866" lon="-1.78418">
        <ele>58</ele>
        <time>2021-07-17T07:53:21.000Z</time>
      </trkpt>
      <trkpt lat="47.01858" lon="-1.78408">
        <ele>58</ele>
        <time>2021-07-17T07:53:23.000Z</time>
      </trkpt>
      <trkpt lat="47.01849" lon="-1.78397">
        <ele>59</ele>
        <time>2021-07-17T07:53:25.000Z</time>
      </trkpt>
      <trkpt lat="47.0184" lon="-1.78386">
        <ele>59</ele>
        <time>2021-07-17T07:53:27.000Z</time>
      </trkpt>
      <trkpt lat="47.0183" lon="-1.78375">
        <ele>59</ele>
        <time>2021-07-17T07:53:29.000Z</time>
      </trkpt>
      <trkpt lat="47.01821" lon="-1.78364">
        <ele>59</ele>
        <time>2021-07-17T07:53:31.000Z</time>
      </trkpt>
      <trkpt lat="47.01812" lon="-1.78353">
        <ele>59</ele>
        <time>2021-07-17T07:53:33.000Z</time>
      </trkpt>
      <trkpt lat="47.01803" lon="-1.78342">
        <ele>59</ele>
        <time>2021-07-17T07:53:35.000Z</time>
      </trkpt>
      <trkpt lat="47.01794" lon="-1.78331">
        <ele>59</ele>
        <time>2021-07-17T07:53:37.000Z</time>
      </trkpt>
      <trkpt lat="47.01785" lon="-1.78321">
        <ele>60</ele>
        <time>2021-07-17T07:53:39.000Z</time>
      </trkpt>
      <trkpt lat="47.01776" lon="-1.7831">
        <ele>61</ele>
        <time>2021-07-17T07:53:41.000Z</time>
      </trkpt>
      <trkpt lat="47.01766" lon="-1.78298">
        <ele>61</ele>
        <time>2021-07-17T07:53:43.000Z</time>
      </trkpt>
      <trkpt lat="47.01757" lon="-1.78287">
        <ele>61</ele>
        <time>2021-07-17T07:53:45.000Z</time>
      </trkpt>
      <trkpt lat="47.01749" lon="-1.78275">
        <ele>61</ele>
        <time>2021-07-17T07:53:47.000Z</time>
      </trkpt>
      <trkpt lat="47.01739" lon="-1.78265">
        <ele>62</ele>
        <time>2021-07-17T07:53:49.000Z</time>
      </trkpt>
      <trkpt lat="47.0173" lon="-1.78254">
        <ele>62</ele>
        <time>2021-07-17T07:53:51.000Z</time>
      </trkpt>
      <trkpt lat="47.01721" lon="-1.78244">
        <ele>63</ele>
        <time>2021-07-17T07:53:53.000Z</time>
      </trkpt>
      <trkpt lat="47.01711" lon="-1.78232">
        <ele>63</ele>
        <time>2021-07-17T07:53:55.000Z</time>
      </trkpt>
      <trkpt lat="47.01701" lon="-1.78221">
        <ele>63</ele>
        <time>2021-07-17T07:53:57.000Z</time>
      </trkpt>
      <trkpt lat="47.01692" lon="-1.7821">
        <ele>62</ele>
        <time>2021-07-17T07:53:59.000Z</time>
      </trkpt>
      <trkpt lat="47.01683" lon="-1.78199">
        <ele>63</ele>
        <time>2021-07-17T07:54:01.000Z</time>
      </trkpt>
      <trkpt lat="47.01673" lon="-1.78187">
        <ele>63</ele>
        <time>2021-07-17T07:54:03.000Z</time>
      </trkpt>
      <trkpt lat="47.01664" lon="-1.78175">
        <ele>63</ele>
        <time>2021-07-17T07:54:05.000Z</time>
      </trkpt>
      <trkpt lat="47.01654" lon="-1.78163">
        <ele>63</ele>
        <time>2021-07-17T07:54:07.000Z</time>
      </trkpt>
      <trkpt lat="47.01645" lon="-1.78152">
        <ele>63</ele>
        <time>2021-07-17T07:54:09.000Z</time>
      </trkpt>
      <trkpt lat="47.01636" lon="-1.78141">
        <ele>64</ele>
        <time>2021-07-17T07:54:11.000Z</time>
      </trkpt>
      <trkpt lat="47.01626" lon="-1.78129">
        <ele>64</ele>
        <time>2021-07-17T07:54:13.000Z</time>
      </trkpt>
      <trkpt lat="47.01617" lon="-1.78118">
        <ele>64</ele>
        <time>2021-07-17T07:54:15.000Z</time>
      </trkpt>
      <trkpt lat="47.01607" lon="-1.78107">
        <ele>64</ele>
        <time>2021-07-17T07:54:17.000Z</time>
      </trkpt>
      <trkpt lat="47.01598" lon="-1.78096">
        <ele>64</ele>
        <time>2021-07-17T07:54:19.000Z</time>
      </trkpt>
      <trkpt lat="47.01589" lon="-1.78085">
        <ele>64</ele>
        <time>2021-07-17T07:54:21.000Z</time>
      </trkpt>
      <trkpt lat="47.01581" lon="-1.78074">
        <ele>64</ele>
        <time>2021-07-17T07:54:23.000Z</time>
      </trkpt>
      <trkpt lat="47.01572" lon="-1.78063">
        <ele>64</ele>
        <time>2021-07-17T07:54:25.000Z</time>
      </trkpt>
      <trkpt lat="47.01563" lon="-1.78053">
        <ele>65</ele>
        <time>2021-07-17T07:54:27.000Z</time>
      </trkpt>
      <trkpt lat="47.01554" lon="-1.78042">
        <ele>66</ele>
        <time>2021-07-17T07:54:29.000Z</time>
      </trkpt>
      <trkpt lat="47.01546" lon="-1.78031">
        <ele>66</ele>
        <time>2021-07-17T07:54:31.000Z</time>
      </trkpt>
      <trkpt lat="47.01537" lon="-1.78021">
        <ele>66</ele>
        <time>2021-07-17T07:54:33.000Z</time>
      </trkpt>
      <trkpt lat="47.01528" lon="-1.7801">
        <ele>66</ele>
        <time>2021-07-17T07:54:35.000Z</time>
      </trkpt>
      <trkpt lat="47.01519" lon="-1.78">
        <ele>67</ele>
        <time>2021-07-17T07:54:37.000Z</time>
      </trkpt>
      <trkpt lat="47.01509" lon="-1.7799">
        <ele>67</ele>
        <time>2021-07-17T07:54:39.000Z</time>
      </trkpt>
      <trkpt lat="47.015" lon="-1.7798">
        <ele>68</ele>
        <time>2021-07-17T07:54:41.000Z</time>
      </trkpt>
      <trkpt lat="47.01491" lon="-1.77969">
        <ele>68</ele>
        <time>2021-07-17T07:54:43.000Z</time>
      </trkpt>
      <trkpt lat="47.01482" lon="-1.77958">
        <ele>68</ele>
        <time>2021-07-17T07:54:45.000Z</time>
      </trkpt>
      <trkpt lat="47.01473" lon="-1.77948">
        <ele>69</ele>
        <time>2021-07-17T07:54:47.000Z</time>
      </trkpt>
      <trkpt lat="47.01465" lon="-1.77938">
        <ele>69</ele>
        <time>2021-07-17T07:54:49.000Z</time>
      </trkpt>
      <trkpt lat="47.01456" lon="-1.77928">
        <ele>70</ele>
        <time>2021-07-17T07:54:51.000Z</time>
      </trkpt>
      <trkpt lat="47.01448" lon="-1.77917">
        <ele>70</ele>
        <time>2021-07-17T07:54:53.000Z</time>
      </trkpt>
      <trkpt lat="47.01439" lon="-1.77906">
        <ele>70</ele>
        <time>2021-07-17T07:54:55.000Z</time>
      </trkpt>
      <trkpt lat="47.01431" lon="-1.77896">
        <ele>70</ele>
        <time>2021-07-17T07:54:57.000Z</time>
      </trkpt>
      <trkpt lat="47.01422" lon="-1.77885">
        <ele>70</ele>
        <time>2021-07-17T07:54:59.000Z</time>
      </trkpt>
      <trkpt lat="47.01414" lon="-1.77875">
        <ele>70</ele>
        <time>2021-07-17T07:55:01.000Z</time>
      </trkpt>
      <trkpt lat="47.01406" lon="-1.77864">
        <ele>70</ele>
        <time>2021-07-17T07:55:03.000Z</time>
      </trkpt>
      <trkpt lat="47.01397" lon="-1.77854">
        <ele>70</ele>
        <time>2021-07-17T07:55:05.000Z</time>
      </trkpt>
      <trkpt lat="47.01388" lon="-1.77844">
        <ele>70</ele>
        <time>2021-07-17T07:55:07.000Z</time>
      </trkpt>
      <trkpt lat="47.01379" lon="-1.77832">
        <ele>69</ele>
        <time>2021-07-17T07:55:09.000Z</time>
      </trkpt>
      <trkpt lat="47.0137" lon="-1.77821">
        <ele>69</ele>
        <time>2021-07-17T07:55:11.000Z</time>
      </trkpt>
      <trkpt lat="47.01361" lon="-1.7781">
        <ele>69</ele>
        <time>2021-07-17T07:55:13.000Z</time>
      </trkpt>
      <trkpt lat="47.01352" lon="-1.77798">
        <ele>68</ele>
        <time>2021-07-17T07:55:15.000Z</time>
      </trkpt>
      <trkpt lat="47.01342" lon="-1.77787">
        <ele>68</ele>
        <time>2021-07-17T07:55:17.000Z</time>
      </trkpt>
      <trkpt lat="47.01333" lon="-1.77775">
        <ele>67</ele>
        <time>2021-07-17T07:55:19.000Z</time>
      </trkpt>
      <trkpt lat="47.01323" lon="-1.77764">
        <ele>67</ele>
        <time>2021-07-17T07:55:21.000Z</time>
      </trkpt>
      <trkpt lat="47.01314" lon="-1.77752">
        <ele>67</ele>
        <time>2021-07-17T07:55:23.000Z</time>
      </trkpt>
      <trkpt lat="47.01304" lon="-1.7774">
        <ele>68</ele>
        <time>2021-07-17T07:55:25.000Z</time>
      </trkpt>
      <trkpt lat="47.01294" lon="-1.77728">
        <ele>68</ele>
        <time>2021-07-17T07:55:27.000Z</time>
      </trkpt>
      <trkpt lat="47.01284" lon="-1.77717">
        <ele>68</ele>
        <time>2021-07-17T07:55:29.000Z</time>
      </trkpt>
      <trkpt lat="47.01274" lon="-1.77705">
        <ele>68</ele>
        <time>2021-07-17T07:55:31.000Z</time>
      </trkpt>
      <trkpt lat="47.01263" lon="-1.77693">
        <ele>68</ele>
        <time>2021-07-17T07:55:33.000Z</time>
      </trkpt>
      <trkpt lat="47.01252" lon="-1.7768">
        <ele>68</ele>
        <time>2021-07-17T07:55:35.000Z</time>
      </trkpt>
      <trkpt lat="47.01241" lon="-1.77667">
        <ele>68</ele>
        <time>2021-07-17T07:55:37.000Z</time>
      </trkpt>
      <trkpt lat="47.01231" lon="-1.77654">
        <ele>68</ele>
        <time>2021-07-17T07:55:39.000Z</time>
      </trkpt>
      <trkpt lat="47.0122" lon="-1.77641">
        <ele>67</ele>
        <time>2021-07-17T07:55:41.000Z</time>
      </trkpt>
      <trkpt lat="47.01209" lon="-1.77627">
        <ele>67</ele>
        <time>2021-07-17T07:55:43.000Z</time>
      </trkpt>
      <trkpt lat="47.01198" lon="-1.77613">
        <ele>66</ele>
        <time>2021-07-17T07:55:45.000Z</time>
      </trkpt>
      <trkpt lat="47.01188" lon="-1.77599">
        <ele>66</ele>
        <time>2021-07-17T07:55:47.000Z</time>
      </trkpt>
      <trkpt lat="47.01178" lon="-1.77585">
        <ele>65</ele>
        <time>2021-07-17T07:55:49.000Z</time>
      </trkpt>
      <trkpt lat="47.01168" lon="-1.77569">
        <ele>65</ele>
        <time>2021-07-17T07:55:51.000Z</time>
      </trkpt>
      <trkpt lat="47.01159" lon="-1.77553">
        <ele>64</ele>
        <time>2021-07-17T07:55:53.000Z</time>
      </trkpt>
      <trkpt lat="47.0115" lon="-1.77536">
        <ele>64</ele>
        <time>2021-07-17T07:55:55.000Z</time>
      </trkpt>
      <trkpt lat="47.01142" lon="-1.77519">
        <ele>64</ele>
        <time>2021-07-17T07:55:57.000Z</time>
      </trkpt>
      <trkpt lat="47.01135" lon="-1.77501">
        <ele>63</ele>
        <time>2021-07-17T07:55:59.000Z</time>
      </trkpt>
      <trkpt lat="47.01128" lon="-1.77482">
        <ele>63</ele>
        <time>2021-07-17T07:56:01.000Z</time>
      </trkpt>
      <trkpt lat="47.01121" lon="-1.77464">
        <ele>63</ele>
        <time>2021-07-17T07:56:03.000Z</time>
      </trkpt>
      <trkpt lat="47.01114" lon="-1.77447">
        <ele>64</ele>
        <time>2021-07-17T07:56:05.000Z</time>
      </trkpt>
      <trkpt lat="47.01107" lon="-1.77429">
        <ele>64</ele>
        <time>2021-07-17T07:56:07.000Z</time>
      </trkpt>
      <trkpt lat="47.01099" lon="-1.77412">
        <ele>64</ele>
        <time>2021-07-17T07:56:09.000Z</time>
      </trkpt>
      <trkpt lat="47.01091" lon="-1.77395">
        <ele>64</ele>
        <time>2021-07-17T07:56:11.000Z</time>
      </trkpt>
      <trkpt lat="47.01084" lon="-1.7738">
        <ele>64</ele>
        <time>2021-07-17T07:56:13.000Z</time>
      </trkpt>
      <trkpt lat="47.01075" lon="-1.77366">
        <ele>64</ele>
        <time>2021-07-17T07:56:15.000Z</time>
      </trkpt>
      <trkpt lat="47.01067" lon="-1.7735">
        <ele>64</ele>
        <time>2021-07-17T07:56:17.000Z</time>
      </trkpt>
      <trkpt lat="47.01058" lon="-1.77334">
        <ele>64</ele>
        <time>2021-07-17T07:56:19.000Z</time>
      </trkpt>
      <trkpt lat="47.0105" lon="-1.77319">
        <ele>64</ele>
        <time>2021-07-17T07:56:21.000Z</time>
      </trkpt>
      <trkpt lat="47.01042" lon="-1.77305">
        <ele>64</ele>
        <time>2021-07-17T07:56:23.000Z</time>
      </trkpt>
      <trkpt lat="47.01034" lon="-1.77289">
        <ele>64</ele>
        <time>2021-07-17T07:56:25.000Z</time>
      </trkpt>
      <trkpt lat="47.01026" lon="-1.77274">
        <ele>63</ele>
        <time>2021-07-17T07:56:27.000Z</time>
      </trkpt>
      <trkpt lat="47.01018" lon="-1.77259">
        <ele>63</ele>
        <time>2021-07-17T07:56:29.000Z</time>
      </trkpt>
      <trkpt lat="47.01011" lon="-1.77244">
        <ele>63</ele>
        <time>2021-07-17T07:56:31.000Z</time>
      </trkpt>
      <trkpt lat="47.01003" lon="-1.7723">
        <ele>63</ele>
        <time>2021-07-17T07:56:33.000Z</time>
      </trkpt>
      <trkpt lat="47.00995" lon="-1.77216">
        <ele>64</ele>
        <time>2021-07-17T07:56:35.000Z</time>
      </trkpt>
      <trkpt lat="47.00987" lon="-1.77202">
        <ele>64</ele>
        <time>2021-07-17T07:56:37.000Z</time>
      </trkpt>
      <trkpt lat="47.00979" lon="-1.77187">
        <ele>63</ele>
        <time>2021-07-17T07:56:39.000Z</time>
      </trkpt>
      <trkpt lat="47.00971" lon="-1.77172">
        <ele>63</ele>
        <time>2021-07-17T07:56:41.000Z</time>
      </trkpt>
      <trkpt lat="47.00963" lon="-1.77158">
        <ele>64</ele>
        <time>2021-07-17T07:56:43.000Z</time>
      </trkpt>
      <trkpt lat="47.00956" lon="-1.77144">
        <ele>63</ele>
        <time>2021-07-17T07:56:45.000Z</time>
      </trkpt>
      <trkpt lat="47.00948" lon="-1.77129">
        <ele>63</ele>
        <time>2021-07-17T07:56:47.000Z</time>
      </trkpt>
      <trkpt lat="47.00939" lon="-1.77116">
        <ele>63</ele>
        <time>2021-07-17T07:56:49.000Z</time>
      </trkpt>
      <trkpt lat="47.00929" lon="-1.77104">
        <ele>64</ele>
        <time>2021-07-17T07:56:51.000Z</time>
      </trkpt>
      <trkpt lat="47.00919" lon="-1.77092">
        <ele>65</ele>
        <time>2021-07-17T07:56:53.000Z</time>
      </trkpt>
      <trkpt lat="47.00908" lon="-1.77083">
        <ele>66</ele>
        <time>2021-07-17T07:56:55.000Z</time>
      </trkpt>
      <trkpt lat="47.00897" lon="-1.77075">
        <ele>66</ele>
        <time>2021-07-17T07:56:57.000Z</time>
      </trkpt>
      <trkpt lat="47.00885" lon="-1.77069">
        <ele>67</ele>
        <time>2021-07-17T07:56:59.000Z</time>
      </trkpt>
      <trkpt lat="47.00873" lon="-1.77063">
        <ele>67</ele>
        <time>2021-07-17T07:57:01.000Z</time>
      </trkpt>
      <trkpt lat="47.00861" lon="-1.77058">
        <ele>67</ele>
        <time>2021-07-17T07:57:03.000Z</time>
      </trkpt>
      <trkpt lat="47.00849" lon="-1.77053">
        <ele>67</ele>
        <time>2021-07-17T07:57:05.000Z</time>
      </trkpt>
      <trkpt lat="47.00837" lon="-1.77049">
        <ele>67</ele>
        <time>2021-07-17T07:57:07.000Z</time>
      </trkpt>
      <trkpt lat="47.00824" lon="-1.77044">
        <ele>68</ele>
        <time>2021-07-17T07:57:09.000Z</time>
      </trkpt>
      <trkpt lat="47.00812" lon="-1.77038">
        <ele>68</ele>
        <time>2021-07-17T07:57:11.000Z</time>
      </trkpt>
      <trkpt lat="47.00799" lon="-1.77033">
        <ele>68</ele>
        <time>2021-07-17T07:57:13.000Z</time>
      </trkpt>
      <trkpt lat="47.00787" lon="-1.77029">
        <ele>68</ele>
        <time>2021-07-17T07:57:15.000Z</time>
      </trkpt>
      <trkpt lat="47.00775" lon="-1.77025">
        <ele>68</ele>
        <time>2021-07-17T07:57:17.000Z</time>
      </trkpt>
      <trkpt lat="47.00762" lon="-1.7702">
        <ele>68</ele>
        <time>2021-07-17T07:57:19.000Z</time>
      </trkpt>
      <trkpt lat="47.0075" lon="-1.77014">
        <ele>67</ele>
        <time>2021-07-17T07:57:21.000Z</time>
      </trkpt>
      <trkpt lat="47.00738" lon="-1.77008">
        <ele>67</ele>
        <time>2021-07-17T07:57:23.000Z</time>
      </trkpt>
      <trkpt lat="47.00725" lon="-1.77003">
        <ele>68</ele>
        <time>2021-07-17T07:57:25.000Z</time>
      </trkpt>
      <trkpt lat="47.00712" lon="-1.76998">
        <ele>68</ele>
        <time>2021-07-17T07:57:27.000Z</time>
      </trkpt>
      <trkpt lat="47.00699" lon="-1.76993">
        <ele>68</ele>
        <time>2021-07-17T07:57:29.000Z</time>
      </trkpt>
      <trkpt lat="47.00687" lon="-1.76989">
        <ele>69</ele>
        <time>2021-07-17T07:57:31.000Z</time>
      </trkpt>
      <trkpt lat="47.00674" lon="-1.76984">
        <ele>69</ele>
        <time>2021-07-17T07:57:33.000Z</time>
      </trkpt>
      <trkpt lat="47.00661" lon="-1.76978">
        <ele>69</ele>
        <time>2021-07-17T07:57:35.000Z</time>
      </trkpt>
      <trkpt lat="47.00648" lon="-1.76972">
        <ele>68</ele>
        <time>2021-07-17T07:57:37.000Z</time>
      </trkpt>
      <trkpt lat="47.00635" lon="-1.76966">
        <ele>68</ele>
        <time>2021-07-17T07:57:39.000Z</time>
      </trkpt>
      <trkpt lat="47.00623" lon="-1.76961">
        <ele>68</ele>
        <time>2021-07-17T07:57:41.000Z</time>
      </trkpt>
      <trkpt lat="47.0061" lon="-1.76955">
        <ele>69</ele>
        <time>2021-07-17T07:57:43.000Z</time>
      </trkpt>
      <trkpt lat="47.00598" lon="-1.76948">
        <ele>69</ele>
        <time>2021-07-17T07:57:45.000Z</time>
      </trkpt>
      <trkpt lat="47.00586" lon="-1.76941">
        <ele>68</ele>
        <time>2021-07-17T07:57:47.000Z</time>
      </trkpt>
      <trkpt lat="47.00573" lon="-1.76932">
        <ele>67</ele>
        <time>2021-07-17T07:57:49.000Z</time>
      </trkpt>
      <trkpt lat="47.00562" lon="-1.76921">
        <ele>67</ele>
        <time>2021-07-17T07:57:51.000Z</time>
      </trkpt>
      <trkpt lat="47.0055" lon="-1.7691">
        <ele>67</ele>
        <time>2021-07-17T07:57:53.000Z</time>
      </trkpt>
      <trkpt lat="47.00539" lon="-1.76898">
        <ele>67</ele>
        <time>2021-07-17T07:57:55.000Z</time>
      </trkpt>
      <trkpt lat="47.00528" lon="-1.76887">
        <ele>66</ele>
        <time>2021-07-17T07:57:57.000Z</time>
      </trkpt>
      <trkpt lat="47.00517" lon="-1.76875">
        <ele>65</ele>
        <time>2021-07-17T07:57:59.000Z</time>
      </trkpt>
      <trkpt lat="47.00506" lon="-1.76863">
        <ele>65</ele>
        <time>2021-07-17T07:58:01.000Z</time>
      </trkpt>
      <trkpt lat="47.00495" lon="-1.76852">
        <ele>65</ele>
        <time>2021-07-17T07:58:03.000Z</time>
      </trkpt>
      <trkpt lat="47.00484" lon="-1.7684">
        <ele>65</ele>
        <time>2021-07-17T07:58:05.000Z</time>
      </trkpt>
      <trkpt lat="47.00473" lon="-1.76828">
        <ele>65</ele>
        <time>2021-07-17T07:58:07.000Z</time>
      </trkpt>
      <trkpt lat="47.00462" lon="-1.76816">
        <ele>64</ele>
        <time>2021-07-17T07:58:09.000Z</time>
      </trkpt>
      <trkpt lat="47.0045" lon="-1.76804">
        <ele>64</ele>
        <time>2021-07-17T07:58:11.000Z</time>
      </trkpt>
      <trkpt lat="47.00439" lon="-1.76792">
        <ele>64</ele>
        <time>2021-07-17T07:58:13.000Z</time>
      </trkpt>
      <trkpt lat="47.00427" lon="-1.7678">
        <ele>64</ele>
        <time>2021-07-17T07:58:15.000Z</time>
      </trkpt>
      <trkpt lat="47.00415" lon="-1.76768">
        <ele>64</ele>
        <time>2021-07-17T07:58:17.000Z</time>
      </trkpt>
      <trkpt lat="47.00403" lon="-1.76755">
        <ele>63</ele>
        <time>2021-07-17T07:58:19.000Z</time>
      </trkpt>
      <trkpt lat="47.00391" lon="-1.76742">
        <ele>63</ele>
        <time>2021-07-17T07:58:21.000Z</time>
      </trkpt>
      <trkpt lat="47.00378" lon="-1.76729">
        <ele>62</ele>
        <time>2021-07-17T07:58:23.000Z</time>
      </trkpt>
      <trkpt lat="47.00366" lon="-1.76716">
        <ele>62</ele>
        <time>2021-07-17T07:58:25.000Z</time>
      </trkpt>
      <trkpt lat="47.00353" lon="-1.76703">
        <ele>62</ele>
        <time>2021-07-17T07:58:27.000Z</time>
      </trkpt>
      <trkpt lat="47.0034" lon="-1.76691">
        <ele>61</ele>
        <time>2021-07-17T07:58:29.000Z</time>
      </trkpt>
      <trkpt lat="47.00326" lon="-1.76681">
        <ele>61</ele>
        <time>2021-07-17T07:58:31.000Z</time>
      </trkpt>
      <trkpt lat="47.00312" lon="-1.7667">
        <ele>61</ele>
        <time>2021-07-17T07:58:33.000Z</time>
      </trkpt>
      <trkpt lat="47.00298" lon="-1.76661">
        <ele>60</ele>
        <time>2021-07-17T07:58:35.000Z</time>
      </trkpt>
      <trkpt lat="47.00284" lon="-1.76653">
        <ele>60</ele>
        <time>2021-07-17T07:58:37.000Z</time>
      </trkpt>
      <trkpt lat="47.00269" lon="-1.76646">
        <ele>59</ele>
        <time>2021-07-17T07:58:39.000Z</time>
      </trkpt>
      <trkpt lat="47.00254" lon="-1.76638">
        <ele>59</ele>
        <time>2021-07-17T07:58:41.000Z</time>
      </trkpt>
      <trkpt lat="47.00238" lon="-1.76633">
        <ele>58</ele>
        <time>2021-07-17T07:58:43.000Z</time>
      </trkpt>
      <trkpt lat="47.00223" lon="-1.76627">
        <ele>58</ele>
        <time>2021-07-17T07:58:45.000Z</time>
      </trkpt>
      <trkpt lat="47.00208" lon="-1.7662">
        <ele>58</ele>
        <time>2021-07-17T07:58:47.000Z</time>
      </trkpt>
      <trkpt lat="47.00194" lon="-1.76614">
        <ele>57</ele>
        <time>2021-07-17T07:58:49.000Z</time>
      </trkpt>
      <trkpt lat="47.0018" lon="-1.76608">
        <ele>57</ele>
        <time>2021-07-17T07:58:51.000Z</time>
      </trkpt>
      <trkpt lat="47.00166" lon="-1.76602">
        <ele>57</ele>
        <time>2021-07-17T07:58:53.000Z</time>
      </trkpt>
      <trkpt lat="47.00152" lon="-1.76596">
        <ele>56</ele>
        <time>2021-07-17T07:58:55.000Z</time>
      </trkpt>
      <trkpt lat="47.00138" lon="-1.76589">
        <ele>56</ele>
        <time>2021-07-17T07:58:57.000Z</time>
      </trkpt>
      <trkpt lat="47.00124" lon="-1.76583">
        <ele>56</ele>
        <time>2021-07-17T07:58:59.000Z</time>
      </trkpt>
      <trkpt lat="47.0011" lon="-1.76578">
        <ele>56</ele>
        <time>2021-07-17T07:59:01.000Z</time>
      </trkpt>
      <trkpt lat="47.00097" lon="-1.76572">
        <ele>56</ele>
        <time>2021-07-17T07:59:03.000Z</time>
      </trkpt>
      <trkpt lat="47.00083" lon="-1.76565">
        <ele>56</ele>
        <time>2021-07-17T07:59:05.000Z</time>
      </trkpt>
      <trkpt lat="47.0007" lon="-1.76557">
        <ele>56</ele>
        <time>2021-07-17T07:59:07.000Z</time>
      </trkpt>
      <trkpt lat="47.00059" lon="-1.76545">
        <ele>56</ele>
        <time>2021-07-17T07:59:09.000Z</time>
      </trkpt>
      <trkpt lat="47.0005" lon="-1.76528">
        <ele>56</ele>
        <time>2021-07-17T07:59:11.000Z</time>
      </trkpt>
      <trkpt lat="47.00043" lon="-1.7651">
        <ele>56</ele>
        <time>2021-07-17T07:59:13.000Z</time>
      </trkpt>
      <trkpt lat="47.00038" lon="-1.76492">
        <ele>56</ele>
        <time>2021-07-17T07:59:15.000Z</time>
      </trkpt>
      <trkpt lat="47.00034" lon="-1.76472">
        <ele>56</ele>
        <time>2021-07-17T07:59:17.000Z</time>
      </trkpt>
      <trkpt lat="47.00029" lon="-1.76453">
        <ele>56</ele>
        <time>2021-07-17T07:59:19.000Z</time>
      </trkpt>
      <trkpt lat="47.00025" lon="-1.76434">
        <ele>56</ele>
        <time>2021-07-17T07:59:21.000Z</time>
      </trkpt>
      <trkpt lat="47.00021" lon="-1.76415">
        <ele>56</ele>
        <time>2021-07-17T07:59:23.000Z</time>
      </trkpt>
      <trkpt lat="47.00016" lon="-1.76396">
        <ele>56</ele>
        <time>2021-07-17T07:59:25.000Z</time>
      </trkpt>
      <trkpt lat="47.00012" lon="-1.76376">
        <ele>56</ele>
        <time>2021-07-17T07:59:27.000Z</time>
      </trkpt>
      <trkpt lat="47.00009" lon="-1.76357">
        <ele>56</ele>
        <time>2021-07-17T07:59:29.000Z</time>
      </trkpt>
      <trkpt lat="47.00004" lon="-1.76338">
        <ele>56</ele>
        <time>2021-07-17T07:59:31.000Z</time>
      </trkpt>
      <trkpt lat="46.99999" lon="-1.7632">
        <ele>56</ele>
        <time>2021-07-17T07:59:33.000Z</time>
      </trkpt>
      <trkpt lat="46.99995" lon="-1.76302">
        <ele>56</ele>
        <time>2021-07-17T07:59:35.000Z</time>
      </trkpt>
      <trkpt lat="46.99991" lon="-1.76283">
        <ele>55</ele>
        <time>2021-07-17T07:59:37.000Z</time>
      </trkpt>
      <trkpt lat="46.99987" lon="-1.76265">
        <ele>55</ele>
        <time>2021-07-17T07:59:39.000Z</time>
      </trkpt>
      <trkpt lat="46.99982" lon="-1.76246">
        <ele>55</ele>
        <time>2021-07-17T07:59:41.000Z</time>
      </trkpt>
      <trkpt lat="46.99978" lon="-1.76227">
        <ele>55</ele>
        <time>2021-07-17T07:59:43.000Z</time>
      </trkpt>
      <trkpt lat="46.99973" lon="-1.7621">
        <ele>55</ele>
        <time>2021-07-17T07:59:45.000Z</time>
      </trkpt>
      <trkpt lat="46.99968" lon="-1.76193">
        <ele>55</ele>
        <time>2021-07-17T07:59:47.000Z</time>
      </trkpt>
      <trkpt lat="46.99961" lon="-1.76175">
        <ele>55</ele>
        <time>2021-07-17T07:59:49.000Z</time>
      </trkpt>
      <trkpt lat="46.99955" lon="-1.76158">
        <ele>55</ele>
        <time>2021-07-17T07:59:51.000Z</time>
      </trkpt>
      <trkpt lat="46.99949" lon="-1.7614">
        <ele>55</ele>
        <time>2021-07-17T07:59:53.000Z</time>
      </trkpt>
      <trkpt lat="46.99943" lon="-1.76122">
        <ele>56</ele>
        <time>2021-07-17T07:59:55.000Z</time>
      </trkpt>
      <trkpt lat="46.99939" lon="-1.76104">
        <ele>56</ele>
        <time>2021-07-17T07:59:57.000Z</time>
      </trkpt>
      <trkpt lat="46.99934" lon="-1.76085">
        <ele>56</ele>
        <time>2021-07-17T07:59:59.000Z</time>
      </trkpt>
      <trkpt lat="46.9993" lon="-1.76066">
        <ele>55</ele>
        <time>2021-07-17T08:00:01.000Z</time>
      </trkpt>
      <trkpt lat="46.99926" lon="-1.76048">
        <ele>56</ele>
        <time>2021-07-17T08:00:03.000Z</time>
      </trkpt>
      <trkpt lat="46.99923" lon="-1.76031">
        <ele>56</ele>
        <time>2021-07-17T08:00:05.000Z</time>
      </trkpt>
      <trkpt lat="46.99919" lon="-1.76014">
        <ele>56</ele>
        <time>2021-07-17T08:00:07.000Z</time>
      </trkpt>
      <trkpt lat="46.99916" lon="-1.75995">
        <ele>56</ele>
        <time>2021-07-17T08:00:09.000Z</time>
      </trkpt>
      <trkpt lat="46.99913" lon="-1.75977">
        <ele>56</ele>
        <time>2021-07-17T08:00:11.000Z</time>
      </trkpt>
      <trkpt lat="46.99909" lon="-1.75958">
        <ele>57</ele>
        <time>2021-07-17T08:00:13.000Z</time>
      </trkpt>
      <trkpt lat="46.99907" lon="-1.75939">
        <ele>57</ele>
        <time>2021-07-17T08:00:15.000Z</time>
      </trkpt>
      <trkpt lat="46.99904" lon="-1.75919">
        <ele>57</ele>
        <time>2021-07-17T08:00:17.000Z</time>
      </trkpt>
      <trkpt lat="46.99901" lon="-1.759">
        <ele>57</ele>
        <time>2021-07-17T08:00:19.000Z</time>
      </trkpt>
      <trkpt lat="46.99899" lon="-1.7588">
        <ele>57</ele>
        <time>2021-07-17T08:00:21.000Z</time>
      </trkpt>
      <trkpt lat="46.99896" lon="-1.75861">
        <ele>57</ele>
        <time>2021-07-17T08:00:23.000Z</time>
      </trkpt>
      <trkpt lat="46.99894" lon="-1.75842">
        <ele>58</ele>
        <time>2021-07-17T08:00:25.000Z</time>
      </trkpt>
      <trkpt lat="46.99891" lon="-1.75822">
        <ele>58</ele>
        <time>2021-07-17T08:00:27.000Z</time>
      </trkpt>
      <trkpt lat="46.99889" lon="-1.75803">
        <ele>58</ele>
        <time>2021-07-17T08:00:29.000Z</time>
      </trkpt>
      <trkpt lat="46.99887" lon="-1.75783">
        <ele>57</ele>
        <time>2021-07-17T08:00:31.000Z</time>
      </trkpt>
      <trkpt lat="46.99884" lon="-1.75765">
        <ele>57</ele>
        <time>2021-07-17T08:00:33.000Z</time>
      </trkpt>
      <trkpt lat="46.99882" lon="-1.75746">
        <ele>58</ele>
        <time>2021-07-17T08:00:35.000Z</time>
      </trkpt>
      <trkpt lat="46.9988" lon="-1.75727">
        <ele>58</ele>
        <time>2021-07-17T08:00:37.000Z</time>
      </trkpt>
      <trkpt lat="46.99877" lon="-1.75708">
        <ele>58</ele>
        <time>2021-07-17T08:00:39.000Z</time>
      </trkpt>
      <trkpt lat="46.99876" lon="-1.7569">
        <ele>58</ele>
        <time>2021-07-17T08:00:41.000Z</time>
      </trkpt>
      <trkpt lat="46.99874" lon="-1.75671">
        <ele>59</ele>
        <time>2021-07-17T08:00:43.000Z</time>
      </trkpt>
      <trkpt lat="46.99872" lon="-1.75652">
        <ele>59</ele>
        <time>2021-07-17T08:00:45.000Z</time>
      </trkpt>
      <trkpt lat="46.99871" lon="-1.75633">
        <ele>59</ele>
        <time>2021-07-17T08:00:47.000Z</time>
      </trkpt>
      <trkpt lat="46.99869" lon="-1.75615">
        <ele>59</ele>
        <time>2021-07-17T08:00:49.000Z</time>
      </trkpt>
      <trkpt lat="46.99868" lon="-1.75598">
        <ele>59</ele>
        <time>2021-07-17T08:00:51.000Z</time>
      </trkpt>
      <trkpt lat="46.99866" lon="-1.75579">
        <ele>59</ele>
        <time>2021-07-17T08:00:53.000Z</time>
      </trkpt>
      <trkpt lat="46.99864" lon="-1.75562">
        <ele>59</ele>
        <time>2021-07-17T08:00:55.000Z</time>
      </trkpt>
      <trkpt lat="46.99863" lon="-1.75545">
        <ele>59</ele>
        <time>2021-07-17T08:00:57.000Z</time>
      </trkpt>
      <trkpt lat="46.99861" lon="-1.75528">
        <ele>59</ele>
        <time>2021-07-17T08:00:59.000Z</time>
      </trkpt>
      <trkpt lat="46.99859" lon="-1.75511">
        <ele>59</ele>
        <time>2021-07-17T08:01:01.000Z</time>
      </trkpt>
      <trkpt lat="46.99857" lon="-1.75495">
        <ele>60</ele>
        <time>2021-07-17T08:01:03.000Z</time>
      </trkpt>
      <trkpt lat="46.99854" lon="-1.75479">
        <ele>59</ele>
        <time>2021-07-17T08:01:05.000Z</time>
      </trkpt>
      <trkpt lat="46.99849" lon="-1.75463">
        <ele>59</ele>
        <time>2021-07-17T08:01:07.000Z</time>
      </trkpt>
      <trkpt lat="46.99844" lon="-1.75449">
        <ele>59</ele>
        <time>2021-07-17T08:01:09.000Z</time>
      </trkpt>
      <trkpt lat="46.99836" lon="-1.75435">
        <ele>59</ele>
        <time>2021-07-17T08:01:11.000Z</time>
      </trkpt>
      <trkpt lat="46.99829" lon="-1.75421">
        <ele>59</ele>
        <time>2021-07-17T08:01:13.000Z</time>
      </trkpt>
      <trkpt lat="46.99822" lon="-1.75407">
        <ele>59</ele>
        <time>2021-07-17T08:01:15.000Z</time>
      </trkpt>
      <trkpt lat="46.99815" lon="-1.75393">
        <ele>59</ele>
        <time>2021-07-17T08:01:17.000Z</time>
      </trkpt>
      <trkpt lat="46.99807" lon="-1.75378">
        <ele>58</ele>
        <time>2021-07-17T08:01:19.000Z</time>
      </trkpt>
      <trkpt lat="46.998" lon="-1.75364">
        <ele>59</ele>
        <time>2021-07-17T08:01:21.000Z</time>
      </trkpt>
      <trkpt lat="46.99793" lon="-1.75351">
        <ele>59</ele>
        <time>2021-07-17T08:01:23.000Z</time>
      </trkpt>
      <trkpt lat="46.99785" lon="-1.75337">
        <ele>59</ele>
        <time>2021-07-17T08:01:25.000Z</time>
      </trkpt>
      <trkpt lat="46.99777" lon="-1.75323">
        <ele>59</ele>
        <time>2021-07-17T08:01:27.000Z</time>
      </trkpt>
      <trkpt lat="46.99769" lon="-1.75309">
        <ele>60</ele>
        <time>2021-07-17T08:01:29.000Z</time>
      </trkpt>
      <trkpt lat="46.99761" lon="-1.75295">
        <ele>60</ele>
        <time>2021-07-17T08:01:31.000Z</time>
      </trkpt>
      <trkpt lat="46.99754" lon="-1.75282">
        <ele>60</ele>
        <time>2021-07-17T08:01:33.000Z</time>
      </trkpt>
      <trkpt lat="46.99746" lon="-1.75268">
        <ele>60</ele>
        <time>2021-07-17T08:01:35.000Z</time>
      </trkpt>
      <trkpt lat="46.99738" lon="-1.75255">
        <ele>60</ele>
        <time>2021-07-17T08:01:37.000Z</time>
      </trkpt>
      <trkpt lat="46.99731" lon="-1.7524">
        <ele>60</ele>
        <time>2021-07-17T08:01:39.000Z</time>
      </trkpt>
      <trkpt lat="46.99724" lon="-1.75225">
        <ele>60</ele>
        <time>2021-07-17T08:01:41.000Z</time>
      </trkpt>
      <trkpt lat="46.99718" lon="-1.75209">
        <ele>60</ele>
        <time>2021-07-17T08:01:43.000Z</time>
      </trkpt>
      <trkpt lat="46.99713" lon="-1.75193">
        <ele>60</ele>
        <time>2021-07-17T08:01:45.000Z</time>
      </trkpt>
      <trkpt lat="46.99707" lon="-1.75178">
        <ele>60</ele>
        <time>2021-07-17T08:01:47.000Z</time>
      </trkpt>
      <trkpt lat="46.99701" lon="-1.75161">
        <ele>61</ele>
        <time>2021-07-17T08:01:49.000Z</time>
      </trkpt>
      <trkpt lat="46.99696" lon="-1.75144">
        <ele>61</ele>
        <time>2021-07-17T08:01:51.000Z</time>
      </trkpt>
      <trkpt lat="46.99691" lon="-1.75128">
        <ele>61</ele>
        <time>2021-07-17T08:01:53.000Z</time>
      </trkpt>
      <trkpt lat="46.99685" lon="-1.75111">
        <ele>61</ele>
        <time>2021-07-17T08:01:55.000Z</time>
      </trkpt>
      <trkpt lat="46.9968" lon="-1.75094">
        <ele>61</ele>
        <time>2021-07-17T08:01:57.000Z</time>
      </trkpt>
      <trkpt lat="46.99674" lon="-1.75077">
        <ele>61</ele>
        <time>2021-07-17T08:01:59.000Z</time>
      </trkpt>
      <trkpt lat="46.99669" lon="-1.7506">
        <ele>62</ele>
        <time>2021-07-17T08:02:01.000Z</time>
      </trkpt>
      <trkpt lat="46.99663" lon="-1.75043">
        <ele>62</ele>
        <time>2021-07-17T08:02:03.000Z</time>
      </trkpt>
      <trkpt lat="46.99658" lon="-1.75027">
        <ele>62</ele>
        <time>2021-07-17T08:02:05.000Z</time>
      </trkpt>
      <trkpt lat="46.99652" lon="-1.7501">
        <ele>61</ele>
        <time>2021-07-17T08:02:07.000Z</time>
      </trkpt>
      <trkpt lat="46.99647" lon="-1.74993">
        <ele>61</ele>
        <time>2021-07-17T08:02:09.000Z</time>
      </trkpt>
      <trkpt lat="46.99641" lon="-1.74976">
        <ele>61</ele>
        <time>2021-07-17T08:02:11.000Z</time>
      </trkpt>
      <trkpt lat="46.99636" lon="-1.7496">
        <ele>61</ele>
        <time>2021-07-17T08:02:13.000Z</time>
      </trkpt>
      <trkpt lat="46.9963" lon="-1.74943">
        <ele>61</ele>
        <time>2021-07-17T08:02:15.000Z</time>
      </trkpt>
      <trkpt lat="46.99625" lon="-1.74926">
        <ele>61</ele>
        <time>2021-07-17T08:02:17.000Z</time>
      </trkpt>
      <trkpt lat="46.99619" lon="-1.74909">
        <ele>61</ele>
        <time>2021-07-17T08:02:19.000Z</time>
      </trkpt>
      <trkpt lat="46.99613" lon="-1.74893">
        <ele>61</ele>
        <time>2021-07-17T08:02:21.000Z</time>
      </trkpt>
      <trkpt lat="46.99609" lon="-1.74876">
        <ele>61</ele>
        <time>2021-07-17T08:02:23.000Z</time>
      </trkpt>
      <trkpt lat="46.99604" lon="-1.74859">
        <ele>61</ele>
        <time>2021-07-17T08:02:25.000Z</time>
      </trkpt>
      <trkpt lat="46.996" lon="-1.74842">
        <ele>61</ele>
        <time>2021-07-17T08:02:27.000Z</time>
      </trkpt>
      <trkpt lat="46.99599" lon="-1.74824">
        <ele>61</ele>
        <time>2021-07-17T08:02:29.000Z</time>
      </trkpt>
      <trkpt lat="46.99599" lon="-1.74806">
        <ele>61</ele>
        <time>2021-07-17T08:02:31.000Z</time>
      </trkpt>
      <trkpt lat="46.99599" lon="-1.74788">
        <ele>61</ele>
        <time>2021-07-17T08:02:33.000Z</time>
      </trkpt>
      <trkpt lat="46.99601" lon="-1.7477">
        <ele>61</ele>
        <time>2021-07-17T08:02:35.000Z</time>
      </trkpt>
      <trkpt lat="46.99604" lon="-1.74752">
        <ele>61</ele>
        <time>2021-07-17T08:02:37.000Z</time>
      </trkpt>
      <trkpt lat="46.99608" lon="-1.74735">
        <ele>61</ele>
        <time>2021-07-17T08:02:39.000Z</time>
      </trkpt>
      <trkpt lat="46.99613" lon="-1.7472">
        <ele>61</ele>
        <time>2021-07-17T08:02:41.000Z</time>
      </trkpt>
      <trkpt lat="46.99619" lon="-1.74706">
        <ele>62</ele>
        <time>2021-07-17T08:02:43.000Z</time>
      </trkpt>
      <trkpt lat="46.99625" lon="-1.74693">
        <ele>62</ele>
        <time>2021-07-17T08:02:45.000Z</time>
      </trkpt>
      <trkpt lat="46.9963" lon="-1.74679">
        <ele>62</ele>
        <time>2021-07-17T08:02:47.000Z</time>
      </trkpt>
      <trkpt lat="46.99636" lon="-1.74665">
        <ele>62</ele>
        <time>2021-07-17T08:02:49.000Z</time>
      </trkpt>
      <trkpt lat="46.99642" lon="-1.74652">
        <ele>62</ele>
        <time>2021-07-17T08:02:51.000Z</time>
      </trkpt>
      <trkpt lat="46.99648" lon="-1.74638">
        <ele>62</ele>
        <time>2021-07-17T08:02:53.000Z</time>
      </trkpt>
      <trkpt lat="46.99654" lon="-1.74623">
        <ele>62</ele>
        <time>2021-07-17T08:02:55.000Z</time>
      </trkpt>
      <trkpt lat="46.9966" lon="-1.74611">
        <ele>63</ele>
        <time>2021-07-17T08:02:57.000Z</time>
      </trkpt>
      <trkpt lat="46.99666" lon="-1.74598">
        <ele>63</ele>
        <time>2021-07-17T08:02:59.000Z</time>
      </trkpt>
      <trkpt lat="46.99672" lon="-1.74585">
        <ele>64</ele>
        <time>2021-07-17T08:03:01.000Z</time>
      </trkpt>
      <trkpt lat="46.99679" lon="-1.74572">
        <ele>64</ele>
        <time>2021-07-17T08:03:03.000Z</time>
      </trkpt>
      <trkpt lat="46.99685" lon="-1.74559">
        <ele>64</ele>
        <time>2021-07-17T08:03:05.000Z</time>
      </trkpt>
      <trkpt lat="46.9969" lon="-1.74546">
        <ele>64</ele>
        <time>2021-07-17T08:03:07.000Z</time>
      </trkpt>
      <trkpt lat="46.99696" lon="-1.74534">
        <ele>65</ele>
        <time>2021-07-17T08:03:09.000Z</time>
      </trkpt>
      <trkpt lat="46.99702" lon="-1.74521">
        <ele>65</ele>
        <time>2021-07-17T08:03:11.000Z</time>
      </trkpt>
      <trkpt lat="46.99709" lon="-1.74509">
        <ele>65</ele>
        <time>2021-07-17T08:03:13.000Z</time>
      </trkpt>
      <trkpt lat="46.99716" lon="-1.74495">
        <ele>65</ele>
        <time>2021-07-17T08:03:15.000Z</time>
      </trkpt>
      <trkpt lat="46.99721" lon="-1.74482">
        <ele>65</ele>
        <time>2021-07-17T08:03:17.000Z</time>
      </trkpt>
      <trkpt lat="46.99727" lon="-1.74469">
        <ele>65</ele>
        <time>2021-07-17T08:03:19.000Z</time>
      </trkpt>
      <trkpt lat="46.99733" lon="-1.74456">
        <ele>65</ele>
        <time>2021-07-17T08:03:21.000Z</time>
      </trkpt>
      <trkpt lat="46.99738" lon="-1.74442">
        <ele>65</ele>
        <time>2021-07-17T08:03:23.000Z</time>
      </trkpt>
      <trkpt lat="46.99744" lon="-1.74428">
        <ele>66</ele>
        <time>2021-07-17T08:03:25.000Z</time>
      </trkpt>
      <trkpt lat="46.9975" lon="-1.74415">
        <ele>66</ele>
        <time>2021-07-17T08:03:27.000Z</time>
      </trkpt>
      <trkpt lat="46.99755" lon="-1.74401">
        <ele>66</ele>
        <time>2021-07-17T08:03:29.000Z</time>
      </trkpt>
      <trkpt lat="46.99761" lon="-1.74387">
        <ele>66</ele>
        <time>2021-07-17T08:03:31.000Z</time>
      </trkpt>
      <trkpt lat="46.99766" lon="-1.74373">
        <ele>66</ele>
        <time>2021-07-17T08:03:33.000Z</time>
      </trkpt>
      <trkpt lat="46.99771" lon="-1.74359">
        <ele>66</ele>
        <time>2021-07-17T08:03:35.000Z</time>
      </trkpt>
      <trkpt lat="46.99776" lon="-1.74346">
        <ele>66</ele>
        <time>2021-07-17T08:03:37.000Z</time>
      </trkpt>
      <trkpt lat="46.99782" lon="-1.74331">
        <ele>66</ele>
        <time>2021-07-17T08:03:39.000Z</time>
      </trkpt>
      <trkpt lat="46.99787" lon="-1.74317">
        <ele>67</ele>
        <time>2021-07-17T08:03:41.000Z</time>
      </trkpt>
      <trkpt lat="46.99792" lon="-1.74303">
        <ele>67</ele>
        <time>2021-07-17T08:03:43.000Z</time>
      </trkpt>
      <trkpt lat="46.99796" lon="-1.74289">
        <ele>67</ele>
        <time>2021-07-17T08:03:45.000Z</time>
      </trkpt>
      <trkpt lat="46.99801" lon="-1.74274">
        <ele>67</ele>
        <time>2021-07-17T08:03:47.000Z</time>
      </trkpt>
      <trkpt lat="46.99806" lon="-1.7426">
        <ele>67</ele>
        <time>2021-07-17T08:03:49.000Z</time>
      </trkpt>
      <trkpt lat="46.9981" lon="-1.74245">
        <ele>67</ele>
        <time>2021-07-17T08:03:51.000Z</time>
      </trkpt>
      <trkpt lat="46.99814" lon="-1.7423">
        <ele>67</ele>
        <time>2021-07-17T08:03:53.000Z</time>
      </trkpt>
      <trkpt lat="46.99818" lon="-1.74217">
        <ele>68</ele>
        <time>2021-07-17T08:03:55.000Z</time>
      </trkpt>
      <trkpt lat="46.99822" lon="-1.74202">
        <ele>68</ele>
        <time>2021-07-17T08:03:57.000Z</time>
      </trkpt>
      <trkpt lat="46.99826" lon="-1.74188">
        <ele>68</ele>
        <time>2021-07-17T08:03:59.000Z</time>
      </trkpt>
      <trkpt lat="46.9983" lon="-1.74173">
        <ele>68</ele>
        <time>2021-07-17T08:04:01.000Z</time>
      </trkpt>
      <trkpt lat="46.99834" lon="-1.74159">
        <ele>68</ele>
        <time>2021-07-17T08:04:03.000Z</time>
      </trkpt>
      <trkpt lat="46.99838" lon="-1.74145">
        <ele>68</ele>
        <time>2021-07-17T08:04:05.000Z</time>
      </trkpt>
      <trkpt lat="46.99842" lon="-1.7413">
        <ele>68</ele>
        <time>2021-07-17T08:04:07.000Z</time>
      </trkpt>
      <trkpt lat="46.99846" lon="-1.74117">
        <ele>68</ele>
        <time>2021-07-17T08:04:09.000Z</time>
      </trkpt>
      <trkpt lat="46.99849" lon="-1.74103">
        <ele>68</ele>
        <time>2021-07-17T08:04:11.000Z</time>
      </trkpt>
      <trkpt lat="46.99853" lon="-1.74089">
        <ele>68</ele>
        <time>2021-07-17T08:04:13.000Z</time>
      </trkpt>
      <trkpt lat="46.99857" lon="-1.74075">
        <ele>68</ele>
        <time>2021-07-17T08:04:15.000Z</time>
      </trkpt>
      <trkpt lat="46.99861" lon="-1.74061">
        <ele>68</ele>
        <time>2021-07-17T08:04:17.000Z</time>
      </trkpt>
      <trkpt lat="46.99865" lon="-1.74047">
        <ele>69</ele>
        <time>2021-07-17T08:04:19.000Z</time>
      </trkpt>
      <trkpt lat="46.99869" lon="-1.74031">
        <ele>69</ele>
        <time>2021-07-17T08:04:21.000Z</time>
      </trkpt>
      <trkpt lat="46.99873" lon="-1.74017">
        <ele>69</ele>
        <time>2021-07-17T08:04:23.000Z</time>
      </trkpt>
      <trkpt lat="46.99876" lon="-1.74002">
        <ele>69</ele>
        <time>2021-07-17T08:04:25.000Z</time>
      </trkpt>
      <trkpt lat="46.99881" lon="-1.73988">
        <ele>69</ele>
        <time>2021-07-17T08:04:27.000Z</time>
      </trkpt>
      <trkpt lat="46.99886" lon="-1.73967">
        <ele>69</ele>
        <time>2021-07-17T08:04:30.000Z</time>
      </trkpt>
      <trkpt lat="46.9989" lon="-1.73952">
        <ele>69</ele>
        <time>2021-07-17T08:04:32.000Z</time>
      </trkpt>
      <trkpt lat="46.99894" lon="-1.73939">
        <ele>70</ele>
        <time>2021-07-17T08:04:34.000Z</time>
      </trkpt>
      <trkpt lat="46.99899" lon="-1.73926">
        <ele>70</ele>
        <time>2021-07-17T08:04:36.000Z</time>
      </trkpt>
      <trkpt lat="46.99905" lon="-1.73912">
        <ele>70</ele>
        <time>2021-07-17T08:04:38.000Z</time>
      </trkpt>
      <trkpt lat="46.99911" lon="-1.739">
        <ele>71</ele>
        <time>2021-07-17T08:04:40.000Z</time>
      </trkpt>
      <trkpt lat="46.99917" lon="-1.73888">
        <ele>71</ele>
        <time>2021-07-17T08:04:42.000Z</time>
      </trkpt>
      <trkpt lat="46.99928" lon="-1.73872">
        <ele>71</ele>
        <time>2021-07-17T08:04:45.000Z</time>
      </trkpt>
      <trkpt lat="46.99936" lon="-1.73863">
        <ele>72</ele>
        <time>2021-07-17T08:04:47.000Z</time>
      </trkpt>
      <trkpt lat="46.99945" lon="-1.73853">
        <ele>72</ele>
        <time>2021-07-17T08:04:49.000Z</time>
      </trkpt>
      <trkpt lat="46.99953" lon="-1.73845">
        <ele>72</ele>
        <time>2021-07-17T08:04:51.000Z</time>
      </trkpt>
      <trkpt lat="46.99967" lon="-1.73835">
        <ele>72</ele>
        <time>2021-07-17T08:04:54.000Z</time>
      </trkpt>
      <trkpt lat="46.99977" lon="-1.73829">
        <ele>72</ele>
        <time>2021-07-17T08:04:56.000Z</time>
      </trkpt>
      <trkpt lat="46.99988" lon="-1.73823">
        <ele>72</ele>
        <time>2021-07-17T08:04:58.000Z</time>
      </trkpt>
      <trkpt lat="47.00004" lon="-1.73816">
        <ele>72</ele>
        <time>2021-07-17T08:05:01.000Z</time>
      </trkpt>
      <trkpt lat="47.00014" lon="-1.73811">
        <ele>73</ele>
        <time>2021-07-17T08:05:03.000Z</time>
      </trkpt>
      <trkpt lat="47.00025" lon="-1.73806">
        <ele>72</ele>
        <time>2021-07-17T08:05:05.000Z</time>
      </trkpt>
      <trkpt lat="47.00036" lon="-1.73801">
        <ele>72</ele>
        <time>2021-07-17T08:05:07.000Z</time>
      </trkpt>
      <trkpt lat="47.00047" lon="-1.73796">
        <ele>72</ele>
        <time>2021-07-17T08:05:09.000Z</time>
      </trkpt>
      <trkpt lat="47.00057" lon="-1.73789">
        <ele>72</ele>
        <time>2021-07-17T08:05:11.000Z</time>
      </trkpt>
      <trkpt lat="47.00066" lon="-1.73778">
        <ele>72</ele>
        <time>2021-07-17T08:05:13.000Z</time>
      </trkpt>
      <trkpt lat="47.00073" lon="-1.73765">
        <ele>71</ele>
        <time>2021-07-17T08:05:15.000Z</time>
      </trkpt>
      <trkpt lat="47.00076" lon="-1.73749">
        <ele>71</ele>
        <time>2021-07-17T08:05:17.000Z</time>
      </trkpt>
      <trkpt lat="47.00075" lon="-1.73731">
        <ele>71</ele>
        <time>2021-07-17T08:05:19.000Z</time>
      </trkpt>
      <trkpt lat="47.00071" lon="-1.73714">
        <ele>71</ele>
        <time>2021-07-17T08:05:21.000Z</time>
      </trkpt>
      <trkpt lat="47.00062" lon="-1.737">
        <ele>71</ele>
        <time>2021-07-17T08:05:23.000Z</time>
      </trkpt>
      <trkpt lat="47.00054" lon="-1.73686">
        <ele>70</ele>
        <time>2021-07-17T08:05:25.000Z</time>
      </trkpt>
      <trkpt lat="47.00052" lon="-1.73668">
        <ele>71</ele>
        <time>2021-07-17T08:05:27.000Z</time>
      </trkpt>
      <trkpt lat="47.00056" lon="-1.73652">
        <ele>71</ele>
        <time>2021-07-17T08:05:29.000Z</time>
      </trkpt>
      <trkpt lat="47.00065" lon="-1.73642">
        <ele>70</ele>
        <time>2021-07-17T08:05:31.000Z</time>
      </trkpt>
      <trkpt lat="47.00075" lon="-1.73635">
        <ele>70</ele>
        <time>2021-07-17T08:05:33.000Z</time>
      </trkpt>
      <trkpt lat="47.00082" lon="-1.73622">
        <ele>71</ele>
        <time>2021-07-17T08:05:35.000Z</time>
      </trkpt>
      <trkpt lat="47.00089" lon="-1.73607">
        <ele>71</ele>
        <time>2021-07-17T08:05:37.000Z</time>
      </trkpt>
      <trkpt lat="47.00096" lon="-1.73592">
        <ele>71</ele>
        <time>2021-07-17T08:05:39.000Z</time>
      </trkpt>
      <trkpt lat="47.00103" lon="-1.73579">
        <ele>71</ele>
        <time>2021-07-17T08:05:41.000Z</time>
      </trkpt>
      <trkpt lat="47.00112" lon="-1.73566">
        <ele>72</ele>
        <time>2021-07-17T08:05:43.000Z</time>
      </trkpt>
      <trkpt lat="47.00121" lon="-1.73554">
        <ele>72</ele>
        <time>2021-07-17T08:05:45.000Z</time>
      </trkpt>
      <trkpt lat="47.00132" lon="-1.73545">
        <ele>72</ele>
        <time>2021-07-17T08:05:47.000Z</time>
      </trkpt>
      <trkpt lat="47.00143" lon="-1.73536">
        <ele>72</ele>
        <time>2021-07-17T08:05:49.000Z</time>
      </trkpt>
      <trkpt lat="47.00155" lon="-1.73527">
        <ele>72</ele>
        <time>2021-07-17T08:05:51.000Z</time>
      </trkpt>
      <trkpt lat="47.00166" lon="-1.73518">
        <ele>72</ele>
        <time>2021-07-17T08:05:53.000Z</time>
      </trkpt>
      <trkpt lat="47.00177" lon="-1.73509">
        <ele>73</ele>
        <time>2021-07-17T08:05:55.000Z</time>
      </trkpt>
      <trkpt lat="47.00188" lon="-1.73501">
        <ele>73</ele>
        <time>2021-07-17T08:05:57.000Z</time>
      </trkpt>
      <trkpt lat="47.002" lon="-1.73493">
        <ele>73</ele>
        <time>2021-07-17T08:05:59.000Z</time>
      </trkpt>
      <trkpt lat="47.00212" lon="-1.73485">
        <ele>72</ele>
        <time>2021-07-17T08:06:01.000Z</time>
      </trkpt>
      <trkpt lat="47.00224" lon="-1.73479">
        <ele>72</ele>
        <time>2021-07-17T08:06:03.000Z</time>
      </trkpt>
      <trkpt lat="47.00236" lon="-1.73472">
        <ele>72</ele>
        <time>2021-07-17T08:06:05.000Z</time>
      </trkpt>
      <trkpt lat="47.00248" lon="-1.73465">
        <ele>72</ele>
        <time>2021-07-17T08:06:07.000Z</time>
      </trkpt>
      <trkpt lat="47.00262" lon="-1.73459">
        <ele>72</ele>
        <time>2021-07-17T08:06:09.000Z</time>
      </trkpt>
      <trkpt lat="47.00275" lon="-1.73453">
        <ele>71</ele>
        <time>2021-07-17T08:06:11.000Z</time>
      </trkpt>
      <trkpt lat="47.00288" lon="-1.73446">
        <ele>71</ele>
        <time>2021-07-17T08:06:13.000Z</time>
      </trkpt>
      <trkpt lat="47.00301" lon="-1.7344">
        <ele>71</ele>
        <time>2021-07-17T08:06:15.000Z</time>
      </trkpt>
      <trkpt lat="47.00314" lon="-1.73434">
        <ele>71</ele>
        <time>2021-07-17T08:06:17.000Z</time>
      </trkpt>
      <trkpt lat="47.00326" lon="-1.73427">
        <ele>70</ele>
        <time>2021-07-17T08:06:19.000Z</time>
      </trkpt>
      <trkpt lat="47.00339" lon="-1.73421">
        <ele>70</ele>
        <time>2021-07-17T08:06:21.000Z</time>
      </trkpt>
      <trkpt lat="47.00353" lon="-1.73415">
        <ele>69</ele>
        <time>2021-07-17T08:06:23.000Z</time>
      </trkpt>
      <trkpt lat="47.00366" lon="-1.73408">
        <ele>69</ele>
        <time>2021-07-17T08:06:25.000Z</time>
      </trkpt>
      <trkpt lat="47.00379" lon="-1.73402">
        <ele>69</ele>
        <time>2021-07-17T08:06:27.000Z</time>
      </trkpt>
      <trkpt lat="47.00392" lon="-1.73396">
        <ele>68</ele>
        <time>2021-07-17T08:06:29.000Z</time>
      </trkpt>
      <trkpt lat="47.00405" lon="-1.7339">
        <ele>67</ele>
        <time>2021-07-17T08:06:31.000Z</time>
      </trkpt>
      <trkpt lat="47.00417" lon="-1.73385">
        <ele>67</ele>
        <time>2021-07-17T08:06:33.000Z</time>
      </trkpt>
      <trkpt lat="47.00429" lon="-1.7338">
        <ele>67</ele>
        <time>2021-07-17T08:06:35.000Z</time>
      </trkpt>
      <trkpt lat="47.00442" lon="-1.73377">
        <ele>66</ele>
        <time>2021-07-17T08:06:37.000Z</time>
      </trkpt>
      <trkpt lat="47.00455" lon="-1.73376">
        <ele>66</ele>
        <time>2021-07-17T08:06:39.000Z</time>
      </trkpt>
      <trkpt lat="47.00469" lon="-1.73377">
        <ele>66</ele>
        <time>2021-07-17T08:06:41.000Z</time>
      </trkpt>
      <trkpt lat="47.00483" lon="-1.73377">
        <ele>65</ele>
        <time>2021-07-17T08:06:43.000Z</time>
      </trkpt>
      <trkpt lat="47.00497" lon="-1.73377">
        <ele>65</ele>
        <time>2021-07-17T08:06:45.000Z</time>
      </trkpt>
      <trkpt lat="47.0051" lon="-1.73377">
        <ele>65</ele>
        <time>2021-07-17T08:06:47.000Z</time>
      </trkpt>
      <trkpt lat="47.00524" lon="-1.73378">
        <ele>64</ele>
        <time>2021-07-17T08:06:49.000Z</time>
      </trkpt>
      <trkpt lat="47.00538" lon="-1.73377">
        <ele>64</ele>
        <time>2021-07-17T08:06:51.000Z</time>
      </trkpt>
      <trkpt lat="47.00552" lon="-1.73378">
        <ele>64</ele>
        <time>2021-07-17T08:06:53.000Z</time>
      </trkpt>
      <trkpt lat="47.00566" lon="-1.73378">
        <ele>64</ele>
        <time>2021-07-17T08:06:55.000Z</time>
      </trkpt>
      <trkpt lat="47.0058" lon="-1.73378">
        <ele>63</ele>
        <time>2021-07-17T08:06:57.000Z</time>
      </trkpt>
      <trkpt lat="47.00593" lon="-1.73378">
        <ele>63</ele>
        <time>2021-07-17T08:06:59.000Z</time>
      </trkpt>
      <trkpt lat="47.00607" lon="-1.73378">
        <ele>63</ele>
        <time>2021-07-17T08:07:01.000Z</time>
      </trkpt>
      <trkpt lat="47.0062" lon="-1.73378">
        <ele>63</ele>
        <time>2021-07-17T08:07:03.000Z</time>
      </trkpt>
      <trkpt lat="47.00634" lon="-1.73378">
        <ele>63</ele>
        <time>2021-07-17T08:07:05.000Z</time>
      </trkpt>
      <trkpt lat="47.00647" lon="-1.73378">
        <ele>62</ele>
        <time>2021-07-17T08:07:07.000Z</time>
      </trkpt>
      <trkpt lat="47.00661" lon="-1.73378">
        <ele>62</ele>
        <time>2021-07-17T08:07:09.000Z</time>
      </trkpt>
      <trkpt lat="47.00674" lon="-1.73378">
        <ele>63</ele>
        <time>2021-07-17T08:07:11.000Z</time>
      </trkpt>
      <trkpt lat="47.00687" lon="-1.73378">
        <ele>63</ele>
        <time>2021-07-17T08:07:13.000Z</time>
      </trkpt>
      <trkpt lat="47.007" lon="-1.73378">
        <ele>63</ele>
        <time>2021-07-17T08:07:15.000Z</time>
      </trkpt>
      <trkpt lat="47.00713" lon="-1.73378">
        <ele>63</ele>
        <time>2021-07-17T08:07:17.000Z</time>
      </trkpt>
      <trkpt lat="47.00726" lon="-1.73378">
        <ele>63</ele>
        <time>2021-07-17T08:07:19.000Z</time>
      </trkpt>
      <trkpt lat="47.00739" lon="-1.73378">
        <ele>63</ele>
        <time>2021-07-17T08:07:21.000Z</time>
      </trkpt>
      <trkpt lat="47.00752" lon="-1.73378">
        <ele>63</ele>
        <time>2021-07-17T08:07:23.000Z</time>
      </trkpt>
      <trkpt lat="47.00765" lon="-1.73378">
        <ele>63</ele>
        <time>2021-07-17T08:07:25.000Z</time>
      </trkpt>
      <trkpt lat="47.00777" lon="-1.73378">
        <ele>63</ele>
        <time>2021-07-17T08:07:27.000Z</time>
      </trkpt>
      <trkpt lat="47.0079" lon="-1.73378">
        <ele>63</ele>
        <time>2021-07-17T08:07:29.000Z</time>
      </trkpt>
      <trkpt lat="47.00802" lon="-1.73378">
        <ele>63</ele>
        <time>2021-07-17T08:07:31.000Z</time>
      </trkpt>
      <trkpt lat="47.00812" lon="-1.73379">
        <ele>63</ele>
        <time>2021-07-17T08:07:33.000Z</time>
      </trkpt>
      <trkpt lat="47.00821" lon="-1.73379">
        <ele>64</ele>
        <time>2021-07-17T08:07:35.000Z</time>
      </trkpt>
      <trkpt lat="47.00831" lon="-1.7338">
        <ele>64</ele>
        <time>2021-07-17T08:07:40.000Z</time>
      </trkpt>
      <trkpt lat="47.00842" lon="-1.73384">
        <ele>64</ele>
        <time>2021-07-17T08:08:11.000Z</time>
      </trkpt>
      <trkpt lat="47.00855" lon="-1.73387">
        <ele>64</ele>
        <time>2021-07-17T08:08:13.000Z</time>
      </trkpt>
      <trkpt lat="47.00868" lon="-1.73389">
        <ele>64</ele>
        <time>2021-07-17T08:08:15.000Z</time>
      </trkpt>
      <trkpt lat="47.0088" lon="-1.73393">
        <ele>64</ele>
        <time>2021-07-17T08:08:17.000Z</time>
      </trkpt>
      <trkpt lat="47.00892" lon="-1.73395">
        <ele>64</ele>
        <time>2021-07-17T08:08:19.000Z</time>
      </trkpt>
      <trkpt lat="47.00904" lon="-1.73399">
        <ele>64</ele>
        <time>2021-07-17T08:08:21.000Z</time>
      </trkpt>
      <trkpt lat="47.00916" lon="-1.73401">
        <ele>64</ele>
        <time>2021-07-17T08:08:23.000Z</time>
      </trkpt>
      <trkpt lat="47.00928" lon="-1.73405">
        <ele>65</ele>
        <time>2021-07-17T08:08:25.000Z</time>
      </trkpt>
      <trkpt lat="47.00941" lon="-1.73408">
        <ele>65</ele>
        <time>2021-07-17T08:08:27.000Z</time>
      </trkpt>
      <trkpt lat="47.00953" lon="-1.73411">
        <ele>65</ele>
        <time>2021-07-17T08:08:29.000Z</time>
      </trkpt>
      <trkpt lat="47.00965" lon="-1.73415">
        <ele>65</ele>
        <time>2021-07-17T08:08:31.000Z</time>
      </trkpt>
      <trkpt lat="47.00977" lon="-1.73418">
        <ele>66</ele>
        <time>2021-07-17T08:08:33.000Z</time>
      </trkpt>
      <trkpt lat="47.00989" lon="-1.73421">
        <ele>66</ele>
        <time>2021-07-17T08:08:35.000Z</time>
      </trkpt>
      <trkpt lat="47.01001" lon="-1.73424">
        <ele>67</ele>
        <time>2021-07-17T08:08:37.000Z</time>
      </trkpt>
      <trkpt lat="47.01013" lon="-1.73427">
        <ele>67</ele>
        <time>2021-07-17T08:08:39.000Z</time>
      </trkpt>
      <trkpt lat="47.01025" lon="-1.7343">
        <ele>67</ele>
        <time>2021-07-17T08:08:41.000Z</time>
      </trkpt>
      <trkpt lat="47.01037" lon="-1.73433">
        <ele>68</ele>
        <time>2021-07-17T08:08:43.000Z</time>
      </trkpt>
      <trkpt lat="47.01048" lon="-1.73435">
        <ele>68</ele>
        <time>2021-07-17T08:08:45.000Z</time>
      </trkpt>
      <trkpt lat="47.01059" lon="-1.73438">
        <ele>69</ele>
        <time>2021-07-17T08:08:47.000Z</time>
      </trkpt>
      <trkpt lat="47.01071" lon="-1.73441">
        <ele>68</ele>
        <time>2021-07-17T08:08:49.000Z</time>
      </trkpt>
      <trkpt lat="47.01082" lon="-1.73444">
        <ele>69</ele>
        <time>2021-07-17T08:08:51.000Z</time>
      </trkpt>
      <trkpt lat="47.01093" lon="-1.73447">
        <ele>69</ele>
        <time>2021-07-17T08:08:53.000Z</time>
      </trkpt>
      <trkpt lat="47.01102" lon="-1.73449">
        <ele>69</ele>
        <time>2021-07-17T08:08:55.000Z</time>
      </trkpt>
      <trkpt lat="47.01113" lon="-1.73452">
        <ele>70</ele>
        <time>2021-07-17T08:08:57.000Z</time>
      </trkpt>
      <trkpt lat="47.01124" lon="-1.73454">
        <ele>70</ele>
        <time>2021-07-17T08:08:59.000Z</time>
      </trkpt>
      <trkpt lat="47.01135" lon="-1.73457">
        <ele>71</ele>
        <time>2021-07-17T08:09:01.000Z</time>
      </trkpt>
      <trkpt lat="47.01146" lon="-1.73459">
        <ele>71</ele>
        <time>2021-07-17T08:09:03.000Z</time>
      </trkpt>
      <trkpt lat="47.01157" lon="-1.73463">
        <ele>71</ele>
        <time>2021-07-17T08:09:05.000Z</time>
      </trkpt>
      <trkpt lat="47.01169" lon="-1.73466">
        <ele>71</ele>
        <time>2021-07-17T08:09:07.000Z</time>
      </trkpt>
      <trkpt lat="47.0118" lon="-1.73469">
        <ele>71</ele>
        <time>2021-07-17T08:09:09.000Z</time>
      </trkpt>
      <trkpt lat="47.01191" lon="-1.73472">
        <ele>71</ele>
        <time>2021-07-17T08:09:11.000Z</time>
      </trkpt>
      <trkpt lat="47.01202" lon="-1.73474">
        <ele>71</ele>
        <time>2021-07-17T08:09:13.000Z</time>
      </trkpt>
      <trkpt lat="47.01213" lon="-1.73478">
        <ele>71</ele>
        <time>2021-07-17T08:09:15.000Z</time>
      </trkpt>
      <trkpt lat="47.01224" lon="-1.73481">
        <ele>71</ele>
        <time>2021-07-17T08:09:17.000Z</time>
      </trkpt>
      <trkpt lat="47.01235" lon="-1.73484">
        <ele>71</ele>
        <time>2021-07-17T08:09:19.000Z</time>
      </trkpt>
      <trkpt lat="47.01246" lon="-1.73487">
        <ele>71</ele>
        <time>2021-07-17T08:09:21.000Z</time>
      </trkpt>
      <trkpt lat="47.01258" lon="-1.7349">
        <ele>72</ele>
        <time>2021-07-17T08:09:23.000Z</time>
      </trkpt>
      <trkpt lat="47.01269" lon="-1.73493">
        <ele>71</ele>
        <time>2021-07-17T08:09:25.000Z</time>
      </trkpt>
      <trkpt lat="47.01281" lon="-1.73496">
        <ele>71</ele>
        <time>2021-07-17T08:09:27.000Z</time>
      </trkpt>
      <trkpt lat="47.01292" lon="-1.73498">
        <ele>71</ele>
        <time>2021-07-17T08:09:29.000Z</time>
      </trkpt>
      <trkpt lat="47.01303" lon="-1.73502">
        <ele>71</ele>
        <time>2021-07-17T08:09:31.000Z</time>
      </trkpt>
      <trkpt lat="47.01315" lon="-1.73505">
        <ele>70</ele>
        <time>2021-07-17T08:09:33.000Z</time>
      </trkpt>
      <trkpt lat="47.01326" lon="-1.73508">
        <ele>71</ele>
        <time>2021-07-17T08:09:35.000Z</time>
      </trkpt>
      <trkpt lat="47.01338" lon="-1.73511">
        <ele>71</ele>
        <time>2021-07-17T08:09:37.000Z</time>
      </trkpt>
      <trkpt lat="47.0135" lon="-1.73515">
        <ele>71</ele>
        <time>2021-07-17T08:09:39.000Z</time>
      </trkpt>
      <trkpt lat="47.01362" lon="-1.73518">
        <ele>71</ele>
        <time>2021-07-17T08:09:41.000Z</time>
      </trkpt>
      <trkpt lat="47.01374" lon="-1.73521">
        <ele>71</ele>
        <time>2021-07-17T08:09:43.000Z</time>
      </trkpt>
      <trkpt lat="47.01386" lon="-1.73523">
        <ele>71</ele>
        <time>2021-07-17T08:09:45.000Z</time>
      </trkpt>
      <trkpt lat="47.01398" lon="-1.73526">
        <ele>71</ele>
        <time>2021-07-17T08:09:47.000Z</time>
      </trkpt>
      <trkpt lat="47.0141" lon="-1.73529">
        <ele>71</ele>
        <time>2021-07-17T08:09:49.000Z</time>
      </trkpt>
      <trkpt lat="47.01422" lon="-1.73532">
        <ele>71</ele>
        <time>2021-07-17T08:09:51.000Z</time>
      </trkpt>
      <trkpt lat="47.01434" lon="-1.73534">
        <ele>72</ele>
        <time>2021-07-17T08:09:53.000Z</time>
      </trkpt>
      <trkpt lat="47.01447" lon="-1.73537">
        <ele>71</ele>
        <time>2021-07-17T08:09:55.000Z</time>
      </trkpt>
      <trkpt lat="47.01459" lon="-1.7354">
        <ele>71</ele>
        <time>2021-07-17T08:09:57.000Z</time>
      </trkpt>
      <trkpt lat="47.01471" lon="-1.73543">
        <ele>71</ele>
        <time>2021-07-17T08:09:59.000Z</time>
      </trkpt>
      <trkpt lat="47.01483" lon="-1.73546">
        <ele>71</ele>
        <time>2021-07-17T08:10:01.000Z</time>
      </trkpt>
      <trkpt lat="47.01495" lon="-1.73549">
        <ele>72</ele>
        <time>2021-07-17T08:10:03.000Z</time>
      </trkpt>
      <trkpt lat="47.01508" lon="-1.73553">
        <ele>72</ele>
        <time>2021-07-17T08:10:05.000Z</time>
      </trkpt>
      <trkpt lat="47.0152" lon="-1.73557">
        <ele>71</ele>
        <time>2021-07-17T08:10:07.000Z</time>
      </trkpt>
      <trkpt lat="47.01533" lon="-1.7356">
        <ele>70</ele>
        <time>2021-07-17T08:10:09.000Z</time>
      </trkpt>
      <trkpt lat="47.01544" lon="-1.73563">
        <ele>71</ele>
        <time>2021-07-17T08:10:11.000Z</time>
      </trkpt>
      <trkpt lat="47.01556" lon="-1.73566">
        <ele>71</ele>
        <time>2021-07-17T08:10:13.000Z</time>
      </trkpt>
      <trkpt lat="47.01568" lon="-1.73569">
        <ele>72</ele>
        <time>2021-07-17T08:10:15.000Z</time>
      </trkpt>
      <trkpt lat="47.0158" lon="-1.73572">
        <ele>72</ele>
        <time>2021-07-17T08:10:17.000Z</time>
      </trkpt>
      <trkpt lat="47.01591" lon="-1.73575">
        <ele>72</ele>
        <time>2021-07-17T08:10:19.000Z</time>
      </trkpt>
      <trkpt lat="47.01603" lon="-1.73577">
        <ele>73</ele>
        <time>2021-07-17T08:10:21.000Z</time>
      </trkpt>
      <trkpt lat="47.01615" lon="-1.7358">
        <ele>72</ele>
        <time>2021-07-17T08:10:23.000Z</time>
      </trkpt>
      <trkpt lat="47.01626" lon="-1.73583">
        <ele>73</ele>
        <time>2021-07-17T08:10:25.000Z</time>
      </trkpt>
      <trkpt lat="47.01638" lon="-1.73586">
        <ele>73</ele>
        <time>2021-07-17T08:10:27.000Z</time>
      </trkpt>
      <trkpt lat="47.0165" lon="-1.73588">
        <ele>74</ele>
        <time>2021-07-17T08:10:29.000Z</time>
      </trkpt>
      <trkpt lat="47.01662" lon="-1.73592">
        <ele>75</ele>
        <time>2021-07-17T08:10:31.000Z</time>
      </trkpt>
      <trkpt lat="47.01674" lon="-1.73594">
        <ele>75</ele>
        <time>2021-07-17T08:10:33.000Z</time>
      </trkpt>
      <trkpt lat="47.01685" lon="-1.73598">
        <ele>75</ele>
        <time>2021-07-17T08:10:35.000Z</time>
      </trkpt>
      <trkpt lat="47.01696" lon="-1.73601">
        <ele>75</ele>
        <time>2021-07-17T08:10:37.000Z</time>
      </trkpt>
      <trkpt lat="47.01708" lon="-1.73604">
        <ele>75</ele>
        <time>2021-07-17T08:10:39.000Z</time>
      </trkpt>
      <trkpt lat="47.01721" lon="-1.73608">
        <ele>74</ele>
        <time>2021-07-17T08:10:41.000Z</time>
      </trkpt>
      <trkpt lat="47.01732" lon="-1.73611">
        <ele>74</ele>
        <time>2021-07-17T08:10:43.000Z</time>
      </trkpt>
      <trkpt lat="47.01744" lon="-1.73614">
        <ele>74</ele>
        <time>2021-07-17T08:10:45.000Z</time>
      </trkpt>
      <trkpt lat="47.01755" lon="-1.73617">
        <ele>74</ele>
        <time>2021-07-17T08:10:47.000Z</time>
      </trkpt>
      <trkpt lat="47.01767" lon="-1.7362">
        <ele>74</ele>
        <time>2021-07-17T08:10:49.000Z</time>
      </trkpt>
      <trkpt lat="47.01778" lon="-1.73623">
        <ele>74</ele>
        <time>2021-07-17T08:10:51.000Z</time>
      </trkpt>
      <trkpt lat="47.0179" lon="-1.73626">
        <ele>74</ele>
        <time>2021-07-17T08:10:53.000Z</time>
      </trkpt>
      <trkpt lat="47.01801" lon="-1.73629">
        <ele>74</ele>
        <time>2021-07-17T08:10:55.000Z</time>
      </trkpt>
      <trkpt lat="47.01813" lon="-1.73632">
        <ele>74</ele>
        <time>2021-07-17T08:10:57.000Z</time>
      </trkpt>
      <trkpt lat="47.01825" lon="-1.73635">
        <ele>74</ele>
        <time>2021-07-17T08:10:59.000Z</time>
      </trkpt>
      <trkpt lat="47.01836" lon="-1.73638">
        <ele>73</ele>
        <time>2021-07-17T08:11:01.000Z</time>
      </trkpt>
      <trkpt lat="47.01848" lon="-1.73642">
        <ele>73</ele>
        <time>2021-07-17T08:11:03.000Z</time>
      </trkpt>
      <trkpt lat="47.0186" lon="-1.73644">
        <ele>74</ele>
        <time>2021-07-17T08:11:05.000Z</time>
      </trkpt>
      <trkpt lat="47.01872" lon="-1.73647">
        <ele>74</ele>
        <time>2021-07-17T08:11:07.000Z</time>
      </trkpt>
      <trkpt lat="47.01883" lon="-1.7365">
        <ele>74</ele>
        <time>2021-07-17T08:11:09.000Z</time>
      </trkpt>
      <trkpt lat="47.01895" lon="-1.73653">
        <ele>74</ele>
        <time>2021-07-17T08:11:11.000Z</time>
      </trkpt>
      <trkpt lat="47.01907" lon="-1.73656">
        <ele>74</ele>
        <time>2021-07-17T08:11:13.000Z</time>
      </trkpt>
      <trkpt lat="47.01919" lon="-1.73659">
        <ele>75</ele>
        <time>2021-07-17T08:11:15.000Z</time>
      </trkpt>
      <trkpt lat="47.01931" lon="-1.73663">
        <ele>75</ele>
        <time>2021-07-17T08:11:17.000Z</time>
      </trkpt>
      <trkpt lat="47.01943" lon="-1.73666">
        <ele>75</ele>
        <time>2021-07-17T08:11:19.000Z</time>
      </trkpt>
      <trkpt lat="47.01955" lon="-1.7367">
        <ele>74</ele>
        <time>2021-07-17T08:11:21.000Z</time>
      </trkpt>
      <trkpt lat="47.01967" lon="-1.73671">
        <ele>74</ele>
        <time>2021-07-17T08:11:23.000Z</time>
      </trkpt>
      <trkpt lat="47.0198" lon="-1.73675">
        <ele>73</ele>
        <time>2021-07-17T08:11:25.000Z</time>
      </trkpt>
      <trkpt lat="47.01993" lon="-1.73679">
        <ele>73</ele>
        <time>2021-07-17T08:11:27.000Z</time>
      </trkpt>
      <trkpt lat="47.02006" lon="-1.73682">
        <ele>73</ele>
        <time>2021-07-17T08:11:29.000Z</time>
      </trkpt>
      <trkpt lat="47.02018" lon="-1.73686">
        <ele>73</ele>
        <time>2021-07-17T08:11:31.000Z</time>
      </trkpt>
      <trkpt lat="47.02031" lon="-1.73688">
        <ele>72</ele>
        <time>2021-07-17T08:11:33.000Z</time>
      </trkpt>
      <trkpt lat="47.02043" lon="-1.73691">
        <ele>72</ele>
        <time>2021-07-17T08:11:35.000Z</time>
      </trkpt>
      <trkpt lat="47.02055" lon="-1.73694">
        <ele>73</ele>
        <time>2021-07-17T08:11:37.000Z</time>
      </trkpt>
      <trkpt lat="47.02068" lon="-1.73698">
        <ele>72</ele>
        <time>2021-07-17T08:11:39.000Z</time>
      </trkpt>
      <trkpt lat="47.0208" lon="-1.73701">
        <ele>72</ele>
        <time>2021-07-17T08:11:41.000Z</time>
      </trkpt>
      <trkpt lat="47.02093" lon="-1.73704">
        <ele>73</ele>
        <time>2021-07-17T08:11:43.000Z</time>
      </trkpt>
      <trkpt lat="47.02105" lon="-1.73707">
        <ele>72</ele>
        <time>2021-07-17T08:11:45.000Z</time>
      </trkpt>
      <trkpt lat="47.02117" lon="-1.7371">
        <ele>73</ele>
        <time>2021-07-17T08:11:47.000Z</time>
      </trkpt>
      <trkpt lat="47.02129" lon="-1.73714">
        <ele>73</ele>
        <time>2021-07-17T08:11:49.000Z</time>
      </trkpt>
      <trkpt lat="47.02142" lon="-1.73717">
        <ele>73</ele>
        <time>2021-07-17T08:11:51.000Z</time>
      </trkpt>
      <trkpt lat="47.02154" lon="-1.7372">
        <ele>73</ele>
        <time>2021-07-17T08:11:53.000Z</time>
      </trkpt>
      <trkpt lat="47.02165" lon="-1.73723">
        <ele>73</ele>
        <time>2021-07-17T08:11:55.000Z</time>
      </trkpt>
      <trkpt lat="47.02177" lon="-1.73726">
        <ele>73</ele>
        <time>2021-07-17T08:11:57.000Z</time>
      </trkpt>
      <trkpt lat="47.02188" lon="-1.73728">
        <ele>73</ele>
        <time>2021-07-17T08:11:59.000Z</time>
      </trkpt>
      <trkpt lat="47.022" lon="-1.73731">
        <ele>73</ele>
        <time>2021-07-17T08:12:01.000Z</time>
      </trkpt>
      <trkpt lat="47.02211" lon="-1.73734">
        <ele>73</ele>
        <time>2021-07-17T08:12:03.000Z</time>
      </trkpt>
      <trkpt lat="47.02222" lon="-1.73736">
        <ele>73</ele>
        <time>2021-07-17T08:12:05.000Z</time>
      </trkpt>
      <trkpt lat="47.02233" lon="-1.73738">
        <ele>73</ele>
        <time>2021-07-17T08:12:07.000Z</time>
      </trkpt>
      <trkpt lat="47.02245" lon="-1.7374">
        <ele>73</ele>
        <time>2021-07-17T08:12:09.000Z</time>
      </trkpt>
      <trkpt lat="47.02256" lon="-1.73742">
        <ele>73</ele>
        <time>2021-07-17T08:12:11.000Z</time>
      </trkpt>
      <trkpt lat="47.02267" lon="-1.73742">
        <ele>73</ele>
        <time>2021-07-17T08:12:13.000Z</time>
      </trkpt>
      <trkpt lat="47.02279" lon="-1.73743">
        <ele>74</ele>
        <time>2021-07-17T08:12:15.000Z</time>
      </trkpt>
      <trkpt lat="47.0229" lon="-1.73743">
        <ele>75</ele>
        <time>2021-07-17T08:12:17.000Z</time>
      </trkpt>
      <trkpt lat="47.02302" lon="-1.73742">
        <ele>75</ele>
        <time>2021-07-17T08:12:19.000Z</time>
      </trkpt>
      <trkpt lat="47.02314" lon="-1.73739">
        <ele>75</ele>
        <time>2021-07-17T08:12:21.000Z</time>
      </trkpt>
      <trkpt lat="47.02326" lon="-1.73737">
        <ele>75</ele>
        <time>2021-07-17T08:12:23.000Z</time>
      </trkpt>
      <trkpt lat="47.02338" lon="-1.73735">
        <ele>76</ele>
        <time>2021-07-17T08:12:25.000Z</time>
      </trkpt>
      <trkpt lat="47.02349" lon="-1.73732">
        <ele>76</ele>
        <time>2021-07-17T08:12:27.000Z</time>
      </trkpt>
      <trkpt lat="47.02361" lon="-1.73731">
        <ele>77</ele>
        <time>2021-07-17T08:12:29.000Z</time>
      </trkpt>
      <trkpt lat="47.02372" lon="-1.73729">
        <ele>77</ele>
        <time>2021-07-17T08:12:31.000Z</time>
      </trkpt>
      <trkpt lat="47.02384" lon="-1.73726">
        <ele>77</ele>
        <time>2021-07-17T08:12:33.000Z</time>
      </trkpt>
      <trkpt lat="47.02396" lon="-1.73724">
        <ele>77</ele>
        <time>2021-07-17T08:12:35.000Z</time>
      </trkpt>
      <trkpt lat="47.02407" lon="-1.73722">
        <ele>78</ele>
        <time>2021-07-17T08:12:37.000Z</time>
      </trkpt>
      <trkpt lat="47.02418" lon="-1.73719">
        <ele>78</ele>
        <time>2021-07-17T08:12:39.000Z</time>
      </trkpt>
      <trkpt lat="47.0243" lon="-1.73717">
        <ele>79</ele>
        <time>2021-07-17T08:12:41.000Z</time>
      </trkpt>
      <trkpt lat="47.02441" lon="-1.73716">
        <ele>79</ele>
        <time>2021-07-17T08:12:43.000Z</time>
      </trkpt>
      <trkpt lat="47.02453" lon="-1.73713">
        <ele>79</ele>
        <time>2021-07-17T08:12:45.000Z</time>
      </trkpt>
      <trkpt lat="47.02464" lon="-1.73711">
        <ele>79</ele>
        <time>2021-07-17T08:12:47.000Z</time>
      </trkpt>
      <trkpt lat="47.02475" lon="-1.73708">
        <ele>81</ele>
        <time>2021-07-17T08:12:49.000Z</time>
      </trkpt>
      <trkpt lat="47.02485" lon="-1.73705">
        <ele>82</ele>
        <time>2021-07-17T08:12:51.000Z</time>
      </trkpt>
      <trkpt lat="47.02496" lon="-1.73701">
        <ele>82</ele>
        <time>2021-07-17T08:12:53.000Z</time>
      </trkpt>
      <trkpt lat="47.02507" lon="-1.73698">
        <ele>82</ele>
        <time>2021-07-17T08:12:55.000Z</time>
      </trkpt>
      <trkpt lat="47.02518" lon="-1.73696">
        <ele>83</ele>
        <time>2021-07-17T08:12:57.000Z</time>
      </trkpt>
      <trkpt lat="47.0253" lon="-1.73695">
        <ele>83</ele>
        <time>2021-07-17T08:12:59.000Z</time>
      </trkpt>
      <trkpt lat="47.02541" lon="-1.73692">
        <ele>83</ele>
        <time>2021-07-17T08:13:01.000Z</time>
      </trkpt>
      <trkpt lat="47.02554" lon="-1.73691">
        <ele>83</ele>
        <time>2021-07-17T08:13:03.000Z</time>
      </trkpt>
      <trkpt lat="47.02566" lon="-1.73689">
        <ele>82</ele>
        <time>2021-07-17T08:13:05.000Z</time>
      </trkpt>
      <trkpt lat="47.02577" lon="-1.73687">
        <ele>83</ele>
        <time>2021-07-17T08:13:07.000Z</time>
      </trkpt>
      <trkpt lat="47.02588" lon="-1.73685">
        <ele>83</ele>
        <time>2021-07-17T08:13:09.000Z</time>
      </trkpt>
      <trkpt lat="47.026" lon="-1.73683">
        <ele>83</ele>
        <time>2021-07-17T08:13:11.000Z</time>
      </trkpt>
      <trkpt lat="47.02611" lon="-1.7368">
        <ele>83</ele>
        <time>2021-07-17T08:13:13.000Z</time>
      </trkpt>
      <trkpt lat="47.02622" lon="-1.73679">
        <ele>83</ele>
        <time>2021-07-17T08:13:15.000Z</time>
      </trkpt>
      <trkpt lat="47.02634" lon="-1.73677">
        <ele>83</ele>
        <time>2021-07-17T08:13:17.000Z</time>
      </trkpt>
      <trkpt lat="47.02645" lon="-1.73674">
        <ele>83</ele>
        <time>2021-07-17T08:13:19.000Z</time>
      </trkpt>
      <trkpt lat="47.02656" lon="-1.73672">
        <ele>83</ele>
        <time>2021-07-17T08:13:21.000Z</time>
      </trkpt>
      <trkpt lat="47.02667" lon="-1.7367">
        <ele>83</ele>
        <time>2021-07-17T08:13:23.000Z</time>
      </trkpt>
      <trkpt lat="47.02679" lon="-1.73667">
        <ele>83</ele>
        <time>2021-07-17T08:13:25.000Z</time>
      </trkpt>
      <trkpt lat="47.0269" lon="-1.73665">
        <ele>84</ele>
        <time>2021-07-17T08:13:27.000Z</time>
      </trkpt>
      <trkpt lat="47.027" lon="-1.73662">
        <ele>84</ele>
        <time>2021-07-17T08:13:29.000Z</time>
      </trkpt>
      <trkpt lat="47.02711" lon="-1.73659">
        <ele>85</ele>
        <time>2021-07-17T08:13:31.000Z</time>
      </trkpt>
      <trkpt lat="47.02723" lon="-1.73656">
        <ele>85</ele>
        <time>2021-07-17T08:13:33.000Z</time>
      </trkpt>
      <trkpt lat="47.02734" lon="-1.73654">
        <ele>85</ele>
        <time>2021-07-17T08:13:35.000Z</time>
      </trkpt>
      <trkpt lat="47.02745" lon="-1.73651">
        <ele>85</ele>
        <time>2021-07-17T08:13:37.000Z</time>
      </trkpt>
      <trkpt lat="47.02757" lon="-1.73649">
        <ele>86</ele>
        <time>2021-07-17T08:13:39.000Z</time>
      </trkpt>
      <trkpt lat="47.02768" lon="-1.73646">
        <ele>86</ele>
        <time>2021-07-17T08:13:41.000Z</time>
      </trkpt>
      <trkpt lat="47.0278" lon="-1.73644">
        <ele>86</ele>
        <time>2021-07-17T08:13:43.000Z</time>
      </trkpt>
      <trkpt lat="47.02792" lon="-1.73643">
        <ele>86</ele>
        <time>2021-07-17T08:13:45.000Z</time>
      </trkpt>
      <trkpt lat="47.02803" lon="-1.7364">
        <ele>86</ele>
        <time>2021-07-17T08:13:47.000Z</time>
      </trkpt>
      <trkpt lat="47.02815" lon="-1.73639">
        <ele>85</ele>
        <time>2021-07-17T08:13:49.000Z</time>
      </trkpt>
      <trkpt lat="47.02827" lon="-1.73638">
        <ele>85</ele>
        <time>2021-07-17T08:13:51.000Z</time>
      </trkpt>
      <trkpt lat="47.02838" lon="-1.73636">
        <ele>85</ele>
        <time>2021-07-17T08:13:53.000Z</time>
      </trkpt>
      <trkpt lat="47.0285" lon="-1.73634">
        <ele>84</ele>
        <time>2021-07-17T08:13:55.000Z</time>
      </trkpt>
      <trkpt lat="47.02862" lon="-1.73632">
        <ele>84</ele>
        <time>2021-07-17T08:13:57.000Z</time>
      </trkpt>
      <trkpt lat="47.02873" lon="-1.7363">
        <ele>84</ele>
        <time>2021-07-17T08:13:59.000Z</time>
      </trkpt>
      <trkpt lat="47.02885" lon="-1.73628">
        <ele>84</ele>
        <time>2021-07-17T08:14:01.000Z</time>
      </trkpt>
      <trkpt lat="47.02896" lon="-1.73626">
        <ele>84</ele>
        <time>2021-07-17T08:14:03.000Z</time>
      </trkpt>
      <trkpt lat="47.02908" lon="-1.73624">
        <ele>84</ele>
        <time>2021-07-17T08:14:05.000Z</time>
      </trkpt>
      <trkpt lat="47.0292" lon="-1.73623">
        <ele>84</ele>
        <time>2021-07-17T08:14:07.000Z</time>
      </trkpt>
      <trkpt lat="47.02933" lon="-1.7362">
        <ele>84</ele>
        <time>2021-07-17T08:14:09.000Z</time>
      </trkpt>
      <trkpt lat="47.02944" lon="-1.73619">
        <ele>84</ele>
        <time>2021-07-17T08:14:11.000Z</time>
      </trkpt>
      <trkpt lat="47.02956" lon="-1.73616">
        <ele>84</ele>
        <time>2021-07-17T08:14:13.000Z</time>
      </trkpt>
      <trkpt lat="47.02967" lon="-1.73613">
        <ele>84</ele>
        <time>2021-07-17T08:14:15.000Z</time>
      </trkpt>
      <trkpt lat="47.02979" lon="-1.73611">
        <ele>84</ele>
        <time>2021-07-17T08:14:17.000Z</time>
      </trkpt>
      <trkpt lat="47.02991" lon="-1.73609">
        <ele>84</ele>
        <time>2021-07-17T08:14:19.000Z</time>
      </trkpt>
      <trkpt lat="47.03003" lon="-1.73606">
        <ele>84</ele>
        <time>2021-07-17T08:14:21.000Z</time>
      </trkpt>
      <trkpt lat="47.03015" lon="-1.73604">
        <ele>84</ele>
        <time>2021-07-17T08:14:23.000Z</time>
      </trkpt>
      <trkpt lat="47.03027" lon="-1.73602">
        <ele>85</ele>
        <time>2021-07-17T08:14:25.000Z</time>
      </trkpt>
      <trkpt lat="47.03038" lon="-1.73599">
        <ele>84</ele>
        <time>2021-07-17T08:14:27.000Z</time>
      </trkpt>
      <trkpt lat="47.03049" lon="-1.73597">
        <ele>84</ele>
        <time>2021-07-17T08:14:29.000Z</time>
      </trkpt>
      <trkpt lat="47.03061" lon="-1.73595">
        <ele>83</ele>
        <time>2021-07-17T08:14:31.000Z</time>
      </trkpt>
      <trkpt lat="47.03071" lon="-1.73591">
        <ele>84</ele>
        <time>2021-07-17T08:14:33.000Z</time>
      </trkpt>
      <trkpt lat="47.03078" lon="-1.73578">
        <ele>84</ele>
        <time>2021-07-17T08:14:35.000Z</time>
      </trkpt>
      <trkpt lat="47.03083" lon="-1.73562">
        <ele>84</ele>
        <time>2021-07-17T08:14:37.000Z</time>
      </trkpt>
      <trkpt lat="47.03089" lon="-1.73547">
        <ele>84</ele>
        <time>2021-07-17T08:14:39.000Z</time>
      </trkpt>
      <trkpt lat="47.03095" lon="-1.73531">
        <ele>84</ele>
        <time>2021-07-17T08:14:41.000Z</time>
      </trkpt>
      <trkpt lat="47.031" lon="-1.73515">
        <ele>85</ele>
        <time>2021-07-17T08:14:43.000Z</time>
      </trkpt>
      <trkpt lat="47.03105" lon="-1.735">
        <ele>85</ele>
        <time>2021-07-17T08:14:45.000Z</time>
      </trkpt>
      <trkpt lat="47.03112" lon="-1.73485">
        <ele>85</ele>
        <time>2021-07-17T08:14:47.000Z</time>
      </trkpt>
      <trkpt lat="47.03118" lon="-1.7347">
        <ele>85</ele>
        <time>2021-07-17T08:14:49.000Z</time>
      </trkpt>
      <trkpt lat="47.03125" lon="-1.73456">
        <ele>85</ele>
        <time>2021-07-17T08:14:51.000Z</time>
      </trkpt>
      <trkpt lat="47.03131" lon="-1.73442">
        <ele>85</ele>
        <time>2021-07-17T08:14:53.000Z</time>
      </trkpt>
      <trkpt lat="47.03138" lon="-1.73428">
        <ele>85</ele>
        <time>2021-07-17T08:14:55.000Z</time>
      </trkpt>
      <trkpt lat="47.03144" lon="-1.73413">
        <ele>85</ele>
        <time>2021-07-17T08:14:57.000Z</time>
      </trkpt>
      <trkpt lat="47.03149" lon="-1.73397">
        <ele>86</ele>
        <time>2021-07-17T08:14:59.000Z</time>
      </trkpt>
      <trkpt lat="47.03154" lon="-1.73381">
        <ele>86</ele>
        <time>2021-07-17T08:15:01.000Z</time>
      </trkpt>
      <trkpt lat="47.03158" lon="-1.73366">
        <ele>86</ele>
        <time>2021-07-17T08:15:03.000Z</time>
      </trkpt>
      <trkpt lat="47.03162" lon="-1.73351">
        <ele>86</ele>
        <time>2021-07-17T08:15:05.000Z</time>
      </trkpt>
      <trkpt lat="47.03167" lon="-1.73335">
        <ele>86</ele>
        <time>2021-07-17T08:15:07.000Z</time>
      </trkpt>
      <trkpt lat="47.03172" lon="-1.7332">
        <ele>86</ele>
        <time>2021-07-17T08:15:09.000Z</time>
      </trkpt>
      <trkpt lat="47.03178" lon="-1.73305">
        <ele>86</ele>
        <time>2021-07-17T08:15:11.000Z</time>
      </trkpt>
      <trkpt lat="47.03184" lon="-1.73291">
        <ele>86</ele>
        <time>2021-07-17T08:15:13.000Z</time>
      </trkpt>
      <trkpt lat="47.03191" lon="-1.73276">
        <ele>86</ele>
        <time>2021-07-17T08:15:15.000Z</time>
      </trkpt>
      <trkpt lat="47.03197" lon="-1.73262">
        <ele>86</ele>
        <time>2021-07-17T08:15:17.000Z</time>
      </trkpt>
      <trkpt lat="47.03204" lon="-1.73247">
        <ele>86</ele>
        <time>2021-07-17T08:15:19.000Z</time>
      </trkpt>
      <trkpt lat="47.03209" lon="-1.73232">
        <ele>86</ele>
        <time>2021-07-17T08:15:21.000Z</time>
      </trkpt>
      <trkpt lat="47.03215" lon="-1.73217">
        <ele>86</ele>
        <time>2021-07-17T08:15:23.000Z</time>
      </trkpt>
      <trkpt lat="47.03221" lon="-1.73202">
        <ele>86</ele>
        <time>2021-07-17T08:15:25.000Z</time>
      </trkpt>
      <trkpt lat="47.03227" lon="-1.73186">
        <ele>86</ele>
        <time>2021-07-17T08:15:27.000Z</time>
      </trkpt>
      <trkpt lat="47.03232" lon="-1.73171">
        <ele>86</ele>
        <time>2021-07-17T08:15:29.000Z</time>
      </trkpt>
      <trkpt lat="47.03238" lon="-1.73156">
        <ele>86</ele>
        <time>2021-07-17T08:15:31.000Z</time>
      </trkpt>
      <trkpt lat="47.03243" lon="-1.7314">
        <ele>86</ele>
        <time>2021-07-17T08:15:33.000Z</time>
      </trkpt>
      <trkpt lat="47.03245" lon="-1.73124">
        <ele>86</ele>
        <time>2021-07-17T08:15:35.000Z</time>
      </trkpt>
      <trkpt lat="47.03246" lon="-1.73106">
        <ele>86</ele>
        <time>2021-07-17T08:15:37.000Z</time>
      </trkpt>
      <trkpt lat="47.03245" lon="-1.73089">
        <ele>86</ele>
        <time>2021-07-17T08:15:39.000Z</time>
      </trkpt>
      <trkpt lat="47.03244" lon="-1.73071">
        <ele>85</ele>
        <time>2021-07-17T08:15:41.000Z</time>
      </trkpt>
      <trkpt lat="47.03242" lon="-1.73053">
        <ele>85</ele>
        <time>2021-07-17T08:15:43.000Z</time>
      </trkpt>
      <trkpt lat="47.03241" lon="-1.73036">
        <ele>85</ele>
        <time>2021-07-17T08:15:45.000Z</time>
      </trkpt>
      <trkpt lat="47.03239" lon="-1.73018">
        <ele>86</ele>
        <time>2021-07-17T08:15:47.000Z</time>
      </trkpt>
      <trkpt lat="47.03238" lon="-1.73">
        <ele>85</ele>
        <time>2021-07-17T08:15:49.000Z</time>
      </trkpt>
      <trkpt lat="47.03236" lon="-1.72983">
        <ele>85</ele>
        <time>2021-07-17T08:15:51.000Z</time>
      </trkpt>
      <trkpt lat="47.03236" lon="-1.72967">
        <ele>85</ele>
        <time>2021-07-17T08:15:53.000Z</time>
      </trkpt>
      <trkpt lat="47.03238" lon="-1.72951">
        <ele>85</ele>
        <time>2021-07-17T08:15:55.000Z</time>
      </trkpt>
      <trkpt lat="47.03243" lon="-1.72936">
        <ele>85</ele>
        <time>2021-07-17T08:15:57.000Z</time>
      </trkpt>
      <trkpt lat="47.03247" lon="-1.72921">
        <ele>84</ele>
        <time>2021-07-17T08:15:59.000Z</time>
      </trkpt>
      <trkpt lat="47.03247" lon="-1.72904">
        <ele>84</ele>
        <time>2021-07-17T08:16:01.000Z</time>
      </trkpt>
      <trkpt lat="47.03247" lon="-1.72886">
        <ele>84</ele>
        <time>2021-07-17T08:16:03.000Z</time>
      </trkpt>
      <trkpt lat="47.03247" lon="-1.72869">
        <ele>84</ele>
        <time>2021-07-17T08:16:05.000Z</time>
      </trkpt>
      <trkpt lat="47.03247" lon="-1.72852">
        <ele>84</ele>
        <time>2021-07-17T08:16:07.000Z</time>
      </trkpt>
      <trkpt lat="47.03247" lon="-1.72834">
        <ele>84</ele>
        <time>2021-07-17T08:16:09.000Z</time>
      </trkpt>
      <trkpt lat="47.03247" lon="-1.72817">
        <ele>84</ele>
        <time>2021-07-17T08:16:11.000Z</time>
      </trkpt>
      <trkpt lat="47.03248" lon="-1.72799">
        <ele>83</ele>
        <time>2021-07-17T08:16:13.000Z</time>
      </trkpt>
      <trkpt lat="47.03247" lon="-1.72783">
        <ele>84</ele>
        <time>2021-07-17T08:16:15.000Z</time>
      </trkpt>
      <trkpt lat="47.03247" lon="-1.72765">
        <ele>84</ele>
        <time>2021-07-17T08:16:17.000Z</time>
      </trkpt>
      <trkpt lat="47.03247" lon="-1.72748">
        <ele>84</ele>
        <time>2021-07-17T08:16:19.000Z</time>
      </trkpt>
      <trkpt lat="47.03248" lon="-1.72731">
        <ele>84</ele>
        <time>2021-07-17T08:16:21.000Z</time>
      </trkpt>
      <trkpt lat="47.0325" lon="-1.72715">
        <ele>84</ele>
        <time>2021-07-17T08:16:23.000Z</time>
      </trkpt>
      <trkpt lat="47.03256" lon="-1.72701">
        <ele>84</ele>
        <time>2021-07-17T08:16:25.000Z</time>
      </trkpt>
      <trkpt lat="47.03265" lon="-1.72689">
        <ele>84</ele>
        <time>2021-07-17T08:16:27.000Z</time>
      </trkpt>
      <trkpt lat="47.03274" lon="-1.72679">
        <ele>83</ele>
        <time>2021-07-17T08:16:29.000Z</time>
      </trkpt>
      <trkpt lat="47.03284" lon="-1.72668">
        <ele>84</ele>
        <time>2021-07-17T08:16:31.000Z</time>
      </trkpt>
      <trkpt lat="47.03293" lon="-1.72657">
        <ele>84</ele>
        <time>2021-07-17T08:16:33.000Z</time>
      </trkpt>
      <trkpt lat="47.03302" lon="-1.72646">
        <ele>84</ele>
        <time>2021-07-17T08:16:35.000Z</time>
      </trkpt>
      <trkpt lat="47.03311" lon="-1.72635">
        <ele>84</ele>
        <time>2021-07-17T08:16:37.000Z</time>
      </trkpt>
      <trkpt lat="47.03321" lon="-1.72624">
        <ele>84</ele>
        <time>2021-07-17T08:16:39.000Z</time>
      </trkpt>
      <trkpt lat="47.03331" lon="-1.72613">
        <ele>83</ele>
        <time>2021-07-17T08:16:41.000Z</time>
      </trkpt>
      <trkpt lat="47.0334" lon="-1.726">
        <ele>83</ele>
        <time>2021-07-17T08:16:43.000Z</time>
      </trkpt>
      <trkpt lat="47.0335" lon="-1.72589">
        <ele>83</ele>
        <time>2021-07-17T08:16:45.000Z</time>
      </trkpt>
      <trkpt lat="47.03358" lon="-1.72578">
        <ele>84</ele>
        <time>2021-07-17T08:16:47.000Z</time>
      </trkpt>
      <trkpt lat="47.03367" lon="-1.72566">
        <ele>84</ele>
        <time>2021-07-17T08:16:49.000Z</time>
      </trkpt>
      <trkpt lat="47.03376" lon="-1.72554">
        <ele>84</ele>
        <time>2021-07-17T08:16:51.000Z</time>
      </trkpt>
      <trkpt lat="47.03385" lon="-1.72542">
        <ele>84</ele>
        <time>2021-07-17T08:16:53.000Z</time>
      </trkpt>
      <trkpt lat="47.03394" lon="-1.72531">
        <ele>84</ele>
        <time>2021-07-17T08:16:55.000Z</time>
      </trkpt>
      <trkpt lat="47.03403" lon="-1.72519">
        <ele>84</ele>
        <time>2021-07-17T08:16:57.000Z</time>
      </trkpt>
      <trkpt lat="47.03412" lon="-1.72507">
        <ele>83</ele>
        <time>2021-07-17T08:16:59.000Z</time>
      </trkpt>
      <trkpt lat="47.03422" lon="-1.72495">
        <ele>83</ele>
        <time>2021-07-17T08:17:01.000Z</time>
      </trkpt>
      <trkpt lat="47.03432" lon="-1.72483">
        <ele>83</ele>
        <time>2021-07-17T08:17:03.000Z</time>
      </trkpt>
      <trkpt lat="47.03441" lon="-1.72471">
        <ele>83</ele>
        <time>2021-07-17T08:17:05.000Z</time>
      </trkpt>
      <trkpt lat="47.0345" lon="-1.72459">
        <ele>83</ele>
        <time>2021-07-17T08:17:07.000Z</time>
      </trkpt>
      <trkpt lat="47.0346" lon="-1.72447">
        <ele>83</ele>
        <time>2021-07-17T08:17:09.000Z</time>
      </trkpt>
      <trkpt lat="47.03468" lon="-1.72435">
        <ele>83</ele>
        <time>2021-07-17T08:17:11.000Z</time>
      </trkpt>
      <trkpt lat="47.03477" lon="-1.72423">
        <ele>83</ele>
        <time>2021-07-17T08:17:13.000Z</time>
      </trkpt>
      <trkpt lat="47.03485" lon="-1.7241">
        <ele>83</ele>
        <time>2021-07-17T08:17:15.000Z</time>
      </trkpt>
      <trkpt lat="47.03494" lon="-1.72398">
        <ele>83</ele>
        <time>2021-07-17T08:17:17.000Z</time>
      </trkpt>
      <trkpt lat="47.03503" lon="-1.72386">
        <ele>83</ele>
        <time>2021-07-17T08:17:19.000Z</time>
      </trkpt>
      <trkpt lat="47.03512" lon="-1.72374">
        <ele>82</ele>
        <time>2021-07-17T08:17:21.000Z</time>
      </trkpt>
      <trkpt lat="47.03522" lon="-1.72365">
        <ele>82</ele>
        <time>2021-07-17T08:17:23.000Z</time>
      </trkpt>
      <trkpt lat="47.03532" lon="-1.72356">
        <ele>83</ele>
        <time>2021-07-17T08:17:25.000Z</time>
      </trkpt>
      <trkpt lat="47.03542" lon="-1.72347">
        <ele>83</ele>
        <time>2021-07-17T08:17:27.000Z</time>
      </trkpt>
      <trkpt lat="47.03552" lon="-1.72338">
        <ele>84</ele>
        <time>2021-07-17T08:17:29.000Z</time>
      </trkpt>
      <trkpt lat="47.03561" lon="-1.72329">
        <ele>84</ele>
        <time>2021-07-17T08:17:31.000Z</time>
      </trkpt>
      <trkpt lat="47.03571" lon="-1.7232">
        <ele>84</ele>
        <time>2021-07-17T08:17:33.000Z</time>
      </trkpt>
      <trkpt lat="47.0358" lon="-1.72313">
        <ele>85</ele>
        <time>2021-07-17T08:17:35.000Z</time>
      </trkpt>
      <trkpt lat="47.0359" lon="-1.72304">
        <ele>85</ele>
        <time>2021-07-17T08:17:37.000Z</time>
      </trkpt>
      <trkpt lat="47.036" lon="-1.72296">
        <ele>86</ele>
        <time>2021-07-17T08:17:39.000Z</time>
      </trkpt>
      <trkpt lat="47.03609" lon="-1.72287">
        <ele>86</ele>
        <time>2021-07-17T08:17:41.000Z</time>
      </trkpt>
      <trkpt lat="47.03618" lon="-1.72278">
        <ele>86</ele>
        <time>2021-07-17T08:17:43.000Z</time>
      </trkpt>
      <trkpt lat="47.03628" lon="-1.72269">
        <ele>86</ele>
        <time>2021-07-17T08:17:45.000Z</time>
      </trkpt>
      <trkpt lat="47.03638" lon="-1.72261">
        <ele>86</ele>
        <time>2021-07-17T08:17:47.000Z</time>
      </trkpt>
      <trkpt lat="47.03647" lon="-1.72252">
        <ele>86</ele>
        <time>2021-07-17T08:17:49.000Z</time>
      </trkpt>
      <trkpt lat="47.03656" lon="-1.72244">
        <ele>87</ele>
        <time>2021-07-17T08:17:51.000Z</time>
      </trkpt>
      <trkpt lat="47.03666" lon="-1.72236">
        <ele>86</ele>
        <time>2021-07-17T08:17:53.000Z</time>
      </trkpt>
      <trkpt lat="47.03675" lon="-1.72227">
        <ele>86</ele>
        <time>2021-07-17T08:17:55.000Z</time>
      </trkpt>
      <trkpt lat="47.03685" lon="-1.72219">
        <ele>86</ele>
        <time>2021-07-17T08:17:57.000Z</time>
      </trkpt>
      <trkpt lat="47.03694" lon="-1.72211">
        <ele>86</ele>
        <time>2021-07-17T08:17:59.000Z</time>
      </trkpt>
      <trkpt lat="47.03703" lon="-1.72202">
        <ele>86</ele>
        <time>2021-07-17T08:18:01.000Z</time>
      </trkpt>
      <trkpt lat="47.03713" lon="-1.72194">
        <ele>85</ele>
        <time>2021-07-17T08:18:03.000Z</time>
      </trkpt>
      <trkpt lat="47.03723" lon="-1.72186">
        <ele>84</ele>
        <time>2021-07-17T08:18:05.000Z</time>
      </trkpt>
      <trkpt lat="47.03734" lon="-1.72178">
        <ele>84</ele>
        <time>2021-07-17T08:18:07.000Z</time>
      </trkpt>
      <trkpt lat="47.03745" lon="-1.72172">
        <ele>84</ele>
        <time>2021-07-17T08:18:09.000Z</time>
      </trkpt>
      <trkpt lat="47.03757" lon="-1.7217">
        <ele>84</ele>
        <time>2021-07-17T08:18:11.000Z</time>
      </trkpt>
      <trkpt lat="47.03769" lon="-1.72173">
        <ele>85</ele>
        <time>2021-07-17T08:18:13.000Z</time>
      </trkpt>
      <trkpt lat="47.0378" lon="-1.72183">
        <ele>85</ele>
        <time>2021-07-17T08:18:15.000Z</time>
      </trkpt>
      <trkpt lat="47.03788" lon="-1.72197">
        <ele>84</ele>
        <time>2021-07-17T08:18:17.000Z</time>
      </trkpt>
      <trkpt lat="47.03796" lon="-1.7221">
        <ele>85</ele>
        <time>2021-07-17T08:18:19.000Z</time>
      </trkpt>
      <trkpt lat="47.03805" lon="-1.72221">
        <ele>85</ele>
        <time>2021-07-17T08:18:21.000Z</time>
      </trkpt>
      <trkpt lat="47.03817" lon="-1.72225">
        <ele>85</ele>
        <time>2021-07-17T08:18:23.000Z</time>
      </trkpt>
      <trkpt lat="47.03829" lon="-1.72223">
        <ele>85</ele>
        <time>2021-07-17T08:18:25.000Z</time>
      </trkpt>
      <trkpt lat="47.0384" lon="-1.72218">
        <ele>86</ele>
        <time>2021-07-17T08:18:27.000Z</time>
      </trkpt>
      <trkpt lat="47.0385" lon="-1.72213">
        <ele>86</ele>
        <time>2021-07-17T08:18:29.000Z</time>
      </trkpt>
      <trkpt lat="47.03861" lon="-1.72207">
        <ele>86</ele>
        <time>2021-07-17T08:18:31.000Z</time>
      </trkpt>
      <trkpt lat="47.03873" lon="-1.72201">
        <ele>86</ele>
        <time>2021-07-17T08:18:33.000Z</time>
      </trkpt>
      <trkpt lat="47.03891" lon="-1.72195">
        <ele>86</ele>
        <time>2021-07-17T08:18:36.000Z</time>
      </trkpt>
      <trkpt lat="47.03909" lon="-1.72193">
        <ele>86</ele>
        <time>2021-07-17T08:18:39.000Z</time>
      </trkpt>
      <trkpt lat="47.03921" lon="-1.72191">
        <ele>86</ele>
        <time>2021-07-17T08:18:41.000Z</time>
      </trkpt>
      <trkpt lat="47.03939" lon="-1.7219">
        <ele>87</ele>
        <time>2021-07-17T08:18:44.000Z</time>
      </trkpt>
      <trkpt lat="47.0395" lon="-1.72189">
        <ele>86</ele>
        <time>2021-07-17T08:18:46.000Z</time>
      </trkpt>
      <trkpt lat="47.03961" lon="-1.72189">
        <ele>87</ele>
        <time>2021-07-17T08:18:48.000Z</time>
      </trkpt>
      <trkpt lat="47.0397" lon="-1.72189">
        <ele>87</ele>
        <time>2021-07-17T08:18:50.000Z</time>
      </trkpt>
      <trkpt lat="47.03983" lon="-1.72188">
        <ele>87</ele>
        <time>2021-07-17T08:18:53.000Z</time>
      </trkpt>
      <trkpt lat="47.03987" lon="-1.72171">
        <ele>89</ele>
        <time>2021-07-17T08:18:56.000Z</time>
      </trkpt>
      <trkpt lat="47.03987" lon="-1.72154">
        <ele>89</ele>
        <time>2021-07-17T08:18:58.000Z</time>
      </trkpt>
      <trkpt lat="47.03989" lon="-1.72139">
        <ele>89</ele>
        <time>2021-07-17T08:19:00.000Z</time>
      </trkpt>
      <trkpt lat="47.03996" lon="-1.72126">
        <ele>88</ele>
        <time>2021-07-17T08:19:02.000Z</time>
      </trkpt>
      <trkpt lat="47.04005" lon="-1.72117">
        <ele>88</ele>
        <time>2021-07-17T08:19:04.000Z</time>
      </trkpt>
      <trkpt lat="47.04014" lon="-1.72108">
        <ele>88</ele>
        <time>2021-07-17T08:19:06.000Z</time>
      </trkpt>
      <trkpt lat="47.04023" lon="-1.72101">
        <ele>88</ele>
        <time>2021-07-17T08:19:08.000Z</time>
      </trkpt>
      <trkpt lat="47.04032" lon="-1.72094">
        <ele>88</ele>
        <time>2021-07-17T08:19:10.000Z</time>
      </trkpt>
      <trkpt lat="47.04042" lon="-1.72087">
        <ele>88</ele>
        <time>2021-07-17T08:19:12.000Z</time>
      </trkpt>
      <trkpt lat="47.04051" lon="-1.7208">
        <ele>88</ele>
        <time>2021-07-17T08:19:14.000Z</time>
      </trkpt>
      <trkpt lat="47.04061" lon="-1.72073">
        <ele>88</ele>
        <time>2021-07-17T08:19:16.000Z</time>
      </trkpt>
      <trkpt lat="47.0407" lon="-1.72066">
        <ele>89</ele>
        <time>2021-07-17T08:19:18.000Z</time>
      </trkpt>
      <trkpt lat="47.04079" lon="-1.72059">
        <ele>89</ele>
        <time>2021-07-17T08:19:20.000Z</time>
      </trkpt>
      <trkpt lat="47.04088" lon="-1.72052">
        <ele>89</ele>
        <time>2021-07-17T08:19:22.000Z</time>
      </trkpt>
      <trkpt lat="47.04097" lon="-1.72045">
        <ele>89</ele>
        <time>2021-07-17T08:19:24.000Z</time>
      </trkpt>
      <trkpt lat="47.04107" lon="-1.72038">
        <ele>89</ele>
        <time>2021-07-17T08:19:26.000Z</time>
      </trkpt>
      <trkpt lat="47.04116" lon="-1.72031">
        <ele>89</ele>
        <time>2021-07-17T08:19:28.000Z</time>
      </trkpt>
      <trkpt lat="47.04126" lon="-1.72024">
        <ele>89</ele>
        <time>2021-07-17T08:19:30.000Z</time>
      </trkpt>
      <trkpt lat="47.04136" lon="-1.72017">
        <ele>90</ele>
        <time>2021-07-17T08:19:32.000Z</time>
      </trkpt>
      <trkpt lat="47.04146" lon="-1.7201">
        <ele>89</ele>
        <time>2021-07-17T08:19:34.000Z</time>
      </trkpt>
      <trkpt lat="47.04156" lon="-1.72002">
        <ele>89</ele>
        <time>2021-07-17T08:19:36.000Z</time>
      </trkpt>
      <trkpt lat="47.04165" lon="-1.71995">
        <ele>89</ele>
        <time>2021-07-17T08:19:38.000Z</time>
      </trkpt>
      <trkpt lat="47.04175" lon="-1.71988">
        <ele>89</ele>
        <time>2021-07-17T08:19:40.000Z</time>
      </trkpt>
      <trkpt lat="47.04184" lon="-1.71981">
        <ele>90</ele>
        <time>2021-07-17T08:19:42.000Z</time>
      </trkpt>
      <trkpt lat="47.04194" lon="-1.71974">
        <ele>90</ele>
        <time>2021-07-17T08:19:44.000Z</time>
      </trkpt>
      <trkpt lat="47.04203" lon="-1.71967">
        <ele>90</ele>
        <time>2021-07-17T08:19:46.000Z</time>
      </trkpt>
      <trkpt lat="47.04213" lon="-1.7196">
        <ele>90</ele>
        <time>2021-07-17T08:19:48.000Z</time>
      </trkpt>
      <trkpt lat="47.04222" lon="-1.71952">
        <ele>90</ele>
        <time>2021-07-17T08:19:50.000Z</time>
      </trkpt>
      <trkpt lat="47.04232" lon="-1.71946">
        <ele>90</ele>
        <time>2021-07-17T08:19:52.000Z</time>
      </trkpt>
      <trkpt lat="47.04241" lon="-1.7194">
        <ele>90</ele>
        <time>2021-07-17T08:19:54.000Z</time>
      </trkpt>
      <trkpt lat="47.04251" lon="-1.71935">
        <ele>90</ele>
        <time>2021-07-17T08:19:56.000Z</time>
      </trkpt>
      <trkpt lat="47.04261" lon="-1.7193">
        <ele>90</ele>
        <time>2021-07-17T08:19:58.000Z</time>
      </trkpt>
      <trkpt lat="47.04271" lon="-1.71927">
        <ele>90</ele>
        <time>2021-07-17T08:20:00.000Z</time>
      </trkpt>
      <trkpt lat="47.04282" lon="-1.71923">
        <ele>90</ele>
        <time>2021-07-17T08:20:02.000Z</time>
      </trkpt>
      <trkpt lat="47.04293" lon="-1.71919">
        <ele>90</ele>
        <time>2021-07-17T08:20:04.000Z</time>
      </trkpt>
      <trkpt lat="47.04303" lon="-1.71916">
        <ele>90</ele>
        <time>2021-07-17T08:20:06.000Z</time>
      </trkpt>
      <trkpt lat="47.04313" lon="-1.71912">
        <ele>90</ele>
        <time>2021-07-17T08:20:08.000Z</time>
      </trkpt>
      <trkpt lat="47.04324" lon="-1.71909">
        <ele>89</ele>
        <time>2021-07-17T08:20:10.000Z</time>
      </trkpt>
      <trkpt lat="47.04334" lon="-1.71905">
        <ele>89</ele>
        <time>2021-07-17T08:20:12.000Z</time>
      </trkpt>
      <trkpt lat="47.04345" lon="-1.71902">
        <ele>89</ele>
        <time>2021-07-17T08:20:14.000Z</time>
      </trkpt>
      <trkpt lat="47.04355" lon="-1.71898">
        <ele>89</ele>
        <time>2021-07-17T08:20:16.000Z</time>
      </trkpt>
      <trkpt lat="47.04366" lon="-1.71893">
        <ele>89</ele>
        <time>2021-07-17T08:20:18.000Z</time>
      </trkpt>
      <trkpt lat="47.04377" lon="-1.71886">
        <ele>88</ele>
        <time>2021-07-17T08:20:20.000Z</time>
      </trkpt>
      <trkpt lat="47.04386" lon="-1.71876">
        <ele>88</ele>
        <time>2021-07-17T08:20:22.000Z</time>
      </trkpt>
      <trkpt lat="47.04396" lon="-1.71866">
        <ele>87</ele>
        <time>2021-07-17T08:20:24.000Z</time>
      </trkpt>
      <trkpt lat="47.04405" lon="-1.71856">
        <ele>87</ele>
        <time>2021-07-17T08:20:26.000Z</time>
      </trkpt>
      <trkpt lat="47.04413" lon="-1.71845">
        <ele>87</ele>
        <time>2021-07-17T08:20:28.000Z</time>
      </trkpt>
      <trkpt lat="47.04421" lon="-1.71833">
        <ele>87</ele>
        <time>2021-07-17T08:20:30.000Z</time>
      </trkpt>
      <trkpt lat="47.0443" lon="-1.71821">
        <ele>87</ele>
        <time>2021-07-17T08:20:32.000Z</time>
      </trkpt>
      <trkpt lat="47.04439" lon="-1.71811">
        <ele>86</ele>
        <time>2021-07-17T08:20:34.000Z</time>
      </trkpt>
      <trkpt lat="47.04447" lon="-1.718">
        <ele>86</ele>
        <time>2021-07-17T08:20:36.000Z</time>
      </trkpt>
      <trkpt lat="47.04454" lon="-1.71789">
        <ele>86</ele>
        <time>2021-07-17T08:20:38.000Z</time>
      </trkpt>
      <trkpt lat="47.04454" lon="-1.71774">
        <ele>86</ele>
        <time>2021-07-17T08:20:40.000Z</time>
      </trkpt>
      <trkpt lat="47.04446" lon="-1.71762">
        <ele>86</ele>
        <time>2021-07-17T08:20:42.000Z</time>
      </trkpt>
      <trkpt lat="47.04436" lon="-1.71751">
        <ele>85</ele>
        <time>2021-07-17T08:20:44.000Z</time>
      </trkpt>
      <trkpt lat="47.04427" lon="-1.71738">
        <ele>85</ele>
        <time>2021-07-17T08:20:46.000Z</time>
      </trkpt>
      <trkpt lat="47.04416" lon="-1.71726">
        <ele>85</ele>
        <time>2021-07-17T08:20:48.000Z</time>
      </trkpt>
      <trkpt lat="47.04406" lon="-1.71713">
        <ele>85</ele>
        <time>2021-07-17T08:20:50.000Z</time>
      </trkpt>
      <trkpt lat="47.04396" lon="-1.71699">
        <ele>85</ele>
        <time>2021-07-17T08:20:52.000Z</time>
      </trkpt>
      <trkpt lat="47.04387" lon="-1.71686">
        <ele>84</ele>
        <time>2021-07-17T08:20:54.000Z</time>
      </trkpt>
      <trkpt lat="47.04377" lon="-1.71672">
        <ele>84</ele>
        <time>2021-07-17T08:20:56.000Z</time>
      </trkpt>
      <trkpt lat="47.04368" lon="-1.71659">
        <ele>84</ele>
        <time>2021-07-17T08:20:58.000Z</time>
      </trkpt>
      <trkpt lat="47.04358" lon="-1.71646">
        <ele>84</ele>
        <time>2021-07-17T08:21:00.000Z</time>
      </trkpt>
      <trkpt lat="47.04349" lon="-1.71634">
        <ele>84</ele>
        <time>2021-07-17T08:21:02.000Z</time>
      </trkpt>
      <trkpt lat="47.04341" lon="-1.7162">
        <ele>83</ele>
        <time>2021-07-17T08:21:04.000Z</time>
      </trkpt>
      <trkpt lat="47.04332" lon="-1.71606">
        <ele>84</ele>
        <time>2021-07-17T08:21:06.000Z</time>
      </trkpt>
      <trkpt lat="47.04324" lon="-1.71592">
        <ele>84</ele>
        <time>2021-07-17T08:21:08.000Z</time>
      </trkpt>
      <trkpt lat="47.04316" lon="-1.71578">
        <ele>84</ele>
        <time>2021-07-17T08:21:10.000Z</time>
      </trkpt>
      <trkpt lat="47.04309" lon="-1.71562">
        <ele>84</ele>
        <time>2021-07-17T08:21:12.000Z</time>
      </trkpt>
      <trkpt lat="47.04302" lon="-1.71546">
        <ele>84</ele>
        <time>2021-07-17T08:21:14.000Z</time>
      </trkpt>
      <trkpt lat="47.04294" lon="-1.7153">
        <ele>84</ele>
        <time>2021-07-17T08:21:16.000Z</time>
      </trkpt>
      <trkpt lat="47.04286" lon="-1.71514">
        <ele>84</ele>
        <time>2021-07-17T08:21:18.000Z</time>
      </trkpt>
      <trkpt lat="47.04279" lon="-1.71498">
        <ele>84</ele>
        <time>2021-07-17T08:21:20.000Z</time>
      </trkpt>
      <trkpt lat="47.04272" lon="-1.71482">
        <ele>85</ele>
        <time>2021-07-17T08:21:22.000Z</time>
      </trkpt>
      <trkpt lat="47.04264" lon="-1.71467">
        <ele>85</ele>
        <time>2021-07-17T08:21:24.000Z</time>
      </trkpt>
      <trkpt lat="47.04257" lon="-1.71452">
        <ele>85</ele>
        <time>2021-07-17T08:21:26.000Z</time>
      </trkpt>
      <trkpt lat="47.0425" lon="-1.71437">
        <ele>85</ele>
        <time>2021-07-17T08:21:28.000Z</time>
      </trkpt>
      <trkpt lat="47.04243" lon="-1.71422">
        <ele>86</ele>
        <time>2021-07-17T08:21:30.000Z</time>
      </trkpt>
      <trkpt lat="47.04236" lon="-1.71405">
        <ele>86</ele>
        <time>2021-07-17T08:21:32.000Z</time>
      </trkpt>
      <trkpt lat="47.0423" lon="-1.7139">
        <ele>86</ele>
        <time>2021-07-17T08:21:34.000Z</time>
      </trkpt>
      <trkpt lat="47.04223" lon="-1.71375">
        <ele>85</ele>
        <time>2021-07-17T08:21:36.000Z</time>
      </trkpt>
      <trkpt lat="47.04217" lon="-1.71361">
        <ele>86</ele>
        <time>2021-07-17T08:21:38.000Z</time>
      </trkpt>
      <trkpt lat="47.04211" lon="-1.71346">
        <ele>86</ele>
        <time>2021-07-17T08:21:40.000Z</time>
      </trkpt>
      <trkpt lat="47.04204" lon="-1.71331">
        <ele>85</ele>
        <time>2021-07-17T08:21:42.000Z</time>
      </trkpt>
      <trkpt lat="47.04197" lon="-1.71316">
        <ele>85</ele>
        <time>2021-07-17T08:21:44.000Z</time>
      </trkpt>
      <trkpt lat="47.0419" lon="-1.713">
        <ele>84</ele>
        <time>2021-07-17T08:21:46.000Z</time>
      </trkpt>
      <trkpt lat="47.04183" lon="-1.71283">
        <ele>84</ele>
        <time>2021-07-17T08:21:48.000Z</time>
      </trkpt>
      <trkpt lat="47.04176" lon="-1.71267">
        <ele>83</ele>
        <time>2021-07-17T08:21:50.000Z</time>
      </trkpt>
      <trkpt lat="47.04168" lon="-1.71251">
        <ele>82</ele>
        <time>2021-07-17T08:21:52.000Z</time>
      </trkpt>
      <trkpt lat="47.0416" lon="-1.71234">
        <ele>81</ele>
        <time>2021-07-17T08:21:54.000Z</time>
      </trkpt>
      <trkpt lat="47.04152" lon="-1.71216">
        <ele>81</ele>
        <time>2021-07-17T08:21:56.000Z</time>
      </trkpt>
      <trkpt lat="47.04144" lon="-1.71197">
        <ele>80</ele>
        <time>2021-07-17T08:21:58.000Z</time>
      </trkpt>
      <trkpt lat="47.04136" lon="-1.71178">
        <ele>79</ele>
        <time>2021-07-17T08:22:00.000Z</time>
      </trkpt>
      <trkpt lat="47.04127" lon="-1.71158">
        <ele>78</ele>
        <time>2021-07-17T08:22:02.000Z</time>
      </trkpt>
      <trkpt lat="47.04118" lon="-1.71137">
        <ele>77</ele>
        <time>2021-07-17T08:22:04.000Z</time>
      </trkpt>
      <trkpt lat="47.04109" lon="-1.71116">
        <ele>76</ele>
        <time>2021-07-17T08:22:06.000Z</time>
      </trkpt>
      <trkpt lat="47.041" lon="-1.71095">
        <ele>76</ele>
        <time>2021-07-17T08:22:08.000Z</time>
      </trkpt>
      <trkpt lat="47.04091" lon="-1.71075">
        <ele>76</ele>
        <time>2021-07-17T08:22:10.000Z</time>
      </trkpt>
      <trkpt lat="47.04082" lon="-1.71056">
        <ele>75</ele>
        <time>2021-07-17T08:22:12.000Z</time>
      </trkpt>
      <trkpt lat="47.04074" lon="-1.71039">
        <ele>75</ele>
        <time>2021-07-17T08:22:14.000Z</time>
      </trkpt>
      <trkpt lat="47.04067" lon="-1.71022">
        <ele>75</ele>
        <time>2021-07-17T08:22:16.000Z</time>
      </trkpt>
      <trkpt lat="47.0406" lon="-1.71006">
        <ele>76</ele>
        <time>2021-07-17T08:22:18.000Z</time>
      </trkpt>
      <trkpt lat="47.04053" lon="-1.70991">
        <ele>76</ele>
        <time>2021-07-17T08:22:20.000Z</time>
      </trkpt>
      <trkpt lat="47.04046" lon="-1.70975">
        <ele>76</ele>
        <time>2021-07-17T08:22:22.000Z</time>
      </trkpt>
      <trkpt lat="47.0404" lon="-1.70959">
        <ele>76</ele>
        <time>2021-07-17T08:22:24.000Z</time>
      </trkpt>
      <trkpt lat="47.04033" lon="-1.70945">
        <ele>76</ele>
        <time>2021-07-17T08:22:26.000Z</time>
      </trkpt>
      <trkpt lat="47.04027" lon="-1.7093">
        <ele>77</ele>
        <time>2021-07-17T08:22:28.000Z</time>
      </trkpt>
      <trkpt lat="47.04021" lon="-1.70915">
        <ele>77</ele>
        <time>2021-07-17T08:22:30.000Z</time>
      </trkpt>
      <trkpt lat="47.04015" lon="-1.70902">
        <ele>78</ele>
        <time>2021-07-17T08:22:32.000Z</time>
      </trkpt>
      <trkpt lat="47.04008" lon="-1.70888">
        <ele>78</ele>
        <time>2021-07-17T08:22:34.000Z</time>
      </trkpt>
      <trkpt lat="47.04002" lon="-1.70874">
        <ele>78</ele>
        <time>2021-07-17T08:22:36.000Z</time>
      </trkpt>
      <trkpt lat="47.03996" lon="-1.7086">
        <ele>79</ele>
        <time>2021-07-17T08:22:38.000Z</time>
      </trkpt>
      <trkpt lat="47.03989" lon="-1.70845">
        <ele>79</ele>
        <time>2021-07-17T08:22:40.000Z</time>
      </trkpt>
      <trkpt lat="47.03982" lon="-1.7083">
        <ele>80</ele>
        <time>2021-07-17T08:22:42.000Z</time>
      </trkpt>
      <trkpt lat="47.03976" lon="-1.70816">
        <ele>80</ele>
        <time>2021-07-17T08:22:44.000Z</time>
      </trkpt>
      <trkpt lat="47.03969" lon="-1.70801">
        <ele>80</ele>
        <time>2021-07-17T08:22:46.000Z</time>
      </trkpt>
      <trkpt lat="47.03963" lon="-1.70786">
        <ele>80</ele>
        <time>2021-07-17T08:22:48.000Z</time>
      </trkpt>
      <trkpt lat="47.03956" lon="-1.70771">
        <ele>81</ele>
        <time>2021-07-17T08:22:50.000Z</time>
      </trkpt>
      <trkpt lat="47.0395" lon="-1.70757">
        <ele>82</ele>
        <time>2021-07-17T08:22:52.000Z</time>
      </trkpt>
      <trkpt lat="47.03943" lon="-1.70742">
        <ele>82</ele>
        <time>2021-07-17T08:22:54.000Z</time>
      </trkpt>
      <trkpt lat="47.03936" lon="-1.70726">
        <ele>82</ele>
        <time>2021-07-17T08:22:56.000Z</time>
      </trkpt>
      <trkpt lat="47.03929" lon="-1.70712">
        <ele>82</ele>
        <time>2021-07-17T08:22:58.000Z</time>
      </trkpt>
      <trkpt lat="47.03923" lon="-1.70698">
        <ele>82</ele>
        <time>2021-07-17T08:23:00.000Z</time>
      </trkpt>
      <trkpt lat="47.03917" lon="-1.70684">
        <ele>82</ele>
        <time>2021-07-17T08:23:02.000Z</time>
      </trkpt>
      <trkpt lat="47.03911" lon="-1.7067">
        <ele>83</ele>
        <time>2021-07-17T08:23:04.000Z</time>
      </trkpt>
      <trkpt lat="47.03904" lon="-1.70655">
        <ele>83</ele>
        <time>2021-07-17T08:23:06.000Z</time>
      </trkpt>
      <trkpt lat="47.03898" lon="-1.70641">
        <ele>83</ele>
        <time>2021-07-17T08:23:08.000Z</time>
      </trkpt>
      <trkpt lat="47.03891" lon="-1.70625">
        <ele>83</ele>
        <time>2021-07-17T08:23:10.000Z</time>
      </trkpt>
      <trkpt lat="47.03885" lon="-1.70609">
        <ele>83</ele>
        <time>2021-07-17T08:23:12.000Z</time>
      </trkpt>
      <trkpt lat="47.0388" lon="-1.70593">
        <ele>83</ele>
        <time>2021-07-17T08:23:14.000Z</time>
      </trkpt>
      <trkpt lat="47.03875" lon="-1.70576">
        <ele>83</ele>
        <time>2021-07-17T08:23:16.000Z</time>
      </trkpt>
      <trkpt lat="47.03872" lon="-1.7056">
        <ele>83</ele>
        <time>2021-07-17T08:23:18.000Z</time>
      </trkpt>
      <trkpt lat="47.03869" lon="-1.70543">
        <ele>83</ele>
        <time>2021-07-17T08:23:20.000Z</time>
      </trkpt>
      <trkpt lat="47.03867" lon="-1.70527">
        <ele>83</ele>
        <time>2021-07-17T08:23:22.000Z</time>
      </trkpt>
      <trkpt lat="47.03866" lon="-1.70511">
        <ele>83</ele>
        <time>2021-07-17T08:23:24.000Z</time>
      </trkpt>
      <trkpt lat="47.03865" lon="-1.70497">
        <ele>83</ele>
        <time>2021-07-17T08:23:26.000Z</time>
      </trkpt>
      <trkpt lat="47.03864" lon="-1.70482">
        <ele>84</ele>
        <time>2021-07-17T08:23:28.000Z</time>
      </trkpt>
      <trkpt lat="47.03864" lon="-1.70467">
        <ele>84</ele>
        <time>2021-07-17T08:23:30.000Z</time>
      </trkpt>
      <trkpt lat="47.03864" lon="-1.70451">
        <ele>85</ele>
        <time>2021-07-17T08:23:32.000Z</time>
      </trkpt>
      <trkpt lat="47.03864" lon="-1.70436">
        <ele>85</ele>
        <time>2021-07-17T08:23:34.000Z</time>
      </trkpt>
      <trkpt lat="47.03865" lon="-1.7042">
        <ele>85</ele>
        <time>2021-07-17T08:23:36.000Z</time>
      </trkpt>
      <trkpt lat="47.03865" lon="-1.70405">
        <ele>85</ele>
        <time>2021-07-17T08:23:38.000Z</time>
      </trkpt>
      <trkpt lat="47.03866" lon="-1.7039">
        <ele>85</ele>
        <time>2021-07-17T08:23:40.000Z</time>
      </trkpt>
      <trkpt lat="47.03866" lon="-1.70375">
        <ele>85</ele>
        <time>2021-07-17T08:23:42.000Z</time>
      </trkpt>
      <trkpt lat="47.03867" lon="-1.70359">
        <ele>85</ele>
        <time>2021-07-17T08:23:44.000Z</time>
      </trkpt>
      <trkpt lat="47.03867" lon="-1.70344">
        <ele>85</ele>
        <time>2021-07-17T08:23:46.000Z</time>
      </trkpt>
      <trkpt lat="47.03868" lon="-1.70328">
        <ele>85</ele>
        <time>2021-07-17T08:23:48.000Z</time>
      </trkpt>
      <trkpt lat="47.03869" lon="-1.70311">
        <ele>84</ele>
        <time>2021-07-17T08:23:50.000Z</time>
      </trkpt>
      <trkpt lat="47.0387" lon="-1.70294">
        <ele>84</ele>
        <time>2021-07-17T08:23:52.000Z</time>
      </trkpt>
      <trkpt lat="47.03871" lon="-1.70276">
        <ele>84</ele>
        <time>2021-07-17T08:23:54.000Z</time>
      </trkpt>
      <trkpt lat="47.03872" lon="-1.70258">
        <ele>84</ele>
        <time>2021-07-17T08:23:56.000Z</time>
      </trkpt>
      <trkpt lat="47.03873" lon="-1.7024">
        <ele>84</ele>
        <time>2021-07-17T08:23:58.000Z</time>
      </trkpt>
      <trkpt lat="47.03874" lon="-1.70221">
        <ele>83</ele>
        <time>2021-07-17T08:24:00.000Z</time>
      </trkpt>
      <trkpt lat="47.03875" lon="-1.70203">
        <ele>83</ele>
        <time>2021-07-17T08:24:02.000Z</time>
      </trkpt>
      <trkpt lat="47.03876" lon="-1.70184">
        <ele>83</ele>
        <time>2021-07-17T08:24:04.000Z</time>
      </trkpt>
      <trkpt lat="47.03877" lon="-1.70164">
        <ele>83</ele>
        <time>2021-07-17T08:24:06.000Z</time>
      </trkpt>
      <trkpt lat="47.03878" lon="-1.70144">
        <ele>82</ele>
        <time>2021-07-17T08:24:08.000Z</time>
      </trkpt>
      <trkpt lat="47.03879" lon="-1.70124">
        <ele>82</ele>
        <time>2021-07-17T08:24:10.000Z</time>
      </trkpt>
      <trkpt lat="47.0388" lon="-1.70104">
        <ele>81</ele>
        <time>2021-07-17T08:24:12.000Z</time>
      </trkpt>
      <trkpt lat="47.0388" lon="-1.70083">
        <ele>81</ele>
        <time>2021-07-17T08:24:14.000Z</time>
      </trkpt>
      <trkpt lat="47.0388" lon="-1.70063">
        <ele>81</ele>
        <time>2021-07-17T08:24:16.000Z</time>
      </trkpt>
      <trkpt lat="47.03877" lon="-1.70044">
        <ele>81</ele>
        <time>2021-07-17T08:24:18.000Z</time>
      </trkpt>
      <trkpt lat="47.03873" lon="-1.70025">
        <ele>81</ele>
        <time>2021-07-17T08:24:20.000Z</time>
      </trkpt>
      <trkpt lat="47.03869" lon="-1.70008">
        <ele>81</ele>
        <time>2021-07-17T08:24:22.000Z</time>
      </trkpt>
      <trkpt lat="47.03862" lon="-1.69991">
        <ele>80</ele>
        <time>2021-07-17T08:24:24.000Z</time>
      </trkpt>
      <trkpt lat="47.03855" lon="-1.69975">
        <ele>81</ele>
        <time>2021-07-17T08:24:26.000Z</time>
      </trkpt>
      <trkpt lat="47.03847" lon="-1.69961">
        <ele>81</ele>
        <time>2021-07-17T08:24:28.000Z</time>
      </trkpt>
      <trkpt lat="47.03839" lon="-1.69946">
        <ele>81</ele>
        <time>2021-07-17T08:24:30.000Z</time>
      </trkpt>
      <trkpt lat="47.03831" lon="-1.69931">
        <ele>81</ele>
        <time>2021-07-17T08:24:32.000Z</time>
      </trkpt>
      <trkpt lat="47.03823" lon="-1.69915">
        <ele>82</ele>
        <time>2021-07-17T08:24:34.000Z</time>
      </trkpt>
      <trkpt lat="47.03815" lon="-1.69901">
        <ele>82</ele>
        <time>2021-07-17T08:24:36.000Z</time>
      </trkpt>
      <trkpt lat="47.03807" lon="-1.69886">
        <ele>82</ele>
        <time>2021-07-17T08:24:38.000Z</time>
      </trkpt>
      <trkpt lat="47.03799" lon="-1.69872">
        <ele>83</ele>
        <time>2021-07-17T08:24:40.000Z</time>
      </trkpt>
      <trkpt lat="47.03792" lon="-1.69857">
        <ele>84</ele>
        <time>2021-07-17T08:24:42.000Z</time>
      </trkpt>
      <trkpt lat="47.03784" lon="-1.69843">
        <ele>84</ele>
        <time>2021-07-17T08:24:44.000Z</time>
      </trkpt>
      <trkpt lat="47.03777" lon="-1.69829">
        <ele>85</ele>
        <time>2021-07-17T08:24:46.000Z</time>
      </trkpt>
      <trkpt lat="47.03771" lon="-1.69815">
        <ele>85</ele>
        <time>2021-07-17T08:24:48.000Z</time>
      </trkpt>
      <trkpt lat="47.03764" lon="-1.69801">
        <ele>85</ele>
        <time>2021-07-17T08:24:50.000Z</time>
      </trkpt>
      <trkpt lat="47.03757" lon="-1.69787">
        <ele>85</ele>
        <time>2021-07-17T08:24:52.000Z</time>
      </trkpt>
      <trkpt lat="47.03751" lon="-1.69774">
        <ele>86</ele>
        <time>2021-07-17T08:24:54.000Z</time>
      </trkpt>
      <trkpt lat="47.03744" lon="-1.69761">
        <ele>86</ele>
        <time>2021-07-17T08:24:56.000Z</time>
      </trkpt>
      <trkpt lat="47.03738" lon="-1.69747">
        <ele>85</ele>
        <time>2021-07-17T08:24:58.000Z</time>
      </trkpt>
      <trkpt lat="47.03731" lon="-1.69734">
        <ele>85</ele>
        <time>2021-07-17T08:25:00.000Z</time>
      </trkpt>
      <trkpt lat="47.03724" lon="-1.69721">
        <ele>85</ele>
        <time>2021-07-17T08:25:02.000Z</time>
      </trkpt>
      <trkpt lat="47.03718" lon="-1.69709">
        <ele>85</ele>
        <time>2021-07-17T08:25:04.000Z</time>
      </trkpt>
      <trkpt lat="47.03711" lon="-1.69696">
        <ele>85</ele>
        <time>2021-07-17T08:25:06.000Z</time>
      </trkpt>
      <trkpt lat="47.03704" lon="-1.69683">
        <ele>85</ele>
        <time>2021-07-17T08:25:08.000Z</time>
      </trkpt>
      <trkpt lat="47.03697" lon="-1.69669">
        <ele>85</ele>
        <time>2021-07-17T08:25:10.000Z</time>
      </trkpt>
      <trkpt lat="47.0369" lon="-1.69656">
        <ele>86</ele>
        <time>2021-07-17T08:25:12.000Z</time>
      </trkpt>
      <trkpt lat="47.03684" lon="-1.69642">
        <ele>85</ele>
        <time>2021-07-17T08:25:14.000Z</time>
      </trkpt>
      <trkpt lat="47.03677" lon="-1.69629">
        <ele>85</ele>
        <time>2021-07-17T08:25:16.000Z</time>
      </trkpt>
      <trkpt lat="47.0367" lon="-1.69616">
        <ele>85</ele>
        <time>2021-07-17T08:25:18.000Z</time>
      </trkpt>
      <trkpt lat="47.03664" lon="-1.69602">
        <ele>84</ele>
        <time>2021-07-17T08:25:20.000Z</time>
      </trkpt>
      <trkpt lat="47.03658" lon="-1.69587">
        <ele>84</ele>
        <time>2021-07-17T08:25:22.000Z</time>
      </trkpt>
      <trkpt lat="47.03652" lon="-1.69572">
        <ele>84</ele>
        <time>2021-07-17T08:25:24.000Z</time>
      </trkpt>
      <trkpt lat="47.03647" lon="-1.69557">
        <ele>84</ele>
        <time>2021-07-17T08:25:26.000Z</time>
      </trkpt>
      <trkpt lat="47.03643" lon="-1.69542">
        <ele>84</ele>
        <time>2021-07-17T08:25:28.000Z</time>
      </trkpt>
      <trkpt lat="47.0364" lon="-1.69525">
        <ele>84</ele>
        <time>2021-07-17T08:25:30.000Z</time>
      </trkpt>
      <trkpt lat="47.03637" lon="-1.69508">
        <ele>84</ele>
        <time>2021-07-17T08:25:32.000Z</time>
      </trkpt>
      <trkpt lat="47.03633" lon="-1.69491">
        <ele>84</ele>
        <time>2021-07-17T08:25:34.000Z</time>
      </trkpt>
      <trkpt lat="47.0363" lon="-1.69474">
        <ele>84</ele>
        <time>2021-07-17T08:25:36.000Z</time>
      </trkpt>
      <trkpt lat="47.03627" lon="-1.69457">
        <ele>84</ele>
        <time>2021-07-17T08:25:38.000Z</time>
      </trkpt>
      <trkpt lat="47.03624" lon="-1.69441">
        <ele>84</ele>
        <time>2021-07-17T08:25:40.000Z</time>
      </trkpt>
      <trkpt lat="47.03621" lon="-1.69424">
        <ele>85</ele>
        <time>2021-07-17T08:25:42.000Z</time>
      </trkpt>
      <trkpt lat="47.03618" lon="-1.69407">
        <ele>84</ele>
        <time>2021-07-17T08:25:44.000Z</time>
      </trkpt>
      <trkpt lat="47.03616" lon="-1.69391">
        <ele>85</ele>
        <time>2021-07-17T08:25:46.000Z</time>
      </trkpt>
      <trkpt lat="47.03613" lon="-1.69374">
        <ele>85</ele>
        <time>2021-07-17T08:25:48.000Z</time>
      </trkpt>
      <trkpt lat="47.0361" lon="-1.69358">
        <ele>85</ele>
        <time>2021-07-17T08:25:50.000Z</time>
      </trkpt>
      <trkpt lat="47.03607" lon="-1.69342">
        <ele>85</ele>
        <time>2021-07-17T08:25:52.000Z</time>
      </trkpt>
      <trkpt lat="47.03604" lon="-1.69325">
        <ele>85</ele>
        <time>2021-07-17T08:25:54.000Z</time>
      </trkpt>
      <trkpt lat="47.03602" lon="-1.69308">
        <ele>85</ele>
        <time>2021-07-17T08:25:56.000Z</time>
      </trkpt>
      <trkpt lat="47.03599" lon="-1.69292">
        <ele>85</ele>
        <time>2021-07-17T08:25:58.000Z</time>
      </trkpt>
      <trkpt lat="47.03596" lon="-1.69275">
        <ele>85</ele>
        <time>2021-07-17T08:26:00.000Z</time>
      </trkpt>
      <trkpt lat="47.03593" lon="-1.69258">
        <ele>85</ele>
        <time>2021-07-17T08:26:02.000Z</time>
      </trkpt>
      <trkpt lat="47.0359" lon="-1.69242">
        <ele>85</ele>
        <time>2021-07-17T08:26:04.000Z</time>
      </trkpt>
      <trkpt lat="47.03587" lon="-1.69225">
        <ele>86</ele>
        <time>2021-07-17T08:26:06.000Z</time>
      </trkpt>
      <trkpt lat="47.03584" lon="-1.69209">
        <ele>86</ele>
        <time>2021-07-17T08:26:08.000Z</time>
      </trkpt>
      <trkpt lat="47.03581" lon="-1.69193">
        <ele>86</ele>
        <time>2021-07-17T08:26:10.000Z</time>
      </trkpt>
      <trkpt lat="47.03578" lon="-1.69175">
        <ele>86</ele>
        <time>2021-07-17T08:26:12.000Z</time>
      </trkpt>
      <trkpt lat="47.03575" lon="-1.69158">
        <ele>86</ele>
        <time>2021-07-17T08:26:14.000Z</time>
      </trkpt>
      <trkpt lat="47.03572" lon="-1.6914">
        <ele>86</ele>
        <time>2021-07-17T08:26:16.000Z</time>
      </trkpt>
      <trkpt lat="47.03569" lon="-1.69123">
        <ele>86</ele>
        <time>2021-07-17T08:26:18.000Z</time>
      </trkpt>
      <trkpt lat="47.03566" lon="-1.69106">
        <ele>87</ele>
        <time>2021-07-17T08:26:20.000Z</time>
      </trkpt>
      <trkpt lat="47.03562" lon="-1.69089">
        <ele>87</ele>
        <time>2021-07-17T08:26:22.000Z</time>
      </trkpt>
      <trkpt lat="47.0356" lon="-1.69072">
        <ele>87</ele>
        <time>2021-07-17T08:26:24.000Z</time>
      </trkpt>
      <trkpt lat="47.03556" lon="-1.69056">
        <ele>87</ele>
        <time>2021-07-17T08:26:26.000Z</time>
      </trkpt>
      <trkpt lat="47.03554" lon="-1.69039">
        <ele>87</ele>
        <time>2021-07-17T08:26:28.000Z</time>
      </trkpt>
      <trkpt lat="47.03553" lon="-1.69022">
        <ele>87</ele>
        <time>2021-07-17T08:26:30.000Z</time>
      </trkpt>
      <trkpt lat="47.03551" lon="-1.69004">
        <ele>86</ele>
        <time>2021-07-17T08:26:32.000Z</time>
      </trkpt>
      <trkpt lat="47.0355" lon="-1.68986">
        <ele>86</ele>
        <time>2021-07-17T08:26:34.000Z</time>
      </trkpt>
      <trkpt lat="47.03549" lon="-1.68967">
        <ele>86</ele>
        <time>2021-07-17T08:26:36.000Z</time>
      </trkpt>
      <trkpt lat="47.03548" lon="-1.68948">
        <ele>86</ele>
        <time>2021-07-17T08:26:38.000Z</time>
      </trkpt>
      <trkpt lat="47.03547" lon="-1.68929">
        <ele>86</ele>
        <time>2021-07-17T08:26:40.000Z</time>
      </trkpt>
      <trkpt lat="47.03546" lon="-1.68908">
        <ele>86</ele>
        <time>2021-07-17T08:26:42.000Z</time>
      </trkpt>
      <trkpt lat="47.03545" lon="-1.68888">
        <ele>86</ele>
        <time>2021-07-17T08:26:44.000Z</time>
      </trkpt>
      <trkpt lat="47.03543" lon="-1.68868">
        <ele>86</ele>
        <time>2021-07-17T08:26:46.000Z</time>
      </trkpt>
      <trkpt lat="47.03542" lon="-1.68848">
        <ele>85</ele>
        <time>2021-07-17T08:26:48.000Z</time>
      </trkpt>
      <trkpt lat="47.03541" lon="-1.68826">
        <ele>85</ele>
        <time>2021-07-17T08:26:50.000Z</time>
      </trkpt>
      <trkpt lat="47.03541" lon="-1.68804">
        <ele>84</ele>
        <time>2021-07-17T08:26:52.000Z</time>
      </trkpt>
      <trkpt lat="47.0354" lon="-1.68785">
        <ele>85</ele>
        <time>2021-07-17T08:26:54.000Z</time>
      </trkpt>
      <trkpt lat="47.0354" lon="-1.68766">
        <ele>85</ele>
        <time>2021-07-17T08:26:56.000Z</time>
      </trkpt>
      <trkpt lat="47.03539" lon="-1.68747">
        <ele>85</ele>
        <time>2021-07-17T08:26:58.000Z</time>
      </trkpt>
      <trkpt lat="47.03538" lon="-1.68729">
        <ele>85</ele>
        <time>2021-07-17T08:27:00.000Z</time>
      </trkpt>
      <trkpt lat="47.03537" lon="-1.68711">
        <ele>85</ele>
        <time>2021-07-17T08:27:02.000Z</time>
      </trkpt>
      <trkpt lat="47.03536" lon="-1.68693">
        <ele>85</ele>
        <time>2021-07-17T08:27:04.000Z</time>
      </trkpt>
      <trkpt lat="47.03536" lon="-1.68675">
        <ele>85</ele>
        <time>2021-07-17T08:27:06.000Z</time>
      </trkpt>
      <trkpt lat="47.03535" lon="-1.68657">
        <ele>85</ele>
        <time>2021-07-17T08:27:08.000Z</time>
      </trkpt>
      <trkpt lat="47.03534" lon="-1.68639">
        <ele>85</ele>
        <time>2021-07-17T08:27:10.000Z</time>
      </trkpt>
      <trkpt lat="47.03533" lon="-1.68621">
        <ele>84</ele>
        <time>2021-07-17T08:27:12.000Z</time>
      </trkpt>
      <trkpt lat="47.03533" lon="-1.68603">
        <ele>84</ele>
        <time>2021-07-17T08:27:14.000Z</time>
      </trkpt>
      <trkpt lat="47.03532" lon="-1.68585">
        <ele>84</ele>
        <time>2021-07-17T08:27:16.000Z</time>
      </trkpt>
      <trkpt lat="47.03531" lon="-1.68566">
        <ele>85</ele>
        <time>2021-07-17T08:27:18.000Z</time>
      </trkpt>
      <trkpt lat="47.0353" lon="-1.68548">
        <ele>85</ele>
        <time>2021-07-17T08:27:20.000Z</time>
      </trkpt>
      <trkpt lat="47.03529" lon="-1.68529">
        <ele>84</ele>
        <time>2021-07-17T08:27:22.000Z</time>
      </trkpt>
      <trkpt lat="47.03528" lon="-1.68511">
        <ele>84</ele>
        <time>2021-07-17T08:27:24.000Z</time>
      </trkpt>
      <trkpt lat="47.03527" lon="-1.68493">
        <ele>84</ele>
        <time>2021-07-17T08:27:26.000Z</time>
      </trkpt>
      <trkpt lat="47.03527" lon="-1.68475">
        <ele>85</ele>
        <time>2021-07-17T08:27:28.000Z</time>
      </trkpt>
      <trkpt lat="47.03526" lon="-1.68456">
        <ele>85</ele>
        <time>2021-07-17T08:27:30.000Z</time>
      </trkpt>
      <trkpt lat="47.03525" lon="-1.68438">
        <ele>85</ele>
        <time>2021-07-17T08:27:32.000Z</time>
      </trkpt>
      <trkpt lat="47.03524" lon="-1.68421">
        <ele>85</ele>
        <time>2021-07-17T08:27:34.000Z</time>
      </trkpt>
      <trkpt lat="47.03523" lon="-1.68405">
        <ele>85</ele>
        <time>2021-07-17T08:27:36.000Z</time>
      </trkpt>
      <trkpt lat="47.03522" lon="-1.68387">
        <ele>85</ele>
        <time>2021-07-17T08:27:38.000Z</time>
      </trkpt>
      <trkpt lat="47.03522" lon="-1.68369">
        <ele>85</ele>
        <time>2021-07-17T08:27:40.000Z</time>
      </trkpt>
      <trkpt lat="47.03521" lon="-1.68352">
        <ele>85</ele>
        <time>2021-07-17T08:27:42.000Z</time>
      </trkpt>
      <trkpt lat="47.0352" lon="-1.68334">
        <ele>84</ele>
        <time>2021-07-17T08:27:44.000Z</time>
      </trkpt>
      <trkpt lat="47.03519" lon="-1.68316">
        <ele>84</ele>
        <time>2021-07-17T08:27:46.000Z</time>
      </trkpt>
      <trkpt lat="47.03519" lon="-1.68298">
        <ele>84</ele>
        <time>2021-07-17T08:27:48.000Z</time>
      </trkpt>
      <trkpt lat="47.03519" lon="-1.6828">
        <ele>84</ele>
        <time>2021-07-17T08:27:50.000Z</time>
      </trkpt>
      <trkpt lat="47.03519" lon="-1.68262">
        <ele>84</ele>
        <time>2021-07-17T08:27:52.000Z</time>
      </trkpt>
      <trkpt lat="47.03519" lon="-1.68242">
        <ele>84</ele>
        <time>2021-07-17T08:27:54.000Z</time>
      </trkpt>
      <trkpt lat="47.03519" lon="-1.68223">
        <ele>83</ele>
        <time>2021-07-17T08:27:56.000Z</time>
      </trkpt>
      <trkpt lat="47.03518" lon="-1.68202">
        <ele>83</ele>
        <time>2021-07-17T08:27:58.000Z</time>
      </trkpt>
      <trkpt lat="47.03518" lon="-1.68181">
        <ele>82</ele>
        <time>2021-07-17T08:28:00.000Z</time>
      </trkpt>
      <trkpt lat="47.03518" lon="-1.68159">
        <ele>81</ele>
        <time>2021-07-17T08:28:02.000Z</time>
      </trkpt>
      <trkpt lat="47.03517" lon="-1.68137">
        <ele>80</ele>
        <time>2021-07-17T08:28:04.000Z</time>
      </trkpt>
      <trkpt lat="47.03517" lon="-1.68114">
        <ele>79</ele>
        <time>2021-07-17T08:28:06.000Z</time>
      </trkpt>
      <trkpt lat="47.03517" lon="-1.6809">
        <ele>79</ele>
        <time>2021-07-17T08:28:08.000Z</time>
      </trkpt>
      <trkpt lat="47.03518" lon="-1.68067">
        <ele>79</ele>
        <time>2021-07-17T08:28:10.000Z</time>
      </trkpt>
      <trkpt lat="47.03518" lon="-1.68045">
        <ele>79</ele>
        <time>2021-07-17T08:28:12.000Z</time>
      </trkpt>
      <trkpt lat="47.03518" lon="-1.68023">
        <ele>78</ele>
        <time>2021-07-17T08:28:14.000Z</time>
      </trkpt>
      <trkpt lat="47.03518" lon="-1.68003">
        <ele>78</ele>
        <time>2021-07-17T08:28:16.000Z</time>
      </trkpt>
      <trkpt lat="47.03518" lon="-1.67982">
        <ele>79</ele>
        <time>2021-07-17T08:28:18.000Z</time>
      </trkpt>
      <trkpt lat="47.03518" lon="-1.67963">
        <ele>79</ele>
        <time>2021-07-17T08:28:20.000Z</time>
      </trkpt>
      <trkpt lat="47.03518" lon="-1.67944">
        <ele>79</ele>
        <time>2021-07-17T08:28:22.000Z</time>
      </trkpt>
      <trkpt lat="47.03518" lon="-1.67924">
        <ele>79</ele>
        <time>2021-07-17T08:28:24.000Z</time>
      </trkpt>
      <trkpt lat="47.03518" lon="-1.67904">
        <ele>79</ele>
        <time>2021-07-17T08:28:26.000Z</time>
      </trkpt>
      <trkpt lat="47.03518" lon="-1.67883">
        <ele>79</ele>
        <time>2021-07-17T08:28:28.000Z</time>
      </trkpt>
      <trkpt lat="47.03518" lon="-1.67862">
        <ele>79</ele>
        <time>2021-07-17T08:28:30.000Z</time>
      </trkpt>
      <trkpt lat="47.03518" lon="-1.67841">
        <ele>79</ele>
        <time>2021-07-17T08:28:32.000Z</time>
      </trkpt>
      <trkpt lat="47.03518" lon="-1.6782">
        <ele>79</ele>
        <time>2021-07-17T08:28:34.000Z</time>
      </trkpt>
      <trkpt lat="47.03518" lon="-1.678">
        <ele>78</ele>
        <time>2021-07-17T08:28:36.000Z</time>
      </trkpt>
      <trkpt lat="47.03517" lon="-1.67779">
        <ele>78</ele>
        <time>2021-07-17T08:28:38.000Z</time>
      </trkpt>
      <trkpt lat="47.03517" lon="-1.67758">
        <ele>78</ele>
        <time>2021-07-17T08:28:40.000Z</time>
      </trkpt>
      <trkpt lat="47.03517" lon="-1.67737">
        <ele>78</ele>
        <time>2021-07-17T08:28:42.000Z</time>
      </trkpt>
      <trkpt lat="47.03516" lon="-1.67716">
        <ele>77</ele>
        <time>2021-07-17T08:28:44.000Z</time>
      </trkpt>
      <trkpt lat="47.03516" lon="-1.67695">
        <ele>77</ele>
        <time>2021-07-17T08:28:46.000Z</time>
      </trkpt>
      <trkpt lat="47.03516" lon="-1.67675">
        <ele>76</ele>
        <time>2021-07-17T08:28:48.000Z</time>
      </trkpt>
      <trkpt lat="47.03515" lon="-1.67655">
        <ele>76</ele>
        <time>2021-07-17T08:28:50.000Z</time>
      </trkpt>
      <trkpt lat="47.03515" lon="-1.67635">
        <ele>76</ele>
        <time>2021-07-17T08:28:52.000Z</time>
      </trkpt>
      <trkpt lat="47.03515" lon="-1.67614">
        <ele>75</ele>
        <time>2021-07-17T08:28:54.000Z</time>
      </trkpt>
      <trkpt lat="47.03515" lon="-1.67592">
        <ele>74</ele>
        <time>2021-07-17T08:28:56.000Z</time>
      </trkpt>
      <trkpt lat="47.03515" lon="-1.6757">
        <ele>73</ele>
        <time>2021-07-17T08:28:58.000Z</time>
      </trkpt>
      <trkpt lat="47.03515" lon="-1.67549">
        <ele>73</ele>
        <time>2021-07-17T08:29:00.000Z</time>
      </trkpt>
      <trkpt lat="47.03515" lon="-1.67526">
        <ele>72</ele>
        <time>2021-07-17T08:29:02.000Z</time>
      </trkpt>
      <trkpt lat="47.03514" lon="-1.67503">
        <ele>72</ele>
        <time>2021-07-17T08:29:04.000Z</time>
      </trkpt>
      <trkpt lat="47.03514" lon="-1.67481">
        <ele>71</ele>
        <time>2021-07-17T08:29:06.000Z</time>
      </trkpt>
      <trkpt lat="47.03515" lon="-1.67457">
        <ele>70</ele>
        <time>2021-07-17T08:29:08.000Z</time>
      </trkpt>
      <trkpt lat="47.03514" lon="-1.67434">
        <ele>70</ele>
        <time>2021-07-17T08:29:10.000Z</time>
      </trkpt>
      <trkpt lat="47.03514" lon="-1.6741">
        <ele>69</ele>
        <time>2021-07-17T08:29:12.000Z</time>
      </trkpt>
      <trkpt lat="47.03514" lon="-1.67387">
        <ele>69</ele>
        <time>2021-07-17T08:29:14.000Z</time>
      </trkpt>
      <trkpt lat="47.03514" lon="-1.67366">
        <ele>69</ele>
        <time>2021-07-17T08:29:16.000Z</time>
      </trkpt>
      <trkpt lat="47.03513" lon="-1.67344">
        <ele>69</ele>
        <time>2021-07-17T08:29:18.000Z</time>
      </trkpt>
      <trkpt lat="47.03513" lon="-1.67322">
        <ele>69</ele>
        <time>2021-07-17T08:29:20.000Z</time>
      </trkpt>
      <trkpt lat="47.03513" lon="-1.67301">
        <ele>69</ele>
        <time>2021-07-17T08:29:22.000Z</time>
      </trkpt>
      <trkpt lat="47.03513" lon="-1.6728">
        <ele>68</ele>
        <time>2021-07-17T08:29:24.000Z</time>
      </trkpt>
      <trkpt lat="47.03513" lon="-1.6726">
        <ele>68</ele>
        <time>2021-07-17T08:29:26.000Z</time>
      </trkpt>
      <trkpt lat="47.03513" lon="-1.6724">
        <ele>68</ele>
        <time>2021-07-17T08:29:28.000Z</time>
      </trkpt>
      <trkpt lat="47.03512" lon="-1.6722">
        <ele>68</ele>
        <time>2021-07-17T08:29:30.000Z</time>
      </trkpt>
      <trkpt lat="47.03511" lon="-1.67201">
        <ele>69</ele>
        <time>2021-07-17T08:29:32.000Z</time>
      </trkpt>
      <trkpt lat="47.0351" lon="-1.67182">
        <ele>69</ele>
        <time>2021-07-17T08:29:34.000Z</time>
      </trkpt>
      <trkpt lat="47.03508" lon="-1.67163">
        <ele>69</ele>
        <time>2021-07-17T08:29:36.000Z</time>
      </trkpt>
      <trkpt lat="47.03506" lon="-1.67143">
        <ele>69</ele>
        <time>2021-07-17T08:29:38.000Z</time>
      </trkpt>
      <trkpt lat="47.03503" lon="-1.67124">
        <ele>69</ele>
        <time>2021-07-17T08:29:40.000Z</time>
      </trkpt>
      <trkpt lat="47.035" lon="-1.67105">
        <ele>69</ele>
        <time>2021-07-17T08:29:42.000Z</time>
      </trkpt>
      <trkpt lat="47.03497" lon="-1.67085">
        <ele>70</ele>
        <time>2021-07-17T08:29:44.000Z</time>
      </trkpt>
      <trkpt lat="47.03494" lon="-1.67065">
        <ele>70</ele>
        <time>2021-07-17T08:29:46.000Z</time>
      </trkpt>
      <trkpt lat="47.03491" lon="-1.67046">
        <ele>70</ele>
        <time>2021-07-17T08:29:48.000Z</time>
      </trkpt>
      <trkpt lat="47.03488" lon="-1.67027">
        <ele>70</ele>
        <time>2021-07-17T08:29:50.000Z</time>
      </trkpt>
      <trkpt lat="47.03485" lon="-1.67009">
        <ele>70</ele>
        <time>2021-07-17T08:29:52.000Z</time>
      </trkpt>
      <trkpt lat="47.03483" lon="-1.6699">
        <ele>70</ele>
        <time>2021-07-17T08:29:54.000Z</time>
      </trkpt>
      <trkpt lat="47.03481" lon="-1.66971">
        <ele>70</ele>
        <time>2021-07-17T08:29:56.000Z</time>
      </trkpt>
      <trkpt lat="47.03481" lon="-1.66951">
        <ele>70</ele>
        <time>2021-07-17T08:29:58.000Z</time>
      </trkpt>
      <trkpt lat="47.03481" lon="-1.66931">
        <ele>70</ele>
        <time>2021-07-17T08:30:00.000Z</time>
      </trkpt>
      <trkpt lat="47.03481" lon="-1.6691">
        <ele>69</ele>
        <time>2021-07-17T08:30:02.000Z</time>
      </trkpt>
      <trkpt lat="47.03481" lon="-1.66889">
        <ele>69</ele>
        <time>2021-07-17T08:30:04.000Z</time>
      </trkpt>
      <trkpt lat="47.03483" lon="-1.66868">
        <ele>69</ele>
        <time>2021-07-17T08:30:06.000Z</time>
      </trkpt>
      <trkpt lat="47.03484" lon="-1.66847">
        <ele>69</ele>
        <time>2021-07-17T08:30:08.000Z</time>
      </trkpt>
      <trkpt lat="47.03485" lon="-1.66825">
        <ele>69</ele>
        <time>2021-07-17T08:30:10.000Z</time>
      </trkpt>
      <trkpt lat="47.03486" lon="-1.66804">
        <ele>69</ele>
        <time>2021-07-17T08:30:12.000Z</time>
      </trkpt>
      <trkpt lat="47.03487" lon="-1.66783">
        <ele>68</ele>
        <time>2021-07-17T08:30:14.000Z</time>
      </trkpt>
      <trkpt lat="47.03488" lon="-1.66762">
        <ele>69</ele>
        <time>2021-07-17T08:30:16.000Z</time>
      </trkpt>
      <trkpt lat="47.03489" lon="-1.66741">
        <ele>68</ele>
        <time>2021-07-17T08:30:18.000Z</time>
      </trkpt>
      <trkpt lat="47.0349" lon="-1.66719">
        <ele>68</ele>
        <time>2021-07-17T08:30:20.000Z</time>
      </trkpt>
      <trkpt lat="47.03491" lon="-1.66698">
        <ele>68</ele>
        <time>2021-07-17T08:30:22.000Z</time>
      </trkpt>
      <trkpt lat="47.03491" lon="-1.66678">
        <ele>68</ele>
        <time>2021-07-17T08:30:24.000Z</time>
      </trkpt>
      <trkpt lat="47.0349" lon="-1.66657">
        <ele>68</ele>
        <time>2021-07-17T08:30:26.000Z</time>
      </trkpt>
      <trkpt lat="47.03489" lon="-1.66637">
        <ele>68</ele>
        <time>2021-07-17T08:30:28.000Z</time>
      </trkpt>
      <trkpt lat="47.03488" lon="-1.66618">
        <ele>67</ele>
        <time>2021-07-17T08:30:30.000Z</time>
      </trkpt>
      <trkpt lat="47.03487" lon="-1.666">
        <ele>67</ele>
        <time>2021-07-17T08:30:32.000Z</time>
      </trkpt>
      <trkpt lat="47.03486" lon="-1.66582">
        <ele>67</ele>
        <time>2021-07-17T08:30:34.000Z</time>
      </trkpt>
      <trkpt lat="47.03484" lon="-1.66565">
        <ele>68</ele>
        <time>2021-07-17T08:30:36.000Z</time>
      </trkpt>
      <trkpt lat="47.03483" lon="-1.66547">
        <ele>68</ele>
        <time>2021-07-17T08:30:38.000Z</time>
      </trkpt>
      <trkpt lat="47.03482" lon="-1.6653">
        <ele>68</ele>
        <time>2021-07-17T08:30:40.000Z</time>
      </trkpt>
      <trkpt lat="47.03481" lon="-1.66512">
        <ele>68</ele>
        <time>2021-07-17T08:30:42.000Z</time>
      </trkpt>
      <trkpt lat="47.0348" lon="-1.66494">
        <ele>69</ele>
        <time>2021-07-17T08:30:44.000Z</time>
      </trkpt>
      <trkpt lat="47.03479" lon="-1.66476">
        <ele>69</ele>
        <time>2021-07-17T08:30:46.000Z</time>
      </trkpt>
      <trkpt lat="47.03478" lon="-1.66459">
        <ele>70</ele>
        <time>2021-07-17T08:30:48.000Z</time>
      </trkpt>
      <trkpt lat="47.03477" lon="-1.66441">
        <ele>70</ele>
        <time>2021-07-17T08:30:50.000Z</time>
      </trkpt>
      <trkpt lat="47.03476" lon="-1.66423">
        <ele>71</ele>
        <time>2021-07-17T08:30:52.000Z</time>
      </trkpt>
      <trkpt lat="47.03475" lon="-1.66405">
        <ele>71</ele>
        <time>2021-07-17T08:30:54.000Z</time>
      </trkpt>
      <trkpt lat="47.03474" lon="-1.66387">
        <ele>71</ele>
        <time>2021-07-17T08:30:56.000Z</time>
      </trkpt>
      <trkpt lat="47.03473" lon="-1.66368">
        <ele>71</ele>
        <time>2021-07-17T08:30:58.000Z</time>
      </trkpt>
      <trkpt lat="47.03472" lon="-1.66349">
        <ele>72</ele>
        <time>2021-07-17T08:31:00.000Z</time>
      </trkpt>
      <trkpt lat="47.0347" lon="-1.6633">
        <ele>72</ele>
        <time>2021-07-17T08:31:02.000Z</time>
      </trkpt>
      <trkpt lat="47.03469" lon="-1.6631">
        <ele>72</ele>
        <time>2021-07-17T08:31:04.000Z</time>
      </trkpt>
      <trkpt lat="47.03468" lon="-1.6629">
        <ele>72</ele>
        <time>2021-07-17T08:31:06.000Z</time>
      </trkpt>
      <trkpt lat="47.03467" lon="-1.66271">
        <ele>71</ele>
        <time>2021-07-17T08:31:08.000Z</time>
      </trkpt>
      <trkpt lat="47.03465" lon="-1.6625">
        <ele>71</ele>
        <time>2021-07-17T08:31:10.000Z</time>
      </trkpt>
      <trkpt lat="47.03464" lon="-1.66229">
        <ele>70</ele>
        <time>2021-07-17T08:31:12.000Z</time>
      </trkpt>
      <trkpt lat="47.03463" lon="-1.66208">
        <ele>70</ele>
        <time>2021-07-17T08:31:14.000Z</time>
      </trkpt>
      <trkpt lat="47.03462" lon="-1.66187">
        <ele>70</ele>
        <time>2021-07-17T08:31:16.000Z</time>
      </trkpt>
      <trkpt lat="47.03461" lon="-1.66166">
        <ele>69</ele>
        <time>2021-07-17T08:31:18.000Z</time>
      </trkpt>
      <trkpt lat="47.03459" lon="-1.66145">
        <ele>69</ele>
        <time>2021-07-17T08:31:20.000Z</time>
      </trkpt>
      <trkpt lat="47.03456" lon="-1.66124">
        <ele>69</ele>
        <time>2021-07-17T08:31:22.000Z</time>
      </trkpt>
      <trkpt lat="47.03449" lon="-1.66106">
        <ele>68</ele>
        <time>2021-07-17T08:31:24.000Z</time>
      </trkpt>
      <trkpt lat="47.03439" lon="-1.66092">
        <ele>69</ele>
        <time>2021-07-17T08:31:26.000Z</time>
      </trkpt>
      <trkpt lat="47.03425" lon="-1.66088">
        <ele>68</ele>
        <time>2021-07-17T08:31:28.000Z</time>
      </trkpt>
      <trkpt lat="47.03412" lon="-1.66094">
        <ele>68</ele>
        <time>2021-07-17T08:31:30.000Z</time>
      </trkpt>
      <trkpt lat="47.03399" lon="-1.66097">
        <ele>68</ele>
        <time>2021-07-17T08:31:32.000Z</time>
      </trkpt>
      <trkpt lat="47.03388" lon="-1.66088">
        <ele>68</ele>
        <time>2021-07-17T08:31:34.000Z</time>
      </trkpt>
      <trkpt lat="47.03382" lon="-1.66071">
        <ele>68</ele>
        <time>2021-07-17T08:31:36.000Z</time>
      </trkpt>
      <trkpt lat="47.03382" lon="-1.66053">
        <ele>69</ele>
        <time>2021-07-17T08:31:38.000Z</time>
      </trkpt>
      <trkpt lat="47.03387" lon="-1.66038">
        <ele>69</ele>
        <time>2021-07-17T08:31:40.000Z</time>
      </trkpt>
      <trkpt lat="47.03395" lon="-1.66023">
        <ele>69</ele>
        <time>2021-07-17T08:31:42.000Z</time>
      </trkpt>
      <trkpt lat="47.034" lon="-1.66007">
        <ele>68</ele>
        <time>2021-07-17T08:31:44.000Z</time>
      </trkpt>
      <trkpt lat="47.034" lon="-1.65988">
        <ele>69</ele>
        <time>2021-07-17T08:31:46.000Z</time>
      </trkpt>
      <trkpt lat="47.03399" lon="-1.6597">
        <ele>69</ele>
        <time>2021-07-17T08:31:48.000Z</time>
      </trkpt>
      <trkpt lat="47.03398" lon="-1.65953">
        <ele>70</ele>
        <time>2021-07-17T08:31:50.000Z</time>
      </trkpt>
      <trkpt lat="47.03398" lon="-1.65935">
        <ele>70</ele>
        <time>2021-07-17T08:31:52.000Z</time>
      </trkpt>
      <trkpt lat="47.03396" lon="-1.65919">
        <ele>70</ele>
        <time>2021-07-17T08:31:54.000Z</time>
      </trkpt>
      <trkpt lat="47.03393" lon="-1.65902">
        <ele>71</ele>
        <time>2021-07-17T08:31:56.000Z</time>
      </trkpt>
      <trkpt lat="47.03389" lon="-1.65887">
        <ele>71</ele>
        <time>2021-07-17T08:31:58.000Z</time>
      </trkpt>
      <trkpt lat="47.03383" lon="-1.65872">
        <ele>72</ele>
        <time>2021-07-17T08:32:00.000Z</time>
      </trkpt>
      <trkpt lat="47.03376" lon="-1.65857">
        <ele>72</ele>
        <time>2021-07-17T08:32:02.000Z</time>
      </trkpt>
      <trkpt lat="47.0337" lon="-1.65843">
        <ele>73</ele>
        <time>2021-07-17T08:32:04.000Z</time>
      </trkpt>
      <trkpt lat="47.03363" lon="-1.65829">
        <ele>73</ele>
        <time>2021-07-17T08:32:06.000Z</time>
      </trkpt>
      <trkpt lat="47.03357" lon="-1.65816">
        <ele>73</ele>
        <time>2021-07-17T08:32:08.000Z</time>
      </trkpt>
      <trkpt lat="47.0335" lon="-1.65802">
        <ele>73</ele>
        <time>2021-07-17T08:32:10.000Z</time>
      </trkpt>
      <trkpt lat="47.03344" lon="-1.65788">
        <ele>73</ele>
        <time>2021-07-17T08:32:12.000Z</time>
      </trkpt>
      <trkpt lat="47.03337" lon="-1.65774">
        <ele>72</ele>
        <time>2021-07-17T08:32:14.000Z</time>
      </trkpt>
      <trkpt lat="47.03331" lon="-1.65759">
        <ele>72</ele>
        <time>2021-07-17T08:32:16.000Z</time>
      </trkpt>
      <trkpt lat="47.03324" lon="-1.65743">
        <ele>72</ele>
        <time>2021-07-17T08:32:18.000Z</time>
      </trkpt>
      <trkpt lat="47.03319" lon="-1.65726">
        <ele>71</ele>
        <time>2021-07-17T08:32:20.000Z</time>
      </trkpt>
      <trkpt lat="47.03315" lon="-1.6571">
        <ele>71</ele>
        <time>2021-07-17T08:32:22.000Z</time>
      </trkpt>
      <trkpt lat="47.03313" lon="-1.65692">
        <ele>71</ele>
        <time>2021-07-17T08:32:24.000Z</time>
      </trkpt>
      <trkpt lat="47.03311" lon="-1.65673">
        <ele>71</ele>
        <time>2021-07-17T08:32:26.000Z</time>
      </trkpt>
      <trkpt lat="47.03311" lon="-1.65654">
        <ele>70</ele>
        <time>2021-07-17T08:32:28.000Z</time>
      </trkpt>
      <trkpt lat="47.03312" lon="-1.65635">
        <ele>70</ele>
        <time>2021-07-17T08:32:30.000Z</time>
      </trkpt>
      <trkpt lat="47.03312" lon="-1.65616">
        <ele>70</ele>
        <time>2021-07-17T08:32:32.000Z</time>
      </trkpt>
      <trkpt lat="47.03307" lon="-1.65599">
        <ele>70</ele>
        <time>2021-07-17T08:32:34.000Z</time>
      </trkpt>
      <trkpt lat="47.03302" lon="-1.65581">
        <ele>70</ele>
        <time>2021-07-17T08:32:36.000Z</time>
      </trkpt>
      <trkpt lat="47.03303" lon="-1.65562">
        <ele>70</ele>
        <time>2021-07-17T08:32:38.000Z</time>
      </trkpt>
      <trkpt lat="47.03308" lon="-1.65545">
        <ele>69</ele>
        <time>2021-07-17T08:32:40.000Z</time>
      </trkpt>
      <trkpt lat="47.03308" lon="-1.65526">
        <ele>69</ele>
        <time>2021-07-17T08:32:42.000Z</time>
      </trkpt>
      <trkpt lat="47.03304" lon="-1.65508">
        <ele>69</ele>
        <time>2021-07-17T08:32:44.000Z</time>
      </trkpt>
      <trkpt lat="47.033" lon="-1.6549">
        <ele>68</ele>
        <time>2021-07-17T08:32:46.000Z</time>
      </trkpt>
      <trkpt lat="47.03296" lon="-1.65472">
        <ele>68</ele>
        <time>2021-07-17T08:32:48.000Z</time>
      </trkpt>
      <trkpt lat="47.03289" lon="-1.65444">
        <ele>68</ele>
        <time>2021-07-17T08:32:51.000Z</time>
      </trkpt>
      <trkpt lat="47.03285" lon="-1.65425">
        <ele>67</ele>
        <time>2021-07-17T08:32:53.000Z</time>
      </trkpt>
      <trkpt lat="47.0328" lon="-1.65406">
        <ele>67</ele>
        <time>2021-07-17T08:32:55.000Z</time>
      </trkpt>
      <trkpt lat="47.03276" lon="-1.65385">
        <ele>66</ele>
        <time>2021-07-17T08:32:57.000Z</time>
      </trkpt>
      <trkpt lat="47.03271" lon="-1.65365">
        <ele>65</ele>
        <time>2021-07-17T08:32:59.000Z</time>
      </trkpt>
      <trkpt lat="47.03266" lon="-1.65344">
        <ele>65</ele>
        <time>2021-07-17T08:33:01.000Z</time>
      </trkpt>
      <trkpt lat="47.03261" lon="-1.65323">
        <ele>65</ele>
        <time>2021-07-17T08:33:03.000Z</time>
      </trkpt>
      <trkpt lat="47.03256" lon="-1.65303">
        <ele>65</ele>
        <time>2021-07-17T08:33:05.000Z</time>
      </trkpt>
      <trkpt lat="47.03251" lon="-1.65281">
        <ele>65</ele>
        <time>2021-07-17T08:33:07.000Z</time>
      </trkpt>
      <trkpt lat="47.03245" lon="-1.65261">
        <ele>64</ele>
        <time>2021-07-17T08:33:09.000Z</time>
      </trkpt>
      <trkpt lat="47.0324" lon="-1.6524">
        <ele>64</ele>
        <time>2021-07-17T08:33:11.000Z</time>
      </trkpt>
      <trkpt lat="47.03234" lon="-1.6522">
        <ele>64</ele>
        <time>2021-07-17T08:33:13.000Z</time>
      </trkpt>
      <trkpt lat="47.03228" lon="-1.65201">
        <ele>64</ele>
        <time>2021-07-17T08:33:15.000Z</time>
      </trkpt>
      <trkpt lat="47.03221" lon="-1.65183">
        <ele>64</ele>
        <time>2021-07-17T08:33:17.000Z</time>
      </trkpt>
      <trkpt lat="47.03215" lon="-1.65165">
        <ele>64</ele>
        <time>2021-07-17T08:33:19.000Z</time>
      </trkpt>
      <trkpt lat="47.03208" lon="-1.65148">
        <ele>65</ele>
        <time>2021-07-17T08:33:21.000Z</time>
      </trkpt>
      <trkpt lat="47.032" lon="-1.6513">
        <ele>65</ele>
        <time>2021-07-17T08:33:23.000Z</time>
      </trkpt>
      <trkpt lat="47.03193" lon="-1.65112">
        <ele>65</ele>
        <time>2021-07-17T08:33:25.000Z</time>
      </trkpt>
      <trkpt lat="47.03185" lon="-1.65095">
        <ele>65</ele>
        <time>2021-07-17T08:33:27.000Z</time>
      </trkpt>
      <trkpt lat="47.03177" lon="-1.65079">
        <ele>65</ele>
        <time>2021-07-17T08:33:29.000Z</time>
      </trkpt>
      <trkpt lat="47.03169" lon="-1.65063">
        <ele>65</ele>
        <time>2021-07-17T08:33:31.000Z</time>
      </trkpt>
      <trkpt lat="47.0316" lon="-1.65046">
        <ele>65</ele>
        <time>2021-07-17T08:33:33.000Z</time>
      </trkpt>
      <trkpt lat="47.03151" lon="-1.6503">
        <ele>65</ele>
        <time>2021-07-17T08:33:35.000Z</time>
      </trkpt>
      <trkpt lat="47.03142" lon="-1.65014">
        <ele>66</ele>
        <time>2021-07-17T08:33:37.000Z</time>
      </trkpt>
      <trkpt lat="47.03133" lon="-1.64999">
        <ele>66</ele>
        <time>2021-07-17T08:33:39.000Z</time>
      </trkpt>
      <trkpt lat="47.03124" lon="-1.64983">
        <ele>66</ele>
        <time>2021-07-17T08:33:41.000Z</time>
      </trkpt>
      <trkpt lat="47.03115" lon="-1.64969">
        <ele>66</ele>
        <time>2021-07-17T08:33:43.000Z</time>
      </trkpt>
      <trkpt lat="47.03106" lon="-1.64954">
        <ele>66</ele>
        <time>2021-07-17T08:33:45.000Z</time>
      </trkpt>
      <trkpt lat="47.03098" lon="-1.6494">
        <ele>66</ele>
        <time>2021-07-17T08:33:47.000Z</time>
      </trkpt>
      <trkpt lat="47.03089" lon="-1.64926">
        <ele>66</ele>
        <time>2021-07-17T08:33:49.000Z</time>
      </trkpt>
      <trkpt lat="47.03081" lon="-1.64912">
        <ele>66</ele>
        <time>2021-07-17T08:33:51.000Z</time>
      </trkpt>
      <trkpt lat="47.03072" lon="-1.64898">
        <ele>66</ele>
        <time>2021-07-17T08:33:53.000Z</time>
      </trkpt>
      <trkpt lat="47.03064" lon="-1.64884">
        <ele>66</ele>
        <time>2021-07-17T08:33:55.000Z</time>
      </trkpt>
      <trkpt lat="47.03055" lon="-1.64869">
        <ele>66</ele>
        <time>2021-07-17T08:33:57.000Z</time>
      </trkpt>
      <trkpt lat="47.03046" lon="-1.64854">
        <ele>66</ele>
        <time>2021-07-17T08:33:59.000Z</time>
      </trkpt>
      <trkpt lat="47.03037" lon="-1.6484">
        <ele>67</ele>
        <time>2021-07-17T08:34:01.000Z</time>
      </trkpt>
      <trkpt lat="47.03028" lon="-1.64826">
        <ele>67</ele>
        <time>2021-07-17T08:34:03.000Z</time>
      </trkpt>
      <trkpt lat="47.03019" lon="-1.64812">
        <ele>67</ele>
        <time>2021-07-17T08:34:05.000Z</time>
      </trkpt>
      <trkpt lat="47.03009" lon="-1.64802">
        <ele>67</ele>
        <time>2021-07-17T08:34:07.000Z</time>
      </trkpt>
      <trkpt lat="47.02996" lon="-1.64796">
        <ele>67</ele>
        <time>2021-07-17T08:34:09.000Z</time>
      </trkpt>
      <trkpt lat="47.02987" lon="-1.64784">
        <ele>67</ele>
        <time>2021-07-17T08:34:11.000Z</time>
      </trkpt>
      <trkpt lat="47.02982" lon="-1.64765">
        <ele>67</ele>
        <time>2021-07-17T08:34:13.000Z</time>
      </trkpt>
      <trkpt lat="47.02978" lon="-1.64746">
        <ele>67</ele>
        <time>2021-07-17T08:34:15.000Z</time>
      </trkpt>
      <trkpt lat="47.02969" lon="-1.6473">
        <ele>67</ele>
        <time>2021-07-17T08:34:17.000Z</time>
      </trkpt>
      <trkpt lat="47.0296" lon="-1.64717">
        <ele>67</ele>
        <time>2021-07-17T08:34:19.000Z</time>
      </trkpt>
      <trkpt lat="47.02951" lon="-1.64704">
        <ele>67</ele>
        <time>2021-07-17T08:34:21.000Z</time>
      </trkpt>
      <trkpt lat="47.02942" lon="-1.6469">
        <ele>68</ele>
        <time>2021-07-17T08:34:23.000Z</time>
      </trkpt>
      <trkpt lat="47.02934" lon="-1.64677">
        <ele>68</ele>
        <time>2021-07-17T08:34:25.000Z</time>
      </trkpt>
      <trkpt lat="47.02925" lon="-1.64664">
        <ele>68</ele>
        <time>2021-07-17T08:34:27.000Z</time>
      </trkpt>
      <trkpt lat="47.02917" lon="-1.64651">
        <ele>68</ele>
        <time>2021-07-17T08:34:29.000Z</time>
      </trkpt>
      <trkpt lat="47.02908" lon="-1.64638">
        <ele>69</ele>
        <time>2021-07-17T08:34:31.000Z</time>
      </trkpt>
      <trkpt lat="47.029" lon="-1.64626">
        <ele>69</ele>
        <time>2021-07-17T08:34:33.000Z</time>
      </trkpt>
      <trkpt lat="47.02892" lon="-1.64613">
        <ele>69</ele>
        <time>2021-07-17T08:34:35.000Z</time>
      </trkpt>
      <trkpt lat="47.02883" lon="-1.64601">
        <ele>69</ele>
        <time>2021-07-17T08:34:37.000Z</time>
      </trkpt>
      <trkpt lat="47.02876" lon="-1.64589">
        <ele>69</ele>
        <time>2021-07-17T08:34:39.000Z</time>
      </trkpt>
      <trkpt lat="47.02868" lon="-1.64577">
        <ele>69</ele>
        <time>2021-07-17T08:34:41.000Z</time>
      </trkpt>
      <trkpt lat="47.02861" lon="-1.64565">
        <ele>70</ele>
        <time>2021-07-17T08:34:43.000Z</time>
      </trkpt>
      <trkpt lat="47.02852" lon="-1.64553">
        <ele>70</ele>
        <time>2021-07-17T08:34:45.000Z</time>
      </trkpt>
      <trkpt lat="47.02845" lon="-1.6454">
        <ele>70</ele>
        <time>2021-07-17T08:34:47.000Z</time>
      </trkpt>
      <trkpt lat="47.02838" lon="-1.64527">
        <ele>70</ele>
        <time>2021-07-17T08:34:49.000Z</time>
      </trkpt>
      <trkpt lat="47.0283" lon="-1.64515">
        <ele>70</ele>
        <time>2021-07-17T08:34:51.000Z</time>
      </trkpt>
      <trkpt lat="47.02823" lon="-1.64502">
        <ele>70</ele>
        <time>2021-07-17T08:34:53.000Z</time>
      </trkpt>
      <trkpt lat="47.02816" lon="-1.6449">
        <ele>70</ele>
        <time>2021-07-17T08:34:55.000Z</time>
      </trkpt>
      <trkpt lat="47.02809" lon="-1.64476">
        <ele>70</ele>
        <time>2021-07-17T08:34:57.000Z</time>
      </trkpt>
      <trkpt lat="47.02803" lon="-1.64463">
        <ele>70</ele>
        <time>2021-07-17T08:34:59.000Z</time>
      </trkpt>
      <trkpt lat="47.02796" lon="-1.64449">
        <ele>70</ele>
        <time>2021-07-17T08:35:01.000Z</time>
      </trkpt>
      <trkpt lat="47.02789" lon="-1.64435">
        <ele>70</ele>
        <time>2021-07-17T08:35:03.000Z</time>
      </trkpt>
      <trkpt lat="47.02781" lon="-1.64422">
        <ele>69</ele>
        <time>2021-07-17T08:35:05.000Z</time>
      </trkpt>
      <trkpt lat="47.02773" lon="-1.64411">
        <ele>69</ele>
        <time>2021-07-17T08:35:07.000Z</time>
      </trkpt>
      <trkpt lat="47.02765" lon="-1.64402">
        <ele>70</ele>
        <time>2021-07-17T08:35:09.000Z</time>
      </trkpt>
      <trkpt lat="47.02757" lon="-1.64391">
        <ele>70</ele>
        <time>2021-07-17T08:35:11.000Z</time>
      </trkpt>
      <trkpt lat="47.02754" lon="-1.64374">
        <ele>70</ele>
        <time>2021-07-17T08:35:13.000Z</time>
      </trkpt>
      <trkpt lat="47.02762" lon="-1.6436">
        <ele>70</ele>
        <time>2021-07-17T08:35:15.000Z</time>
      </trkpt>
      <trkpt lat="47.02774" lon="-1.64357">
        <ele>70</ele>
        <time>2021-07-17T08:35:17.000Z</time>
      </trkpt>
      <trkpt lat="47.02787" lon="-1.64357">
        <ele>70</ele>
        <time>2021-07-17T08:35:19.000Z</time>
      </trkpt>
      <trkpt lat="47.02799" lon="-1.64352">
        <ele>69</ele>
        <time>2021-07-17T08:35:21.000Z</time>
      </trkpt>
      <trkpt lat="47.0281" lon="-1.64345">
        <ele>69</ele>
        <time>2021-07-17T08:35:23.000Z</time>
      </trkpt>
      <trkpt lat="47.02822" lon="-1.64339">
        <ele>70</ele>
        <time>2021-07-17T08:35:25.000Z</time>
      </trkpt>
      <trkpt lat="47.02833" lon="-1.64335">
        <ele>70</ele>
        <time>2021-07-17T08:35:27.000Z</time>
      </trkpt>
      <trkpt lat="47.02845" lon="-1.64333">
        <ele>70</ele>
        <time>2021-07-17T08:35:29.000Z</time>
      </trkpt>
      <trkpt lat="47.02857" lon="-1.64332">
        <ele>71</ele>
        <time>2021-07-17T08:35:31.000Z</time>
      </trkpt>
      <trkpt lat="47.02868" lon="-1.64332">
        <ele>71</ele>
        <time>2021-07-17T08:35:33.000Z</time>
      </trkpt>
      <trkpt lat="47.0288" lon="-1.64331">
        <ele>72</ele>
        <time>2021-07-17T08:35:35.000Z</time>
      </trkpt>
      <trkpt lat="47.02891" lon="-1.64327">
        <ele>72</ele>
        <time>2021-07-17T08:35:37.000Z</time>
      </trkpt>
      <trkpt lat="47.02902" lon="-1.6432">
        <ele>72</ele>
        <time>2021-07-17T08:35:39.000Z</time>
      </trkpt>
      <trkpt lat="47.02913" lon="-1.64312">
        <ele>71</ele>
        <time>2021-07-17T08:35:41.000Z</time>
      </trkpt>
      <trkpt lat="47.02924" lon="-1.64304">
        <ele>71</ele>
        <time>2021-07-17T08:35:43.000Z</time>
      </trkpt>
      <trkpt lat="47.02936" lon="-1.64297">
        <ele>71</ele>
        <time>2021-07-17T08:35:45.000Z</time>
      </trkpt>
      <trkpt lat="47.02947" lon="-1.64289">
        <ele>70</ele>
        <time>2021-07-17T08:35:47.000Z</time>
      </trkpt>
      <trkpt lat="47.02959" lon="-1.64281">
        <ele>70</ele>
        <time>2021-07-17T08:35:49.000Z</time>
      </trkpt>
      <trkpt lat="47.02972" lon="-1.64273">
        <ele>69</ele>
        <time>2021-07-17T08:35:51.000Z</time>
      </trkpt>
      <trkpt lat="47.02985" lon="-1.64263">
        <ele>69</ele>
        <time>2021-07-17T08:35:53.000Z</time>
      </trkpt>
      <trkpt lat="47.02998" lon="-1.64254">
        <ele>68</ele>
        <time>2021-07-17T08:35:55.000Z</time>
      </trkpt>
      <trkpt lat="47.03011" lon="-1.64245">
        <ele>67</ele>
        <time>2021-07-17T08:35:57.000Z</time>
      </trkpt>
      <trkpt lat="47.03024" lon="-1.64236">
        <ele>67</ele>
        <time>2021-07-17T08:35:59.000Z</time>
      </trkpt>
      <trkpt lat="47.03037" lon="-1.64227">
        <ele>67</ele>
        <time>2021-07-17T08:36:01.000Z</time>
      </trkpt>
      <trkpt lat="47.03051" lon="-1.6422">
        <ele>66</ele>
        <time>2021-07-17T08:36:03.000Z</time>
      </trkpt>
      <trkpt lat="47.03065" lon="-1.64214">
        <ele>67</ele>
        <time>2021-07-17T08:36:05.000Z</time>
      </trkpt>
      <trkpt lat="47.03079" lon="-1.64211">
        <ele>67</ele>
        <time>2021-07-17T08:36:07.000Z</time>
      </trkpt>
      <trkpt lat="47.03093" lon="-1.64211">
        <ele>66</ele>
        <time>2021-07-17T08:36:09.000Z</time>
      </trkpt>
      <trkpt lat="47.03107" lon="-1.64215">
        <ele>66</ele>
        <time>2021-07-17T08:36:11.000Z</time>
      </trkpt>
      <trkpt lat="47.03121" lon="-1.6422">
        <ele>66</ele>
        <time>2021-07-17T08:36:13.000Z</time>
      </trkpt>
      <trkpt lat="47.03136" lon="-1.64224">
        <ele>65</ele>
        <time>2021-07-17T08:36:15.000Z</time>
      </trkpt>
      <trkpt lat="47.0315" lon="-1.64228">
        <ele>65</ele>
        <time>2021-07-17T08:36:17.000Z</time>
      </trkpt>
      <trkpt lat="47.03164" lon="-1.64231">
        <ele>65</ele>
        <time>2021-07-17T08:36:19.000Z</time>
      </trkpt>
      <trkpt lat="47.03178" lon="-1.64235">
        <ele>64</ele>
        <time>2021-07-17T08:36:21.000Z</time>
      </trkpt>
      <trkpt lat="47.03191" lon="-1.64236">
        <ele>64</ele>
        <time>2021-07-17T08:36:23.000Z</time>
      </trkpt>
      <trkpt lat="47.03205" lon="-1.64236">
        <ele>64</ele>
        <time>2021-07-17T08:36:25.000Z</time>
      </trkpt>
      <trkpt lat="47.03219" lon="-1.64237">
        <ele>64</ele>
        <time>2021-07-17T08:36:27.000Z</time>
      </trkpt>
      <trkpt lat="47.03233" lon="-1.64236">
        <ele>63</ele>
        <time>2021-07-17T08:36:29.000Z</time>
      </trkpt>
      <trkpt lat="47.03248" lon="-1.64235">
        <ele>63</ele>
        <time>2021-07-17T08:36:31.000Z</time>
      </trkpt>
      <trkpt lat="47.03263" lon="-1.64236">
        <ele>63</ele>
        <time>2021-07-17T08:36:33.000Z</time>
      </trkpt>
      <trkpt lat="47.03277" lon="-1.64238">
        <ele>63</ele>
        <time>2021-07-17T08:36:35.000Z</time>
      </trkpt>
      <trkpt lat="47.03292" lon="-1.64237">
        <ele>62</ele>
        <time>2021-07-17T08:36:37.000Z</time>
      </trkpt>
      <trkpt lat="47.03306" lon="-1.64235">
        <ele>62</ele>
        <time>2021-07-17T08:36:39.000Z</time>
      </trkpt>
      <trkpt lat="47.0332" lon="-1.64236">
        <ele>62</ele>
        <time>2021-07-17T08:36:41.000Z</time>
      </trkpt>
      <trkpt lat="47.03334" lon="-1.64237">
        <ele>62</ele>
        <time>2021-07-17T08:36:43.000Z</time>
      </trkpt>
      <trkpt lat="47.03348" lon="-1.64238">
        <ele>61</ele>
        <time>2021-07-17T08:36:45.000Z</time>
      </trkpt>
      <trkpt lat="47.03362" lon="-1.6424">
        <ele>62</ele>
        <time>2021-07-17T08:36:47.000Z</time>
      </trkpt>
      <trkpt lat="47.03375" lon="-1.64242">
        <ele>62</ele>
        <time>2021-07-17T08:36:49.000Z</time>
      </trkpt>
      <trkpt lat="47.03388" lon="-1.64245">
        <ele>62</ele>
        <time>2021-07-17T08:36:51.000Z</time>
      </trkpt>
      <trkpt lat="47.03401" lon="-1.6425">
        <ele>61</ele>
        <time>2021-07-17T08:36:53.000Z</time>
      </trkpt>
      <trkpt lat="47.03414" lon="-1.64256">
        <ele>61</ele>
        <time>2021-07-17T08:36:55.000Z</time>
      </trkpt>
      <trkpt lat="47.03427" lon="-1.64262">
        <ele>60</ele>
        <time>2021-07-17T08:36:57.000Z</time>
      </trkpt>
      <trkpt lat="47.03441" lon="-1.64266">
        <ele>60</ele>
        <time>2021-07-17T08:36:59.000Z</time>
      </trkpt>
      <trkpt lat="47.03454" lon="-1.64271">
        <ele>60</ele>
        <time>2021-07-17T08:37:01.000Z</time>
      </trkpt>
      <trkpt lat="47.03467" lon="-1.64276">
        <ele>60</ele>
        <time>2021-07-17T08:37:03.000Z</time>
      </trkpt>
      <trkpt lat="47.0348" lon="-1.64281">
        <ele>60</ele>
        <time>2021-07-17T08:37:05.000Z</time>
      </trkpt>
      <trkpt lat="47.03493" lon="-1.64286">
        <ele>61</ele>
        <time>2021-07-17T08:37:07.000Z</time>
      </trkpt>
      <trkpt lat="47.03506" lon="-1.6429">
        <ele>61</ele>
        <time>2021-07-17T08:37:09.000Z</time>
      </trkpt>
      <trkpt lat="47.03518" lon="-1.64295">
        <ele>61</ele>
        <time>2021-07-17T08:37:11.000Z</time>
      </trkpt>
      <trkpt lat="47.03531" lon="-1.643">
        <ele>61</ele>
        <time>2021-07-17T08:37:13.000Z</time>
      </trkpt>
      <trkpt lat="47.03544" lon="-1.64303">
        <ele>61</ele>
        <time>2021-07-17T08:37:15.000Z</time>
      </trkpt>
      <trkpt lat="47.03556" lon="-1.64302">
        <ele>61</ele>
        <time>2021-07-17T08:37:17.000Z</time>
      </trkpt>
      <trkpt lat="47.03568" lon="-1.64299">
        <ele>61</ele>
        <time>2021-07-17T08:37:19.000Z</time>
      </trkpt>
      <trkpt lat="47.03571" lon="-1.64285">
        <ele>61</ele>
        <time>2021-07-17T08:37:21.000Z</time>
      </trkpt>
      <trkpt lat="47.03566" lon="-1.64268">
        <ele>61</ele>
        <time>2021-07-17T08:37:23.000Z</time>
      </trkpt>
      <trkpt lat="47.03561" lon="-1.64251">
        <ele>61</ele>
        <time>2021-07-17T08:37:25.000Z</time>
      </trkpt>
      <trkpt lat="47.03557" lon="-1.64234">
        <ele>60</ele>
        <time>2021-07-17T08:37:27.000Z</time>
      </trkpt>
      <trkpt lat="47.03553" lon="-1.64218">
        <ele>60</ele>
        <time>2021-07-17T08:37:29.000Z</time>
      </trkpt>
      <trkpt lat="47.03552" lon="-1.64202">
        <ele>60</ele>
        <time>2021-07-17T08:37:31.000Z</time>
      </trkpt>
      <trkpt lat="47.03561" lon="-1.6419">
        <ele>59</ele>
        <time>2021-07-17T08:37:33.000Z</time>
      </trkpt>
      <trkpt lat="47.03572" lon="-1.64184">
        <ele>59</ele>
        <time>2021-07-17T08:37:35.000Z</time>
      </trkpt>
      <trkpt lat="47.03583" lon="-1.64177">
        <ele>59</ele>
        <time>2021-07-17T08:37:37.000Z</time>
      </trkpt>
      <trkpt lat="47.03593" lon="-1.6417">
        <ele>59</ele>
        <time>2021-07-17T08:37:39.000Z</time>
      </trkpt>
      <trkpt lat="47.03602" lon="-1.64164">
        <ele>59</ele>
        <time>2021-07-17T08:37:41.000Z</time>
      </trkpt>
      <trkpt lat="47.03611" lon="-1.64156">
        <ele>59</ele>
        <time>2021-07-17T08:37:44.000Z</time>
      </trkpt>
      <trkpt lat="47.03617" lon="-1.64145">
        <ele>59</ele>
        <time>2021-07-17T08:37:47.000Z</time>
      </trkpt>
      <trkpt lat="47.03628" lon="-1.64138">
        <ele>59</ele>
        <time>2021-07-17T08:37:50.000Z</time>
      </trkpt>
      <trkpt lat="47.03637" lon="-1.64134">
        <ele>58</ele>
        <time>2021-07-17T08:37:52.000Z</time>
      </trkpt>
      <trkpt lat="47.03648" lon="-1.64126">
        <ele>58</ele>
        <time>2021-07-17T08:37:55.000Z</time>
      </trkpt>
      <trkpt lat="47.03658" lon="-1.64123">
        <ele>58</ele>
        <time>2021-07-17T08:37:57.000Z</time>
      </trkpt>
      <trkpt lat="47.0367" lon="-1.64122">
        <ele>58</ele>
        <time>2021-07-17T08:37:59.000Z</time>
      </trkpt>
      <trkpt lat="47.03683" lon="-1.64119">
        <ele>58</ele>
        <time>2021-07-17T08:38:01.000Z</time>
      </trkpt>
      <trkpt lat="47.03696" lon="-1.64116">
        <ele>59</ele>
        <time>2021-07-17T08:38:03.000Z</time>
      </trkpt>
      <trkpt lat="47.0371" lon="-1.64113">
        <ele>59</ele>
        <time>2021-07-17T08:38:05.000Z</time>
      </trkpt>
      <trkpt lat="47.03723" lon="-1.64109">
        <ele>58</ele>
        <time>2021-07-17T08:38:07.000Z</time>
      </trkpt>
      <trkpt lat="47.03737" lon="-1.64106">
        <ele>58</ele>
        <time>2021-07-17T08:38:09.000Z</time>
      </trkpt>
      <trkpt lat="47.0375" lon="-1.64103">
        <ele>58</ele>
        <time>2021-07-17T08:38:11.000Z</time>
      </trkpt>
      <trkpt lat="47.03763" lon="-1.641">
        <ele>58</ele>
        <time>2021-07-17T08:38:13.000Z</time>
      </trkpt>
      <trkpt lat="47.03777" lon="-1.64096">
        <ele>58</ele>
        <time>2021-07-17T08:38:15.000Z</time>
      </trkpt>
      <trkpt lat="47.0379" lon="-1.64094">
        <ele>57</ele>
        <time>2021-07-17T08:38:17.000Z</time>
      </trkpt>
      <trkpt lat="47.03804" lon="-1.64091">
        <ele>57</ele>
        <time>2021-07-17T08:38:19.000Z</time>
      </trkpt>
      <trkpt lat="47.03816" lon="-1.64088">
        <ele>57</ele>
        <time>2021-07-17T08:38:21.000Z</time>
      </trkpt>
      <trkpt lat="47.03827" lon="-1.64085">
        <ele>58</ele>
        <time>2021-07-17T08:38:23.000Z</time>
      </trkpt>
      <trkpt lat="47.03837" lon="-1.64083">
        <ele>57</ele>
        <time>2021-07-17T08:38:25.000Z</time>
      </trkpt>
      <trkpt lat="47.03847" lon="-1.64082">
        <ele>57</ele>
        <time>2021-07-17T08:38:27.000Z</time>
      </trkpt>
      <trkpt lat="47.03857" lon="-1.64086">
        <ele>57</ele>
        <time>2021-07-17T08:38:29.000Z</time>
      </trkpt>
      <trkpt lat="47.03867" lon="-1.64093">
        <ele>58</ele>
        <time>2021-07-17T08:38:31.000Z</time>
      </trkpt>
      <trkpt lat="47.03877" lon="-1.64096">
        <ele>57</ele>
        <time>2021-07-17T08:38:33.000Z</time>
      </trkpt>
      <trkpt lat="47.03889" lon="-1.641">
        <ele>56</ele>
        <time>2021-07-17T08:38:35.000Z</time>
      </trkpt>
      <trkpt lat="47.03899" lon="-1.64107">
        <ele>56</ele>
        <time>2021-07-17T08:38:37.000Z</time>
      </trkpt>
      <trkpt lat="47.0391" lon="-1.64114">
        <ele>56</ele>
        <time>2021-07-17T08:38:39.000Z</time>
      </trkpt>
      <trkpt lat="47.0392" lon="-1.64119">
        <ele>56</ele>
        <time>2021-07-17T08:38:41.000Z</time>
      </trkpt>
      <trkpt lat="47.03932" lon="-1.64126">
        <ele>56</ele>
        <time>2021-07-17T08:38:43.000Z</time>
      </trkpt>
      <trkpt lat="47.03943" lon="-1.64133">
        <ele>56</ele>
        <time>2021-07-17T08:38:45.000Z</time>
      </trkpt>
      <trkpt lat="47.03954" lon="-1.64139">
        <ele>56</ele>
        <time>2021-07-17T08:38:47.000Z</time>
      </trkpt>
      <trkpt lat="47.03967" lon="-1.64139">
        <ele>56</ele>
        <time>2021-07-17T08:38:50.000Z</time>
      </trkpt>
      <trkpt lat="47.03977" lon="-1.64139">
        <ele>56</ele>
        <time>2021-07-17T08:38:52.000Z</time>
      </trkpt>
      <trkpt lat="47.03987" lon="-1.64135">
        <ele>56</ele>
        <time>2021-07-17T08:38:54.000Z</time>
      </trkpt>
      <trkpt lat="47.03997" lon="-1.64129">
        <ele>57</ele>
        <time>2021-07-17T08:38:56.000Z</time>
      </trkpt>
      <trkpt lat="47.04008" lon="-1.64124">
        <ele>57</ele>
        <time>2021-07-17T08:38:58.000Z</time>
      </trkpt>
      <trkpt lat="47.04019" lon="-1.6412">
        <ele>57</ele>
        <time>2021-07-17T08:39:00.000Z</time>
      </trkpt>
      <trkpt lat="47.04031" lon="-1.64114">
        <ele>57</ele>
        <time>2021-07-17T08:39:02.000Z</time>
      </trkpt>
      <trkpt lat="47.04043" lon="-1.64109">
        <ele>56</ele>
        <time>2021-07-17T08:39:04.000Z</time>
      </trkpt>
      <trkpt lat="47.04056" lon="-1.64103">
        <ele>56</ele>
        <time>2021-07-17T08:39:06.000Z</time>
      </trkpt>
      <trkpt lat="47.04069" lon="-1.64097">
        <ele>56</ele>
        <time>2021-07-17T08:39:08.000Z</time>
      </trkpt>
      <trkpt lat="47.04083" lon="-1.6409">
        <ele>55</ele>
        <time>2021-07-17T08:39:10.000Z</time>
      </trkpt>
      <trkpt lat="47.04097" lon="-1.64084">
        <ele>55</ele>
        <time>2021-07-17T08:39:12.000Z</time>
      </trkpt>
      <trkpt lat="47.04111" lon="-1.64078">
        <ele>55</ele>
        <time>2021-07-17T08:39:14.000Z</time>
      </trkpt>
      <trkpt lat="47.04125" lon="-1.64072">
        <ele>55</ele>
        <time>2021-07-17T08:39:16.000Z</time>
      </trkpt>
      <trkpt lat="47.04139" lon="-1.64066">
        <ele>55</ele>
        <time>2021-07-17T08:39:18.000Z</time>
      </trkpt>
      <trkpt lat="47.04152" lon="-1.6406">
        <ele>55</ele>
        <time>2021-07-17T08:39:20.000Z</time>
      </trkpt>
      <trkpt lat="47.04165" lon="-1.64054">
        <ele>54</ele>
        <time>2021-07-17T08:39:22.000Z</time>
      </trkpt>
      <trkpt lat="47.04178" lon="-1.64048">
        <ele>54</ele>
        <time>2021-07-17T08:39:24.000Z</time>
      </trkpt>
      <trkpt lat="47.04191" lon="-1.64042">
        <ele>55</ele>
        <time>2021-07-17T08:39:26.000Z</time>
      </trkpt>
      <trkpt lat="47.04204" lon="-1.64036">
        <ele>55</ele>
        <time>2021-07-17T08:39:28.000Z</time>
      </trkpt>
      <trkpt lat="47.04218" lon="-1.6403">
        <ele>55</ele>
        <time>2021-07-17T08:39:30.000Z</time>
      </trkpt>
      <trkpt lat="47.04232" lon="-1.64024">
        <ele>55</ele>
        <time>2021-07-17T08:39:32.000Z</time>
      </trkpt>
      <trkpt lat="47.04246" lon="-1.64017">
        <ele>55</ele>
        <time>2021-07-17T08:39:34.000Z</time>
      </trkpt>
      <trkpt lat="47.04259" lon="-1.6401">
        <ele>55</ele>
        <time>2021-07-17T08:39:36.000Z</time>
      </trkpt>
      <trkpt lat="47.04273" lon="-1.64004">
        <ele>56</ele>
        <time>2021-07-17T08:39:38.000Z</time>
      </trkpt>
      <trkpt lat="47.04287" lon="-1.63998">
        <ele>55</ele>
        <time>2021-07-17T08:39:40.000Z</time>
      </trkpt>
      <trkpt lat="47.043" lon="-1.63992">
        <ele>55</ele>
        <time>2021-07-17T08:39:42.000Z</time>
      </trkpt>
      <trkpt lat="47.04314" lon="-1.63986">
        <ele>56</ele>
        <time>2021-07-17T08:39:44.000Z</time>
      </trkpt>
      <trkpt lat="47.04328" lon="-1.6398">
        <ele>56</ele>
        <time>2021-07-17T08:39:46.000Z</time>
      </trkpt>
      <trkpt lat="47.04341" lon="-1.63974">
        <ele>56</ele>
        <time>2021-07-17T08:39:48.000Z</time>
      </trkpt>
      <trkpt lat="47.04355" lon="-1.63968">
        <ele>55</ele>
        <time>2021-07-17T08:39:50.000Z</time>
      </trkpt>
      <trkpt lat="47.04369" lon="-1.63962">
        <ele>55</ele>
        <time>2021-07-17T08:39:52.000Z</time>
      </trkpt>
      <trkpt lat="47.04383" lon="-1.63956">
        <ele>55</ele>
        <time>2021-07-17T08:39:54.000Z</time>
      </trkpt>
      <trkpt lat="47.04396" lon="-1.63951">
        <ele>55</ele>
        <time>2021-07-17T08:39:56.000Z</time>
      </trkpt>
      <trkpt lat="47.04411" lon="-1.63945">
        <ele>54</ele>
        <time>2021-07-17T08:39:58.000Z</time>
      </trkpt>
      <trkpt lat="47.04424" lon="-1.63938">
        <ele>55</ele>
        <time>2021-07-17T08:40:00.000Z</time>
      </trkpt>
      <trkpt lat="47.04437" lon="-1.63933">
        <ele>54</ele>
        <time>2021-07-17T08:40:02.000Z</time>
      </trkpt>
      <trkpt lat="47.0445" lon="-1.63927">
        <ele>54</ele>
        <time>2021-07-17T08:40:04.000Z</time>
      </trkpt>
      <trkpt lat="47.04462" lon="-1.63918">
        <ele>54</ele>
        <time>2021-07-17T08:40:06.000Z</time>
      </trkpt>
      <trkpt lat="47.04474" lon="-1.6391">
        <ele>54</ele>
        <time>2021-07-17T08:40:08.000Z</time>
      </trkpt>
      <trkpt lat="47.04488" lon="-1.63906">
        <ele>54</ele>
        <time>2021-07-17T08:40:10.000Z</time>
      </trkpt>
      <trkpt lat="47.04501" lon="-1.63899">
        <ele>54</ele>
        <time>2021-07-17T08:40:12.000Z</time>
      </trkpt>
      <trkpt lat="47.04514" lon="-1.63891">
        <ele>54</ele>
        <time>2021-07-17T08:40:14.000Z</time>
      </trkpt>
      <trkpt lat="47.04527" lon="-1.63883">
        <ele>54</ele>
        <time>2021-07-17T08:40:16.000Z</time>
      </trkpt>
      <trkpt lat="47.0454" lon="-1.63874">
        <ele>54</ele>
        <time>2021-07-17T08:40:18.000Z</time>
      </trkpt>
      <trkpt lat="47.04554" lon="-1.63866">
        <ele>54</ele>
        <time>2021-07-17T08:40:20.000Z</time>
      </trkpt>
      <trkpt lat="47.04567" lon="-1.63858">
        <ele>54</ele>
        <time>2021-07-17T08:40:22.000Z</time>
      </trkpt>
      <trkpt lat="47.04579" lon="-1.6385">
        <ele>54</ele>
        <time>2021-07-17T08:40:24.000Z</time>
      </trkpt>
      <trkpt lat="47.04592" lon="-1.63845">
        <ele>54</ele>
        <time>2021-07-17T08:40:26.000Z</time>
      </trkpt>
      <trkpt lat="47.04605" lon="-1.63842">
        <ele>55</ele>
        <time>2021-07-17T08:40:28.000Z</time>
      </trkpt>
      <trkpt lat="47.04617" lon="-1.6384">
        <ele>55</ele>
        <time>2021-07-17T08:40:30.000Z</time>
      </trkpt>
      <trkpt lat="47.04629" lon="-1.63839">
        <ele>55</ele>
        <time>2021-07-17T08:40:32.000Z</time>
      </trkpt>
      <trkpt lat="47.04641" lon="-1.63837">
        <ele>56</ele>
        <time>2021-07-17T08:40:34.000Z</time>
      </trkpt>
      <trkpt lat="47.04652" lon="-1.63831">
        <ele>56</ele>
        <time>2021-07-17T08:40:36.000Z</time>
      </trkpt>
      <trkpt lat="47.04663" lon="-1.63824">
        <ele>56</ele>
        <time>2021-07-17T08:40:38.000Z</time>
      </trkpt>
      <trkpt lat="47.04674" lon="-1.63818">
        <ele>56</ele>
        <time>2021-07-17T08:40:40.000Z</time>
      </trkpt>
      <trkpt lat="47.04685" lon="-1.63811">
        <ele>57</ele>
        <time>2021-07-17T08:40:42.000Z</time>
      </trkpt>
      <trkpt lat="47.04695" lon="-1.63807">
        <ele>57</ele>
        <time>2021-07-17T08:40:44.000Z</time>
      </trkpt>
      <trkpt lat="47.04704" lon="-1.63803">
        <ele>57</ele>
        <time>2021-07-17T08:40:46.000Z</time>
      </trkpt>
      <trkpt lat="47.04714" lon="-1.63797">
        <ele>58</ele>
        <time>2021-07-17T08:40:48.000Z</time>
      </trkpt>
      <trkpt lat="47.04726" lon="-1.63795">
        <ele>58</ele>
        <time>2021-07-17T08:40:50.000Z</time>
      </trkpt>
      <trkpt lat="47.04738" lon="-1.63797">
        <ele>58</ele>
        <time>2021-07-17T08:40:52.000Z</time>
      </trkpt>
      <trkpt lat="47.04749" lon="-1.63795">
        <ele>59</ele>
        <time>2021-07-17T08:40:54.000Z</time>
      </trkpt>
      <trkpt lat="47.04761" lon="-1.6379">
        <ele>59</ele>
        <time>2021-07-17T08:40:56.000Z</time>
      </trkpt>
      <trkpt lat="47.04772" lon="-1.63786">
        <ele>60</ele>
        <time>2021-07-17T08:40:58.000Z</time>
      </trkpt>
      <trkpt lat="47.04784" lon="-1.63782">
        <ele>60</ele>
        <time>2021-07-17T08:41:00.000Z</time>
      </trkpt>
      <trkpt lat="47.04795" lon="-1.63779">
        <ele>60</ele>
        <time>2021-07-17T08:41:02.000Z</time>
      </trkpt>
      <trkpt lat="47.04807" lon="-1.63777">
        <ele>60</ele>
        <time>2021-07-17T08:41:04.000Z</time>
      </trkpt>
      <trkpt lat="47.04818" lon="-1.63775">
        <ele>60</ele>
        <time>2021-07-17T08:41:06.000Z</time>
      </trkpt>
      <trkpt lat="47.0483" lon="-1.63773">
        <ele>60</ele>
        <time>2021-07-17T08:41:08.000Z</time>
      </trkpt>
      <trkpt lat="47.04841" lon="-1.63771">
        <ele>60</ele>
        <time>2021-07-17T08:41:10.000Z</time>
      </trkpt>
      <trkpt lat="47.04852" lon="-1.63769">
        <ele>60</ele>
        <time>2021-07-17T08:41:12.000Z</time>
      </trkpt>
      <trkpt lat="47.04863" lon="-1.63767">
        <ele>60</ele>
        <time>2021-07-17T08:41:14.000Z</time>
      </trkpt>
      <trkpt lat="47.04875" lon="-1.63765">
        <ele>59</ele>
        <time>2021-07-17T08:41:16.000Z</time>
      </trkpt>
      <trkpt lat="47.04887" lon="-1.63763">
        <ele>59</ele>
        <time>2021-07-17T08:41:18.000Z</time>
      </trkpt>
      <trkpt lat="47.04899" lon="-1.6376">
        <ele>59</ele>
        <time>2021-07-17T08:41:20.000Z</time>
      </trkpt>
      <trkpt lat="47.04911" lon="-1.63757">
        <ele>59</ele>
        <time>2021-07-17T08:41:22.000Z</time>
      </trkpt>
      <trkpt lat="47.04923" lon="-1.63752">
        <ele>58</ele>
        <time>2021-07-17T08:41:24.000Z</time>
      </trkpt>
      <trkpt lat="47.04934" lon="-1.63743">
        <ele>58</ele>
        <time>2021-07-17T08:41:26.000Z</time>
      </trkpt>
      <trkpt lat="47.04942" lon="-1.63729">
        <ele>58</ele>
        <time>2021-07-17T08:41:28.000Z</time>
      </trkpt>
      <trkpt lat="47.04946" lon="-1.63711">
        <ele>58</ele>
        <time>2021-07-17T08:41:30.000Z</time>
      </trkpt>
      <trkpt lat="47.04947" lon="-1.63693">
        <ele>57</ele>
        <time>2021-07-17T08:41:32.000Z</time>
      </trkpt>
      <trkpt lat="47.04946" lon="-1.63675">
        <ele>56</ele>
        <time>2021-07-17T08:41:34.000Z</time>
      </trkpt>
      <trkpt lat="47.04946" lon="-1.63657">
        <ele>56</ele>
        <time>2021-07-17T08:41:36.000Z</time>
      </trkpt>
      <trkpt lat="47.04948" lon="-1.63638">
        <ele>56</ele>
        <time>2021-07-17T08:41:38.000Z</time>
      </trkpt>
      <trkpt lat="47.04951" lon="-1.6362">
        <ele>56</ele>
        <time>2021-07-17T08:41:40.000Z</time>
      </trkpt>
      <trkpt lat="47.04957" lon="-1.63603">
        <ele>56</ele>
        <time>2021-07-17T08:41:42.000Z</time>
      </trkpt>
      <trkpt lat="47.04965" lon="-1.63586">
        <ele>56</ele>
        <time>2021-07-17T08:41:44.000Z</time>
      </trkpt>
      <trkpt lat="47.04975" lon="-1.63573">
        <ele>55</ele>
        <time>2021-07-17T08:41:46.000Z</time>
      </trkpt>
      <trkpt lat="47.04987" lon="-1.63562">
        <ele>55</ele>
        <time>2021-07-17T08:41:48.000Z</time>
      </trkpt>
      <trkpt lat="47.04999" lon="-1.63554">
        <ele>54</ele>
        <time>2021-07-17T08:41:50.000Z</time>
      </trkpt>
      <trkpt lat="47.05012" lon="-1.63547">
        <ele>54</ele>
        <time>2021-07-17T08:41:52.000Z</time>
      </trkpt>
      <trkpt lat="47.05025" lon="-1.63542">
        <ele>54</ele>
        <time>2021-07-17T08:41:54.000Z</time>
      </trkpt>
      <trkpt lat="47.05037" lon="-1.63537">
        <ele>54</ele>
        <time>2021-07-17T08:41:56.000Z</time>
      </trkpt>
      <trkpt lat="47.0505" lon="-1.63531">
        <ele>54</ele>
        <time>2021-07-17T08:41:58.000Z</time>
      </trkpt>
      <trkpt lat="47.05063" lon="-1.63526">
        <ele>54</ele>
        <time>2021-07-17T08:42:00.000Z</time>
      </trkpt>
      <trkpt lat="47.05076" lon="-1.63521">
        <ele>55</ele>
        <time>2021-07-17T08:42:02.000Z</time>
      </trkpt>
      <trkpt lat="47.05089" lon="-1.63516">
        <ele>55</ele>
        <time>2021-07-17T08:42:04.000Z</time>
      </trkpt>
      <trkpt lat="47.05101" lon="-1.63511">
        <ele>54</ele>
        <time>2021-07-17T08:42:06.000Z</time>
      </trkpt>
      <trkpt lat="47.05114" lon="-1.63505">
        <ele>55</ele>
        <time>2021-07-17T08:42:08.000Z</time>
      </trkpt>
      <trkpt lat="47.05127" lon="-1.63501">
        <ele>55</ele>
        <time>2021-07-17T08:42:10.000Z</time>
      </trkpt>
      <trkpt lat="47.0514" lon="-1.63496">
        <ele>54</ele>
        <time>2021-07-17T08:42:12.000Z</time>
      </trkpt>
      <trkpt lat="47.05152" lon="-1.63491">
        <ele>54</ele>
        <time>2021-07-17T08:42:14.000Z</time>
      </trkpt>
      <trkpt lat="47.05164" lon="-1.63486">
        <ele>54</ele>
        <time>2021-07-17T08:42:16.000Z</time>
      </trkpt>
      <trkpt lat="47.05177" lon="-1.63481">
        <ele>55</ele>
        <time>2021-07-17T08:42:18.000Z</time>
      </trkpt>
      <trkpt lat="47.05189" lon="-1.63476">
        <ele>55</ele>
        <time>2021-07-17T08:42:20.000Z</time>
      </trkpt>
      <trkpt lat="47.05202" lon="-1.63472">
        <ele>55</ele>
        <time>2021-07-17T08:42:22.000Z</time>
      </trkpt>
      <trkpt lat="47.05214" lon="-1.63467">
        <ele>55</ele>
        <time>2021-07-17T08:42:24.000Z</time>
      </trkpt>
      <trkpt lat="47.05226" lon="-1.63462">
        <ele>55</ele>
        <time>2021-07-17T08:42:26.000Z</time>
      </trkpt>
      <trkpt lat="47.05239" lon="-1.63459">
        <ele>55</ele>
        <time>2021-07-17T08:42:28.000Z</time>
      </trkpt>
      <trkpt lat="47.05252" lon="-1.63456">
        <ele>55</ele>
        <time>2021-07-17T08:42:30.000Z</time>
      </trkpt>
      <trkpt lat="47.05265" lon="-1.63452">
        <ele>55</ele>
        <time>2021-07-17T08:42:32.000Z</time>
      </trkpt>
      <trkpt lat="47.05278" lon="-1.63449">
        <ele>55</ele>
        <time>2021-07-17T08:42:34.000Z</time>
      </trkpt>
      <trkpt lat="47.05291" lon="-1.63447">
        <ele>55</ele>
        <time>2021-07-17T08:42:36.000Z</time>
      </trkpt>
      <trkpt lat="47.05303" lon="-1.63445">
        <ele>55</ele>
        <time>2021-07-17T08:42:38.000Z</time>
      </trkpt>
      <trkpt lat="47.05316" lon="-1.63443">
        <ele>55</ele>
        <time>2021-07-17T08:42:40.000Z</time>
      </trkpt>
      <trkpt lat="47.05328" lon="-1.63442">
        <ele>55</ele>
        <time>2021-07-17T08:42:42.000Z</time>
      </trkpt>
      <trkpt lat="47.0534" lon="-1.63442">
        <ele>56</ele>
        <time>2021-07-17T08:42:44.000Z</time>
      </trkpt>
      <trkpt lat="47.05352" lon="-1.6344">
        <ele>55</ele>
        <time>2021-07-17T08:42:46.000Z</time>
      </trkpt>
      <trkpt lat="47.05362" lon="-1.63432">
        <ele>55</ele>
        <time>2021-07-17T08:42:48.000Z</time>
      </trkpt>
      <trkpt lat="47.05374" lon="-1.63426">
        <ele>55</ele>
        <time>2021-07-17T08:42:50.000Z</time>
      </trkpt>
      <trkpt lat="47.05386" lon="-1.63428">
        <ele>55</ele>
        <time>2021-07-17T08:42:52.000Z</time>
      </trkpt>
      <trkpt lat="47.05398" lon="-1.63433">
        <ele>55</ele>
        <time>2021-07-17T08:42:54.000Z</time>
      </trkpt>
      <trkpt lat="47.05411" lon="-1.63431">
        <ele>55</ele>
        <time>2021-07-17T08:42:56.000Z</time>
      </trkpt>
      <trkpt lat="47.05424" lon="-1.63428">
        <ele>55</ele>
        <time>2021-07-17T08:42:58.000Z</time>
      </trkpt>
      <trkpt lat="47.05436" lon="-1.63425">
        <ele>54</ele>
        <time>2021-07-17T08:43:00.000Z</time>
      </trkpt>
      <trkpt lat="47.05449" lon="-1.63423">
        <ele>54</ele>
        <time>2021-07-17T08:43:02.000Z</time>
      </trkpt>
      <trkpt lat="47.05461" lon="-1.63421">
        <ele>54</ele>
        <time>2021-07-17T08:43:04.000Z</time>
      </trkpt>
      <trkpt lat="47.05474" lon="-1.6342">
        <ele>54</ele>
        <time>2021-07-17T08:43:06.000Z</time>
      </trkpt>
      <trkpt lat="47.05487" lon="-1.63418">
        <ele>54</ele>
        <time>2021-07-17T08:43:08.000Z</time>
      </trkpt>
      <trkpt lat="47.055" lon="-1.63416">
        <ele>54</ele>
        <time>2021-07-17T08:43:10.000Z</time>
      </trkpt>
      <trkpt lat="47.05513" lon="-1.63413">
        <ele>54</ele>
        <time>2021-07-17T08:43:12.000Z</time>
      </trkpt>
      <trkpt lat="47.05526" lon="-1.6341">
        <ele>54</ele>
        <time>2021-07-17T08:43:14.000Z</time>
      </trkpt>
      <trkpt lat="47.05538" lon="-1.63406">
        <ele>54</ele>
        <time>2021-07-17T08:43:16.000Z</time>
      </trkpt>
      <trkpt lat="47.0555" lon="-1.63402">
        <ele>54</ele>
        <time>2021-07-17T08:43:18.000Z</time>
      </trkpt>
      <trkpt lat="47.05563" lon="-1.63397">
        <ele>54</ele>
        <time>2021-07-17T08:43:20.000Z</time>
      </trkpt>
      <trkpt lat="47.05575" lon="-1.63392">
        <ele>54</ele>
        <time>2021-07-17T08:43:22.000Z</time>
      </trkpt>
      <trkpt lat="47.05587" lon="-1.63387">
        <ele>54</ele>
        <time>2021-07-17T08:43:24.000Z</time>
      </trkpt>
      <trkpt lat="47.05598" lon="-1.63381">
        <ele>54</ele>
        <time>2021-07-17T08:43:26.000Z</time>
      </trkpt>
      <trkpt lat="47.05609" lon="-1.63375">
        <ele>54</ele>
        <time>2021-07-17T08:43:28.000Z</time>
      </trkpt>
      <trkpt lat="47.05621" lon="-1.63369">
        <ele>54</ele>
        <time>2021-07-17T08:43:30.000Z</time>
      </trkpt>
      <trkpt lat="47.05633" lon="-1.63364">
        <ele>54</ele>
        <time>2021-07-17T08:43:32.000Z</time>
      </trkpt>
      <trkpt lat="47.05645" lon="-1.63359">
        <ele>55</ele>
        <time>2021-07-17T08:43:34.000Z</time>
      </trkpt>
      <trkpt lat="47.05656" lon="-1.63353">
        <ele>55</ele>
        <time>2021-07-17T08:43:36.000Z</time>
      </trkpt>
      <trkpt lat="47.05668" lon="-1.63348">
        <ele>54</ele>
        <time>2021-07-17T08:43:38.000Z</time>
      </trkpt>
      <trkpt lat="47.0568" lon="-1.63343">
        <ele>55</ele>
        <time>2021-07-17T08:43:40.000Z</time>
      </trkpt>
      <trkpt lat="47.05692" lon="-1.63337">
        <ele>54</ele>
        <time>2021-07-17T08:43:42.000Z</time>
      </trkpt>
      <trkpt lat="47.05704" lon="-1.63332">
        <ele>55</ele>
        <time>2021-07-17T08:43:44.000Z</time>
      </trkpt>
      <trkpt lat="47.05715" lon="-1.63326">
        <ele>54</ele>
        <time>2021-07-17T08:43:46.000Z</time>
      </trkpt>
      <trkpt lat="47.05727" lon="-1.6332">
        <ele>54</ele>
        <time>2021-07-17T08:43:48.000Z</time>
      </trkpt>
      <trkpt lat="47.05739" lon="-1.63315">
        <ele>54</ele>
        <time>2021-07-17T08:43:50.000Z</time>
      </trkpt>
      <trkpt lat="47.0575" lon="-1.6331">
        <ele>54</ele>
        <time>2021-07-17T08:43:52.000Z</time>
      </trkpt>
      <trkpt lat="47.05761" lon="-1.63304">
        <ele>55</ele>
        <time>2021-07-17T08:43:54.000Z</time>
      </trkpt>
      <trkpt lat="47.05774" lon="-1.63299">
        <ele>55</ele>
        <time>2021-07-17T08:43:56.000Z</time>
      </trkpt>
      <trkpt lat="47.05786" lon="-1.63293">
        <ele>54</ele>
        <time>2021-07-17T08:43:58.000Z</time>
      </trkpt>
      <trkpt lat="47.05797" lon="-1.63287">
        <ele>54</ele>
        <time>2021-07-17T08:44:00.000Z</time>
      </trkpt>
      <trkpt lat="47.05809" lon="-1.63282">
        <ele>55</ele>
        <time>2021-07-17T08:44:02.000Z</time>
      </trkpt>
      <trkpt lat="47.05821" lon="-1.63277">
        <ele>55</ele>
        <time>2021-07-17T08:44:04.000Z</time>
      </trkpt>
      <trkpt lat="47.05832" lon="-1.63271">
        <ele>55</ele>
        <time>2021-07-17T08:44:06.000Z</time>
      </trkpt>
      <trkpt lat="47.05844" lon="-1.63265">
        <ele>55</ele>
        <time>2021-07-17T08:44:08.000Z</time>
      </trkpt>
      <trkpt lat="47.05855" lon="-1.6326">
        <ele>55</ele>
        <time>2021-07-17T08:44:10.000Z</time>
      </trkpt>
      <trkpt lat="47.05867" lon="-1.63255">
        <ele>55</ele>
        <time>2021-07-17T08:44:12.000Z</time>
      </trkpt>
      <trkpt lat="47.05879" lon="-1.6325">
        <ele>54</ele>
        <time>2021-07-17T08:44:14.000Z</time>
      </trkpt>
      <trkpt lat="47.05891" lon="-1.63244">
        <ele>54</ele>
        <time>2021-07-17T08:44:16.000Z</time>
      </trkpt>
      <trkpt lat="47.05903" lon="-1.63238">
        <ele>55</ele>
        <time>2021-07-17T08:44:18.000Z</time>
      </trkpt>
      <trkpt lat="47.05915" lon="-1.63233">
        <ele>55</ele>
        <time>2021-07-17T08:44:20.000Z</time>
      </trkpt>
      <trkpt lat="47.05927" lon="-1.63227">
        <ele>55</ele>
        <time>2021-07-17T08:44:22.000Z</time>
      </trkpt>
      <trkpt lat="47.05938" lon="-1.63221">
        <ele>55</ele>
        <time>2021-07-17T08:44:24.000Z</time>
      </trkpt>
      <trkpt lat="47.0595" lon="-1.63216">
        <ele>55</ele>
        <time>2021-07-17T08:44:26.000Z</time>
      </trkpt>
      <trkpt lat="47.05962" lon="-1.6321">
        <ele>55</ele>
        <time>2021-07-17T08:44:28.000Z</time>
      </trkpt>
      <trkpt lat="47.05974" lon="-1.63204">
        <ele>55</ele>
        <time>2021-07-17T08:44:30.000Z</time>
      </trkpt>
      <trkpt lat="47.05986" lon="-1.63198">
        <ele>55</ele>
        <time>2021-07-17T08:44:32.000Z</time>
      </trkpt>
      <trkpt lat="47.05997" lon="-1.63193">
        <ele>55</ele>
        <time>2021-07-17T08:44:34.000Z</time>
      </trkpt>
      <trkpt lat="47.0601" lon="-1.63188">
        <ele>55</ele>
        <time>2021-07-17T08:44:36.000Z</time>
      </trkpt>
      <trkpt lat="47.06021" lon="-1.63181">
        <ele>55</ele>
        <time>2021-07-17T08:44:38.000Z</time>
      </trkpt>
      <trkpt lat="47.06033" lon="-1.63176">
        <ele>55</ele>
        <time>2021-07-17T08:44:40.000Z</time>
      </trkpt>
      <trkpt lat="47.06045" lon="-1.6317">
        <ele>55</ele>
        <time>2021-07-17T08:44:42.000Z</time>
      </trkpt>
      <trkpt lat="47.06057" lon="-1.63165">
        <ele>55</ele>
        <time>2021-07-17T08:44:44.000Z</time>
      </trkpt>
      <trkpt lat="47.06069" lon="-1.63158">
        <ele>55</ele>
        <time>2021-07-17T08:44:46.000Z</time>
      </trkpt>
      <trkpt lat="47.06081" lon="-1.63153">
        <ele>56</ele>
        <time>2021-07-17T08:44:48.000Z</time>
      </trkpt>
      <trkpt lat="47.06093" lon="-1.63147">
        <ele>55</ele>
        <time>2021-07-17T08:44:50.000Z</time>
      </trkpt>
      <trkpt lat="47.06105" lon="-1.63142">
        <ele>55</ele>
        <time>2021-07-17T08:44:52.000Z</time>
      </trkpt>
      <trkpt lat="47.06117" lon="-1.63136">
        <ele>55</ele>
        <time>2021-07-17T08:44:54.000Z</time>
      </trkpt>
      <trkpt lat="47.06129" lon="-1.63131">
        <ele>55</ele>
        <time>2021-07-17T08:44:56.000Z</time>
      </trkpt>
      <trkpt lat="47.06142" lon="-1.63125">
        <ele>55</ele>
        <time>2021-07-17T08:44:58.000Z</time>
      </trkpt>
      <trkpt lat="47.06154" lon="-1.6312">
        <ele>55</ele>
        <time>2021-07-17T08:45:00.000Z</time>
      </trkpt>
      <trkpt lat="47.06165" lon="-1.63114">
        <ele>55</ele>
        <time>2021-07-17T08:45:02.000Z</time>
      </trkpt>
      <trkpt lat="47.06177" lon="-1.63109">
        <ele>55</ele>
        <time>2021-07-17T08:45:04.000Z</time>
      </trkpt>
      <trkpt lat="47.06189" lon="-1.63103">
        <ele>55</ele>
        <time>2021-07-17T08:45:06.000Z</time>
      </trkpt>
      <trkpt lat="47.06201" lon="-1.63098">
        <ele>55</ele>
        <time>2021-07-17T08:45:08.000Z</time>
      </trkpt>
      <trkpt lat="47.06212" lon="-1.63092">
        <ele>55</ele>
        <time>2021-07-17T08:45:10.000Z</time>
      </trkpt>
      <trkpt lat="47.06224" lon="-1.63086">
        <ele>56</ele>
        <time>2021-07-17T08:45:12.000Z</time>
      </trkpt>
      <trkpt lat="47.06236" lon="-1.63081">
        <ele>56</ele>
        <time>2021-07-17T08:45:14.000Z</time>
      </trkpt>
      <trkpt lat="47.06248" lon="-1.63076">
        <ele>55</ele>
        <time>2021-07-17T08:45:16.000Z</time>
      </trkpt>
      <trkpt lat="47.0626" lon="-1.6307">
        <ele>55</ele>
        <time>2021-07-17T08:45:18.000Z</time>
      </trkpt>
      <trkpt lat="47.06272" lon="-1.63064">
        <ele>55</ele>
        <time>2021-07-17T08:45:20.000Z</time>
      </trkpt>
      <trkpt lat="47.06284" lon="-1.63059">
        <ele>55</ele>
        <time>2021-07-17T08:45:22.000Z</time>
      </trkpt>
      <trkpt lat="47.06296" lon="-1.63052">
        <ele>55</ele>
        <time>2021-07-17T08:45:24.000Z</time>
      </trkpt>
      <trkpt lat="47.06308" lon="-1.63047">
        <ele>55</ele>
        <time>2021-07-17T08:45:26.000Z</time>
      </trkpt>
      <trkpt lat="47.06319" lon="-1.63042">
        <ele>55</ele>
        <time>2021-07-17T08:45:28.000Z</time>
      </trkpt>
      <trkpt lat="47.0633" lon="-1.63037">
        <ele>55</ele>
        <time>2021-07-17T08:45:30.000Z</time>
      </trkpt>
      <trkpt lat="47.06342" lon="-1.63032">
        <ele>55</ele>
        <time>2021-07-17T08:45:32.000Z</time>
      </trkpt>
      <trkpt lat="47.06353" lon="-1.63027">
        <ele>55</ele>
        <time>2021-07-17T08:45:34.000Z</time>
      </trkpt>
      <trkpt lat="47.06364" lon="-1.63021">
        <ele>55</ele>
        <time>2021-07-17T08:45:36.000Z</time>
      </trkpt>
      <trkpt lat="47.06376" lon="-1.63016">
        <ele>55</ele>
        <time>2021-07-17T08:45:38.000Z</time>
      </trkpt>
      <trkpt lat="47.06388" lon="-1.6301">
        <ele>55</ele>
        <time>2021-07-17T08:45:40.000Z</time>
      </trkpt>
      <trkpt lat="47.06399" lon="-1.63005">
        <ele>56</ele>
        <time>2021-07-17T08:45:42.000Z</time>
      </trkpt>
      <trkpt lat="47.0641" lon="-1.62999">
        <ele>56</ele>
        <time>2021-07-17T08:45:44.000Z</time>
      </trkpt>
      <trkpt lat="47.06422" lon="-1.62994">
        <ele>56</ele>
        <time>2021-07-17T08:45:46.000Z</time>
      </trkpt>
      <trkpt lat="47.06433" lon="-1.62988">
        <ele>56</ele>
        <time>2021-07-17T08:45:48.000Z</time>
      </trkpt>
      <trkpt lat="47.06444" lon="-1.62983">
        <ele>57</ele>
        <time>2021-07-17T08:45:50.000Z</time>
      </trkpt>
      <trkpt lat="47.06455" lon="-1.62978">
        <ele>57</ele>
        <time>2021-07-17T08:45:52.000Z</time>
      </trkpt>
      <trkpt lat="47.06466" lon="-1.62973">
        <ele>57</ele>
        <time>2021-07-17T08:45:54.000Z</time>
      </trkpt>
      <trkpt lat="47.06477" lon="-1.62967">
        <ele>56</ele>
        <time>2021-07-17T08:45:56.000Z</time>
      </trkpt>
      <trkpt lat="47.06488" lon="-1.6296">
        <ele>56</ele>
        <time>2021-07-17T08:45:58.000Z</time>
      </trkpt>
      <trkpt lat="47.06499" lon="-1.62952">
        <ele>56</ele>
        <time>2021-07-17T08:46:00.000Z</time>
      </trkpt>
      <trkpt lat="47.06509" lon="-1.62943">
        <ele>56</ele>
        <time>2021-07-17T08:46:02.000Z</time>
      </trkpt>
      <trkpt lat="47.06518" lon="-1.62933">
        <ele>56</ele>
        <time>2021-07-17T08:46:04.000Z</time>
      </trkpt>
      <trkpt lat="47.06527" lon="-1.62922">
        <ele>56</ele>
        <time>2021-07-17T08:46:06.000Z</time>
      </trkpt>
      <trkpt lat="47.06536" lon="-1.62909">
        <ele>56</ele>
        <time>2021-07-17T08:46:08.000Z</time>
      </trkpt>
      <trkpt lat="47.06544" lon="-1.62897">
        <ele>56</ele>
        <time>2021-07-17T08:46:10.000Z</time>
      </trkpt>
      <trkpt lat="47.06553" lon="-1.62885">
        <ele>56</ele>
        <time>2021-07-17T08:46:12.000Z</time>
      </trkpt>
      <trkpt lat="47.06561" lon="-1.62872">
        <ele>56</ele>
        <time>2021-07-17T08:46:14.000Z</time>
      </trkpt>
      <trkpt lat="47.06569" lon="-1.62859">
        <ele>56</ele>
        <time>2021-07-17T08:46:16.000Z</time>
      </trkpt>
      <trkpt lat="47.06577" lon="-1.62846">
        <ele>56</ele>
        <time>2021-07-17T08:46:18.000Z</time>
      </trkpt>
      <trkpt lat="47.06585" lon="-1.62834">
        <ele>56</ele>
        <time>2021-07-17T08:46:20.000Z</time>
      </trkpt>
      <trkpt lat="47.06594" lon="-1.62822">
        <ele>56</ele>
        <time>2021-07-17T08:46:22.000Z</time>
      </trkpt>
      <trkpt lat="47.06602" lon="-1.6281">
        <ele>56</ele>
        <time>2021-07-17T08:46:24.000Z</time>
      </trkpt>
      <trkpt lat="47.06611" lon="-1.62796">
        <ele>56</ele>
        <time>2021-07-17T08:46:26.000Z</time>
      </trkpt>
      <trkpt lat="47.06619" lon="-1.62783">
        <ele>56</ele>
        <time>2021-07-17T08:46:28.000Z</time>
      </trkpt>
      <trkpt lat="47.06627" lon="-1.6277">
        <ele>56</ele>
        <time>2021-07-17T08:46:30.000Z</time>
      </trkpt>
      <trkpt lat="47.06635" lon="-1.62757">
        <ele>57</ele>
        <time>2021-07-17T08:46:32.000Z</time>
      </trkpt>
      <trkpt lat="47.06643" lon="-1.62745">
        <ele>57</ele>
        <time>2021-07-17T08:46:34.000Z</time>
      </trkpt>
      <trkpt lat="47.06651" lon="-1.62733">
        <ele>57</ele>
        <time>2021-07-17T08:46:36.000Z</time>
      </trkpt>
      <trkpt lat="47.0666" lon="-1.6272">
        <ele>57</ele>
        <time>2021-07-17T08:46:38.000Z</time>
      </trkpt>
      <trkpt lat="47.06668" lon="-1.62708">
        <ele>57</ele>
        <time>2021-07-17T08:46:40.000Z</time>
      </trkpt>
      <trkpt lat="47.06677" lon="-1.62695">
        <ele>57</ele>
        <time>2021-07-17T08:46:42.000Z</time>
      </trkpt>
      <trkpt lat="47.06685" lon="-1.62682">
        <ele>57</ele>
        <time>2021-07-17T08:46:44.000Z</time>
      </trkpt>
      <trkpt lat="47.06697" lon="-1.62664">
        <ele>57</ele>
        <time>2021-07-17T08:46:47.000Z</time>
      </trkpt>
      <trkpt lat="47.06705" lon="-1.62653">
        <ele>57</ele>
        <time>2021-07-17T08:46:49.000Z</time>
      </trkpt>
      <trkpt lat="47.06714" lon="-1.62641">
        <ele>56</ele>
        <time>2021-07-17T08:46:51.000Z</time>
      </trkpt>
      <trkpt lat="47.06723" lon="-1.62631">
        <ele>56</ele>
        <time>2021-07-17T08:46:53.000Z</time>
      </trkpt>
      <trkpt lat="47.06733" lon="-1.6262">
        <ele>56</ele>
        <time>2021-07-17T08:46:55.000Z</time>
      </trkpt>
      <trkpt lat="47.06743" lon="-1.62609">
        <ele>56</ele>
        <time>2021-07-17T08:46:57.000Z</time>
      </trkpt>
      <trkpt lat="47.06753" lon="-1.626">
        <ele>56</ele>
        <time>2021-07-17T08:46:59.000Z</time>
      </trkpt>
      <trkpt lat="47.06763" lon="-1.6259">
        <ele>56</ele>
        <time>2021-07-17T08:47:01.000Z</time>
      </trkpt>
      <trkpt lat="47.06774" lon="-1.62581">
        <ele>56</ele>
        <time>2021-07-17T08:47:03.000Z</time>
      </trkpt>
      <trkpt lat="47.06784" lon="-1.62572">
        <ele>56</ele>
        <time>2021-07-17T08:47:05.000Z</time>
      </trkpt>
      <trkpt lat="47.06794" lon="-1.62563">
        <ele>56</ele>
        <time>2021-07-17T08:47:07.000Z</time>
      </trkpt>
      <trkpt lat="47.06804" lon="-1.62553">
        <ele>57</ele>
        <time>2021-07-17T08:47:09.000Z</time>
      </trkpt>
      <trkpt lat="47.06813" lon="-1.62544">
        <ele>57</ele>
        <time>2021-07-17T08:47:11.000Z</time>
      </trkpt>
      <trkpt lat="47.06823" lon="-1.62535">
        <ele>57</ele>
        <time>2021-07-17T08:47:13.000Z</time>
      </trkpt>
      <trkpt lat="47.06833" lon="-1.62526">
        <ele>57</ele>
        <time>2021-07-17T08:47:15.000Z</time>
      </trkpt>
      <trkpt lat="47.06844" lon="-1.62517">
        <ele>58</ele>
        <time>2021-07-17T08:47:17.000Z</time>
      </trkpt>
      <trkpt lat="47.06854" lon="-1.62509">
        <ele>57</ele>
        <time>2021-07-17T08:47:19.000Z</time>
      </trkpt>
      <trkpt lat="47.06865" lon="-1.62503">
        <ele>57</ele>
        <time>2021-07-17T08:47:21.000Z</time>
      </trkpt>
      <trkpt lat="47.06876" lon="-1.62497">
        <ele>58</ele>
        <time>2021-07-17T08:47:23.000Z</time>
      </trkpt>
      <trkpt lat="47.06888" lon="-1.62491">
        <ele>58</ele>
        <time>2021-07-17T08:47:25.000Z</time>
      </trkpt>
      <trkpt lat="47.069" lon="-1.62485">
        <ele>59</ele>
        <time>2021-07-17T08:47:27.000Z</time>
      </trkpt>
      <trkpt lat="47.06911" lon="-1.6248">
        <ele>59</ele>
        <time>2021-07-17T08:47:29.000Z</time>
      </trkpt>
      <trkpt lat="47.06922" lon="-1.62475">
        <ele>59</ele>
        <time>2021-07-17T08:47:31.000Z</time>
      </trkpt>
      <trkpt lat="47.06934" lon="-1.62469">
        <ele>59</ele>
        <time>2021-07-17T08:47:33.000Z</time>
      </trkpt>
      <trkpt lat="47.06945" lon="-1.62464">
        <ele>58</ele>
        <time>2021-07-17T08:47:35.000Z</time>
      </trkpt>
      <trkpt lat="47.06957" lon="-1.62458">
        <ele>59</ele>
        <time>2021-07-17T08:47:37.000Z</time>
      </trkpt>
      <trkpt lat="47.06969" lon="-1.62453">
        <ele>59</ele>
        <time>2021-07-17T08:47:39.000Z</time>
      </trkpt>
      <trkpt lat="47.06981" lon="-1.62447">
        <ele>59</ele>
        <time>2021-07-17T08:47:41.000Z</time>
      </trkpt>
      <trkpt lat="47.06993" lon="-1.62441">
        <ele>59</ele>
        <time>2021-07-17T08:47:43.000Z</time>
      </trkpt>
      <trkpt lat="47.07005" lon="-1.62436">
        <ele>59</ele>
        <time>2021-07-17T08:47:45.000Z</time>
      </trkpt>
      <trkpt lat="47.07017" lon="-1.62431">
        <ele>60</ele>
        <time>2021-07-17T08:47:47.000Z</time>
      </trkpt>
      <trkpt lat="47.07029" lon="-1.62424">
        <ele>60</ele>
        <time>2021-07-17T08:47:49.000Z</time>
      </trkpt>
      <trkpt lat="47.07043" lon="-1.62417">
        <ele>59</ele>
        <time>2021-07-17T08:47:51.000Z</time>
      </trkpt>
      <trkpt lat="47.07055" lon="-1.6241">
        <ele>59</ele>
        <time>2021-07-17T08:47:53.000Z</time>
      </trkpt>
      <trkpt lat="47.07067" lon="-1.62402">
        <ele>59</ele>
        <time>2021-07-17T08:47:55.000Z</time>
      </trkpt>
      <trkpt lat="47.0708" lon="-1.62393">
        <ele>58</ele>
        <time>2021-07-17T08:47:57.000Z</time>
      </trkpt>
      <trkpt lat="47.07091" lon="-1.62385">
        <ele>58</ele>
        <time>2021-07-17T08:47:59.000Z</time>
      </trkpt>
      <trkpt lat="47.07103" lon="-1.62376">
        <ele>58</ele>
        <time>2021-07-17T08:48:01.000Z</time>
      </trkpt>
      <trkpt lat="47.07116" lon="-1.62369">
        <ele>58</ele>
        <time>2021-07-17T08:48:03.000Z</time>
      </trkpt>
      <trkpt lat="47.07128" lon="-1.62361">
        <ele>58</ele>
        <time>2021-07-17T08:48:05.000Z</time>
      </trkpt>
      <trkpt lat="47.0714" lon="-1.62353">
        <ele>56</ele>
        <time>2021-07-17T08:48:07.000Z</time>
      </trkpt>
      <trkpt lat="47.07152" lon="-1.62345">
        <ele>56</ele>
        <time>2021-07-17T08:48:09.000Z</time>
      </trkpt>
      <trkpt lat="47.07164" lon="-1.62338">
        <ele>56</ele>
        <time>2021-07-17T08:48:11.000Z</time>
      </trkpt>
      <trkpt lat="47.07175" lon="-1.62331">
        <ele>55</ele>
        <time>2021-07-17T08:48:13.000Z</time>
      </trkpt>
      <trkpt lat="47.07187" lon="-1.62324">
        <ele>55</ele>
        <time>2021-07-17T08:48:15.000Z</time>
      </trkpt>
      <trkpt lat="47.07198" lon="-1.62317">
        <ele>56</ele>
        <time>2021-07-17T08:48:17.000Z</time>
      </trkpt>
      <trkpt lat="47.07209" lon="-1.6231">
        <ele>56</ele>
        <time>2021-07-17T08:48:19.000Z</time>
      </trkpt>
      <trkpt lat="47.0722" lon="-1.62302">
        <ele>56</ele>
        <time>2021-07-17T08:48:21.000Z</time>
      </trkpt>
      <trkpt lat="47.07231" lon="-1.62295">
        <ele>55</ele>
        <time>2021-07-17T08:48:23.000Z</time>
      </trkpt>
      <trkpt lat="47.07242" lon="-1.62288">
        <ele>54</ele>
        <time>2021-07-17T08:48:25.000Z</time>
      </trkpt>
      <trkpt lat="47.07253" lon="-1.62279">
        <ele>55</ele>
        <time>2021-07-17T08:48:27.000Z</time>
      </trkpt>
      <trkpt lat="47.07264" lon="-1.62271">
        <ele>55</ele>
        <time>2021-07-17T08:48:29.000Z</time>
      </trkpt>
      <trkpt lat="47.07274" lon="-1.62261">
        <ele>55</ele>
        <time>2021-07-17T08:48:31.000Z</time>
      </trkpt>
      <trkpt lat="47.07284" lon="-1.62252">
        <ele>55</ele>
        <time>2021-07-17T08:48:33.000Z</time>
      </trkpt>
      <trkpt lat="47.07293" lon="-1.62241">
        <ele>55</ele>
        <time>2021-07-17T08:48:35.000Z</time>
      </trkpt>
      <trkpt lat="47.07302" lon="-1.6223">
        <ele>55</ele>
        <time>2021-07-17T08:48:37.000Z</time>
      </trkpt>
      <trkpt lat="47.07311" lon="-1.62218">
        <ele>56</ele>
        <time>2021-07-17T08:48:39.000Z</time>
      </trkpt>
      <trkpt lat="47.0732" lon="-1.62205">
        <ele>56</ele>
        <time>2021-07-17T08:48:41.000Z</time>
      </trkpt>
      <trkpt lat="47.07329" lon="-1.62192">
        <ele>55</ele>
        <time>2021-07-17T08:48:43.000Z</time>
      </trkpt>
      <trkpt lat="47.07338" lon="-1.62179">
        <ele>55</ele>
        <time>2021-07-17T08:48:45.000Z</time>
      </trkpt>
      <trkpt lat="47.07346" lon="-1.62165">
        <ele>55</ele>
        <time>2021-07-17T08:48:47.000Z</time>
      </trkpt>
      <trkpt lat="47.07355" lon="-1.62152">
        <ele>55</ele>
        <time>2021-07-17T08:48:49.000Z</time>
      </trkpt>
      <trkpt lat="47.07363" lon="-1.62138">
        <ele>55</ele>
        <time>2021-07-17T08:48:51.000Z</time>
      </trkpt>
      <trkpt lat="47.07371" lon="-1.62125">
        <ele>56</ele>
        <time>2021-07-17T08:48:53.000Z</time>
      </trkpt>
      <trkpt lat="47.07379" lon="-1.62112">
        <ele>56</ele>
        <time>2021-07-17T08:48:55.000Z</time>
      </trkpt>
      <trkpt lat="47.07387" lon="-1.62098">
        <ele>56</ele>
        <time>2021-07-17T08:48:57.000Z</time>
      </trkpt>
      <trkpt lat="47.07395" lon="-1.62085">
        <ele>56</ele>
        <time>2021-07-17T08:48:59.000Z</time>
      </trkpt>
      <trkpt lat="47.07403" lon="-1.62071">
        <ele>57</ele>
        <time>2021-07-17T08:49:01.000Z</time>
      </trkpt>
      <trkpt lat="47.07411" lon="-1.62058">
        <ele>57</ele>
        <time>2021-07-17T08:49:03.000Z</time>
      </trkpt>
      <trkpt lat="47.0742" lon="-1.62043">
        <ele>57</ele>
        <time>2021-07-17T08:49:05.000Z</time>
      </trkpt>
      <trkpt lat="47.07428" lon="-1.6203">
        <ele>57</ele>
        <time>2021-07-17T08:49:07.000Z</time>
      </trkpt>
      <trkpt lat="47.07437" lon="-1.62016">
        <ele>57</ele>
        <time>2021-07-17T08:49:09.000Z</time>
      </trkpt>
      <trkpt lat="47.07446" lon="-1.62004">
        <ele>57</ele>
        <time>2021-07-17T08:49:11.000Z</time>
      </trkpt>
      <trkpt lat="47.07455" lon="-1.61991">
        <ele>57</ele>
        <time>2021-07-17T08:49:13.000Z</time>
      </trkpt>
      <trkpt lat="47.07464" lon="-1.6198">
        <ele>57</ele>
        <time>2021-07-17T08:49:15.000Z</time>
      </trkpt>
      <trkpt lat="47.07474" lon="-1.61969">
        <ele>57</ele>
        <time>2021-07-17T08:49:17.000Z</time>
      </trkpt>
      <trkpt lat="47.07484" lon="-1.61958">
        <ele>57</ele>
        <time>2021-07-17T08:49:19.000Z</time>
      </trkpt>
      <trkpt lat="47.07493" lon="-1.61947">
        <ele>57</ele>
        <time>2021-07-17T08:49:21.000Z</time>
      </trkpt>
      <trkpt lat="47.07503" lon="-1.61936">
        <ele>57</ele>
        <time>2021-07-17T08:49:23.000Z</time>
      </trkpt>
      <trkpt lat="47.07512" lon="-1.61924">
        <ele>57</ele>
        <time>2021-07-17T08:49:25.000Z</time>
      </trkpt>
      <trkpt lat="47.07522" lon="-1.61913">
        <ele>56</ele>
        <time>2021-07-17T08:49:27.000Z</time>
      </trkpt>
      <trkpt lat="47.07531" lon="-1.61902">
        <ele>57</ele>
        <time>2021-07-17T08:49:29.000Z</time>
      </trkpt>
      <trkpt lat="47.07541" lon="-1.61891">
        <ele>57</ele>
        <time>2021-07-17T08:49:31.000Z</time>
      </trkpt>
      <trkpt lat="47.07551" lon="-1.6188">
        <ele>57</ele>
        <time>2021-07-17T08:49:33.000Z</time>
      </trkpt>
      <trkpt lat="47.0756" lon="-1.61868">
        <ele>57</ele>
        <time>2021-07-17T08:49:35.000Z</time>
      </trkpt>
      <trkpt lat="47.0757" lon="-1.61856">
        <ele>57</ele>
        <time>2021-07-17T08:49:37.000Z</time>
      </trkpt>
      <trkpt lat="47.0758" lon="-1.61845">
        <ele>57</ele>
        <time>2021-07-17T08:49:39.000Z</time>
      </trkpt>
      <trkpt lat="47.07589" lon="-1.61834">
        <ele>57</ele>
        <time>2021-07-17T08:49:41.000Z</time>
      </trkpt>
      <trkpt lat="47.07599" lon="-1.61823">
        <ele>57</ele>
        <time>2021-07-17T08:49:43.000Z</time>
      </trkpt>
      <trkpt lat="47.07609" lon="-1.61811">
        <ele>57</ele>
        <time>2021-07-17T08:49:45.000Z</time>
      </trkpt>
      <trkpt lat="47.07619" lon="-1.618">
        <ele>57</ele>
        <time>2021-07-17T08:49:47.000Z</time>
      </trkpt>
      <trkpt lat="47.07629" lon="-1.61789">
        <ele>57</ele>
        <time>2021-07-17T08:49:49.000Z</time>
      </trkpt>
      <trkpt lat="47.07638" lon="-1.61778">
        <ele>57</ele>
        <time>2021-07-17T08:49:51.000Z</time>
      </trkpt>
      <trkpt lat="47.07648" lon="-1.61767">
        <ele>57</ele>
        <time>2021-07-17T08:49:53.000Z</time>
      </trkpt>
      <trkpt lat="47.07657" lon="-1.61756">
        <ele>57</ele>
        <time>2021-07-17T08:49:55.000Z</time>
      </trkpt>
      <trkpt lat="47.07667" lon="-1.61745">
        <ele>57</ele>
        <time>2021-07-17T08:49:57.000Z</time>
      </trkpt>
      <trkpt lat="47.07677" lon="-1.61733">
        <ele>57</ele>
        <time>2021-07-17T08:49:59.000Z</time>
      </trkpt>
      <trkpt lat="47.07687" lon="-1.61721">
        <ele>57</ele>
        <time>2021-07-17T08:50:01.000Z</time>
      </trkpt>
      <trkpt lat="47.07698" lon="-1.61709">
        <ele>57</ele>
        <time>2021-07-17T08:50:03.000Z</time>
      </trkpt>
      <trkpt lat="47.07708" lon="-1.61698">
        <ele>56</ele>
        <time>2021-07-17T08:50:05.000Z</time>
      </trkpt>
      <trkpt lat="47.07718" lon="-1.61686">
        <ele>56</ele>
        <time>2021-07-17T08:50:07.000Z</time>
      </trkpt>
      <trkpt lat="47.07729" lon="-1.61675">
        <ele>55</ele>
        <time>2021-07-17T08:50:09.000Z</time>
      </trkpt>
      <trkpt lat="47.07739" lon="-1.61664">
        <ele>55</ele>
        <time>2021-07-17T08:50:11.000Z</time>
      </trkpt>
      <trkpt lat="47.07748" lon="-1.61652">
        <ele>54</ele>
        <time>2021-07-17T08:50:13.000Z</time>
      </trkpt>
      <trkpt lat="47.07758" lon="-1.61641">
        <ele>54</ele>
        <time>2021-07-17T08:50:15.000Z</time>
      </trkpt>
      <trkpt lat="47.07768" lon="-1.61629">
        <ele>54</ele>
        <time>2021-07-17T08:50:17.000Z</time>
      </trkpt>
      <trkpt lat="47.07778" lon="-1.61618">
        <ele>54</ele>
        <time>2021-07-17T08:50:19.000Z</time>
      </trkpt>
      <trkpt lat="47.07788" lon="-1.61607">
        <ele>54</ele>
        <time>2021-07-17T08:50:21.000Z</time>
      </trkpt>
      <trkpt lat="47.07799" lon="-1.61598">
        <ele>54</ele>
        <time>2021-07-17T08:50:23.000Z</time>
      </trkpt>
      <trkpt lat="47.0781" lon="-1.61588">
        <ele>54</ele>
        <time>2021-07-17T08:50:25.000Z</time>
      </trkpt>
      <trkpt lat="47.07821" lon="-1.61581">
        <ele>54</ele>
        <time>2021-07-17T08:50:27.000Z</time>
      </trkpt>
      <trkpt lat="47.07832" lon="-1.61573">
        <ele>54</ele>
        <time>2021-07-17T08:50:29.000Z</time>
      </trkpt>
      <trkpt lat="47.07844" lon="-1.61566">
        <ele>54</ele>
        <time>2021-07-17T08:50:31.000Z</time>
      </trkpt>
      <trkpt lat="47.07855" lon="-1.6156">
        <ele>54</ele>
        <time>2021-07-17T08:50:33.000Z</time>
      </trkpt>
      <trkpt lat="47.07868" lon="-1.61555">
        <ele>54</ele>
        <time>2021-07-17T08:50:35.000Z</time>
      </trkpt>
      <trkpt lat="47.0788" lon="-1.61549">
        <ele>54</ele>
        <time>2021-07-17T08:50:37.000Z</time>
      </trkpt>
      <trkpt lat="47.07892" lon="-1.61545">
        <ele>54</ele>
        <time>2021-07-17T08:50:39.000Z</time>
      </trkpt>
      <trkpt lat="47.07904" lon="-1.61539">
        <ele>55</ele>
        <time>2021-07-17T08:50:41.000Z</time>
      </trkpt>
      <trkpt lat="47.07915" lon="-1.61533">
        <ele>54</ele>
        <time>2021-07-17T08:50:43.000Z</time>
      </trkpt>
      <trkpt lat="47.07926" lon="-1.61528">
        <ele>55</ele>
        <time>2021-07-17T08:50:45.000Z</time>
      </trkpt>
      <trkpt lat="47.07937" lon="-1.61523">
        <ele>55</ele>
        <time>2021-07-17T08:50:47.000Z</time>
      </trkpt>
      <trkpt lat="47.07948" lon="-1.61519">
        <ele>55</ele>
        <time>2021-07-17T08:50:49.000Z</time>
      </trkpt>
      <trkpt lat="47.07959" lon="-1.61514">
        <ele>55</ele>
        <time>2021-07-17T08:50:51.000Z</time>
      </trkpt>
      <trkpt lat="47.07971" lon="-1.61509">
        <ele>55</ele>
        <time>2021-07-17T08:50:53.000Z</time>
      </trkpt>
      <trkpt lat="47.07982" lon="-1.61504">
        <ele>55</ele>
        <time>2021-07-17T08:50:55.000Z</time>
      </trkpt>
      <trkpt lat="47.07994" lon="-1.615">
        <ele>56</ele>
        <time>2021-07-17T08:50:57.000Z</time>
      </trkpt>
      <trkpt lat="47.08006" lon="-1.61496">
        <ele>55</ele>
        <time>2021-07-17T08:50:59.000Z</time>
      </trkpt>
      <trkpt lat="47.08018" lon="-1.61492">
        <ele>55</ele>
        <time>2021-07-17T08:51:01.000Z</time>
      </trkpt>
      <trkpt lat="47.0803" lon="-1.61486">
        <ele>55</ele>
        <time>2021-07-17T08:51:03.000Z</time>
      </trkpt>
      <trkpt lat="47.08042" lon="-1.61481">
        <ele>55</ele>
        <time>2021-07-17T08:51:05.000Z</time>
      </trkpt>
      <trkpt lat="47.08054" lon="-1.61475">
        <ele>56</ele>
        <time>2021-07-17T08:51:07.000Z</time>
      </trkpt>
      <trkpt lat="47.08066" lon="-1.6147">
        <ele>55</ele>
        <time>2021-07-17T08:51:09.000Z</time>
      </trkpt>
      <trkpt lat="47.08078" lon="-1.61464">
        <ele>56</ele>
        <time>2021-07-17T08:51:11.000Z</time>
      </trkpt>
      <trkpt lat="47.0809" lon="-1.61459">
        <ele>56</ele>
        <time>2021-07-17T08:51:13.000Z</time>
      </trkpt>
      <trkpt lat="47.08102" lon="-1.61453">
        <ele>56</ele>
        <time>2021-07-17T08:51:15.000Z</time>
      </trkpt>
      <trkpt lat="47.08115" lon="-1.61447">
        <ele>56</ele>
        <time>2021-07-17T08:51:17.000Z</time>
      </trkpt>
      <trkpt lat="47.08127" lon="-1.61442">
        <ele>56</ele>
        <time>2021-07-17T08:51:19.000Z</time>
      </trkpt>
      <trkpt lat="47.0814" lon="-1.61438">
        <ele>55</ele>
        <time>2021-07-17T08:51:21.000Z</time>
      </trkpt>
      <trkpt lat="47.08153" lon="-1.61433">
        <ele>55</ele>
        <time>2021-07-17T08:51:23.000Z</time>
      </trkpt>
      <trkpt lat="47.08165" lon="-1.61427">
        <ele>54</ele>
        <time>2021-07-17T08:51:25.000Z</time>
      </trkpt>
      <trkpt lat="47.08177" lon="-1.61423">
        <ele>55</ele>
        <time>2021-07-17T08:51:27.000Z</time>
      </trkpt>
      <trkpt lat="47.08189" lon="-1.61417">
        <ele>55</ele>
        <time>2021-07-17T08:51:29.000Z</time>
      </trkpt>
      <trkpt lat="47.08201" lon="-1.61412">
        <ele>55</ele>
        <time>2021-07-17T08:51:31.000Z</time>
      </trkpt>
      <trkpt lat="47.08213" lon="-1.61406">
        <ele>56</ele>
        <time>2021-07-17T08:51:33.000Z</time>
      </trkpt>
      <trkpt lat="47.08225" lon="-1.61401">
        <ele>55</ele>
        <time>2021-07-17T08:51:35.000Z</time>
      </trkpt>
      <trkpt lat="47.08237" lon="-1.61396">
        <ele>55</ele>
        <time>2021-07-17T08:51:37.000Z</time>
      </trkpt>
      <trkpt lat="47.08249" lon="-1.61391">
        <ele>55</ele>
        <time>2021-07-17T08:51:39.000Z</time>
      </trkpt>
      <trkpt lat="47.08262" lon="-1.61386">
        <ele>55</ele>
        <time>2021-07-17T08:51:41.000Z</time>
      </trkpt>
      <trkpt lat="47.08274" lon="-1.61381">
        <ele>55</ele>
        <time>2021-07-17T08:51:43.000Z</time>
      </trkpt>
      <trkpt lat="47.08286" lon="-1.61375">
        <ele>56</ele>
        <time>2021-07-17T08:51:45.000Z</time>
      </trkpt>
      <trkpt lat="47.08298" lon="-1.6137">
        <ele>56</ele>
        <time>2021-07-17T08:51:47.000Z</time>
      </trkpt>
      <trkpt lat="47.08309" lon="-1.61365">
        <ele>56</ele>
        <time>2021-07-17T08:51:49.000Z</time>
      </trkpt>
      <trkpt lat="47.08321" lon="-1.6136">
        <ele>56</ele>
        <time>2021-07-17T08:51:51.000Z</time>
      </trkpt>
      <trkpt lat="47.08334" lon="-1.61355">
        <ele>56</ele>
        <time>2021-07-17T08:51:53.000Z</time>
      </trkpt>
      <trkpt lat="47.08346" lon="-1.6135">
        <ele>56</ele>
        <time>2021-07-17T08:51:55.000Z</time>
      </trkpt>
      <trkpt lat="47.08358" lon="-1.61345">
        <ele>56</ele>
        <time>2021-07-17T08:51:57.000Z</time>
      </trkpt>
      <trkpt lat="47.0837" lon="-1.6134">
        <ele>56</ele>
        <time>2021-07-17T08:51:59.000Z</time>
      </trkpt>
      <trkpt lat="47.08381" lon="-1.61335">
        <ele>56</ele>
        <time>2021-07-17T08:52:01.000Z</time>
      </trkpt>
      <trkpt lat="47.08393" lon="-1.6133">
        <ele>55</ele>
        <time>2021-07-17T08:52:03.000Z</time>
      </trkpt>
      <trkpt lat="47.08406" lon="-1.61325">
        <ele>55</ele>
        <time>2021-07-17T08:52:05.000Z</time>
      </trkpt>
      <trkpt lat="47.08417" lon="-1.6132">
        <ele>55</ele>
        <time>2021-07-17T08:52:07.000Z</time>
      </trkpt>
      <trkpt lat="47.08429" lon="-1.61315">
        <ele>55</ele>
        <time>2021-07-17T08:52:09.000Z</time>
      </trkpt>
      <trkpt lat="47.08441" lon="-1.61309">
        <ele>55</ele>
        <time>2021-07-17T08:52:11.000Z</time>
      </trkpt>
      <trkpt lat="47.08452" lon="-1.61304">
        <ele>54</ele>
        <time>2021-07-17T08:52:13.000Z</time>
      </trkpt>
      <trkpt lat="47.08464" lon="-1.613">
        <ele>54</ele>
        <time>2021-07-17T08:52:15.000Z</time>
      </trkpt>
      <trkpt lat="47.08474" lon="-1.61295">
        <ele>54</ele>
        <time>2021-07-17T08:52:17.000Z</time>
      </trkpt>
      <trkpt lat="47.08485" lon="-1.6129">
        <ele>54</ele>
        <time>2021-07-17T08:52:19.000Z</time>
      </trkpt>
      <trkpt lat="47.08496" lon="-1.61283">
        <ele>54</ele>
        <time>2021-07-17T08:52:21.000Z</time>
      </trkpt>
      <trkpt lat="47.08508" lon="-1.6128">
        <ele>54</ele>
        <time>2021-07-17T08:52:23.000Z</time>
      </trkpt>
      <trkpt lat="47.08519" lon="-1.61276">
        <ele>55</ele>
        <time>2021-07-17T08:52:25.000Z</time>
      </trkpt>
      <trkpt lat="47.0853" lon="-1.61271">
        <ele>55</ele>
        <time>2021-07-17T08:52:27.000Z</time>
      </trkpt>
      <trkpt lat="47.08542" lon="-1.61266">
        <ele>55</ele>
        <time>2021-07-17T08:52:29.000Z</time>
      </trkpt>
      <trkpt lat="47.08554" lon="-1.61261">
        <ele>55</ele>
        <time>2021-07-17T08:52:31.000Z</time>
      </trkpt>
      <trkpt lat="47.08566" lon="-1.61255">
        <ele>55</ele>
        <time>2021-07-17T08:52:33.000Z</time>
      </trkpt>
      <trkpt lat="47.08577" lon="-1.6125">
        <ele>55</ele>
        <time>2021-07-17T08:52:35.000Z</time>
      </trkpt>
      <trkpt lat="47.08589" lon="-1.61245">
        <ele>55</ele>
        <time>2021-07-17T08:52:37.000Z</time>
      </trkpt>
      <trkpt lat="47.08601" lon="-1.6124">
        <ele>55</ele>
        <time>2021-07-17T08:52:39.000Z</time>
      </trkpt>
      <trkpt lat="47.08612" lon="-1.61235">
        <ele>55</ele>
        <time>2021-07-17T08:52:41.000Z</time>
      </trkpt>
      <trkpt lat="47.08624" lon="-1.6123">
        <ele>55</ele>
        <time>2021-07-17T08:52:43.000Z</time>
      </trkpt>
      <trkpt lat="47.08636" lon="-1.61225">
        <ele>56</ele>
        <time>2021-07-17T08:52:45.000Z</time>
      </trkpt>
      <trkpt lat="47.08647" lon="-1.61221">
        <ele>56</ele>
        <time>2021-07-17T08:52:47.000Z</time>
      </trkpt>
      <trkpt lat="47.08658" lon="-1.61216">
        <ele>56</ele>
        <time>2021-07-17T08:52:49.000Z</time>
      </trkpt>
      <trkpt lat="47.08669" lon="-1.6121">
        <ele>57</ele>
        <time>2021-07-17T08:52:51.000Z</time>
      </trkpt>
      <trkpt lat="47.0868" lon="-1.61206">
        <ele>57</ele>
        <time>2021-07-17T08:52:53.000Z</time>
      </trkpt>
      <trkpt lat="47.08691" lon="-1.61201">
        <ele>57</ele>
        <time>2021-07-17T08:52:55.000Z</time>
      </trkpt>
      <trkpt lat="47.08703" lon="-1.61197">
        <ele>57</ele>
        <time>2021-07-17T08:52:57.000Z</time>
      </trkpt>
      <trkpt lat="47.08715" lon="-1.61192">
        <ele>57</ele>
        <time>2021-07-17T08:52:59.000Z</time>
      </trkpt>
      <trkpt lat="47.08726" lon="-1.61187">
        <ele>58</ele>
        <time>2021-07-17T08:53:01.000Z</time>
      </trkpt>
      <trkpt lat="47.08737" lon="-1.61181">
        <ele>58</ele>
        <time>2021-07-17T08:53:03.000Z</time>
      </trkpt>
      <trkpt lat="47.08748" lon="-1.61176">
        <ele>58</ele>
        <time>2021-07-17T08:53:05.000Z</time>
      </trkpt>
      <trkpt lat="47.0876" lon="-1.61172">
        <ele>58</ele>
        <time>2021-07-17T08:53:07.000Z</time>
      </trkpt>
      <trkpt lat="47.08771" lon="-1.61168">
        <ele>57</ele>
        <time>2021-07-17T08:53:09.000Z</time>
      </trkpt>
      <trkpt lat="47.08783" lon="-1.61163">
        <ele>57</ele>
        <time>2021-07-17T08:53:11.000Z</time>
      </trkpt>
      <trkpt lat="47.08794" lon="-1.61158">
        <ele>57</ele>
        <time>2021-07-17T08:53:13.000Z</time>
      </trkpt>
      <trkpt lat="47.08806" lon="-1.61153">
        <ele>57</ele>
        <time>2021-07-17T08:53:15.000Z</time>
      </trkpt>
      <trkpt lat="47.08818" lon="-1.61148">
        <ele>57</ele>
        <time>2021-07-17T08:53:17.000Z</time>
      </trkpt>
      <trkpt lat="47.0883" lon="-1.61143">
        <ele>57</ele>
        <time>2021-07-17T08:53:19.000Z</time>
      </trkpt>
      <trkpt lat="47.08841" lon="-1.61138">
        <ele>57</ele>
        <time>2021-07-17T08:53:21.000Z</time>
      </trkpt>
      <trkpt lat="47.08853" lon="-1.61133">
        <ele>57</ele>
        <time>2021-07-17T08:53:23.000Z</time>
      </trkpt>
      <trkpt lat="47.08865" lon="-1.61127">
        <ele>58</ele>
        <time>2021-07-17T08:53:25.000Z</time>
      </trkpt>
      <trkpt lat="47.08877" lon="-1.61122">
        <ele>58</ele>
        <time>2021-07-17T08:53:27.000Z</time>
      </trkpt>
      <trkpt lat="47.08888" lon="-1.61117">
        <ele>58</ele>
        <time>2021-07-17T08:53:29.000Z</time>
      </trkpt>
      <trkpt lat="47.08899" lon="-1.61112">
        <ele>58</ele>
        <time>2021-07-17T08:53:31.000Z</time>
      </trkpt>
      <trkpt lat="47.08911" lon="-1.61107">
        <ele>58</ele>
        <time>2021-07-17T08:53:33.000Z</time>
      </trkpt>
      <trkpt lat="47.08923" lon="-1.61102">
        <ele>58</ele>
        <time>2021-07-17T08:53:35.000Z</time>
      </trkpt>
      <trkpt lat="47.08935" lon="-1.61097">
        <ele>58</ele>
        <time>2021-07-17T08:53:37.000Z</time>
      </trkpt>
      <trkpt lat="47.08946" lon="-1.61092">
        <ele>59</ele>
        <time>2021-07-17T08:53:39.000Z</time>
      </trkpt>
      <trkpt lat="47.08959" lon="-1.61087">
        <ele>58</ele>
        <time>2021-07-17T08:53:41.000Z</time>
      </trkpt>
      <trkpt lat="47.08971" lon="-1.61083">
        <ele>59</ele>
        <time>2021-07-17T08:53:43.000Z</time>
      </trkpt>
      <trkpt lat="47.08983" lon="-1.61083">
        <ele>59</ele>
        <time>2021-07-17T08:53:45.000Z</time>
      </trkpt>
      <trkpt lat="47.08996" lon="-1.61084">
        <ele>59</ele>
        <time>2021-07-17T08:53:47.000Z</time>
      </trkpt>
      <trkpt lat="47.09009" lon="-1.61086">
        <ele>60</ele>
        <time>2021-07-17T08:53:49.000Z</time>
      </trkpt>
      <trkpt lat="47.09021" lon="-1.6109">
        <ele>60</ele>
        <time>2021-07-17T08:53:51.000Z</time>
      </trkpt>
      <trkpt lat="47.09034" lon="-1.61094">
        <ele>60</ele>
        <time>2021-07-17T08:53:53.000Z</time>
      </trkpt>
      <trkpt lat="47.09046" lon="-1.61097">
        <ele>60</ele>
        <time>2021-07-17T08:53:55.000Z</time>
      </trkpt>
      <trkpt lat="47.09058" lon="-1.61101">
        <ele>60</ele>
        <time>2021-07-17T08:53:57.000Z</time>
      </trkpt>
      <trkpt lat="47.0907" lon="-1.61105">
        <ele>60</ele>
        <time>2021-07-17T08:53:59.000Z</time>
      </trkpt>
      <trkpt lat="47.09082" lon="-1.61109">
        <ele>60</ele>
        <time>2021-07-17T08:54:01.000Z</time>
      </trkpt>
      <trkpt lat="47.09093" lon="-1.61112">
        <ele>60</ele>
        <time>2021-07-17T08:54:03.000Z</time>
      </trkpt>
      <trkpt lat="47.09105" lon="-1.61116">
        <ele>60</ele>
        <time>2021-07-17T08:54:05.000Z</time>
      </trkpt>
      <trkpt lat="47.09117" lon="-1.6112">
        <ele>60</ele>
        <time>2021-07-17T08:54:07.000Z</time>
      </trkpt>
      <trkpt lat="47.09128" lon="-1.61123">
        <ele>60</ele>
        <time>2021-07-17T08:54:09.000Z</time>
      </trkpt>
      <trkpt lat="47.09139" lon="-1.61126">
        <ele>60</ele>
        <time>2021-07-17T08:54:11.000Z</time>
      </trkpt>
      <trkpt lat="47.09151" lon="-1.6113">
        <ele>60</ele>
        <time>2021-07-17T08:54:13.000Z</time>
      </trkpt>
      <trkpt lat="47.09162" lon="-1.61133">
        <ele>60</ele>
        <time>2021-07-17T08:54:15.000Z</time>
      </trkpt>
      <trkpt lat="47.09173" lon="-1.61137">
        <ele>60</ele>
        <time>2021-07-17T08:54:17.000Z</time>
      </trkpt>
      <trkpt lat="47.09184" lon="-1.6114">
        <ele>60</ele>
        <time>2021-07-17T08:54:19.000Z</time>
      </trkpt>
      <trkpt lat="47.09195" lon="-1.61145">
        <ele>60</ele>
        <time>2021-07-17T08:54:21.000Z</time>
      </trkpt>
      <trkpt lat="47.09206" lon="-1.61148">
        <ele>60</ele>
        <time>2021-07-17T08:54:23.000Z</time>
      </trkpt>
      <trkpt lat="47.09217" lon="-1.61153">
        <ele>60</ele>
        <time>2021-07-17T08:54:25.000Z</time>
      </trkpt>
      <trkpt lat="47.09227" lon="-1.61163">
        <ele>60</ele>
        <time>2021-07-17T08:54:27.000Z</time>
      </trkpt>
      <trkpt lat="47.09238" lon="-1.61172">
        <ele>59</ele>
        <time>2021-07-17T08:54:29.000Z</time>
      </trkpt>
      <trkpt lat="47.0925" lon="-1.61177">
        <ele>59</ele>
        <time>2021-07-17T08:54:31.000Z</time>
      </trkpt>
      <trkpt lat="47.09262" lon="-1.6118">
        <ele>59</ele>
        <time>2021-07-17T08:54:33.000Z</time>
      </trkpt>
      <trkpt lat="47.09273" lon="-1.61184">
        <ele>59</ele>
        <time>2021-07-17T08:54:35.000Z</time>
      </trkpt>
      <trkpt lat="47.09285" lon="-1.61188">
        <ele>59</ele>
        <time>2021-07-17T08:54:37.000Z</time>
      </trkpt>
      <trkpt lat="47.09297" lon="-1.61191">
        <ele>60</ele>
        <time>2021-07-17T08:54:39.000Z</time>
      </trkpt>
      <trkpt lat="47.09308" lon="-1.61194">
        <ele>59</ele>
        <time>2021-07-17T08:54:41.000Z</time>
      </trkpt>
      <trkpt lat="47.09317" lon="-1.61197">
        <ele>59</ele>
        <time>2021-07-17T08:54:43.000Z</time>
      </trkpt>
      <trkpt lat="47.09328" lon="-1.612">
        <ele>59</ele>
        <time>2021-07-17T08:54:45.000Z</time>
      </trkpt>
      <trkpt lat="47.0934" lon="-1.61202">
        <ele>59</ele>
        <time>2021-07-17T08:54:47.000Z</time>
      </trkpt>
      <trkpt lat="47.09351" lon="-1.61204">
        <ele>59</ele>
        <time>2021-07-17T08:54:49.000Z</time>
      </trkpt>
      <trkpt lat="47.09363" lon="-1.61209">
        <ele>60</ele>
        <time>2021-07-17T08:54:51.000Z</time>
      </trkpt>
      <trkpt lat="47.09375" lon="-1.61216">
        <ele>59</ele>
        <time>2021-07-17T08:54:53.000Z</time>
      </trkpt>
      <trkpt lat="47.09387" lon="-1.61221">
        <ele>59</ele>
        <time>2021-07-17T08:54:55.000Z</time>
      </trkpt>
      <trkpt lat="47.09398" lon="-1.61226">
        <ele>58</ele>
        <time>2021-07-17T08:54:57.000Z</time>
      </trkpt>
      <trkpt lat="47.0941" lon="-1.61231">
        <ele>58</ele>
        <time>2021-07-17T08:54:59.000Z</time>
      </trkpt>
      <trkpt lat="47.09422" lon="-1.61228">
        <ele>57</ele>
        <time>2021-07-17T08:55:01.000Z</time>
      </trkpt>
      <trkpt lat="47.09432" lon="-1.61217">
        <ele>57</ele>
        <time>2021-07-17T08:55:03.000Z</time>
      </trkpt>
      <trkpt lat="47.09442" lon="-1.61204">
        <ele>57</ele>
        <time>2021-07-17T08:55:05.000Z</time>
      </trkpt>
      <trkpt lat="47.09452" lon="-1.61193">
        <ele>56</ele>
        <time>2021-07-17T08:55:07.000Z</time>
      </trkpt>
      <trkpt lat="47.09463" lon="-1.61181">
        <ele>56</ele>
        <time>2021-07-17T08:55:09.000Z</time>
      </trkpt>
      <trkpt lat="47.09473" lon="-1.61169">
        <ele>56</ele>
        <time>2021-07-17T08:55:11.000Z</time>
      </trkpt>
      <trkpt lat="47.09484" lon="-1.61157">
        <ele>56</ele>
        <time>2021-07-17T08:55:13.000Z</time>
      </trkpt>
      <trkpt lat="47.09496" lon="-1.61147">
        <ele>57</ele>
        <time>2021-07-17T08:55:15.000Z</time>
      </trkpt>
      <trkpt lat="47.09508" lon="-1.61141">
        <ele>57</ele>
        <time>2021-07-17T08:55:17.000Z</time>
      </trkpt>
      <trkpt lat="47.09521" lon="-1.61137">
        <ele>56</ele>
        <time>2021-07-17T08:55:19.000Z</time>
      </trkpt>
      <trkpt lat="47.09533" lon="-1.61134">
        <ele>56</ele>
        <time>2021-07-17T08:55:21.000Z</time>
      </trkpt>
      <trkpt lat="47.09546" lon="-1.61132">
        <ele>56</ele>
        <time>2021-07-17T08:55:23.000Z</time>
      </trkpt>
      <trkpt lat="47.0956" lon="-1.6113">
        <ele>56</ele>
        <time>2021-07-17T08:55:25.000Z</time>
      </trkpt>
      <trkpt lat="47.09574" lon="-1.61129">
        <ele>55</ele>
        <time>2021-07-17T08:55:27.000Z</time>
      </trkpt>
      <trkpt lat="47.09588" lon="-1.61128">
        <ele>55</ele>
        <time>2021-07-17T08:55:29.000Z</time>
      </trkpt>
      <trkpt lat="47.09601" lon="-1.61126">
        <ele>54</ele>
        <time>2021-07-17T08:55:31.000Z</time>
      </trkpt>
      <trkpt lat="47.09615" lon="-1.61125">
        <ele>54</ele>
        <time>2021-07-17T08:55:33.000Z</time>
      </trkpt>
      <trkpt lat="47.09629" lon="-1.61123">
        <ele>54</ele>
        <time>2021-07-17T08:55:35.000Z</time>
      </trkpt>
      <trkpt lat="47.09642" lon="-1.61121">
        <ele>54</ele>
        <time>2021-07-17T08:55:37.000Z</time>
      </trkpt>
      <trkpt lat="47.09656" lon="-1.6112">
        <ele>53</ele>
        <time>2021-07-17T08:55:39.000Z</time>
      </trkpt>
      <trkpt lat="47.09669" lon="-1.61117">
        <ele>53</ele>
        <time>2021-07-17T08:55:41.000Z</time>
      </trkpt>
      <trkpt lat="47.09682" lon="-1.61115">
        <ele>53</ele>
        <time>2021-07-17T08:55:43.000Z</time>
      </trkpt>
      <trkpt lat="47.09696" lon="-1.61115">
        <ele>52</ele>
        <time>2021-07-17T08:55:45.000Z</time>
      </trkpt>
      <trkpt lat="47.09709" lon="-1.61113">
        <ele>52</ele>
        <time>2021-07-17T08:55:47.000Z</time>
      </trkpt>
      <trkpt lat="47.09722" lon="-1.61112">
        <ele>53</ele>
        <time>2021-07-17T08:55:49.000Z</time>
      </trkpt>
      <trkpt lat="47.09735" lon="-1.6111">
        <ele>53</ele>
        <time>2021-07-17T08:55:51.000Z</time>
      </trkpt>
      <trkpt lat="47.09747" lon="-1.61107">
        <ele>53</ele>
        <time>2021-07-17T08:55:53.000Z</time>
      </trkpt>
      <trkpt lat="47.0976" lon="-1.61105">
        <ele>53</ele>
        <time>2021-07-17T08:55:55.000Z</time>
      </trkpt>
      <trkpt lat="47.09773" lon="-1.61104">
        <ele>53</ele>
        <time>2021-07-17T08:55:57.000Z</time>
      </trkpt>
      <trkpt lat="47.09785" lon="-1.61102">
        <ele>54</ele>
        <time>2021-07-17T08:55:59.000Z</time>
      </trkpt>
      <trkpt lat="47.09797" lon="-1.61097">
        <ele>53</ele>
        <time>2021-07-17T08:56:01.000Z</time>
      </trkpt>
      <trkpt lat="47.09809" lon="-1.61092">
        <ele>53</ele>
        <time>2021-07-17T08:56:03.000Z</time>
      </trkpt>
      <trkpt lat="47.0982" lon="-1.61084">
        <ele>54</ele>
        <time>2021-07-17T08:56:05.000Z</time>
      </trkpt>
      <trkpt lat="47.09831" lon="-1.61075">
        <ele>54</ele>
        <time>2021-07-17T08:56:07.000Z</time>
      </trkpt>
      <trkpt lat="47.09841" lon="-1.61065">
        <ele>53</ele>
        <time>2021-07-17T08:56:09.000Z</time>
      </trkpt>
      <trkpt lat="47.09849" lon="-1.61055">
        <ele>53</ele>
        <time>2021-07-17T08:56:11.000Z</time>
      </trkpt>
      <trkpt lat="47.09857" lon="-1.61042">
        <ele>54</ele>
        <time>2021-07-17T08:56:13.000Z</time>
      </trkpt>
      <trkpt lat="47.09864" lon="-1.6103">
        <ele>54</ele>
        <time>2021-07-17T08:56:15.000Z</time>
      </trkpt>
      <trkpt lat="47.09871" lon="-1.61017">
        <ele>55</ele>
        <time>2021-07-17T08:56:17.000Z</time>
      </trkpt>
      <trkpt lat="47.09877" lon="-1.61003">
        <ele>55</ele>
        <time>2021-07-17T08:56:19.000Z</time>
      </trkpt>
      <trkpt lat="47.09883" lon="-1.60988">
        <ele>55</ele>
        <time>2021-07-17T08:56:21.000Z</time>
      </trkpt>
      <trkpt lat="47.09888" lon="-1.60974">
        <ele>55</ele>
        <time>2021-07-17T08:56:23.000Z</time>
      </trkpt>
      <trkpt lat="47.09894" lon="-1.60961">
        <ele>55</ele>
        <time>2021-07-17T08:56:25.000Z</time>
      </trkpt>
      <trkpt lat="47.09899" lon="-1.60947">
        <ele>55</ele>
        <time>2021-07-17T08:56:27.000Z</time>
      </trkpt>
      <trkpt lat="47.09904" lon="-1.60933">
        <ele>56</ele>
        <time>2021-07-17T08:56:29.000Z</time>
      </trkpt>
      <trkpt lat="47.0991" lon="-1.6092">
        <ele>56</ele>
        <time>2021-07-17T08:56:31.000Z</time>
      </trkpt>
      <trkpt lat="47.09915" lon="-1.60906">
        <ele>57</ele>
        <time>2021-07-17T08:56:33.000Z</time>
      </trkpt>
      <trkpt lat="47.09921" lon="-1.60891">
        <ele>57</ele>
        <time>2021-07-17T08:56:35.000Z</time>
      </trkpt>
      <trkpt lat="47.09926" lon="-1.60877">
        <ele>57</ele>
        <time>2021-07-17T08:56:37.000Z</time>
      </trkpt>
      <trkpt lat="47.09932" lon="-1.60863">
        <ele>58</ele>
        <time>2021-07-17T08:56:39.000Z</time>
      </trkpt>
      <trkpt lat="47.09938" lon="-1.60849">
        <ele>58</ele>
        <time>2021-07-17T08:56:41.000Z</time>
      </trkpt>
      <trkpt lat="47.09943" lon="-1.60835">
        <ele>58</ele>
        <time>2021-07-17T08:56:43.000Z</time>
      </trkpt>
      <trkpt lat="47.09947" lon="-1.60819">
        <ele>58</ele>
        <time>2021-07-17T08:56:45.000Z</time>
      </trkpt>
      <trkpt lat="47.09952" lon="-1.60804">
        <ele>59</ele>
        <time>2021-07-17T08:56:47.000Z</time>
      </trkpt>
      <trkpt lat="47.09957" lon="-1.6079">
        <ele>59</ele>
        <time>2021-07-17T08:56:49.000Z</time>
      </trkpt>
      <trkpt lat="47.09961" lon="-1.60775">
        <ele>59</ele>
        <time>2021-07-17T08:56:51.000Z</time>
      </trkpt>
      <trkpt lat="47.09966" lon="-1.60761">
        <ele>59</ele>
        <time>2021-07-17T08:56:53.000Z</time>
      </trkpt>
      <trkpt lat="47.0997" lon="-1.60745">
        <ele>59</ele>
        <time>2021-07-17T08:56:55.000Z</time>
      </trkpt>
      <trkpt lat="47.09975" lon="-1.60731">
        <ele>59</ele>
        <time>2021-07-17T08:56:57.000Z</time>
      </trkpt>
      <trkpt lat="47.09979" lon="-1.60715">
        <ele>59</ele>
        <time>2021-07-17T08:56:59.000Z</time>
      </trkpt>
      <trkpt lat="47.09984" lon="-1.607">
        <ele>59</ele>
        <time>2021-07-17T08:57:01.000Z</time>
      </trkpt>
      <trkpt lat="47.09989" lon="-1.60685">
        <ele>59</ele>
        <time>2021-07-17T08:57:03.000Z</time>
      </trkpt>
      <trkpt lat="47.09993" lon="-1.6067">
        <ele>59</ele>
        <time>2021-07-17T08:57:05.000Z</time>
      </trkpt>
      <trkpt lat="47.09998" lon="-1.60654">
        <ele>60</ele>
        <time>2021-07-17T08:57:07.000Z</time>
      </trkpt>
      <trkpt lat="47.10002" lon="-1.60639">
        <ele>60</ele>
        <time>2021-07-17T08:57:09.000Z</time>
      </trkpt>
      <trkpt lat="47.10007" lon="-1.60624">
        <ele>60</ele>
        <time>2021-07-17T08:57:11.000Z</time>
      </trkpt>
      <trkpt lat="47.10011" lon="-1.60608">
        <ele>59</ele>
        <time>2021-07-17T08:57:13.000Z</time>
      </trkpt>
      <trkpt lat="47.10016" lon="-1.60593">
        <ele>59</ele>
        <time>2021-07-17T08:57:15.000Z</time>
      </trkpt>
      <trkpt lat="47.1002" lon="-1.60577">
        <ele>59</ele>
        <time>2021-07-17T08:57:17.000Z</time>
      </trkpt>
      <trkpt lat="47.10025" lon="-1.60562">
        <ele>59</ele>
        <time>2021-07-17T08:57:19.000Z</time>
      </trkpt>
      <trkpt lat="47.1003" lon="-1.60546">
        <ele>59</ele>
        <time>2021-07-17T08:57:21.000Z</time>
      </trkpt>
      <trkpt lat="47.10034" lon="-1.60531">
        <ele>59</ele>
        <time>2021-07-17T08:57:23.000Z</time>
      </trkpt>
      <trkpt lat="47.10038" lon="-1.60515">
        <ele>58</ele>
        <time>2021-07-17T08:57:25.000Z</time>
      </trkpt>
      <trkpt lat="47.10043" lon="-1.605">
        <ele>58</ele>
        <time>2021-07-17T08:57:27.000Z</time>
      </trkpt>
      <trkpt lat="47.10047" lon="-1.60484">
        <ele>58</ele>
        <time>2021-07-17T08:57:29.000Z</time>
      </trkpt>
      <trkpt lat="47.1005" lon="-1.60468">
        <ele>58</ele>
        <time>2021-07-17T08:57:31.000Z</time>
      </trkpt>
      <trkpt lat="47.10053" lon="-1.60452">
        <ele>58</ele>
        <time>2021-07-17T08:57:33.000Z</time>
      </trkpt>
      <trkpt lat="47.10056" lon="-1.60435">
        <ele>58</ele>
        <time>2021-07-17T08:57:35.000Z</time>
      </trkpt>
      <trkpt lat="47.10058" lon="-1.60419">
        <ele>58</ele>
        <time>2021-07-17T08:57:37.000Z</time>
      </trkpt>
      <trkpt lat="47.1006" lon="-1.60403">
        <ele>58</ele>
        <time>2021-07-17T08:57:39.000Z</time>
      </trkpt>
      <trkpt lat="47.10062" lon="-1.60386">
        <ele>58</ele>
        <time>2021-07-17T08:57:41.000Z</time>
      </trkpt>
      <trkpt lat="47.10063" lon="-1.60369">
        <ele>58</ele>
        <time>2021-07-17T08:57:43.000Z</time>
      </trkpt>
      <trkpt lat="47.10065" lon="-1.60352">
        <ele>58</ele>
        <time>2021-07-17T08:57:45.000Z</time>
      </trkpt>
      <trkpt lat="47.10067" lon="-1.60335">
        <ele>58</ele>
        <time>2021-07-17T08:57:47.000Z</time>
      </trkpt>
      <trkpt lat="47.10069" lon="-1.60318">
        <ele>58</ele>
        <time>2021-07-17T08:57:49.000Z</time>
      </trkpt>
      <trkpt lat="47.1007" lon="-1.60301">
        <ele>58</ele>
        <time>2021-07-17T08:57:51.000Z</time>
      </trkpt>
      <trkpt lat="47.10072" lon="-1.60285">
        <ele>58</ele>
        <time>2021-07-17T08:57:53.000Z</time>
      </trkpt>
      <trkpt lat="47.10073" lon="-1.60269">
        <ele>58</ele>
        <time>2021-07-17T08:57:55.000Z</time>
      </trkpt>
      <trkpt lat="47.10075" lon="-1.60253">
        <ele>58</ele>
        <time>2021-07-17T08:57:57.000Z</time>
      </trkpt>
      <trkpt lat="47.10076" lon="-1.60237">
        <ele>58</ele>
        <time>2021-07-17T08:57:59.000Z</time>
      </trkpt>
      <trkpt lat="47.10076" lon="-1.60219">
        <ele>58</ele>
        <time>2021-07-17T08:58:01.000Z</time>
      </trkpt>
      <trkpt lat="47.10078" lon="-1.60203">
        <ele>58</ele>
        <time>2021-07-17T08:58:03.000Z</time>
      </trkpt>
      <trkpt lat="47.10079" lon="-1.60187">
        <ele>58</ele>
        <time>2021-07-17T08:58:05.000Z</time>
      </trkpt>
      <trkpt lat="47.10078" lon="-1.6017">
        <ele>58</ele>
        <time>2021-07-17T08:58:07.000Z</time>
      </trkpt>
      <trkpt lat="47.10073" lon="-1.60155">
        <ele>58</ele>
        <time>2021-07-17T08:58:09.000Z</time>
      </trkpt>
      <trkpt lat="47.10067" lon="-1.6014">
        <ele>58</ele>
        <time>2021-07-17T08:58:11.000Z</time>
      </trkpt>
      <trkpt lat="47.10067" lon="-1.60122">
        <ele>58</ele>
        <time>2021-07-17T08:58:13.000Z</time>
      </trkpt>
      <trkpt lat="47.10074" lon="-1.60107">
        <ele>57</ele>
        <time>2021-07-17T08:58:15.000Z</time>
      </trkpt>
      <trkpt lat="47.10085" lon="-1.60099">
        <ele>57</ele>
        <time>2021-07-17T08:58:17.000Z</time>
      </trkpt>
      <trkpt lat="47.10096" lon="-1.60098">
        <ele>57</ele>
        <time>2021-07-17T08:58:19.000Z</time>
      </trkpt>
      <trkpt lat="47.10103" lon="-1.6009">
        <ele>57</ele>
        <time>2021-07-17T08:58:21.000Z</time>
      </trkpt>
      <trkpt lat="47.10111" lon="-1.60076">
        <ele>58</ele>
        <time>2021-07-17T08:58:23.000Z</time>
      </trkpt>
      <trkpt lat="47.10117" lon="-1.60063">
        <ele>59</ele>
        <time>2021-07-17T08:58:25.000Z</time>
      </trkpt>
      <trkpt lat="47.10123" lon="-1.60048">
        <ele>60</ele>
        <time>2021-07-17T08:58:27.000Z</time>
      </trkpt>
      <trkpt lat="47.1013" lon="-1.60035">
        <ele>62</ele>
        <time>2021-07-17T08:58:29.000Z</time>
      </trkpt>
      <trkpt lat="47.10138" lon="-1.60023">
        <ele>61</ele>
        <time>2021-07-17T08:58:31.000Z</time>
      </trkpt>
      <trkpt lat="47.10147" lon="-1.6001">
        <ele>61</ele>
        <time>2021-07-17T08:58:33.000Z</time>
      </trkpt>
      <trkpt lat="47.10155" lon="-1.59997">
        <ele>60</ele>
        <time>2021-07-17T08:58:35.000Z</time>
      </trkpt>
      <trkpt lat="47.10163" lon="-1.59984">
        <ele>60</ele>
        <time>2021-07-17T08:58:37.000Z</time>
      </trkpt>
      <trkpt lat="47.10171" lon="-1.59971">
        <ele>60</ele>
        <time>2021-07-17T08:58:39.000Z</time>
      </trkpt>
      <trkpt lat="47.10179" lon="-1.59959">
        <ele>60</ele>
        <time>2021-07-17T08:58:41.000Z</time>
      </trkpt>
      <trkpt lat="47.10186" lon="-1.59947">
        <ele>60</ele>
        <time>2021-07-17T08:58:43.000Z</time>
      </trkpt>
      <trkpt lat="47.10194" lon="-1.59935">
        <ele>60</ele>
        <time>2021-07-17T08:58:45.000Z</time>
      </trkpt>
      <trkpt lat="47.10201" lon="-1.59922">
        <ele>60</ele>
        <time>2021-07-17T08:58:47.000Z</time>
      </trkpt>
      <trkpt lat="47.10209" lon="-1.59908">
        <ele>60</ele>
        <time>2021-07-17T08:58:49.000Z</time>
      </trkpt>
      <trkpt lat="47.10217" lon="-1.59895">
        <ele>60</ele>
        <time>2021-07-17T08:58:51.000Z</time>
      </trkpt>
      <trkpt lat="47.10225" lon="-1.59883">
        <ele>60</ele>
        <time>2021-07-17T08:58:53.000Z</time>
      </trkpt>
      <trkpt lat="47.10232" lon="-1.5987">
        <ele>60</ele>
        <time>2021-07-17T08:58:55.000Z</time>
      </trkpt>
      <trkpt lat="47.10239" lon="-1.59857">
        <ele>60</ele>
        <time>2021-07-17T08:58:57.000Z</time>
      </trkpt>
      <trkpt lat="47.10247" lon="-1.59845">
        <ele>60</ele>
        <time>2021-07-17T08:58:59.000Z</time>
      </trkpt>
      <trkpt lat="47.10255" lon="-1.59833">
        <ele>60</ele>
        <time>2021-07-17T08:59:01.000Z</time>
      </trkpt>
      <trkpt lat="47.10263" lon="-1.59821">
        <ele>60</ele>
        <time>2021-07-17T08:59:03.000Z</time>
      </trkpt>
      <trkpt lat="47.10271" lon="-1.59809">
        <ele>60</ele>
        <time>2021-07-17T08:59:05.000Z</time>
      </trkpt>
      <trkpt lat="47.10278" lon="-1.59796">
        <ele>60</ele>
        <time>2021-07-17T08:59:07.000Z</time>
      </trkpt>
      <trkpt lat="47.10285" lon="-1.59784">
        <ele>60</ele>
        <time>2021-07-17T08:59:09.000Z</time>
      </trkpt>
      <trkpt lat="47.10293" lon="-1.59771">
        <ele>60</ele>
        <time>2021-07-17T08:59:11.000Z</time>
      </trkpt>
      <trkpt lat="47.103" lon="-1.59759">
        <ele>60</ele>
        <time>2021-07-17T08:59:13.000Z</time>
      </trkpt>
      <trkpt lat="47.10306" lon="-1.59746">
        <ele>61</ele>
        <time>2021-07-17T08:59:15.000Z</time>
      </trkpt>
      <trkpt lat="47.10313" lon="-1.59733">
        <ele>62</ele>
        <time>2021-07-17T08:59:17.000Z</time>
      </trkpt>
      <trkpt lat="47.1032" lon="-1.59721">
        <ele>62</ele>
        <time>2021-07-17T08:59:19.000Z</time>
      </trkpt>
      <trkpt lat="47.10328" lon="-1.59707">
        <ele>62</ele>
        <time>2021-07-17T08:59:21.000Z</time>
      </trkpt>
      <trkpt lat="47.10335" lon="-1.59696">
        <ele>63</ele>
        <time>2021-07-17T08:59:23.000Z</time>
      </trkpt>
      <trkpt lat="47.10342" lon="-1.59683">
        <ele>63</ele>
        <time>2021-07-17T08:59:25.000Z</time>
      </trkpt>
      <trkpt lat="47.1035" lon="-1.5967">
        <ele>62</ele>
        <time>2021-07-17T08:59:27.000Z</time>
      </trkpt>
      <trkpt lat="47.10357" lon="-1.59659">
        <ele>63</ele>
        <time>2021-07-17T08:59:29.000Z</time>
      </trkpt>
      <trkpt lat="47.10364" lon="-1.59647">
        <ele>63</ele>
        <time>2021-07-17T08:59:31.000Z</time>
      </trkpt>
      <trkpt lat="47.10372" lon="-1.59634">
        <ele>62</ele>
        <time>2021-07-17T08:59:33.000Z</time>
      </trkpt>
      <trkpt lat="47.1038" lon="-1.59621">
        <ele>63</ele>
        <time>2021-07-17T08:59:35.000Z</time>
      </trkpt>
      <trkpt lat="47.10387" lon="-1.59609">
        <ele>63</ele>
        <time>2021-07-17T08:59:37.000Z</time>
      </trkpt>
      <trkpt lat="47.10394" lon="-1.59596">
        <ele>64</ele>
        <time>2021-07-17T08:59:39.000Z</time>
      </trkpt>
      <trkpt lat="47.10402" lon="-1.59584">
        <ele>63</ele>
        <time>2021-07-17T08:59:41.000Z</time>
      </trkpt>
      <trkpt lat="47.1041" lon="-1.59571">
        <ele>63</ele>
        <time>2021-07-17T08:59:43.000Z</time>
      </trkpt>
      <trkpt lat="47.10418" lon="-1.59559">
        <ele>62</ele>
        <time>2021-07-17T08:59:45.000Z</time>
      </trkpt>
      <trkpt lat="47.10426" lon="-1.59546">
        <ele>62</ele>
        <time>2021-07-17T08:59:47.000Z</time>
      </trkpt>
      <trkpt lat="47.10433" lon="-1.59534">
        <ele>61</ele>
        <time>2021-07-17T08:59:49.000Z</time>
      </trkpt>
      <trkpt lat="47.1044" lon="-1.59522">
        <ele>61</ele>
        <time>2021-07-17T08:59:51.000Z</time>
      </trkpt>
      <trkpt lat="47.10448" lon="-1.5951">
        <ele>61</ele>
        <time>2021-07-17T08:59:53.000Z</time>
      </trkpt>
      <trkpt lat="47.10454" lon="-1.59498">
        <ele>61</ele>
        <time>2021-07-17T08:59:55.000Z</time>
      </trkpt>
      <trkpt lat="47.10462" lon="-1.59485">
        <ele>61</ele>
        <time>2021-07-17T08:59:57.000Z</time>
      </trkpt>
      <trkpt lat="47.10469" lon="-1.59473">
        <ele>61</ele>
        <time>2021-07-17T08:59:59.000Z</time>
      </trkpt>
      <trkpt lat="47.10477" lon="-1.59461">
        <ele>61</ele>
        <time>2021-07-17T09:00:01.000Z</time>
      </trkpt>
      <trkpt lat="47.10484" lon="-1.59449">
        <ele>61</ele>
        <time>2021-07-17T09:00:03.000Z</time>
      </trkpt>
      <trkpt lat="47.10492" lon="-1.59437">
        <ele>60</ele>
        <time>2021-07-17T09:00:05.000Z</time>
      </trkpt>
      <trkpt lat="47.10499" lon="-1.59425">
        <ele>60</ele>
        <time>2021-07-17T09:00:07.000Z</time>
      </trkpt>
      <trkpt lat="47.10506" lon="-1.59413">
        <ele>60</ele>
        <time>2021-07-17T09:00:09.000Z</time>
      </trkpt>
      <trkpt lat="47.10513" lon="-1.59401">
        <ele>60</ele>
        <time>2021-07-17T09:00:11.000Z</time>
      </trkpt>
      <trkpt lat="47.1052" lon="-1.59389">
        <ele>60</ele>
        <time>2021-07-17T09:00:13.000Z</time>
      </trkpt>
      <trkpt lat="47.10527" lon="-1.59376">
        <ele>60</ele>
        <time>2021-07-17T09:00:15.000Z</time>
      </trkpt>
      <trkpt lat="47.10534" lon="-1.59364">
        <ele>60</ele>
        <time>2021-07-17T09:00:17.000Z</time>
      </trkpt>
      <trkpt lat="47.10542" lon="-1.59352">
        <ele>60</ele>
        <time>2021-07-17T09:00:19.000Z</time>
      </trkpt>
      <trkpt lat="47.10549" lon="-1.59339">
        <ele>60</ele>
        <time>2021-07-17T09:00:21.000Z</time>
      </trkpt>
      <trkpt lat="47.10556" lon="-1.59327">
        <ele>60</ele>
        <time>2021-07-17T09:00:23.000Z</time>
      </trkpt>
      <trkpt lat="47.10563" lon="-1.59314">
        <ele>60</ele>
        <time>2021-07-17T09:00:25.000Z</time>
      </trkpt>
      <trkpt lat="47.1057" lon="-1.59301">
        <ele>61</ele>
        <time>2021-07-17T09:00:27.000Z</time>
      </trkpt>
      <trkpt lat="47.10576" lon="-1.59289">
        <ele>61</ele>
        <time>2021-07-17T09:00:29.000Z</time>
      </trkpt>
      <trkpt lat="47.10584" lon="-1.59277">
        <ele>62</ele>
        <time>2021-07-17T09:00:31.000Z</time>
      </trkpt>
      <trkpt lat="47.10591" lon="-1.59265">
        <ele>62</ele>
        <time>2021-07-17T09:00:33.000Z</time>
      </trkpt>
      <trkpt lat="47.10603" lon="-1.59247">
        <ele>62</ele>
        <time>2021-07-17T09:00:36.000Z</time>
      </trkpt>
      <trkpt lat="47.1061" lon="-1.59235">
        <ele>62</ele>
        <time>2021-07-17T09:00:38.000Z</time>
      </trkpt>
      <trkpt lat="47.10617" lon="-1.59223">
        <ele>62</ele>
        <time>2021-07-17T09:00:40.000Z</time>
      </trkpt>
      <trkpt lat="47.10628" lon="-1.59204">
        <ele>63</ele>
        <time>2021-07-17T09:00:43.000Z</time>
      </trkpt>
      <trkpt lat="47.10635" lon="-1.59192">
        <ele>64</ele>
        <time>2021-07-17T09:00:45.000Z</time>
      </trkpt>
      <trkpt lat="47.10642" lon="-1.59179">
        <ele>64</ele>
        <time>2021-07-17T09:00:47.000Z</time>
      </trkpt>
      <trkpt lat="47.10648" lon="-1.59166">
        <ele>64</ele>
        <time>2021-07-17T09:00:49.000Z</time>
      </trkpt>
      <trkpt lat="47.10654" lon="-1.59153">
        <ele>64</ele>
        <time>2021-07-17T09:00:51.000Z</time>
      </trkpt>
      <trkpt lat="47.10659" lon="-1.59139">
        <ele>64</ele>
        <time>2021-07-17T09:00:53.000Z</time>
      </trkpt>
      <trkpt lat="47.10664" lon="-1.59127">
        <ele>64</ele>
        <time>2021-07-17T09:00:55.000Z</time>
      </trkpt>
      <trkpt lat="47.10669" lon="-1.59114">
        <ele>64</ele>
        <time>2021-07-17T09:00:57.000Z</time>
      </trkpt>
      <trkpt lat="47.10674" lon="-1.591">
        <ele>64</ele>
        <time>2021-07-17T09:00:59.000Z</time>
      </trkpt>
      <trkpt lat="47.10678" lon="-1.59087">
        <ele>65</ele>
        <time>2021-07-17T09:01:01.000Z</time>
      </trkpt>
      <trkpt lat="47.10682" lon="-1.59074">
        <ele>65</ele>
        <time>2021-07-17T09:01:03.000Z</time>
      </trkpt>
      <trkpt lat="47.10685" lon="-1.5906">
        <ele>65</ele>
        <time>2021-07-17T09:01:05.000Z</time>
      </trkpt>
      <trkpt lat="47.10688" lon="-1.59047">
        <ele>65</ele>
        <time>2021-07-17T09:01:07.000Z</time>
      </trkpt>
      <trkpt lat="47.10692" lon="-1.59029">
        <ele>65</ele>
        <time>2021-07-17T09:01:10.000Z</time>
      </trkpt>
      <trkpt lat="47.10699" lon="-1.5902">
        <ele>65</ele>
        <time>2021-07-17T09:01:12.000Z</time>
      </trkpt>
      <trkpt lat="47.10706" lon="-1.59009">
        <ele>65</ele>
        <time>2021-07-17T09:01:14.000Z</time>
      </trkpt>
      <trkpt lat="47.10712" lon="-1.58997">
        <ele>65</ele>
        <time>2021-07-17T09:01:16.000Z</time>
      </trkpt>
      <trkpt lat="47.10718" lon="-1.58983">
        <ele>65</ele>
        <time>2021-07-17T09:01:18.000Z</time>
      </trkpt>
      <trkpt lat="47.10723" lon="-1.58969">
        <ele>66</ele>
        <time>2021-07-17T09:01:20.000Z</time>
      </trkpt>
      <trkpt lat="47.10728" lon="-1.58956">
        <ele>66</ele>
        <time>2021-07-17T09:01:22.000Z</time>
      </trkpt>
      <trkpt lat="47.10732" lon="-1.58941">
        <ele>66</ele>
        <time>2021-07-17T09:01:24.000Z</time>
      </trkpt>
      <trkpt lat="47.10736" lon="-1.58928">
        <ele>67</ele>
        <time>2021-07-17T09:01:26.000Z</time>
      </trkpt>
      <trkpt lat="47.10741" lon="-1.58914">
        <ele>66</ele>
        <time>2021-07-17T09:01:28.000Z</time>
      </trkpt>
      <trkpt lat="47.10747" lon="-1.58901">
        <ele>66</ele>
        <time>2021-07-17T09:01:30.000Z</time>
      </trkpt>
      <trkpt lat="47.10753" lon="-1.58887">
        <ele>66</ele>
        <time>2021-07-17T09:01:32.000Z</time>
      </trkpt>
      <trkpt lat="47.10761" lon="-1.58875">
        <ele>66</ele>
        <time>2021-07-17T09:01:34.000Z</time>
      </trkpt>
      <trkpt lat="47.1077" lon="-1.58864">
        <ele>66</ele>
        <time>2021-07-17T09:01:36.000Z</time>
      </trkpt>
      <trkpt lat="47.10777" lon="-1.58852">
        <ele>66</ele>
        <time>2021-07-17T09:01:38.000Z</time>
      </trkpt>
      <trkpt lat="47.10785" lon="-1.58839">
        <ele>66</ele>
        <time>2021-07-17T09:01:40.000Z</time>
      </trkpt>
      <trkpt lat="47.10793" lon="-1.58827">
        <ele>66</ele>
        <time>2021-07-17T09:01:42.000Z</time>
      </trkpt>
      <trkpt lat="47.10801" lon="-1.58815">
        <ele>66</ele>
        <time>2021-07-17T09:01:44.000Z</time>
      </trkpt>
      <trkpt lat="47.10809" lon="-1.58802">
        <ele>65</ele>
        <time>2021-07-17T09:01:46.000Z</time>
      </trkpt>
      <trkpt lat="47.10817" lon="-1.58791">
        <ele>65</ele>
        <time>2021-07-17T09:01:48.000Z</time>
      </trkpt>
      <trkpt lat="47.10824" lon="-1.58778">
        <ele>65</ele>
        <time>2021-07-17T09:01:50.000Z</time>
      </trkpt>
      <trkpt lat="47.10832" lon="-1.58767">
        <ele>65</ele>
        <time>2021-07-17T09:01:52.000Z</time>
      </trkpt>
      <trkpt lat="47.10841" lon="-1.58754">
        <ele>65</ele>
        <time>2021-07-17T09:01:54.000Z</time>
      </trkpt>
      <trkpt lat="47.10849" lon="-1.5874">
        <ele>64</ele>
        <time>2021-07-17T09:01:56.000Z</time>
      </trkpt>
      <trkpt lat="47.10856" lon="-1.58726">
        <ele>64</ele>
        <time>2021-07-17T09:01:58.000Z</time>
      </trkpt>
      <trkpt lat="47.10864" lon="-1.58716">
        <ele>63</ele>
        <time>2021-07-17T09:02:00.000Z</time>
      </trkpt>
      <trkpt lat="47.10873" lon="-1.58711">
        <ele>63</ele>
        <time>2021-07-17T09:02:02.000Z</time>
      </trkpt>
      <trkpt lat="47.10881" lon="-1.58698">
        <ele>62</ele>
        <time>2021-07-17T09:02:04.000Z</time>
      </trkpt>
      <trkpt lat="47.10889" lon="-1.58684">
        <ele>62</ele>
        <time>2021-07-17T09:02:06.000Z</time>
      </trkpt>
      <trkpt lat="47.10897" lon="-1.5867">
        <ele>62</ele>
        <time>2021-07-17T09:02:08.000Z</time>
      </trkpt>
      <trkpt lat="47.10906" lon="-1.58657">
        <ele>62</ele>
        <time>2021-07-17T09:02:10.000Z</time>
      </trkpt>
      <trkpt lat="47.10915" lon="-1.58642">
        <ele>62</ele>
        <time>2021-07-17T09:02:12.000Z</time>
      </trkpt>
      <trkpt lat="47.10924" lon="-1.58629">
        <ele>61</ele>
        <time>2021-07-17T09:02:14.000Z</time>
      </trkpt>
      <trkpt lat="47.10934" lon="-1.58617">
        <ele>61</ele>
        <time>2021-07-17T09:02:16.000Z</time>
      </trkpt>
      <trkpt lat="47.10944" lon="-1.58604">
        <ele>61</ele>
        <time>2021-07-17T09:02:18.000Z</time>
      </trkpt>
      <trkpt lat="47.10954" lon="-1.58592">
        <ele>61</ele>
        <time>2021-07-17T09:02:20.000Z</time>
      </trkpt>
      <trkpt lat="47.10964" lon="-1.58578">
        <ele>61</ele>
        <time>2021-07-17T09:02:22.000Z</time>
      </trkpt>
      <trkpt lat="47.10973" lon="-1.58564">
        <ele>61</ele>
        <time>2021-07-17T09:02:24.000Z</time>
      </trkpt>
      <trkpt lat="47.10981" lon="-1.58549">
        <ele>60</ele>
        <time>2021-07-17T09:02:26.000Z</time>
      </trkpt>
      <trkpt lat="47.1099" lon="-1.58534">
        <ele>60</ele>
        <time>2021-07-17T09:02:28.000Z</time>
      </trkpt>
      <trkpt lat="47.10998" lon="-1.5852">
        <ele>60</ele>
        <time>2021-07-17T09:02:30.000Z</time>
      </trkpt>
      <trkpt lat="47.11007" lon="-1.58507">
        <ele>60</ele>
        <time>2021-07-17T09:02:32.000Z</time>
      </trkpt>
      <trkpt lat="47.11016" lon="-1.58494">
        <ele>59</ele>
        <time>2021-07-17T09:02:34.000Z</time>
      </trkpt>
      <trkpt lat="47.11024" lon="-1.58481">
        <ele>59</ele>
        <time>2021-07-17T09:02:36.000Z</time>
      </trkpt>
      <trkpt lat="47.11033" lon="-1.58468">
        <ele>59</ele>
        <time>2021-07-17T09:02:38.000Z</time>
      </trkpt>
      <trkpt lat="47.1104" lon="-1.58456">
        <ele>59</ele>
        <time>2021-07-17T09:02:40.000Z</time>
      </trkpt>
      <trkpt lat="47.11049" lon="-1.58447">
        <ele>59</ele>
        <time>2021-07-17T09:02:42.000Z</time>
      </trkpt>
      <trkpt lat="47.11058" lon="-1.58437">
        <ele>59</ele>
        <time>2021-07-17T09:02:44.000Z</time>
      </trkpt>
      <trkpt lat="47.11067" lon="-1.58425">
        <ele>58</ele>
        <time>2021-07-17T09:02:46.000Z</time>
      </trkpt>
      <trkpt lat="47.11077" lon="-1.58411">
        <ele>58</ele>
        <time>2021-07-17T09:02:48.000Z</time>
      </trkpt>
      <trkpt lat="47.11087" lon="-1.58397">
        <ele>58</ele>
        <time>2021-07-17T09:02:50.000Z</time>
      </trkpt>
      <trkpt lat="47.11097" lon="-1.58383">
        <ele>58</ele>
        <time>2021-07-17T09:02:52.000Z</time>
      </trkpt>
      <trkpt lat="47.11106" lon="-1.58369">
        <ele>57</ele>
        <time>2021-07-17T09:02:54.000Z</time>
      </trkpt>
      <trkpt lat="47.11115" lon="-1.58354">
        <ele>57</ele>
        <time>2021-07-17T09:02:56.000Z</time>
      </trkpt>
      <trkpt lat="47.11124" lon="-1.5834">
        <ele>57</ele>
        <time>2021-07-17T09:02:58.000Z</time>
      </trkpt>
      <trkpt lat="47.11133" lon="-1.58326">
        <ele>57</ele>
        <time>2021-07-17T09:03:00.000Z</time>
      </trkpt>
      <trkpt lat="47.11142" lon="-1.58312">
        <ele>57</ele>
        <time>2021-07-17T09:03:02.000Z</time>
      </trkpt>
      <trkpt lat="47.11152" lon="-1.58297">
        <ele>57</ele>
        <time>2021-07-17T09:03:04.000Z</time>
      </trkpt>
      <trkpt lat="47.11161" lon="-1.58284">
        <ele>57</ele>
        <time>2021-07-17T09:03:06.000Z</time>
      </trkpt>
      <trkpt lat="47.1117" lon="-1.5827">
        <ele>57</ele>
        <time>2021-07-17T09:03:08.000Z</time>
      </trkpt>
      <trkpt lat="47.11179" lon="-1.58257">
        <ele>56</ele>
        <time>2021-07-17T09:03:10.000Z</time>
      </trkpt>
      <trkpt lat="47.11188" lon="-1.58243">
        <ele>56</ele>
        <time>2021-07-17T09:03:12.000Z</time>
      </trkpt>
      <trkpt lat="47.11197" lon="-1.5823">
        <ele>56</ele>
        <time>2021-07-17T09:03:14.000Z</time>
      </trkpt>
      <trkpt lat="47.11206" lon="-1.58218">
        <ele>56</ele>
        <time>2021-07-17T09:03:16.000Z</time>
      </trkpt>
      <trkpt lat="47.11215" lon="-1.58206">
        <ele>56</ele>
        <time>2021-07-17T09:03:18.000Z</time>
      </trkpt>
      <trkpt lat="47.11224" lon="-1.58194">
        <ele>56</ele>
        <time>2021-07-17T09:03:20.000Z</time>
      </trkpt>
      <trkpt lat="47.11234" lon="-1.58183">
        <ele>55</ele>
        <time>2021-07-17T09:03:22.000Z</time>
      </trkpt>
      <trkpt lat="47.11245" lon="-1.58173">
        <ele>55</ele>
        <time>2021-07-17T09:03:24.000Z</time>
      </trkpt>
      <trkpt lat="47.11255" lon="-1.58161">
        <ele>55</ele>
        <time>2021-07-17T09:03:26.000Z</time>
      </trkpt>
      <trkpt lat="47.11266" lon="-1.5815">
        <ele>55</ele>
        <time>2021-07-17T09:03:28.000Z</time>
      </trkpt>
      <trkpt lat="47.11276" lon="-1.58141">
        <ele>55</ele>
        <time>2021-07-17T09:03:30.000Z</time>
      </trkpt>
      <trkpt lat="47.11287" lon="-1.58132">
        <ele>55</ele>
        <time>2021-07-17T09:03:32.000Z</time>
      </trkpt>
      <trkpt lat="47.11298" lon="-1.58124">
        <ele>55</ele>
        <time>2021-07-17T09:03:34.000Z</time>
      </trkpt>
      <trkpt lat="47.1131" lon="-1.58116">
        <ele>55</ele>
        <time>2021-07-17T09:03:36.000Z</time>
      </trkpt>
      <trkpt lat="47.11321" lon="-1.58108">
        <ele>55</ele>
        <time>2021-07-17T09:03:38.000Z</time>
      </trkpt>
      <trkpt lat="47.11333" lon="-1.581">
        <ele>55</ele>
        <time>2021-07-17T09:03:40.000Z</time>
      </trkpt>
      <trkpt lat="47.11345" lon="-1.58093">
        <ele>55</ele>
        <time>2021-07-17T09:03:42.000Z</time>
      </trkpt>
      <trkpt lat="47.11357" lon="-1.58085">
        <ele>55</ele>
        <time>2021-07-17T09:03:44.000Z</time>
      </trkpt>
      <trkpt lat="47.11369" lon="-1.58077">
        <ele>55</ele>
        <time>2021-07-17T09:03:46.000Z</time>
      </trkpt>
      <trkpt lat="47.11382" lon="-1.5807">
        <ele>55</ele>
        <time>2021-07-17T09:03:48.000Z</time>
      </trkpt>
      <trkpt lat="47.11394" lon="-1.58062">
        <ele>55</ele>
        <time>2021-07-17T09:03:50.000Z</time>
      </trkpt>
      <trkpt lat="47.11406" lon="-1.58054">
        <ele>56</ele>
        <time>2021-07-17T09:03:52.000Z</time>
      </trkpt>
      <trkpt lat="47.11418" lon="-1.58047">
        <ele>55</ele>
        <time>2021-07-17T09:03:54.000Z</time>
      </trkpt>
      <trkpt lat="47.1143" lon="-1.5804">
        <ele>55</ele>
        <time>2021-07-17T09:03:56.000Z</time>
      </trkpt>
      <trkpt lat="47.11441" lon="-1.58034">
        <ele>56</ele>
        <time>2021-07-17T09:03:58.000Z</time>
      </trkpt>
      <trkpt lat="47.11454" lon="-1.58029">
        <ele>56</ele>
        <time>2021-07-17T09:04:00.000Z</time>
      </trkpt>
      <trkpt lat="47.11466" lon="-1.58025">
        <ele>56</ele>
        <time>2021-07-17T09:04:02.000Z</time>
      </trkpt>
      <trkpt lat="47.11479" lon="-1.58022">
        <ele>56</ele>
        <time>2021-07-17T09:04:04.000Z</time>
      </trkpt>
      <trkpt lat="47.11491" lon="-1.58019">
        <ele>56</ele>
        <time>2021-07-17T09:04:06.000Z</time>
      </trkpt>
      <trkpt lat="47.11504" lon="-1.58018">
        <ele>56</ele>
        <time>2021-07-17T09:04:08.000Z</time>
      </trkpt>
      <trkpt lat="47.11517" lon="-1.58017">
        <ele>57</ele>
        <time>2021-07-17T09:04:10.000Z</time>
      </trkpt>
      <trkpt lat="47.11529" lon="-1.58017">
        <ele>58</ele>
        <time>2021-07-17T09:04:12.000Z</time>
      </trkpt>
      <trkpt lat="47.11541" lon="-1.58018">
        <ele>58</ele>
        <time>2021-07-17T09:04:14.000Z</time>
      </trkpt>
      <trkpt lat="47.11554" lon="-1.58018">
        <ele>58</ele>
        <time>2021-07-17T09:04:16.000Z</time>
      </trkpt>
      <trkpt lat="47.11566" lon="-1.58019">
        <ele>58</ele>
        <time>2021-07-17T09:04:18.000Z</time>
      </trkpt>
      <trkpt lat="47.11579" lon="-1.5802">
        <ele>58</ele>
        <time>2021-07-17T09:04:20.000Z</time>
      </trkpt>
      <trkpt lat="47.11591" lon="-1.58021">
        <ele>57</ele>
        <time>2021-07-17T09:04:22.000Z</time>
      </trkpt>
      <trkpt lat="47.11602" lon="-1.58023">
        <ele>57</ele>
        <time>2021-07-17T09:04:24.000Z</time>
      </trkpt>
      <trkpt lat="47.11614" lon="-1.58025">
        <ele>57</ele>
        <time>2021-07-17T09:04:26.000Z</time>
      </trkpt>
      <trkpt lat="47.11625" lon="-1.58026">
        <ele>57</ele>
        <time>2021-07-17T09:04:28.000Z</time>
      </trkpt>
      <trkpt lat="47.11635" lon="-1.58022">
        <ele>57</ele>
        <time>2021-07-17T09:04:30.000Z</time>
      </trkpt>
      <trkpt lat="47.11646" lon="-1.58022">
        <ele>57</ele>
        <time>2021-07-17T09:04:32.000Z</time>
      </trkpt>
      <trkpt lat="47.11658" lon="-1.58025">
        <ele>57</ele>
        <time>2021-07-17T09:04:34.000Z</time>
      </trkpt>
      <trkpt lat="47.1167" lon="-1.58026">
        <ele>57</ele>
        <time>2021-07-17T09:04:36.000Z</time>
      </trkpt>
      <trkpt lat="47.11683" lon="-1.58027">
        <ele>56</ele>
        <time>2021-07-17T09:04:38.000Z</time>
      </trkpt>
      <trkpt lat="47.11695" lon="-1.58028">
        <ele>56</ele>
        <time>2021-07-17T09:04:40.000Z</time>
      </trkpt>
      <trkpt lat="47.11707" lon="-1.58029">
        <ele>56</ele>
        <time>2021-07-17T09:04:42.000Z</time>
      </trkpt>
      <trkpt lat="47.11719" lon="-1.5803">
        <ele>56</ele>
        <time>2021-07-17T09:04:44.000Z</time>
      </trkpt>
      <trkpt lat="47.1173" lon="-1.58031">
        <ele>57</ele>
        <time>2021-07-17T09:04:46.000Z</time>
      </trkpt>
      <trkpt lat="47.11742" lon="-1.58034">
        <ele>57</ele>
        <time>2021-07-17T09:04:48.000Z</time>
      </trkpt>
      <trkpt lat="47.11753" lon="-1.58036">
        <ele>57</ele>
        <time>2021-07-17T09:04:50.000Z</time>
      </trkpt>
      <trkpt lat="47.11764" lon="-1.58038">
        <ele>57</ele>
        <time>2021-07-17T09:04:52.000Z</time>
      </trkpt>
      <trkpt lat="47.11775" lon="-1.5804">
        <ele>57</ele>
        <time>2021-07-17T09:04:54.000Z</time>
      </trkpt>
      <trkpt lat="47.11786" lon="-1.58043">
        <ele>57</ele>
        <time>2021-07-17T09:04:56.000Z</time>
      </trkpt>
      <trkpt lat="47.11797" lon="-1.58046">
        <ele>57</ele>
        <time>2021-07-17T09:04:58.000Z</time>
      </trkpt>
      <trkpt lat="47.11809" lon="-1.58049">
        <ele>57</ele>
        <time>2021-07-17T09:05:00.000Z</time>
      </trkpt>
      <trkpt lat="47.1182" lon="-1.58051">
        <ele>57</ele>
        <time>2021-07-17T09:05:02.000Z</time>
      </trkpt>
      <trkpt lat="47.11831" lon="-1.58054">
        <ele>57</ele>
        <time>2021-07-17T09:05:04.000Z</time>
      </trkpt>
      <trkpt lat="47.11842" lon="-1.58057">
        <ele>57</ele>
        <time>2021-07-17T09:05:06.000Z</time>
      </trkpt>
      <trkpt lat="47.11854" lon="-1.58059">
        <ele>57</ele>
        <time>2021-07-17T09:05:08.000Z</time>
      </trkpt>
      <trkpt lat="47.11865" lon="-1.58062">
        <ele>58</ele>
        <time>2021-07-17T09:05:10.000Z</time>
      </trkpt>
      <trkpt lat="47.11876" lon="-1.58065">
        <ele>58</ele>
        <time>2021-07-17T09:05:12.000Z</time>
      </trkpt>
      <trkpt lat="47.11888" lon="-1.58068">
        <ele>58</ele>
        <time>2021-07-17T09:05:14.000Z</time>
      </trkpt>
      <trkpt lat="47.11899" lon="-1.58071">
        <ele>58</ele>
        <time>2021-07-17T09:05:16.000Z</time>
      </trkpt>
      <trkpt lat="47.1191" lon="-1.58074">
        <ele>58</ele>
        <time>2021-07-17T09:05:18.000Z</time>
      </trkpt>
      <trkpt lat="47.11921" lon="-1.58077">
        <ele>58</ele>
        <time>2021-07-17T09:05:20.000Z</time>
      </trkpt>
      <trkpt lat="47.11931" lon="-1.58079">
        <ele>59</ele>
        <time>2021-07-17T09:05:22.000Z</time>
      </trkpt>
      <trkpt lat="47.11942" lon="-1.58082">
        <ele>59</ele>
        <time>2021-07-17T09:05:24.000Z</time>
      </trkpt>
      <trkpt lat="47.11954" lon="-1.58085">
        <ele>59</ele>
        <time>2021-07-17T09:05:26.000Z</time>
      </trkpt>
      <trkpt lat="47.11965" lon="-1.58087">
        <ele>59</ele>
        <time>2021-07-17T09:05:28.000Z</time>
      </trkpt>
      <trkpt lat="47.11976" lon="-1.58089">
        <ele>60</ele>
        <time>2021-07-17T09:05:30.000Z</time>
      </trkpt>
      <trkpt lat="47.11986" lon="-1.58092">
        <ele>61</ele>
        <time>2021-07-17T09:05:32.000Z</time>
      </trkpt>
      <trkpt lat="47.11997" lon="-1.58096">
        <ele>61</ele>
        <time>2021-07-17T09:05:34.000Z</time>
      </trkpt>
      <trkpt lat="47.12008" lon="-1.58096">
        <ele>60</ele>
        <time>2021-07-17T09:05:36.000Z</time>
      </trkpt>
      <trkpt lat="47.12018" lon="-1.58094">
        <ele>61</ele>
        <time>2021-07-17T09:05:38.000Z</time>
      </trkpt>
      <trkpt lat="47.12027" lon="-1.58102">
        <ele>60</ele>
        <time>2021-07-17T09:05:40.000Z</time>
      </trkpt>
      <trkpt lat="47.12036" lon="-1.58113">
        <ele>60</ele>
        <time>2021-07-17T09:05:42.000Z</time>
      </trkpt>
      <trkpt lat="47.12047" lon="-1.5812">
        <ele>60</ele>
        <time>2021-07-17T09:05:44.000Z</time>
      </trkpt>
      <trkpt lat="47.12057" lon="-1.58127">
        <ele>59</ele>
        <time>2021-07-17T09:05:46.000Z</time>
      </trkpt>
      <trkpt lat="47.12069" lon="-1.58134">
        <ele>59</ele>
        <time>2021-07-17T09:05:48.000Z</time>
      </trkpt>
      <trkpt lat="47.1208" lon="-1.58142">
        <ele>58</ele>
        <time>2021-07-17T09:05:50.000Z</time>
      </trkpt>
      <trkpt lat="47.12092" lon="-1.58149">
        <ele>58</ele>
        <time>2021-07-17T09:05:52.000Z</time>
      </trkpt>
      <trkpt lat="47.12103" lon="-1.58157">
        <ele>58</ele>
        <time>2021-07-17T09:05:54.000Z</time>
      </trkpt>
      <trkpt lat="47.12116" lon="-1.58166">
        <ele>57</ele>
        <time>2021-07-17T09:05:56.000Z</time>
      </trkpt>
      <trkpt lat="47.12128" lon="-1.58176">
        <ele>56</ele>
        <time>2021-07-17T09:05:58.000Z</time>
      </trkpt>
      <trkpt lat="47.1214" lon="-1.58188">
        <ele>56</ele>
        <time>2021-07-17T09:06:00.000Z</time>
      </trkpt>
      <trkpt lat="47.12152" lon="-1.582">
        <ele>56</ele>
        <time>2021-07-17T09:06:02.000Z</time>
      </trkpt>
      <trkpt lat="47.12163" lon="-1.58212">
        <ele>56</ele>
        <time>2021-07-17T09:06:04.000Z</time>
      </trkpt>
      <trkpt lat="47.12175" lon="-1.58223">
        <ele>55</ele>
        <time>2021-07-17T09:06:06.000Z</time>
      </trkpt>
      <trkpt lat="47.12185" lon="-1.58233">
        <ele>55</ele>
        <time>2021-07-17T09:06:08.000Z</time>
      </trkpt>
      <trkpt lat="47.12193" lon="-1.58239">
        <ele>54</ele>
        <time>2021-07-17T09:06:11.000Z</time>
      </trkpt>
      <trkpt lat="47.12201" lon="-1.58246">
        <ele>54</ele>
        <time>2021-07-17T09:06:14.000Z</time>
      </trkpt>
      <trkpt lat="47.12209" lon="-1.58255">
        <ele>54</ele>
        <time>2021-07-17T09:06:16.000Z</time>
      </trkpt>
      <trkpt lat="47.12217" lon="-1.58263">
        <ele>54</ele>
        <time>2021-07-17T09:06:18.000Z</time>
      </trkpt>
      <trkpt lat="47.12225" lon="-1.58272">
        <ele>55</ele>
        <time>2021-07-17T09:06:20.000Z</time>
      </trkpt>
      <trkpt lat="47.12235" lon="-1.58281">
        <ele>54</ele>
        <time>2021-07-17T09:06:22.000Z</time>
      </trkpt>
      <trkpt lat="47.12246" lon="-1.58292">
        <ele>54</ele>
        <time>2021-07-17T09:06:24.000Z</time>
      </trkpt>
      <trkpt lat="47.12257" lon="-1.58303">
        <ele>53</ele>
        <time>2021-07-17T09:06:26.000Z</time>
      </trkpt>
      <trkpt lat="47.12268" lon="-1.58313">
        <ele>53</ele>
        <time>2021-07-17T09:06:28.000Z</time>
      </trkpt>
      <trkpt lat="47.12279" lon="-1.58324">
        <ele>53</ele>
        <time>2021-07-17T09:06:30.000Z</time>
      </trkpt>
      <trkpt lat="47.12289" lon="-1.58335">
        <ele>53</ele>
        <time>2021-07-17T09:06:32.000Z</time>
      </trkpt>
      <trkpt lat="47.12298" lon="-1.58345">
        <ele>55</ele>
        <time>2021-07-17T09:06:34.000Z</time>
      </trkpt>
      <trkpt lat="47.12302" lon="-1.58361">
        <ele>55</ele>
        <time>2021-07-17T09:06:36.000Z</time>
      </trkpt>
      <trkpt lat="47.12302" lon="-1.5838">
        <ele>56</ele>
        <time>2021-07-17T09:06:38.000Z</time>
      </trkpt>
      <trkpt lat="47.12307" lon="-1.58397">
        <ele>55</ele>
        <time>2021-07-17T09:06:40.000Z</time>
      </trkpt>
      <trkpt lat="47.12312" lon="-1.58413">
        <ele>56</ele>
        <time>2021-07-17T09:06:42.000Z</time>
      </trkpt>
      <trkpt lat="47.1232" lon="-1.58426">
        <ele>57</ele>
        <time>2021-07-17T09:06:44.000Z</time>
      </trkpt>
      <trkpt lat="47.12329" lon="-1.58435">
        <ele>57</ele>
        <time>2021-07-17T09:06:46.000Z</time>
      </trkpt>
      <trkpt lat="47.12334" lon="-1.58449">
        <ele>56</ele>
        <time>2021-07-17T09:06:48.000Z</time>
      </trkpt>
      <trkpt lat="47.12336" lon="-1.58469">
        <ele>57</ele>
        <time>2021-07-17T09:06:50.000Z</time>
      </trkpt>
      <trkpt lat="47.12341" lon="-1.58487">
        <ele>56</ele>
        <time>2021-07-17T09:06:52.000Z</time>
      </trkpt>
      <trkpt lat="47.12346" lon="-1.58504">
        <ele>56</ele>
        <time>2021-07-17T09:06:54.000Z</time>
      </trkpt>
      <trkpt lat="47.1235" lon="-1.58523">
        <ele>56</ele>
        <time>2021-07-17T09:06:56.000Z</time>
      </trkpt>
      <trkpt lat="47.12354" lon="-1.5854">
        <ele>56</ele>
        <time>2021-07-17T09:06:58.000Z</time>
      </trkpt>
      <trkpt lat="47.12358" lon="-1.58557">
        <ele>56</ele>
        <time>2021-07-17T09:07:00.000Z</time>
      </trkpt>
      <trkpt lat="47.12361" lon="-1.58573">
        <ele>56</ele>
        <time>2021-07-17T09:07:02.000Z</time>
      </trkpt>
      <trkpt lat="47.12366" lon="-1.58589">
        <ele>56</ele>
        <time>2021-07-17T09:07:04.000Z</time>
      </trkpt>
      <trkpt lat="47.12369" lon="-1.58606">
        <ele>56</ele>
        <time>2021-07-17T09:07:06.000Z</time>
      </trkpt>
      <trkpt lat="47.12373" lon="-1.58624">
        <ele>56</ele>
        <time>2021-07-17T09:07:08.000Z</time>
      </trkpt>
      <trkpt lat="47.12377" lon="-1.58641">
        <ele>56</ele>
        <time>2021-07-17T09:07:10.000Z</time>
      </trkpt>
      <trkpt lat="47.12381" lon="-1.58658">
        <ele>56</ele>
        <time>2021-07-17T09:07:12.000Z</time>
      </trkpt>
      <trkpt lat="47.12385" lon="-1.58675">
        <ele>56</ele>
        <time>2021-07-17T09:07:14.000Z</time>
      </trkpt>
      <trkpt lat="47.12388" lon="-1.58693">
        <ele>57</ele>
        <time>2021-07-17T09:07:16.000Z</time>
      </trkpt>
      <trkpt lat="47.12392" lon="-1.5871">
        <ele>57</ele>
        <time>2021-07-17T09:07:18.000Z</time>
      </trkpt>
      <trkpt lat="47.12395" lon="-1.58727">
        <ele>56</ele>
        <time>2021-07-17T09:07:20.000Z</time>
      </trkpt>
      <trkpt lat="47.12399" lon="-1.58744">
        <ele>57</ele>
        <time>2021-07-17T09:07:22.000Z</time>
      </trkpt>
      <trkpt lat="47.12402" lon="-1.58762">
        <ele>57</ele>
        <time>2021-07-17T09:07:24.000Z</time>
      </trkpt>
      <trkpt lat="47.12406" lon="-1.5878">
        <ele>57</ele>
        <time>2021-07-17T09:07:26.000Z</time>
      </trkpt>
      <trkpt lat="47.12408" lon="-1.58798">
        <ele>57</ele>
        <time>2021-07-17T09:07:28.000Z</time>
      </trkpt>
      <trkpt lat="47.12411" lon="-1.58815">
        <ele>57</ele>
        <time>2021-07-17T09:07:30.000Z</time>
      </trkpt>
      <trkpt lat="47.12413" lon="-1.58833">
        <ele>57</ele>
        <time>2021-07-17T09:07:32.000Z</time>
      </trkpt>
      <trkpt lat="47.12415" lon="-1.5885">
        <ele>57</ele>
        <time>2021-07-17T09:07:34.000Z</time>
      </trkpt>
      <trkpt lat="47.12417" lon="-1.58867">
        <ele>57</ele>
        <time>2021-07-17T09:07:36.000Z</time>
      </trkpt>
      <trkpt lat="47.12419" lon="-1.58885">
        <ele>57</ele>
        <time>2021-07-17T09:07:38.000Z</time>
      </trkpt>
      <trkpt lat="47.12421" lon="-1.58903">
        <ele>57</ele>
        <time>2021-07-17T09:07:40.000Z</time>
      </trkpt>
      <trkpt lat="47.12422" lon="-1.58923">
        <ele>56</ele>
        <time>2021-07-17T09:07:42.000Z</time>
      </trkpt>
      <trkpt lat="47.12423" lon="-1.58943">
        <ele>56</ele>
        <time>2021-07-17T09:07:44.000Z</time>
      </trkpt>
      <trkpt lat="47.12425" lon="-1.58965">
        <ele>55</ele>
        <time>2021-07-17T09:07:46.000Z</time>
      </trkpt>
      <trkpt lat="47.12426" lon="-1.58988">
        <ele>55</ele>
        <time>2021-07-17T09:07:48.000Z</time>
      </trkpt>
      <trkpt lat="47.12427" lon="-1.59011">
        <ele>55</ele>
        <time>2021-07-17T09:07:50.000Z</time>
      </trkpt>
      <trkpt lat="47.12429" lon="-1.59035">
        <ele>54</ele>
        <time>2021-07-17T09:07:52.000Z</time>
      </trkpt>
      <trkpt lat="47.1243" lon="-1.59058">
        <ele>54</ele>
        <time>2021-07-17T09:07:54.000Z</time>
      </trkpt>
      <trkpt lat="47.12431" lon="-1.59079">
        <ele>54</ele>
        <time>2021-07-17T09:07:56.000Z</time>
      </trkpt>
      <trkpt lat="47.12432" lon="-1.59101">
        <ele>54</ele>
        <time>2021-07-17T09:07:58.000Z</time>
      </trkpt>
      <trkpt lat="47.12433" lon="-1.59121">
        <ele>54</ele>
        <time>2021-07-17T09:08:00.000Z</time>
      </trkpt>
      <trkpt lat="47.12433" lon="-1.59142">
        <ele>54</ele>
        <time>2021-07-17T09:08:02.000Z</time>
      </trkpt>
      <trkpt lat="47.12435" lon="-1.59162">
        <ele>54</ele>
        <time>2021-07-17T09:08:04.000Z</time>
      </trkpt>
      <trkpt lat="47.12438" lon="-1.5918">
        <ele>54</ele>
        <time>2021-07-17T09:08:06.000Z</time>
      </trkpt>
      <trkpt lat="47.12441" lon="-1.59199">
        <ele>54</ele>
        <time>2021-07-17T09:08:08.000Z</time>
      </trkpt>
      <trkpt lat="47.12439" lon="-1.59218">
        <ele>53</ele>
        <time>2021-07-17T09:08:10.000Z</time>
      </trkpt>
      <trkpt lat="47.12439" lon="-1.59238">
        <ele>53</ele>
        <time>2021-07-17T09:08:12.000Z</time>
      </trkpt>
      <trkpt lat="47.12439" lon="-1.59258">
        <ele>53</ele>
        <time>2021-07-17T09:08:14.000Z</time>
      </trkpt>
      <trkpt lat="47.1244" lon="-1.59277">
        <ele>54</ele>
        <time>2021-07-17T09:08:16.000Z</time>
      </trkpt>
      <trkpt lat="47.12441" lon="-1.59296">
        <ele>54</ele>
        <time>2021-07-17T09:08:18.000Z</time>
      </trkpt>
      <trkpt lat="47.12442" lon="-1.59315">
        <ele>54</ele>
        <time>2021-07-17T09:08:20.000Z</time>
      </trkpt>
      <trkpt lat="47.12443" lon="-1.59334">
        <ele>54</ele>
        <time>2021-07-17T09:08:22.000Z</time>
      </trkpt>
      <trkpt lat="47.12444" lon="-1.59353">
        <ele>54</ele>
        <time>2021-07-17T09:08:24.000Z</time>
      </trkpt>
      <trkpt lat="47.12445" lon="-1.59372">
        <ele>54</ele>
        <time>2021-07-17T09:08:26.000Z</time>
      </trkpt>
      <trkpt lat="47.12446" lon="-1.59391">
        <ele>54</ele>
        <time>2021-07-17T09:08:28.000Z</time>
      </trkpt>
      <trkpt lat="47.12447" lon="-1.5941">
        <ele>55</ele>
        <time>2021-07-17T09:08:30.000Z</time>
      </trkpt>
      <trkpt lat="47.12448" lon="-1.59429">
        <ele>55</ele>
        <time>2021-07-17T09:08:32.000Z</time>
      </trkpt>
      <trkpt lat="47.12449" lon="-1.59447">
        <ele>55</ele>
        <time>2021-07-17T09:08:34.000Z</time>
      </trkpt>
      <trkpt lat="47.1245" lon="-1.59465">
        <ele>55</ele>
        <time>2021-07-17T09:08:36.000Z</time>
      </trkpt>
      <trkpt lat="47.12451" lon="-1.59484">
        <ele>55</ele>
        <time>2021-07-17T09:08:38.000Z</time>
      </trkpt>
      <trkpt lat="47.12451" lon="-1.59502">
        <ele>55</ele>
        <time>2021-07-17T09:08:40.000Z</time>
      </trkpt>
      <trkpt lat="47.12452" lon="-1.5952">
        <ele>55</ele>
        <time>2021-07-17T09:08:42.000Z</time>
      </trkpt>
      <trkpt lat="47.12453" lon="-1.59538">
        <ele>55</ele>
        <time>2021-07-17T09:08:44.000Z</time>
      </trkpt>
      <trkpt lat="47.12454" lon="-1.59555">
        <ele>55</ele>
        <time>2021-07-17T09:08:46.000Z</time>
      </trkpt>
      <trkpt lat="47.12455" lon="-1.59573">
        <ele>56</ele>
        <time>2021-07-17T09:08:48.000Z</time>
      </trkpt>
      <trkpt lat="47.12455" lon="-1.59591">
        <ele>56</ele>
        <time>2021-07-17T09:08:50.000Z</time>
      </trkpt>
      <trkpt lat="47.12456" lon="-1.59609">
        <ele>56</ele>
        <time>2021-07-17T09:08:52.000Z</time>
      </trkpt>
      <trkpt lat="47.12457" lon="-1.59628">
        <ele>56</ele>
        <time>2021-07-17T09:08:54.000Z</time>
      </trkpt>
      <trkpt lat="47.12458" lon="-1.59645">
        <ele>56</ele>
        <time>2021-07-17T09:08:56.000Z</time>
      </trkpt>
      <trkpt lat="47.12459" lon="-1.59664">
        <ele>56</ele>
        <time>2021-07-17T09:08:58.000Z</time>
      </trkpt>
      <trkpt lat="47.1246" lon="-1.59682">
        <ele>56</ele>
        <time>2021-07-17T09:09:00.000Z</time>
      </trkpt>
      <trkpt lat="47.12461" lon="-1.597">
        <ele>56</ele>
        <time>2021-07-17T09:09:02.000Z</time>
      </trkpt>
      <trkpt lat="47.12462" lon="-1.59718">
        <ele>56</ele>
        <time>2021-07-17T09:09:04.000Z</time>
      </trkpt>
      <trkpt lat="47.12463" lon="-1.59735">
        <ele>56</ele>
        <time>2021-07-17T09:09:06.000Z</time>
      </trkpt>
      <trkpt lat="47.12464" lon="-1.59753">
        <ele>56</ele>
        <time>2021-07-17T09:09:08.000Z</time>
      </trkpt>
      <trkpt lat="47.12465" lon="-1.59771">
        <ele>56</ele>
        <time>2021-07-17T09:09:10.000Z</time>
      </trkpt>
      <trkpt lat="47.12466" lon="-1.5979">
        <ele>56</ele>
        <time>2021-07-17T09:09:12.000Z</time>
      </trkpt>
      <trkpt lat="47.12467" lon="-1.59808">
        <ele>56</ele>
        <time>2021-07-17T09:09:14.000Z</time>
      </trkpt>
      <trkpt lat="47.12467" lon="-1.59827">
        <ele>56</ele>
        <time>2021-07-17T09:09:16.000Z</time>
      </trkpt>
      <trkpt lat="47.12469" lon="-1.59844">
        <ele>56</ele>
        <time>2021-07-17T09:09:18.000Z</time>
      </trkpt>
      <trkpt lat="47.12469" lon="-1.59861">
        <ele>56</ele>
        <time>2021-07-17T09:09:20.000Z</time>
      </trkpt>
      <trkpt lat="47.1247" lon="-1.59879">
        <ele>55</ele>
        <time>2021-07-17T09:09:22.000Z</time>
      </trkpt>
      <trkpt lat="47.12471" lon="-1.59898">
        <ele>55</ele>
        <time>2021-07-17T09:09:24.000Z</time>
      </trkpt>
      <trkpt lat="47.12472" lon="-1.59917">
        <ele>55</ele>
        <time>2021-07-17T09:09:26.000Z</time>
      </trkpt>
      <trkpt lat="47.12472" lon="-1.59937">
        <ele>55</ele>
        <time>2021-07-17T09:09:28.000Z</time>
      </trkpt>
      <trkpt lat="47.12473" lon="-1.59955">
        <ele>55</ele>
        <time>2021-07-17T09:09:30.000Z</time>
      </trkpt>
      <trkpt lat="47.12475" lon="-1.59975">
        <ele>55</ele>
        <time>2021-07-17T09:09:32.000Z</time>
      </trkpt>
      <trkpt lat="47.12476" lon="-1.59994">
        <ele>55</ele>
        <time>2021-07-17T09:09:34.000Z</time>
      </trkpt>
      <trkpt lat="47.12477" lon="-1.60013">
        <ele>55</ele>
        <time>2021-07-17T09:09:36.000Z</time>
      </trkpt>
      <trkpt lat="47.12478" lon="-1.60032">
        <ele>55</ele>
        <time>2021-07-17T09:09:38.000Z</time>
      </trkpt>
      <trkpt lat="47.12478" lon="-1.60051">
        <ele>56</ele>
        <time>2021-07-17T09:09:40.000Z</time>
      </trkpt>
      <trkpt lat="47.12479" lon="-1.6007">
        <ele>56</ele>
        <time>2021-07-17T09:09:42.000Z</time>
      </trkpt>
      <trkpt lat="47.1248" lon="-1.60088">
        <ele>56</ele>
        <time>2021-07-17T09:09:44.000Z</time>
      </trkpt>
      <trkpt lat="47.12481" lon="-1.60107">
        <ele>56</ele>
        <time>2021-07-17T09:09:46.000Z</time>
      </trkpt>
      <trkpt lat="47.12482" lon="-1.60126">
        <ele>55</ele>
        <time>2021-07-17T09:09:48.000Z</time>
      </trkpt>
      <trkpt lat="47.12483" lon="-1.60146">
        <ele>55</ele>
        <time>2021-07-17T09:09:50.000Z</time>
      </trkpt>
      <trkpt lat="47.12484" lon="-1.60166">
        <ele>54</ele>
        <time>2021-07-17T09:09:52.000Z</time>
      </trkpt>
      <trkpt lat="47.12485" lon="-1.60187">
        <ele>54</ele>
        <time>2021-07-17T09:09:54.000Z</time>
      </trkpt>
      <trkpt lat="47.12488" lon="-1.60207">
        <ele>53</ele>
        <time>2021-07-17T09:09:56.000Z</time>
      </trkpt>
      <trkpt lat="47.12491" lon="-1.60228">
        <ele>53</ele>
        <time>2021-07-17T09:09:58.000Z</time>
      </trkpt>
      <trkpt lat="47.12495" lon="-1.60248">
        <ele>54</ele>
        <time>2021-07-17T09:10:00.000Z</time>
      </trkpt>
      <trkpt lat="47.12499" lon="-1.60268">
        <ele>53</ele>
        <time>2021-07-17T09:10:02.000Z</time>
      </trkpt>
      <trkpt lat="47.12502" lon="-1.60286">
        <ele>53</ele>
        <time>2021-07-17T09:10:04.000Z</time>
      </trkpt>
      <trkpt lat="47.12505" lon="-1.60305">
        <ele>54</ele>
        <time>2021-07-17T09:10:06.000Z</time>
      </trkpt>
      <trkpt lat="47.12509" lon="-1.60322">
        <ele>54</ele>
        <time>2021-07-17T09:10:08.000Z</time>
      </trkpt>
      <trkpt lat="47.12512" lon="-1.60339">
        <ele>54</ele>
        <time>2021-07-17T09:10:10.000Z</time>
      </trkpt>
      <trkpt lat="47.12516" lon="-1.60356">
        <ele>55</ele>
        <time>2021-07-17T09:10:12.000Z</time>
      </trkpt>
      <trkpt lat="47.12519" lon="-1.60373">
        <ele>55</ele>
        <time>2021-07-17T09:10:14.000Z</time>
      </trkpt>
      <trkpt lat="47.12522" lon="-1.6039">
        <ele>55</ele>
        <time>2021-07-17T09:10:16.000Z</time>
      </trkpt>
      <trkpt lat="47.12525" lon="-1.60407">
        <ele>56</ele>
        <time>2021-07-17T09:10:18.000Z</time>
      </trkpt>
      <trkpt lat="47.12528" lon="-1.60424">
        <ele>56</ele>
        <time>2021-07-17T09:10:20.000Z</time>
      </trkpt>
      <trkpt lat="47.12532" lon="-1.60442">
        <ele>56</ele>
        <time>2021-07-17T09:10:22.000Z</time>
      </trkpt>
      <trkpt lat="47.12535" lon="-1.60459">
        <ele>56</ele>
        <time>2021-07-17T09:10:24.000Z</time>
      </trkpt>
      <trkpt lat="47.12537" lon="-1.60476">
        <ele>56</ele>
        <time>2021-07-17T09:10:26.000Z</time>
      </trkpt>
      <trkpt lat="47.12539" lon="-1.60494">
        <ele>57</ele>
        <time>2021-07-17T09:10:28.000Z</time>
      </trkpt>
      <trkpt lat="47.12541" lon="-1.60511">
        <ele>57</ele>
        <time>2021-07-17T09:10:30.000Z</time>
      </trkpt>
      <trkpt lat="47.12542" lon="-1.60529">
        <ele>58</ele>
        <time>2021-07-17T09:10:32.000Z</time>
      </trkpt>
      <trkpt lat="47.12543" lon="-1.60546">
        <ele>58</ele>
        <time>2021-07-17T09:10:34.000Z</time>
      </trkpt>
      <trkpt lat="47.12544" lon="-1.60564">
        <ele>58</ele>
        <time>2021-07-17T09:10:36.000Z</time>
      </trkpt>
      <trkpt lat="47.12544" lon="-1.60582">
        <ele>58</ele>
        <time>2021-07-17T09:10:38.000Z</time>
      </trkpt>
      <trkpt lat="47.12545" lon="-1.606">
        <ele>58</ele>
        <time>2021-07-17T09:10:40.000Z</time>
      </trkpt>
      <trkpt lat="47.12545" lon="-1.60618">
        <ele>58</ele>
        <time>2021-07-17T09:10:42.000Z</time>
      </trkpt>
      <trkpt lat="47.12545" lon="-1.60637">
        <ele>58</ele>
        <time>2021-07-17T09:10:44.000Z</time>
      </trkpt>
      <trkpt lat="47.12546" lon="-1.60654">
        <ele>58</ele>
        <time>2021-07-17T09:10:46.000Z</time>
      </trkpt>
      <trkpt lat="47.12546" lon="-1.60672">
        <ele>58</ele>
        <time>2021-07-17T09:10:48.000Z</time>
      </trkpt>
      <trkpt lat="47.12547" lon="-1.6069">
        <ele>58</ele>
        <time>2021-07-17T09:10:50.000Z</time>
      </trkpt>
      <trkpt lat="47.12546" lon="-1.60708">
        <ele>58</ele>
        <time>2021-07-17T09:10:52.000Z</time>
      </trkpt>
      <trkpt lat="47.12547" lon="-1.60725">
        <ele>58</ele>
        <time>2021-07-17T09:10:54.000Z</time>
      </trkpt>
      <trkpt lat="47.12546" lon="-1.60743">
        <ele>58</ele>
        <time>2021-07-17T09:10:56.000Z</time>
      </trkpt>
      <trkpt lat="47.12545" lon="-1.60761">
        <ele>58</ele>
        <time>2021-07-17T09:10:58.000Z</time>
      </trkpt>
      <trkpt lat="47.12544" lon="-1.60778">
        <ele>59</ele>
        <time>2021-07-17T09:11:00.000Z</time>
      </trkpt>
      <trkpt lat="47.12542" lon="-1.60796">
        <ele>59</ele>
        <time>2021-07-17T09:11:02.000Z</time>
      </trkpt>
      <trkpt lat="47.12541" lon="-1.60812">
        <ele>59</ele>
        <time>2021-07-17T09:11:04.000Z</time>
      </trkpt>
      <trkpt lat="47.1254" lon="-1.60829">
        <ele>59</ele>
        <time>2021-07-17T09:11:06.000Z</time>
      </trkpt>
      <trkpt lat="47.12542" lon="-1.60844">
        <ele>59</ele>
        <time>2021-07-17T09:11:08.000Z</time>
      </trkpt>
      <trkpt lat="47.12552" lon="-1.60845">
        <ele>59</ele>
        <time>2021-07-17T09:11:10.000Z</time>
      </trkpt>
      <trkpt lat="47.12561" lon="-1.6084">
        <ele>59</ele>
        <time>2021-07-17T09:11:12.000Z</time>
      </trkpt>
      <trkpt lat="47.12572" lon="-1.60837">
        <ele>59</ele>
        <time>2021-07-17T09:11:14.000Z</time>
      </trkpt>
      <trkpt lat="47.12583" lon="-1.60834">
        <ele>59</ele>
        <time>2021-07-17T09:11:16.000Z</time>
      </trkpt>
      <trkpt lat="47.12594" lon="-1.6083">
        <ele>60</ele>
        <time>2021-07-17T09:11:18.000Z</time>
      </trkpt>
      <trkpt lat="47.12605" lon="-1.60826">
        <ele>60</ele>
        <time>2021-07-17T09:11:20.000Z</time>
      </trkpt>
      <trkpt lat="47.12617" lon="-1.60822">
        <ele>60</ele>
        <time>2021-07-17T09:11:22.000Z</time>
      </trkpt>
      <trkpt lat="47.12628" lon="-1.60818">
        <ele>61</ele>
        <time>2021-07-17T09:11:24.000Z</time>
      </trkpt>
      <trkpt lat="47.12639" lon="-1.60815">
        <ele>61</ele>
        <time>2021-07-17T09:11:26.000Z</time>
      </trkpt>
      <trkpt lat="47.1265" lon="-1.6081">
        <ele>61</ele>
        <time>2021-07-17T09:11:28.000Z</time>
      </trkpt>
      <trkpt lat="47.12662" lon="-1.60807">
        <ele>61</ele>
        <time>2021-07-17T09:11:30.000Z</time>
      </trkpt>
      <trkpt lat="47.12672" lon="-1.60803">
        <ele>62</ele>
        <time>2021-07-17T09:11:32.000Z</time>
      </trkpt>
      <trkpt lat="47.12683" lon="-1.60799">
        <ele>62</ele>
        <time>2021-07-17T09:11:34.000Z</time>
      </trkpt>
      <trkpt lat="47.12695" lon="-1.60794">
        <ele>62</ele>
        <time>2021-07-17T09:11:36.000Z</time>
      </trkpt>
      <trkpt lat="47.12705" lon="-1.60789">
        <ele>62</ele>
        <time>2021-07-17T09:11:38.000Z</time>
      </trkpt>
      <trkpt lat="47.12716" lon="-1.60787">
        <ele>62</ele>
        <time>2021-07-17T09:11:40.000Z</time>
      </trkpt>
      <trkpt lat="47.12724" lon="-1.60796">
        <ele>62</ele>
        <time>2021-07-17T09:11:42.000Z</time>
      </trkpt>
      <trkpt lat="47.12723" lon="-1.60811">
        <ele>62</ele>
        <time>2021-07-17T09:11:44.000Z</time>
      </trkpt>
      <trkpt lat="47.1272" lon="-1.60827">
        <ele>61</ele>
        <time>2021-07-17T09:11:46.000Z</time>
      </trkpt>
      <trkpt lat="47.12715" lon="-1.60843">
        <ele>61</ele>
        <time>2021-07-17T09:11:48.000Z</time>
      </trkpt>
      <trkpt lat="47.1271" lon="-1.60858">
        <ele>62</ele>
        <time>2021-07-17T09:11:50.000Z</time>
      </trkpt>
      <trkpt lat="47.12706" lon="-1.60874">
        <ele>61</ele>
        <time>2021-07-17T09:11:52.000Z</time>
      </trkpt>
      <trkpt lat="47.12703" lon="-1.60889">
        <ele>62</ele>
        <time>2021-07-17T09:11:54.000Z</time>
      </trkpt>
      <trkpt lat="47.12699" lon="-1.60905">
        <ele>62</ele>
        <time>2021-07-17T09:11:56.000Z</time>
      </trkpt>
      <trkpt lat="47.12697" lon="-1.60921">
        <ele>63</ele>
        <time>2021-07-17T09:11:58.000Z</time>
      </trkpt>
      <trkpt lat="47.12696" lon="-1.60938">
        <ele>62</ele>
        <time>2021-07-17T09:12:00.000Z</time>
      </trkpt>
      <trkpt lat="47.12694" lon="-1.60955">
        <ele>62</ele>
        <time>2021-07-17T09:12:02.000Z</time>
      </trkpt>
      <trkpt lat="47.12694" lon="-1.60973">
        <ele>62</ele>
        <time>2021-07-17T09:12:04.000Z</time>
      </trkpt>
      <trkpt lat="47.12693" lon="-1.6099">
        <ele>62</ele>
        <time>2021-07-17T09:12:06.000Z</time>
      </trkpt>
      <trkpt lat="47.12692" lon="-1.61006">
        <ele>62</ele>
        <time>2021-07-17T09:12:08.000Z</time>
      </trkpt>
      <trkpt lat="47.12692" lon="-1.61023">
        <ele>62</ele>
        <time>2021-07-17T09:12:10.000Z</time>
      </trkpt>
      <trkpt lat="47.12691" lon="-1.6104">
        <ele>62</ele>
        <time>2021-07-17T09:12:12.000Z</time>
      </trkpt>
      <trkpt lat="47.1269" lon="-1.61057">
        <ele>62</ele>
        <time>2021-07-17T09:12:14.000Z</time>
      </trkpt>
      <trkpt lat="47.12689" lon="-1.61074">
        <ele>62</ele>
        <time>2021-07-17T09:12:16.000Z</time>
      </trkpt>
      <trkpt lat="47.12688" lon="-1.6109">
        <ele>62</ele>
        <time>2021-07-17T09:12:18.000Z</time>
      </trkpt>
      <trkpt lat="47.12687" lon="-1.61108">
        <ele>62</ele>
        <time>2021-07-17T09:12:20.000Z</time>
      </trkpt>
      <trkpt lat="47.12686" lon="-1.61124">
        <ele>63</ele>
        <time>2021-07-17T09:12:22.000Z</time>
      </trkpt>
      <trkpt lat="47.12683" lon="-1.61141">
        <ele>63</ele>
        <time>2021-07-17T09:12:24.000Z</time>
      </trkpt>
      <trkpt lat="47.12681" lon="-1.61158">
        <ele>63</ele>
        <time>2021-07-17T09:12:26.000Z</time>
      </trkpt>
      <trkpt lat="47.12679" lon="-1.61174">
        <ele>63</ele>
        <time>2021-07-17T09:12:28.000Z</time>
      </trkpt>
      <trkpt lat="47.12676" lon="-1.61191">
        <ele>63</ele>
        <time>2021-07-17T09:12:30.000Z</time>
      </trkpt>
      <trkpt lat="47.12673" lon="-1.61208">
        <ele>63</ele>
        <time>2021-07-17T09:12:32.000Z</time>
      </trkpt>
      <trkpt lat="47.12671" lon="-1.61225">
        <ele>63</ele>
        <time>2021-07-17T09:12:34.000Z</time>
      </trkpt>
      <trkpt lat="47.1267" lon="-1.61242">
        <ele>64</ele>
        <time>2021-07-17T09:12:36.000Z</time>
      </trkpt>
      <trkpt lat="47.12671" lon="-1.61259">
        <ele>63</ele>
        <time>2021-07-17T09:12:38.000Z</time>
      </trkpt>
      <trkpt lat="47.12675" lon="-1.61275">
        <ele>63</ele>
        <time>2021-07-17T09:12:40.000Z</time>
      </trkpt>
      <trkpt lat="47.1268" lon="-1.61292">
        <ele>63</ele>
        <time>2021-07-17T09:12:42.000Z</time>
      </trkpt>
      <trkpt lat="47.12684" lon="-1.61308">
        <ele>63</ele>
        <time>2021-07-17T09:12:44.000Z</time>
      </trkpt>
      <trkpt lat="47.12688" lon="-1.61324">
        <ele>62</ele>
        <time>2021-07-17T09:12:46.000Z</time>
      </trkpt>
      <trkpt lat="47.12693" lon="-1.61339">
        <ele>62</ele>
        <time>2021-07-17T09:12:48.000Z</time>
      </trkpt>
      <trkpt lat="47.12699" lon="-1.61355">
        <ele>62</ele>
        <time>2021-07-17T09:12:50.000Z</time>
      </trkpt>
      <trkpt lat="47.12704" lon="-1.61371">
        <ele>62</ele>
        <time>2021-07-17T09:12:52.000Z</time>
      </trkpt>
      <trkpt lat="47.1271" lon="-1.61387">
        <ele>62</ele>
        <time>2021-07-17T09:12:54.000Z</time>
      </trkpt>
      <trkpt lat="47.12716" lon="-1.61402">
        <ele>62</ele>
        <time>2021-07-17T09:12:56.000Z</time>
      </trkpt>
      <trkpt lat="47.12723" lon="-1.61416">
        <ele>62</ele>
        <time>2021-07-17T09:12:58.000Z</time>
      </trkpt>
      <trkpt lat="47.12729" lon="-1.61432">
        <ele>62</ele>
        <time>2021-07-17T09:13:00.000Z</time>
      </trkpt>
      <trkpt lat="47.12736" lon="-1.61448">
        <ele>63</ele>
        <time>2021-07-17T09:13:02.000Z</time>
      </trkpt>
      <trkpt lat="47.12743" lon="-1.61463">
        <ele>62</ele>
        <time>2021-07-17T09:13:04.000Z</time>
      </trkpt>
      <trkpt lat="47.1275" lon="-1.61479">
        <ele>62</ele>
        <time>2021-07-17T09:13:06.000Z</time>
      </trkpt>
      <trkpt lat="47.12757" lon="-1.61494">
        <ele>62</ele>
        <time>2021-07-17T09:13:08.000Z</time>
      </trkpt>
      <trkpt lat="47.12764" lon="-1.61509">
        <ele>62</ele>
        <time>2021-07-17T09:13:10.000Z</time>
      </trkpt>
      <trkpt lat="47.1277" lon="-1.61524">
        <ele>62</ele>
        <time>2021-07-17T09:13:12.000Z</time>
      </trkpt>
      <trkpt lat="47.12776" lon="-1.61539">
        <ele>62</ele>
        <time>2021-07-17T09:13:14.000Z</time>
      </trkpt>
      <trkpt lat="47.12782" lon="-1.61554">
        <ele>61</ele>
        <time>2021-07-17T09:13:16.000Z</time>
      </trkpt>
      <trkpt lat="47.12787" lon="-1.61569">
        <ele>61</ele>
        <time>2021-07-17T09:13:18.000Z</time>
      </trkpt>
      <trkpt lat="47.12792" lon="-1.61583">
        <ele>61</ele>
        <time>2021-07-17T09:13:20.000Z</time>
      </trkpt>
      <trkpt lat="47.12797" lon="-1.61598">
        <ele>61</ele>
        <time>2021-07-17T09:13:22.000Z</time>
      </trkpt>
      <trkpt lat="47.12803" lon="-1.61613">
        <ele>61</ele>
        <time>2021-07-17T09:13:24.000Z</time>
      </trkpt>
      <trkpt lat="47.12808" lon="-1.61628">
        <ele>61</ele>
        <time>2021-07-17T09:13:26.000Z</time>
      </trkpt>
      <trkpt lat="47.12814" lon="-1.61644">
        <ele>60</ele>
        <time>2021-07-17T09:13:29.000Z</time>
      </trkpt>
      <trkpt lat="47.1282" lon="-1.61657">
        <ele>60</ele>
        <time>2021-07-17T09:13:33.000Z</time>
      </trkpt>
      <trkpt lat="47.12825" lon="-1.6167">
        <ele>60</ele>
        <time>2021-07-17T09:13:35.000Z</time>
      </trkpt>
      <trkpt lat="47.12832" lon="-1.61684">
        <ele>60</ele>
        <time>2021-07-17T09:13:37.000Z</time>
      </trkpt>
      <trkpt lat="47.12838" lon="-1.61699">
        <ele>60</ele>
        <time>2021-07-17T09:13:39.000Z</time>
      </trkpt>
      <trkpt lat="47.12846" lon="-1.61714">
        <ele>59</ele>
        <time>2021-07-17T09:13:41.000Z</time>
      </trkpt>
      <trkpt lat="47.12852" lon="-1.6173">
        <ele>60</ele>
        <time>2021-07-17T09:13:43.000Z</time>
      </trkpt>
      <trkpt lat="47.12859" lon="-1.61745">
        <ele>60</ele>
        <time>2021-07-17T09:13:45.000Z</time>
      </trkpt>
      <trkpt lat="47.12867" lon="-1.61761">
        <ele>60</ele>
        <time>2021-07-17T09:13:47.000Z</time>
      </trkpt>
      <trkpt lat="47.12874" lon="-1.61776">
        <ele>60</ele>
        <time>2021-07-17T09:13:49.000Z</time>
      </trkpt>
      <trkpt lat="47.12881" lon="-1.61793">
        <ele>59</ele>
        <time>2021-07-17T09:13:51.000Z</time>
      </trkpt>
      <trkpt lat="47.12887" lon="-1.6181">
        <ele>59</ele>
        <time>2021-07-17T09:13:53.000Z</time>
      </trkpt>
      <trkpt lat="47.12893" lon="-1.61827">
        <ele>59</ele>
        <time>2021-07-17T09:13:55.000Z</time>
      </trkpt>
      <trkpt lat="47.12899" lon="-1.61844">
        <ele>59</ele>
        <time>2021-07-17T09:13:57.000Z</time>
      </trkpt>
      <trkpt lat="47.12904" lon="-1.61862">
        <ele>59</ele>
        <time>2021-07-17T09:13:59.000Z</time>
      </trkpt>
      <trkpt lat="47.12907" lon="-1.6188">
        <ele>58</ele>
        <time>2021-07-17T09:14:01.000Z</time>
      </trkpt>
      <trkpt lat="47.1291" lon="-1.61898">
        <ele>58</ele>
        <time>2021-07-17T09:14:03.000Z</time>
      </trkpt>
      <trkpt lat="47.12912" lon="-1.61917">
        <ele>58</ele>
        <time>2021-07-17T09:14:05.000Z</time>
      </trkpt>
      <trkpt lat="47.12915" lon="-1.61936">
        <ele>59</ele>
        <time>2021-07-17T09:14:07.000Z</time>
      </trkpt>
      <trkpt lat="47.12919" lon="-1.61954">
        <ele>59</ele>
        <time>2021-07-17T09:14:09.000Z</time>
      </trkpt>
      <trkpt lat="47.12923" lon="-1.6197">
        <ele>59</ele>
        <time>2021-07-17T09:14:11.000Z</time>
      </trkpt>
      <trkpt lat="47.12928" lon="-1.61986">
        <ele>59</ele>
        <time>2021-07-17T09:14:13.000Z</time>
      </trkpt>
      <trkpt lat="47.12932" lon="-1.62003">
        <ele>60</ele>
        <time>2021-07-17T09:14:15.000Z</time>
      </trkpt>
      <trkpt lat="47.12936" lon="-1.62021">
        <ele>60</ele>
        <time>2021-07-17T09:14:17.000Z</time>
      </trkpt>
      <trkpt lat="47.12941" lon="-1.62037">
        <ele>60</ele>
        <time>2021-07-17T09:14:19.000Z</time>
      </trkpt>
      <trkpt lat="47.12946" lon="-1.6205">
        <ele>60</ele>
        <time>2021-07-17T09:14:21.000Z</time>
      </trkpt>
      <trkpt lat="47.12952" lon="-1.62063">
        <ele>60</ele>
        <time>2021-07-17T09:14:23.000Z</time>
      </trkpt>
      <trkpt lat="47.12958" lon="-1.62076">
        <ele>59</ele>
        <time>2021-07-17T09:14:25.000Z</time>
      </trkpt>
      <trkpt lat="47.12965" lon="-1.62088">
        <ele>60</ele>
        <time>2021-07-17T09:14:27.000Z</time>
      </trkpt>
      <trkpt lat="47.12971" lon="-1.62101">
        <ele>60</ele>
        <time>2021-07-17T09:14:29.000Z</time>
      </trkpt>
      <trkpt lat="47.12982" lon="-1.62119">
        <ele>61</ele>
        <time>2021-07-17T09:14:32.000Z</time>
      </trkpt>
      <trkpt lat="47.1299" lon="-1.62131">
        <ele>61</ele>
        <time>2021-07-17T09:14:34.000Z</time>
      </trkpt>
      <trkpt lat="47.12997" lon="-1.62144">
        <ele>61</ele>
        <time>2021-07-17T09:14:36.000Z</time>
      </trkpt>
      <trkpt lat="47.13005" lon="-1.62156">
        <ele>61</ele>
        <time>2021-07-17T09:14:38.000Z</time>
      </trkpt>
      <trkpt lat="47.13012" lon="-1.62168">
        <ele>62</ele>
        <time>2021-07-17T09:14:40.000Z</time>
      </trkpt>
      <trkpt lat="47.13023" lon="-1.62185">
        <ele>61</ele>
        <time>2021-07-17T09:14:43.000Z</time>
      </trkpt>
      <trkpt lat="47.1303" lon="-1.62197">
        <ele>61</ele>
        <time>2021-07-17T09:14:45.000Z</time>
      </trkpt>
      <trkpt lat="47.13037" lon="-1.62208">
        <ele>61</ele>
        <time>2021-07-17T09:14:47.000Z</time>
      </trkpt>
      <trkpt lat="47.13045" lon="-1.6222">
        <ele>61</ele>
        <time>2021-07-17T09:14:49.000Z</time>
      </trkpt>
      <trkpt lat="47.13053" lon="-1.62232">
        <ele>60</ele>
        <time>2021-07-17T09:14:51.000Z</time>
      </trkpt>
      <trkpt lat="47.13061" lon="-1.62244">
        <ele>60</ele>
        <time>2021-07-17T09:14:53.000Z</time>
      </trkpt>
      <trkpt lat="47.13069" lon="-1.62256">
        <ele>60</ele>
        <time>2021-07-17T09:14:55.000Z</time>
      </trkpt>
      <trkpt lat="47.13077" lon="-1.62268">
        <ele>60</ele>
        <time>2021-07-17T09:14:57.000Z</time>
      </trkpt>
      <trkpt lat="47.13084" lon="-1.62278">
        <ele>61</ele>
        <time>2021-07-17T09:14:59.000Z</time>
      </trkpt>
      <trkpt lat="47.13092" lon="-1.62289">
        <ele>61</ele>
        <time>2021-07-17T09:15:01.000Z</time>
      </trkpt>
      <trkpt lat="47.13099" lon="-1.62301">
        <ele>61</ele>
        <time>2021-07-17T09:15:03.000Z</time>
      </trkpt>
      <trkpt lat="47.13111" lon="-1.62295">
        <ele>61</ele>
        <time>2021-07-17T09:15:06.000Z</time>
      </trkpt>
      <trkpt lat="47.13116" lon="-1.62281">
        <ele>61</ele>
        <time>2021-07-17T09:15:08.000Z</time>
      </trkpt>
      <trkpt lat="47.13122" lon="-1.62267">
        <ele>62</ele>
        <time>2021-07-17T09:15:10.000Z</time>
      </trkpt>
      <trkpt lat="47.13129" lon="-1.62253">
        <ele>62</ele>
        <time>2021-07-17T09:15:12.000Z</time>
      </trkpt>
      <trkpt lat="47.13136" lon="-1.6224">
        <ele>62</ele>
        <time>2021-07-17T09:15:14.000Z</time>
      </trkpt>
      <trkpt lat="47.13142" lon="-1.62226">
        <ele>62</ele>
        <time>2021-07-17T09:15:16.000Z</time>
      </trkpt>
      <trkpt lat="47.13149" lon="-1.62212">
        <ele>62</ele>
        <time>2021-07-17T09:15:18.000Z</time>
      </trkpt>
      <trkpt lat="47.13155" lon="-1.62198">
        <ele>62</ele>
        <time>2021-07-17T09:15:20.000Z</time>
      </trkpt>
      <trkpt lat="47.13162" lon="-1.62185">
        <ele>62</ele>
        <time>2021-07-17T09:15:22.000Z</time>
      </trkpt>
      <trkpt lat="47.13169" lon="-1.62171">
        <ele>63</ele>
        <time>2021-07-17T09:15:24.000Z</time>
      </trkpt>
      <trkpt lat="47.13175" lon="-1.62157">
        <ele>63</ele>
        <time>2021-07-17T09:15:26.000Z</time>
      </trkpt>
      <trkpt lat="47.13181" lon="-1.62145">
        <ele>63</ele>
        <time>2021-07-17T09:15:28.000Z</time>
      </trkpt>
      <trkpt lat="47.13188" lon="-1.62133">
        <ele>64</ele>
        <time>2021-07-17T09:15:30.000Z</time>
      </trkpt>
      <trkpt lat="47.13193" lon="-1.62121">
        <ele>63</ele>
        <time>2021-07-17T09:15:32.000Z</time>
      </trkpt>
      <trkpt lat="47.13199" lon="-1.62109">
        <ele>64</ele>
        <time>2021-07-17T09:15:34.000Z</time>
      </trkpt>
      <trkpt lat="47.13208" lon="-1.62099">
        <ele>64</ele>
        <time>2021-07-17T09:15:36.000Z</time>
      </trkpt>
      <trkpt lat="47.13215" lon="-1.62087">
        <ele>64</ele>
        <time>2021-07-17T09:15:38.000Z</time>
      </trkpt>
      <trkpt lat="47.13223" lon="-1.62074">
        <ele>63</ele>
        <time>2021-07-17T09:15:40.000Z</time>
      </trkpt>
      <trkpt lat="47.13231" lon="-1.62062">
        <ele>63</ele>
        <time>2021-07-17T09:15:42.000Z</time>
      </trkpt>
      <trkpt lat="47.13239" lon="-1.62051">
        <ele>63</ele>
        <time>2021-07-17T09:15:44.000Z</time>
      </trkpt>
      <trkpt lat="47.13248" lon="-1.62041">
        <ele>64</ele>
        <time>2021-07-17T09:15:46.000Z</time>
      </trkpt>
      <trkpt lat="47.13256" lon="-1.6203">
        <ele>63</ele>
        <time>2021-07-17T09:15:48.000Z</time>
      </trkpt>
      <trkpt lat="47.13265" lon="-1.62019">
        <ele>63</ele>
        <time>2021-07-17T09:15:50.000Z</time>
      </trkpt>
      <trkpt lat="47.13275" lon="-1.62009">
        <ele>63</ele>
        <time>2021-07-17T09:15:52.000Z</time>
      </trkpt>
      <trkpt lat="47.13285" lon="-1.62">
        <ele>63</ele>
        <time>2021-07-17T09:15:54.000Z</time>
      </trkpt>
      <trkpt lat="47.13295" lon="-1.61992">
        <ele>63</ele>
        <time>2021-07-17T09:15:56.000Z</time>
      </trkpt>
      <trkpt lat="47.13305" lon="-1.61985">
        <ele>63</ele>
        <time>2021-07-17T09:15:58.000Z</time>
      </trkpt>
      <trkpt lat="47.13315" lon="-1.61978">
        <ele>63</ele>
        <time>2021-07-17T09:16:00.000Z</time>
      </trkpt>
      <trkpt lat="47.13324" lon="-1.61971">
        <ele>64</ele>
        <time>2021-07-17T09:16:02.000Z</time>
      </trkpt>
      <trkpt lat="47.13334" lon="-1.61963">
        <ele>64</ele>
        <time>2021-07-17T09:16:04.000Z</time>
      </trkpt>
      <trkpt lat="47.13344" lon="-1.61955">
        <ele>64</ele>
        <time>2021-07-17T09:16:06.000Z</time>
      </trkpt>
      <trkpt lat="47.13353" lon="-1.61947">
        <ele>64</ele>
        <time>2021-07-17T09:16:08.000Z</time>
      </trkpt>
      <trkpt lat="47.13363" lon="-1.61939">
        <ele>65</ele>
        <time>2021-07-17T09:16:10.000Z</time>
      </trkpt>
      <trkpt lat="47.13373" lon="-1.61932">
        <ele>65</ele>
        <time>2021-07-17T09:16:12.000Z</time>
      </trkpt>
      <trkpt lat="47.13384" lon="-1.61925">
        <ele>65</ele>
        <time>2021-07-17T09:16:14.000Z</time>
      </trkpt>
      <trkpt lat="47.13394" lon="-1.61918">
        <ele>65</ele>
        <time>2021-07-17T09:16:16.000Z</time>
      </trkpt>
      <trkpt lat="47.13404" lon="-1.6191">
        <ele>64</ele>
        <time>2021-07-17T09:16:18.000Z</time>
      </trkpt>
      <trkpt lat="47.13414" lon="-1.61902">
        <ele>65</ele>
        <time>2021-07-17T09:16:20.000Z</time>
      </trkpt>
      <trkpt lat="47.13425" lon="-1.61894">
        <ele>65</ele>
        <time>2021-07-17T09:16:22.000Z</time>
      </trkpt>
      <trkpt lat="47.13435" lon="-1.61886">
        <ele>64</ele>
        <time>2021-07-17T09:16:24.000Z</time>
      </trkpt>
      <trkpt lat="47.13445" lon="-1.61877">
        <ele>64</ele>
        <time>2021-07-17T09:16:26.000Z</time>
      </trkpt>
      <trkpt lat="47.13455" lon="-1.61869">
        <ele>64</ele>
        <time>2021-07-17T09:16:28.000Z</time>
      </trkpt>
      <trkpt lat="47.13464" lon="-1.61862">
        <ele>64</ele>
        <time>2021-07-17T09:16:30.000Z</time>
      </trkpt>
      <trkpt lat="47.13474" lon="-1.61855">
        <ele>64</ele>
        <time>2021-07-17T09:16:32.000Z</time>
      </trkpt>
      <trkpt lat="47.13484" lon="-1.6185">
        <ele>64</ele>
        <time>2021-07-17T09:16:34.000Z</time>
      </trkpt>
      <trkpt lat="47.13495" lon="-1.61844">
        <ele>64</ele>
        <time>2021-07-17T09:16:36.000Z</time>
      </trkpt>
      <trkpt lat="47.13505" lon="-1.61839">
        <ele>64</ele>
        <time>2021-07-17T09:16:38.000Z</time>
      </trkpt>
      <trkpt lat="47.13515" lon="-1.61834">
        <ele>64</ele>
        <time>2021-07-17T09:16:40.000Z</time>
      </trkpt>
      <trkpt lat="47.13526" lon="-1.61829">
        <ele>64</ele>
        <time>2021-07-17T09:16:42.000Z</time>
      </trkpt>
      <trkpt lat="47.13537" lon="-1.61824">
        <ele>64</ele>
        <time>2021-07-17T09:16:44.000Z</time>
      </trkpt>
      <trkpt lat="47.13549" lon="-1.61819">
        <ele>64</ele>
        <time>2021-07-17T09:16:46.000Z</time>
      </trkpt>
      <trkpt lat="47.13559" lon="-1.61813">
        <ele>63</ele>
        <time>2021-07-17T09:16:48.000Z</time>
      </trkpt>
      <trkpt lat="47.1357" lon="-1.61806">
        <ele>63</ele>
        <time>2021-07-17T09:16:50.000Z</time>
      </trkpt>
      <trkpt lat="47.13582" lon="-1.61803">
        <ele>63</ele>
        <time>2021-07-17T09:16:52.000Z</time>
      </trkpt>
      <trkpt lat="47.13593" lon="-1.618">
        <ele>63</ele>
        <time>2021-07-17T09:16:54.000Z</time>
      </trkpt>
      <trkpt lat="47.13605" lon="-1.61795">
        <ele>63</ele>
        <time>2021-07-17T09:16:56.000Z</time>
      </trkpt>
      <trkpt lat="47.13616" lon="-1.61791">
        <ele>64</ele>
        <time>2021-07-17T09:16:58.000Z</time>
      </trkpt>
      <trkpt lat="47.13627" lon="-1.61786">
        <ele>64</ele>
        <time>2021-07-17T09:17:00.000Z</time>
      </trkpt>
      <trkpt lat="47.13638" lon="-1.61781">
        <ele>64</ele>
        <time>2021-07-17T09:17:02.000Z</time>
      </trkpt>
      <trkpt lat="47.13649" lon="-1.61776">
        <ele>64</ele>
        <time>2021-07-17T09:17:04.000Z</time>
      </trkpt>
      <trkpt lat="47.13659" lon="-1.61772">
        <ele>65</ele>
        <time>2021-07-17T09:17:06.000Z</time>
      </trkpt>
      <trkpt lat="47.13669" lon="-1.61766">
        <ele>65</ele>
        <time>2021-07-17T09:17:08.000Z</time>
      </trkpt>
      <trkpt lat="47.13679" lon="-1.6176">
        <ele>65</ele>
        <time>2021-07-17T09:17:10.000Z</time>
      </trkpt>
      <trkpt lat="47.13689" lon="-1.61753">
        <ele>66</ele>
        <time>2021-07-17T09:17:12.000Z</time>
      </trkpt>
      <trkpt lat="47.13699" lon="-1.61746">
        <ele>66</ele>
        <time>2021-07-17T09:17:14.000Z</time>
      </trkpt>
      <trkpt lat="47.13708" lon="-1.61739">
        <ele>65</ele>
        <time>2021-07-17T09:17:16.000Z</time>
      </trkpt>
      <trkpt lat="47.13717" lon="-1.61731">
        <ele>66</ele>
        <time>2021-07-17T09:17:18.000Z</time>
      </trkpt>
      <trkpt lat="47.13726" lon="-1.61724">
        <ele>66</ele>
        <time>2021-07-17T09:17:20.000Z</time>
      </trkpt>
      <trkpt lat="47.13739" lon="-1.6172">
        <ele>66</ele>
        <time>2021-07-17T09:17:23.000Z</time>
      </trkpt>
      <trkpt lat="47.13743" lon="-1.61734">
        <ele>66</ele>
        <time>2021-07-17T09:17:25.000Z</time>
      </trkpt>
      <trkpt lat="47.13741" lon="-1.6175">
        <ele>65</ele>
        <time>2021-07-17T09:17:27.000Z</time>
      </trkpt>
      <trkpt lat="47.13739" lon="-1.61767">
        <ele>65</ele>
        <time>2021-07-17T09:17:29.000Z</time>
      </trkpt>
      <trkpt lat="47.13735" lon="-1.61785">
        <ele>65</ele>
        <time>2021-07-17T09:17:31.000Z</time>
      </trkpt>
      <trkpt lat="47.13731" lon="-1.61802">
        <ele>64</ele>
        <time>2021-07-17T09:17:33.000Z</time>
      </trkpt>
      <trkpt lat="47.13728" lon="-1.6182">
        <ele>65</ele>
        <time>2021-07-17T09:17:35.000Z</time>
      </trkpt>
      <trkpt lat="47.13726" lon="-1.61838">
        <ele>65</ele>
        <time>2021-07-17T09:17:37.000Z</time>
      </trkpt>
      <trkpt lat="47.13725" lon="-1.61857">
        <ele>65</ele>
        <time>2021-07-17T09:17:39.000Z</time>
      </trkpt>
      <trkpt lat="47.13724" lon="-1.61875">
        <ele>66</ele>
        <time>2021-07-17T09:17:41.000Z</time>
      </trkpt>
      <trkpt lat="47.13724" lon="-1.61893">
        <ele>66</ele>
        <time>2021-07-17T09:17:43.000Z</time>
      </trkpt>
      <trkpt lat="47.13723" lon="-1.6191">
        <ele>67</ele>
        <time>2021-07-17T09:17:45.000Z</time>
      </trkpt>
      <trkpt lat="47.13722" lon="-1.61928">
        <ele>67</ele>
        <time>2021-07-17T09:17:47.000Z</time>
      </trkpt>
      <trkpt lat="47.13722" lon="-1.61945">
        <ele>66</ele>
        <time>2021-07-17T09:17:49.000Z</time>
      </trkpt>
      <trkpt lat="47.13725" lon="-1.61962">
        <ele>66</ele>
        <time>2021-07-17T09:17:51.000Z</time>
      </trkpt>
      <trkpt lat="47.13727" lon="-1.61979">
        <ele>65</ele>
        <time>2021-07-17T09:17:53.000Z</time>
      </trkpt>
      <trkpt lat="47.13729" lon="-1.61997">
        <ele>65</ele>
        <time>2021-07-17T09:17:55.000Z</time>
      </trkpt>
      <trkpt lat="47.13731" lon="-1.62014">
        <ele>66</ele>
        <time>2021-07-17T09:17:57.000Z</time>
      </trkpt>
      <trkpt lat="47.13734" lon="-1.62031">
        <ele>66</ele>
        <time>2021-07-17T09:17:59.000Z</time>
      </trkpt>
      <trkpt lat="47.13736" lon="-1.62048">
        <ele>66</ele>
        <time>2021-07-17T09:18:01.000Z</time>
      </trkpt>
      <trkpt lat="47.13739" lon="-1.62066">
        <ele>66</ele>
        <time>2021-07-17T09:18:03.000Z</time>
      </trkpt>
      <trkpt lat="47.13741" lon="-1.62084">
        <ele>67</ele>
        <time>2021-07-17T09:18:05.000Z</time>
      </trkpt>
      <trkpt lat="47.13744" lon="-1.62102">
        <ele>67</ele>
        <time>2021-07-17T09:18:07.000Z</time>
      </trkpt>
      <trkpt lat="47.13746" lon="-1.62119">
        <ele>66</ele>
        <time>2021-07-17T09:18:09.000Z</time>
      </trkpt>
      <trkpt lat="47.13747" lon="-1.62136">
        <ele>66</ele>
        <time>2021-07-17T09:18:11.000Z</time>
      </trkpt>
      <trkpt lat="47.1375" lon="-1.62154">
        <ele>66</ele>
        <time>2021-07-17T09:18:13.000Z</time>
      </trkpt>
      <trkpt lat="47.13752" lon="-1.62172">
        <ele>67</ele>
        <time>2021-07-17T09:18:15.000Z</time>
      </trkpt>
      <trkpt lat="47.13755" lon="-1.6219">
        <ele>67</ele>
        <time>2021-07-17T09:18:17.000Z</time>
      </trkpt>
      <trkpt lat="47.13757" lon="-1.62208">
        <ele>67</ele>
        <time>2021-07-17T09:18:19.000Z</time>
      </trkpt>
      <trkpt lat="47.13759" lon="-1.62226">
        <ele>67</ele>
        <time>2021-07-17T09:18:21.000Z</time>
      </trkpt>
      <trkpt lat="47.13761" lon="-1.62244">
        <ele>67</ele>
        <time>2021-07-17T09:18:23.000Z</time>
      </trkpt>
      <trkpt lat="47.13764" lon="-1.62262">
        <ele>67</ele>
        <time>2021-07-17T09:18:25.000Z</time>
      </trkpt>
      <trkpt lat="47.13765" lon="-1.62279">
        <ele>67</ele>
        <time>2021-07-17T09:18:27.000Z</time>
      </trkpt>
      <trkpt lat="47.13767" lon="-1.62298">
        <ele>67</ele>
        <time>2021-07-17T09:18:29.000Z</time>
      </trkpt>
      <trkpt lat="47.13767" lon="-1.62316">
        <ele>67</ele>
        <time>2021-07-17T09:18:31.000Z</time>
      </trkpt>
      <trkpt lat="47.13766" lon="-1.62334">
        <ele>66</ele>
        <time>2021-07-17T09:18:33.000Z</time>
      </trkpt>
      <trkpt lat="47.13764" lon="-1.62353">
        <ele>66</ele>
        <time>2021-07-17T09:18:35.000Z</time>
      </trkpt>
      <trkpt lat="47.13763" lon="-1.62373">
        <ele>66</ele>
        <time>2021-07-17T09:18:37.000Z</time>
      </trkpt>
      <trkpt lat="47.13762" lon="-1.62394">
        <ele>66</ele>
        <time>2021-07-17T09:18:39.000Z</time>
      </trkpt>
      <trkpt lat="47.13762" lon="-1.62416">
        <ele>66</ele>
        <time>2021-07-17T09:18:41.000Z</time>
      </trkpt>
      <trkpt lat="47.13763" lon="-1.62439">
        <ele>65</ele>
        <time>2021-07-17T09:18:43.000Z</time>
      </trkpt>
      <trkpt lat="47.13765" lon="-1.62462">
        <ele>64</ele>
        <time>2021-07-17T09:18:45.000Z</time>
      </trkpt>
      <trkpt lat="47.13766" lon="-1.62483">
        <ele>64</ele>
        <time>2021-07-17T09:18:47.000Z</time>
      </trkpt>
      <trkpt lat="47.13768" lon="-1.62502">
        <ele>64</ele>
        <time>2021-07-17T09:18:49.000Z</time>
      </trkpt>
      <trkpt lat="47.1377" lon="-1.62522">
        <ele>64</ele>
        <time>2021-07-17T09:18:51.000Z</time>
      </trkpt>
      <trkpt lat="47.13773" lon="-1.62542">
        <ele>64</ele>
        <time>2021-07-17T09:18:53.000Z</time>
      </trkpt>
      <trkpt lat="47.13775" lon="-1.6256">
        <ele>64</ele>
        <time>2021-07-17T09:18:55.000Z</time>
      </trkpt>
      <trkpt lat="47.13777" lon="-1.62579">
        <ele>65</ele>
        <time>2021-07-17T09:18:57.000Z</time>
      </trkpt>
      <trkpt lat="47.13779" lon="-1.62598">
        <ele>65</ele>
        <time>2021-07-17T09:18:59.000Z</time>
      </trkpt>
      <trkpt lat="47.1378" lon="-1.62616">
        <ele>66</ele>
        <time>2021-07-17T09:19:01.000Z</time>
      </trkpt>
      <trkpt lat="47.13782" lon="-1.62635">
        <ele>66</ele>
        <time>2021-07-17T09:19:03.000Z</time>
      </trkpt>
      <trkpt lat="47.13784" lon="-1.62654">
        <ele>66</ele>
        <time>2021-07-17T09:19:05.000Z</time>
      </trkpt>
      <trkpt lat="47.13785" lon="-1.62673">
        <ele>67</ele>
        <time>2021-07-17T09:19:07.000Z</time>
      </trkpt>
      <trkpt lat="47.13785" lon="-1.62691">
        <ele>67</ele>
        <time>2021-07-17T09:19:09.000Z</time>
      </trkpt>
      <trkpt lat="47.13785" lon="-1.62709">
        <ele>68</ele>
        <time>2021-07-17T09:19:11.000Z</time>
      </trkpt>
      <trkpt lat="47.13784" lon="-1.62727">
        <ele>69</ele>
        <time>2021-07-17T09:19:13.000Z</time>
      </trkpt>
      <trkpt lat="47.13784" lon="-1.62744">
        <ele>68</ele>
        <time>2021-07-17T09:19:15.000Z</time>
      </trkpt>
      <trkpt lat="47.13786" lon="-1.62761">
        <ele>69</ele>
        <time>2021-07-17T09:19:17.000Z</time>
      </trkpt>
      <trkpt lat="47.13789" lon="-1.62778">
        <ele>69</ele>
        <time>2021-07-17T09:19:19.000Z</time>
      </trkpt>
      <trkpt lat="47.13793" lon="-1.62794">
        <ele>69</ele>
        <time>2021-07-17T09:19:21.000Z</time>
      </trkpt>
      <trkpt lat="47.13799" lon="-1.6281">
        <ele>69</ele>
        <time>2021-07-17T09:19:23.000Z</time>
      </trkpt>
      <trkpt lat="47.13804" lon="-1.62825">
        <ele>68</ele>
        <time>2021-07-17T09:19:25.000Z</time>
      </trkpt>
      <trkpt lat="47.1381" lon="-1.6284">
        <ele>68</ele>
        <time>2021-07-17T09:19:27.000Z</time>
      </trkpt>
      <trkpt lat="47.13815" lon="-1.62855">
        <ele>67</ele>
        <time>2021-07-17T09:19:29.000Z</time>
      </trkpt>
      <trkpt lat="47.13821" lon="-1.6287">
        <ele>67</ele>
        <time>2021-07-17T09:19:31.000Z</time>
      </trkpt>
      <trkpt lat="47.13824" lon="-1.62886">
        <ele>67</ele>
        <time>2021-07-17T09:19:33.000Z</time>
      </trkpt>
      <trkpt lat="47.13826" lon="-1.62903">
        <ele>66</ele>
        <time>2021-07-17T09:19:35.000Z</time>
      </trkpt>
      <trkpt lat="47.13825" lon="-1.6292">
        <ele>66</ele>
        <time>2021-07-17T09:19:37.000Z</time>
      </trkpt>
      <trkpt lat="47.13823" lon="-1.62938">
        <ele>66</ele>
        <time>2021-07-17T09:19:39.000Z</time>
      </trkpt>
      <trkpt lat="47.13821" lon="-1.62957">
        <ele>65</ele>
        <time>2021-07-17T09:19:41.000Z</time>
      </trkpt>
      <trkpt lat="47.13819" lon="-1.62976">
        <ele>65</ele>
        <time>2021-07-17T09:19:43.000Z</time>
      </trkpt>
      <trkpt lat="47.13818" lon="-1.62995">
        <ele>65</ele>
        <time>2021-07-17T09:19:45.000Z</time>
      </trkpt>
      <trkpt lat="47.13817" lon="-1.63016">
        <ele>64</ele>
        <time>2021-07-17T09:19:47.000Z</time>
      </trkpt>
      <trkpt lat="47.13817" lon="-1.63037">
        <ele>64</ele>
        <time>2021-07-17T09:19:49.000Z</time>
      </trkpt>
      <trkpt lat="47.13823" lon="-1.63055">
        <ele>64</ele>
        <time>2021-07-17T09:19:51.000Z</time>
      </trkpt>
      <trkpt lat="47.13835" lon="-1.63059">
        <ele>63</ele>
        <time>2021-07-17T09:19:53.000Z</time>
      </trkpt>
      <trkpt lat="47.13847" lon="-1.63056">
        <ele>63</ele>
        <time>2021-07-17T09:19:55.000Z</time>
      </trkpt>
      <trkpt lat="47.13859" lon="-1.63054">
        <ele>63</ele>
        <time>2021-07-17T09:19:57.000Z</time>
      </trkpt>
      <trkpt lat="47.13871" lon="-1.63053">
        <ele>63</ele>
        <time>2021-07-17T09:19:59.000Z</time>
      </trkpt>
      <trkpt lat="47.13883" lon="-1.63051">
        <ele>64</ele>
        <time>2021-07-17T09:20:01.000Z</time>
      </trkpt>
      <trkpt lat="47.13894" lon="-1.63048">
        <ele>64</ele>
        <time>2021-07-17T09:20:03.000Z</time>
      </trkpt>
      <trkpt lat="47.13906" lon="-1.63044">
        <ele>64</ele>
        <time>2021-07-17T09:20:05.000Z</time>
      </trkpt>
      <trkpt lat="47.13917" lon="-1.63039">
        <ele>64</ele>
        <time>2021-07-17T09:20:07.000Z</time>
      </trkpt>
      <trkpt lat="47.13928" lon="-1.63034">
        <ele>64</ele>
        <time>2021-07-17T09:20:09.000Z</time>
      </trkpt>
      <trkpt lat="47.13939" lon="-1.63029">
        <ele>64</ele>
        <time>2021-07-17T09:20:11.000Z</time>
      </trkpt>
      <trkpt lat="47.1395" lon="-1.63023">
        <ele>64</ele>
        <time>2021-07-17T09:20:13.000Z</time>
      </trkpt>
      <trkpt lat="47.13961" lon="-1.63017">
        <ele>64</ele>
        <time>2021-07-17T09:20:15.000Z</time>
      </trkpt>
      <trkpt lat="47.13972" lon="-1.63011">
        <ele>65</ele>
        <time>2021-07-17T09:20:17.000Z</time>
      </trkpt>
      <trkpt lat="47.13983" lon="-1.63005">
        <ele>65</ele>
        <time>2021-07-17T09:20:19.000Z</time>
      </trkpt>
      <trkpt lat="47.13994" lon="-1.62998">
        <ele>65</ele>
        <time>2021-07-17T09:20:21.000Z</time>
      </trkpt>
      <trkpt lat="47.14005" lon="-1.62992">
        <ele>65</ele>
        <time>2021-07-17T09:20:23.000Z</time>
      </trkpt>
      <trkpt lat="47.14015" lon="-1.62987">
        <ele>65</ele>
        <time>2021-07-17T09:20:25.000Z</time>
      </trkpt>
      <trkpt lat="47.14025" lon="-1.62983">
        <ele>66</ele>
        <time>2021-07-17T09:20:27.000Z</time>
      </trkpt>
      <trkpt lat="47.14035" lon="-1.6298">
        <ele>67</ele>
        <time>2021-07-17T09:20:29.000Z</time>
      </trkpt>
      <trkpt lat="47.14045" lon="-1.62978">
        <ele>67</ele>
        <time>2021-07-17T09:20:31.000Z</time>
      </trkpt>
      <trkpt lat="47.14056" lon="-1.62976">
        <ele>67</ele>
        <time>2021-07-17T09:20:33.000Z</time>
      </trkpt>
      <trkpt lat="47.14067" lon="-1.62975">
        <ele>67</ele>
        <time>2021-07-17T09:20:35.000Z</time>
      </trkpt>
      <trkpt lat="47.14077" lon="-1.62975">
        <ele>67</ele>
        <time>2021-07-17T09:20:37.000Z</time>
      </trkpt>
      <trkpt lat="47.14087" lon="-1.62976">
        <ele>68</ele>
        <time>2021-07-17T09:20:39.000Z</time>
      </trkpt>
      <trkpt lat="47.14098" lon="-1.62977">
        <ele>68</ele>
        <time>2021-07-17T09:20:41.000Z</time>
      </trkpt>
      <trkpt lat="47.14108" lon="-1.62979">
        <ele>68</ele>
        <time>2021-07-17T09:20:43.000Z</time>
      </trkpt>
      <trkpt lat="47.14118" lon="-1.62982">
        <ele>68</ele>
        <time>2021-07-17T09:20:45.000Z</time>
      </trkpt>
      <trkpt lat="47.14128" lon="-1.62987">
        <ele>68</ele>
        <time>2021-07-17T09:20:47.000Z</time>
      </trkpt>
      <trkpt lat="47.14139" lon="-1.62991">
        <ele>68</ele>
        <time>2021-07-17T09:20:49.000Z</time>
      </trkpt>
      <trkpt lat="47.14149" lon="-1.62994">
        <ele>68</ele>
        <time>2021-07-17T09:20:51.000Z</time>
      </trkpt>
      <trkpt lat="47.14159" lon="-1.62999">
        <ele>67</ele>
        <time>2021-07-17T09:20:53.000Z</time>
      </trkpt>
      <trkpt lat="47.14169" lon="-1.63004">
        <ele>68</ele>
        <time>2021-07-17T09:20:55.000Z</time>
      </trkpt>
      <trkpt lat="47.1418" lon="-1.6301">
        <ele>68</ele>
        <time>2021-07-17T09:20:57.000Z</time>
      </trkpt>
      <trkpt lat="47.1419" lon="-1.63015">
        <ele>68</ele>
        <time>2021-07-17T09:20:59.000Z</time>
      </trkpt>
      <trkpt lat="47.14201" lon="-1.6302">
        <ele>68</ele>
        <time>2021-07-17T09:21:01.000Z</time>
      </trkpt>
      <trkpt lat="47.14212" lon="-1.63026">
        <ele>68</ele>
        <time>2021-07-17T09:21:03.000Z</time>
      </trkpt>
      <trkpt lat="47.14222" lon="-1.63031">
        <ele>69</ele>
        <time>2021-07-17T09:21:05.000Z</time>
      </trkpt>
      <trkpt lat="47.14233" lon="-1.63036">
        <ele>69</ele>
        <time>2021-07-17T09:21:07.000Z</time>
      </trkpt>
      <trkpt lat="47.14243" lon="-1.63041">
        <ele>69</ele>
        <time>2021-07-17T09:21:09.000Z</time>
      </trkpt>
      <trkpt lat="47.14253" lon="-1.63047">
        <ele>69</ele>
        <time>2021-07-17T09:21:11.000Z</time>
      </trkpt>
      <trkpt lat="47.14264" lon="-1.63052">
        <ele>69</ele>
        <time>2021-07-17T09:21:13.000Z</time>
      </trkpt>
      <trkpt lat="47.14274" lon="-1.63057">
        <ele>69</ele>
        <time>2021-07-17T09:21:15.000Z</time>
      </trkpt>
      <trkpt lat="47.14284" lon="-1.63062">
        <ele>70</ele>
        <time>2021-07-17T09:21:17.000Z</time>
      </trkpt>
      <trkpt lat="47.14294" lon="-1.63067">
        <ele>70</ele>
        <time>2021-07-17T09:21:19.000Z</time>
      </trkpt>
      <trkpt lat="47.14304" lon="-1.63071">
        <ele>70</ele>
        <time>2021-07-17T09:21:21.000Z</time>
      </trkpt>
      <trkpt lat="47.14315" lon="-1.63077">
        <ele>70</ele>
        <time>2021-07-17T09:21:23.000Z</time>
      </trkpt>
      <trkpt lat="47.14326" lon="-1.63082">
        <ele>70</ele>
        <time>2021-07-17T09:21:25.000Z</time>
      </trkpt>
      <trkpt lat="47.14337" lon="-1.63087">
        <ele>70</ele>
        <time>2021-07-17T09:21:27.000Z</time>
      </trkpt>
      <trkpt lat="47.14347" lon="-1.63093">
        <ele>70</ele>
        <time>2021-07-17T09:21:29.000Z</time>
      </trkpt>
      <trkpt lat="47.14357" lon="-1.631">
        <ele>71</ele>
        <time>2021-07-17T09:21:31.000Z</time>
      </trkpt>
      <trkpt lat="47.14368" lon="-1.63106">
        <ele>71</ele>
        <time>2021-07-17T09:21:33.000Z</time>
      </trkpt>
      <trkpt lat="47.14379" lon="-1.63111">
        <ele>71</ele>
        <time>2021-07-17T09:21:35.000Z</time>
      </trkpt>
      <trkpt lat="47.1439" lon="-1.63115">
        <ele>71</ele>
        <time>2021-07-17T09:21:37.000Z</time>
      </trkpt>
      <trkpt lat="47.14401" lon="-1.6312">
        <ele>71</ele>
        <time>2021-07-17T09:21:39.000Z</time>
      </trkpt>
      <trkpt lat="47.14411" lon="-1.63126">
        <ele>70</ele>
        <time>2021-07-17T09:21:41.000Z</time>
      </trkpt>
      <trkpt lat="47.14422" lon="-1.63132">
        <ele>70</ele>
        <time>2021-07-17T09:21:43.000Z</time>
      </trkpt>
      <trkpt lat="47.14432" lon="-1.63137">
        <ele>70</ele>
        <time>2021-07-17T09:21:45.000Z</time>
      </trkpt>
      <trkpt lat="47.14442" lon="-1.63142">
        <ele>69</ele>
        <time>2021-07-17T09:21:47.000Z</time>
      </trkpt>
      <trkpt lat="47.14453" lon="-1.63145">
        <ele>70</ele>
        <time>2021-07-17T09:21:49.000Z</time>
      </trkpt>
      <trkpt lat="47.14465" lon="-1.63145">
        <ele>70</ele>
        <time>2021-07-17T09:21:51.000Z</time>
      </trkpt>
      <trkpt lat="47.14476" lon="-1.63145">
        <ele>69</ele>
        <time>2021-07-17T09:21:53.000Z</time>
      </trkpt>
      <trkpt lat="47.14487" lon="-1.63144">
        <ele>69</ele>
        <time>2021-07-17T09:21:55.000Z</time>
      </trkpt>
      <trkpt lat="47.14497" lon="-1.63145">
        <ele>69</ele>
        <time>2021-07-17T09:21:57.000Z</time>
      </trkpt>
      <trkpt lat="47.14508" lon="-1.63145">
        <ele>70</ele>
        <time>2021-07-17T09:21:59.000Z</time>
      </trkpt>
      <trkpt lat="47.14519" lon="-1.63145">
        <ele>70</ele>
        <time>2021-07-17T09:22:01.000Z</time>
      </trkpt>
      <trkpt lat="47.14529" lon="-1.63146">
        <ele>70</ele>
        <time>2021-07-17T09:22:03.000Z</time>
      </trkpt>
      <trkpt lat="47.1454" lon="-1.63145">
        <ele>70</ele>
        <time>2021-07-17T09:22:05.000Z</time>
      </trkpt>
      <trkpt lat="47.14551" lon="-1.63143">
        <ele>70</ele>
        <time>2021-07-17T09:22:07.000Z</time>
      </trkpt>
      <trkpt lat="47.14562" lon="-1.63139">
        <ele>71</ele>
        <time>2021-07-17T09:22:09.000Z</time>
      </trkpt>
      <trkpt lat="47.14571" lon="-1.63135">
        <ele>70</ele>
        <time>2021-07-17T09:22:11.000Z</time>
      </trkpt>
      <trkpt lat="47.14581" lon="-1.63129">
        <ele>71</ele>
        <time>2021-07-17T09:22:13.000Z</time>
      </trkpt>
      <trkpt lat="47.1459" lon="-1.63124">
        <ele>71</ele>
        <time>2021-07-17T09:22:15.000Z</time>
      </trkpt>
      <trkpt lat="47.146" lon="-1.63118">
        <ele>71</ele>
        <time>2021-07-17T09:22:17.000Z</time>
      </trkpt>
      <trkpt lat="47.1461" lon="-1.63112">
        <ele>71</ele>
        <time>2021-07-17T09:22:19.000Z</time>
      </trkpt>
      <trkpt lat="47.14619" lon="-1.63106">
        <ele>71</ele>
        <time>2021-07-17T09:22:21.000Z</time>
      </trkpt>
      <trkpt lat="47.14629" lon="-1.631">
        <ele>71</ele>
        <time>2021-07-17T09:22:23.000Z</time>
      </trkpt>
      <trkpt lat="47.14639" lon="-1.63094">
        <ele>71</ele>
        <time>2021-07-17T09:22:25.000Z</time>
      </trkpt>
      <trkpt lat="47.1465" lon="-1.63087">
        <ele>71</ele>
        <time>2021-07-17T09:22:27.000Z</time>
      </trkpt>
      <trkpt lat="47.14659" lon="-1.63081">
        <ele>70</ele>
        <time>2021-07-17T09:22:29.000Z</time>
      </trkpt>
      <trkpt lat="47.1467" lon="-1.63077">
        <ele>71</ele>
        <time>2021-07-17T09:22:31.000Z</time>
      </trkpt>
      <trkpt lat="47.1468" lon="-1.63074">
        <ele>71</ele>
        <time>2021-07-17T09:22:33.000Z</time>
      </trkpt>
      <trkpt lat="47.1469" lon="-1.63072">
        <ele>71</ele>
        <time>2021-07-17T09:22:35.000Z</time>
      </trkpt>
      <trkpt lat="47.14701" lon="-1.63071">
        <ele>71</ele>
        <time>2021-07-17T09:22:37.000Z</time>
      </trkpt>
      <trkpt lat="47.1471" lon="-1.6307">
        <ele>72</ele>
        <time>2021-07-17T09:22:39.000Z</time>
      </trkpt>
      <trkpt lat="47.1472" lon="-1.63069">
        <ele>72</ele>
        <time>2021-07-17T09:22:41.000Z</time>
      </trkpt>
      <trkpt lat="47.14729" lon="-1.63069">
        <ele>72</ele>
        <time>2021-07-17T09:22:43.000Z</time>
      </trkpt>
      <trkpt lat="47.14739" lon="-1.63068">
        <ele>72</ele>
        <time>2021-07-17T09:22:45.000Z</time>
      </trkpt>
      <trkpt lat="47.1475" lon="-1.63068">
        <ele>71</ele>
        <time>2021-07-17T09:22:47.000Z</time>
      </trkpt>
      <trkpt lat="47.14761" lon="-1.63067">
        <ele>71</ele>
        <time>2021-07-17T09:22:49.000Z</time>
      </trkpt>
      <trkpt lat="47.14772" lon="-1.63066">
        <ele>71</ele>
        <time>2021-07-17T09:22:51.000Z</time>
      </trkpt>
      <trkpt lat="47.14783" lon="-1.63065">
        <ele>71</ele>
        <time>2021-07-17T09:22:53.000Z</time>
      </trkpt>
      <trkpt lat="47.14794" lon="-1.63065">
        <ele>71</ele>
        <time>2021-07-17T09:22:55.000Z</time>
      </trkpt>
      <trkpt lat="47.14805" lon="-1.63064">
        <ele>71</ele>
        <time>2021-07-17T09:22:57.000Z</time>
      </trkpt>
      <trkpt lat="47.14816" lon="-1.63063">
        <ele>72</ele>
        <time>2021-07-17T09:22:59.000Z</time>
      </trkpt>
      <trkpt lat="47.14826" lon="-1.63062">
        <ele>72</ele>
        <time>2021-07-17T09:23:01.000Z</time>
      </trkpt>
      <trkpt lat="47.14837" lon="-1.63062">
        <ele>72</ele>
        <time>2021-07-17T09:23:03.000Z</time>
      </trkpt>
      <trkpt lat="47.14847" lon="-1.63062">
        <ele>72</ele>
        <time>2021-07-17T09:23:05.000Z</time>
      </trkpt>
      <trkpt lat="47.14858" lon="-1.63061">
        <ele>72</ele>
        <time>2021-07-17T09:23:07.000Z</time>
      </trkpt>
      <trkpt lat="47.14867" lon="-1.63061">
        <ele>72</ele>
        <time>2021-07-17T09:23:09.000Z</time>
      </trkpt>
      <trkpt lat="47.14879" lon="-1.63064">
        <ele>73</ele>
        <time>2021-07-17T09:23:12.000Z</time>
      </trkpt>
      <trkpt lat="47.14885" lon="-1.63082">
        <ele>73</ele>
        <time>2021-07-17T09:23:15.000Z</time>
      </trkpt>
      <trkpt lat="47.14884" lon="-1.631">
        <ele>73</ele>
        <time>2021-07-17T09:23:17.000Z</time>
      </trkpt>
      <trkpt lat="47.14882" lon="-1.63117">
        <ele>73</ele>
        <time>2021-07-17T09:23:19.000Z</time>
      </trkpt>
      <trkpt lat="47.14879" lon="-1.63134">
        <ele>73</ele>
        <time>2021-07-17T09:23:21.000Z</time>
      </trkpt>
      <trkpt lat="47.14877" lon="-1.63152">
        <ele>74</ele>
        <time>2021-07-17T09:23:23.000Z</time>
      </trkpt>
      <trkpt lat="47.14876" lon="-1.63168">
        <ele>74</ele>
        <time>2021-07-17T09:23:25.000Z</time>
      </trkpt>
      <trkpt lat="47.14875" lon="-1.63185">
        <ele>74</ele>
        <time>2021-07-17T09:23:27.000Z</time>
      </trkpt>
      <trkpt lat="47.14875" lon="-1.63202">
        <ele>75</ele>
        <time>2021-07-17T09:23:29.000Z</time>
      </trkpt>
      <trkpt lat="47.14874" lon="-1.6322">
        <ele>75</ele>
        <time>2021-07-17T09:23:31.000Z</time>
      </trkpt>
      <trkpt lat="47.14875" lon="-1.63237">
        <ele>75</ele>
        <time>2021-07-17T09:23:33.000Z</time>
      </trkpt>
      <trkpt lat="47.14875" lon="-1.63254">
        <ele>75</ele>
        <time>2021-07-17T09:23:35.000Z</time>
      </trkpt>
      <trkpt lat="47.14875" lon="-1.63271">
        <ele>75</ele>
        <time>2021-07-17T09:23:37.000Z</time>
      </trkpt>
      <trkpt lat="47.14876" lon="-1.63288">
        <ele>75</ele>
        <time>2021-07-17T09:23:39.000Z</time>
      </trkpt>
      <trkpt lat="47.14876" lon="-1.63304">
        <ele>76</ele>
        <time>2021-07-17T09:23:41.000Z</time>
      </trkpt>
      <trkpt lat="47.14876" lon="-1.63322">
        <ele>76</ele>
        <time>2021-07-17T09:23:43.000Z</time>
      </trkpt>
      <trkpt lat="47.14876" lon="-1.6334">
        <ele>76</ele>
        <time>2021-07-17T09:23:45.000Z</time>
      </trkpt>
      <trkpt lat="47.14875" lon="-1.63358">
        <ele>76</ele>
        <time>2021-07-17T09:23:47.000Z</time>
      </trkpt>
      <trkpt lat="47.14876" lon="-1.63376">
        <ele>77</ele>
        <time>2021-07-17T09:23:49.000Z</time>
      </trkpt>
      <trkpt lat="47.14876" lon="-1.63393">
        <ele>76</ele>
        <time>2021-07-17T09:23:51.000Z</time>
      </trkpt>
      <trkpt lat="47.14875" lon="-1.63411">
        <ele>76</ele>
        <time>2021-07-17T09:23:53.000Z</time>
      </trkpt>
      <trkpt lat="47.14875" lon="-1.63429">
        <ele>77</ele>
        <time>2021-07-17T09:23:55.000Z</time>
      </trkpt>
      <trkpt lat="47.14876" lon="-1.63447">
        <ele>77</ele>
        <time>2021-07-17T09:23:57.000Z</time>
      </trkpt>
      <trkpt lat="47.14876" lon="-1.63466">
        <ele>77</ele>
        <time>2021-07-17T09:23:59.000Z</time>
      </trkpt>
      <trkpt lat="47.14875" lon="-1.63484">
        <ele>77</ele>
        <time>2021-07-17T09:24:01.000Z</time>
      </trkpt>
      <trkpt lat="47.14875" lon="-1.63501">
        <ele>77</ele>
        <time>2021-07-17T09:24:03.000Z</time>
      </trkpt>
      <trkpt lat="47.14875" lon="-1.63519">
        <ele>77</ele>
        <time>2021-07-17T09:24:05.000Z</time>
      </trkpt>
      <trkpt lat="47.14875" lon="-1.63536">
        <ele>77</ele>
        <time>2021-07-17T09:24:07.000Z</time>
      </trkpt>
      <trkpt lat="47.14875" lon="-1.63554">
        <ele>77</ele>
        <time>2021-07-17T09:24:09.000Z</time>
      </trkpt>
      <trkpt lat="47.14875" lon="-1.63571">
        <ele>77</ele>
        <time>2021-07-17T09:24:11.000Z</time>
      </trkpt>
      <trkpt lat="47.14874" lon="-1.6359">
        <ele>77</ele>
        <time>2021-07-17T09:24:13.000Z</time>
      </trkpt>
      <trkpt lat="47.14874" lon="-1.63608">
        <ele>77</ele>
        <time>2021-07-17T09:24:15.000Z</time>
      </trkpt>
      <trkpt lat="47.14874" lon="-1.63626">
        <ele>77</ele>
        <time>2021-07-17T09:24:17.000Z</time>
      </trkpt>
      <trkpt lat="47.14873" lon="-1.63644">
        <ele>77</ele>
        <time>2021-07-17T09:24:19.000Z</time>
      </trkpt>
      <trkpt lat="47.14874" lon="-1.63662">
        <ele>77</ele>
        <time>2021-07-17T09:24:21.000Z</time>
      </trkpt>
      <trkpt lat="47.14873" lon="-1.6368">
        <ele>76</ele>
        <time>2021-07-17T09:24:23.000Z</time>
      </trkpt>
      <trkpt lat="47.14873" lon="-1.63698">
        <ele>76</ele>
        <time>2021-07-17T09:24:25.000Z</time>
      </trkpt>
      <trkpt lat="47.14873" lon="-1.63717">
        <ele>76</ele>
        <time>2021-07-17T09:24:27.000Z</time>
      </trkpt>
      <trkpt lat="47.14874" lon="-1.63736">
        <ele>76</ele>
        <time>2021-07-17T09:24:29.000Z</time>
      </trkpt>
      <trkpt lat="47.14874" lon="-1.63754">
        <ele>76</ele>
        <time>2021-07-17T09:24:31.000Z</time>
      </trkpt>
      <trkpt lat="47.14874" lon="-1.63773">
        <ele>76</ele>
        <time>2021-07-17T09:24:33.000Z</time>
      </trkpt>
      <trkpt lat="47.14874" lon="-1.63791">
        <ele>75</ele>
        <time>2021-07-17T09:24:35.000Z</time>
      </trkpt>
      <trkpt lat="47.14874" lon="-1.6381">
        <ele>75</ele>
        <time>2021-07-17T09:24:37.000Z</time>
      </trkpt>
      <trkpt lat="47.14874" lon="-1.63828">
        <ele>75</ele>
        <time>2021-07-17T09:24:39.000Z</time>
      </trkpt>
      <trkpt lat="47.14872" lon="-1.63845">
        <ele>76</ele>
        <time>2021-07-17T09:24:41.000Z</time>
      </trkpt>
      <trkpt lat="47.14871" lon="-1.63863">
        <ele>76</ele>
        <time>2021-07-17T09:24:43.000Z</time>
      </trkpt>
      <trkpt lat="47.14869" lon="-1.6388">
        <ele>76</ele>
        <time>2021-07-17T09:24:45.000Z</time>
      </trkpt>
      <trkpt lat="47.14867" lon="-1.63898">
        <ele>76</ele>
        <time>2021-07-17T09:24:47.000Z</time>
      </trkpt>
      <trkpt lat="47.14864" lon="-1.63915">
        <ele>76</ele>
        <time>2021-07-17T09:24:49.000Z</time>
      </trkpt>
      <trkpt lat="47.14862" lon="-1.63932">
        <ele>76</ele>
        <time>2021-07-17T09:24:51.000Z</time>
      </trkpt>
      <trkpt lat="47.1486" lon="-1.63949">
        <ele>76</ele>
        <time>2021-07-17T09:24:53.000Z</time>
      </trkpt>
      <trkpt lat="47.1486" lon="-1.63966">
        <ele>76</ele>
        <time>2021-07-17T09:24:55.000Z</time>
      </trkpt>
      <trkpt lat="47.14864" lon="-1.63981">
        <ele>76</ele>
        <time>2021-07-17T09:24:57.000Z</time>
      </trkpt>
      <trkpt lat="47.14871" lon="-1.63993">
        <ele>75</ele>
        <time>2021-07-17T09:24:59.000Z</time>
      </trkpt>
      <trkpt lat="47.14879" lon="-1.64006">
        <ele>75</ele>
        <time>2021-07-17T09:25:01.000Z</time>
      </trkpt>
      <trkpt lat="47.14888" lon="-1.64016">
        <ele>75</ele>
        <time>2021-07-17T09:25:03.000Z</time>
      </trkpt>
      <trkpt lat="47.14898" lon="-1.6402">
        <ele>75</ele>
        <time>2021-07-17T09:25:05.000Z</time>
      </trkpt>
      <trkpt lat="47.14907" lon="-1.64014">
        <ele>75</ele>
        <time>2021-07-17T09:25:07.000Z</time>
      </trkpt>
      <trkpt lat="47.14914" lon="-1.64">
        <ele>75</ele>
        <time>2021-07-17T09:25:09.000Z</time>
      </trkpt>
      <trkpt lat="47.1492" lon="-1.63983">
        <ele>75</ele>
        <time>2021-07-17T09:25:11.000Z</time>
      </trkpt>
      <trkpt lat="47.14928" lon="-1.63968">
        <ele>75</ele>
        <time>2021-07-17T09:25:13.000Z</time>
      </trkpt>
      <trkpt lat="47.14935" lon="-1.63955">
        <ele>75</ele>
        <time>2021-07-17T09:25:15.000Z</time>
      </trkpt>
      <trkpt lat="47.14943" lon="-1.63942">
        <ele>75</ele>
        <time>2021-07-17T09:25:17.000Z</time>
      </trkpt>
      <trkpt lat="47.14953" lon="-1.63931">
        <ele>75</ele>
        <time>2021-07-17T09:25:19.000Z</time>
      </trkpt>
      <trkpt lat="47.14962" lon="-1.63918">
        <ele>74</ele>
        <time>2021-07-17T09:25:21.000Z</time>
      </trkpt>
      <trkpt lat="47.1497" lon="-1.63905">
        <ele>74</ele>
        <time>2021-07-17T09:25:23.000Z</time>
      </trkpt>
      <trkpt lat="47.14979" lon="-1.63892">
        <ele>74</ele>
        <time>2021-07-17T09:25:25.000Z</time>
      </trkpt>
      <trkpt lat="47.14988" lon="-1.6388">
        <ele>73</ele>
        <time>2021-07-17T09:25:27.000Z</time>
      </trkpt>
      <trkpt lat="47.14997" lon="-1.63867">
        <ele>74</ele>
        <time>2021-07-17T09:25:29.000Z</time>
      </trkpt>
      <trkpt lat="47.15006" lon="-1.63854">
        <ele>73</ele>
        <time>2021-07-17T09:25:31.000Z</time>
      </trkpt>
      <trkpt lat="47.15015" lon="-1.63842">
        <ele>74</ele>
        <time>2021-07-17T09:25:33.000Z</time>
      </trkpt>
      <trkpt lat="47.15025" lon="-1.6383">
        <ele>73</ele>
        <time>2021-07-17T09:25:35.000Z</time>
      </trkpt>
      <trkpt lat="47.15034" lon="-1.63818">
        <ele>73</ele>
        <time>2021-07-17T09:25:37.000Z</time>
      </trkpt>
      <trkpt lat="47.15043" lon="-1.63805">
        <ele>73</ele>
        <time>2021-07-17T09:25:39.000Z</time>
      </trkpt>
      <trkpt lat="47.15052" lon="-1.63793">
        <ele>73</ele>
        <time>2021-07-17T09:25:41.000Z</time>
      </trkpt>
      <trkpt lat="47.15062" lon="-1.63782">
        <ele>73</ele>
        <time>2021-07-17T09:25:43.000Z</time>
      </trkpt>
      <trkpt lat="47.15071" lon="-1.6377">
        <ele>73</ele>
        <time>2021-07-17T09:25:45.000Z</time>
      </trkpt>
      <trkpt lat="47.15081" lon="-1.63759">
        <ele>73</ele>
        <time>2021-07-17T09:25:47.000Z</time>
      </trkpt>
      <trkpt lat="47.1509" lon="-1.63748">
        <ele>73</ele>
        <time>2021-07-17T09:25:49.000Z</time>
      </trkpt>
      <trkpt lat="47.151" lon="-1.63736">
        <ele>73</ele>
        <time>2021-07-17T09:25:51.000Z</time>
      </trkpt>
      <trkpt lat="47.1511" lon="-1.63726">
        <ele>73</ele>
        <time>2021-07-17T09:25:53.000Z</time>
      </trkpt>
      <trkpt lat="47.1512" lon="-1.63715">
        <ele>73</ele>
        <time>2021-07-17T09:25:55.000Z</time>
      </trkpt>
      <trkpt lat="47.1513" lon="-1.63704">
        <ele>73</ele>
        <time>2021-07-17T09:25:57.000Z</time>
      </trkpt>
      <trkpt lat="47.15141" lon="-1.63693">
        <ele>73</ele>
        <time>2021-07-17T09:25:59.000Z</time>
      </trkpt>
      <trkpt lat="47.15152" lon="-1.63683">
        <ele>73</ele>
        <time>2021-07-17T09:26:01.000Z</time>
      </trkpt>
      <trkpt lat="47.15162" lon="-1.63674">
        <ele>74</ele>
        <time>2021-07-17T09:26:03.000Z</time>
      </trkpt>
      <trkpt lat="47.15173" lon="-1.63664">
        <ele>73</ele>
        <time>2021-07-17T09:26:05.000Z</time>
      </trkpt>
      <trkpt lat="47.15184" lon="-1.63654">
        <ele>73</ele>
        <time>2021-07-17T09:26:07.000Z</time>
      </trkpt>
      <trkpt lat="47.15195" lon="-1.63644">
        <ele>73</ele>
        <time>2021-07-17T09:26:09.000Z</time>
      </trkpt>
      <trkpt lat="47.15206" lon="-1.63635">
        <ele>73</ele>
        <time>2021-07-17T09:26:11.000Z</time>
      </trkpt>
      <trkpt lat="47.15216" lon="-1.63625">
        <ele>72</ele>
        <time>2021-07-17T09:26:13.000Z</time>
      </trkpt>
      <trkpt lat="47.15227" lon="-1.63615">
        <ele>72</ele>
        <time>2021-07-17T09:26:15.000Z</time>
      </trkpt>
      <trkpt lat="47.15237" lon="-1.63606">
        <ele>72</ele>
        <time>2021-07-17T09:26:17.000Z</time>
      </trkpt>
      <trkpt lat="47.15247" lon="-1.63596">
        <ele>72</ele>
        <time>2021-07-17T09:26:19.000Z</time>
      </trkpt>
      <trkpt lat="47.15258" lon="-1.63587">
        <ele>72</ele>
        <time>2021-07-17T09:26:21.000Z</time>
      </trkpt>
      <trkpt lat="47.15268" lon="-1.63578">
        <ele>72</ele>
        <time>2021-07-17T09:26:23.000Z</time>
      </trkpt>
      <trkpt lat="47.15279" lon="-1.63569">
        <ele>72</ele>
        <time>2021-07-17T09:26:25.000Z</time>
      </trkpt>
      <trkpt lat="47.15289" lon="-1.6356">
        <ele>72</ele>
        <time>2021-07-17T09:26:27.000Z</time>
      </trkpt>
      <trkpt lat="47.15299" lon="-1.6355">
        <ele>72</ele>
        <time>2021-07-17T09:26:29.000Z</time>
      </trkpt>
      <trkpt lat="47.1531" lon="-1.6354">
        <ele>72</ele>
        <time>2021-07-17T09:26:31.000Z</time>
      </trkpt>
      <trkpt lat="47.1532" lon="-1.6353">
        <ele>73</ele>
        <time>2021-07-17T09:26:33.000Z</time>
      </trkpt>
      <trkpt lat="47.15331" lon="-1.63521">
        <ele>72</ele>
        <time>2021-07-17T09:26:35.000Z</time>
      </trkpt>
      <trkpt lat="47.15341" lon="-1.63512">
        <ele>72</ele>
        <time>2021-07-17T09:26:37.000Z</time>
      </trkpt>
      <trkpt lat="47.15351" lon="-1.63503">
        <ele>72</ele>
        <time>2021-07-17T09:26:39.000Z</time>
      </trkpt>
      <trkpt lat="47.15362" lon="-1.63494">
        <ele>72</ele>
        <time>2021-07-17T09:26:41.000Z</time>
      </trkpt>
      <trkpt lat="47.15372" lon="-1.63485">
        <ele>72</ele>
        <time>2021-07-17T09:26:43.000Z</time>
      </trkpt>
      <trkpt lat="47.15382" lon="-1.63476">
        <ele>72</ele>
        <time>2021-07-17T09:26:45.000Z</time>
      </trkpt>
      <trkpt lat="47.15392" lon="-1.63467">
        <ele>72</ele>
        <time>2021-07-17T09:26:47.000Z</time>
      </trkpt>
      <trkpt lat="47.15403" lon="-1.63457">
        <ele>72</ele>
        <time>2021-07-17T09:26:49.000Z</time>
      </trkpt>
      <trkpt lat="47.15413" lon="-1.63449">
        <ele>72</ele>
        <time>2021-07-17T09:26:51.000Z</time>
      </trkpt>
      <trkpt lat="47.15424" lon="-1.6344">
        <ele>71</ele>
        <time>2021-07-17T09:26:53.000Z</time>
      </trkpt>
      <trkpt lat="47.15434" lon="-1.6343">
        <ele>71</ele>
        <time>2021-07-17T09:26:55.000Z</time>
      </trkpt>
      <trkpt lat="47.15444" lon="-1.63419">
        <ele>71</ele>
        <time>2021-07-17T09:26:57.000Z</time>
      </trkpt>
      <trkpt lat="47.15455" lon="-1.63409">
        <ele>71</ele>
        <time>2021-07-17T09:26:59.000Z</time>
      </trkpt>
      <trkpt lat="47.15466" lon="-1.63399">
        <ele>70</ele>
        <time>2021-07-17T09:27:01.000Z</time>
      </trkpt>
      <trkpt lat="47.15477" lon="-1.63391">
        <ele>70</ele>
        <time>2021-07-17T09:27:03.000Z</time>
      </trkpt>
      <trkpt lat="47.15488" lon="-1.63384">
        <ele>70</ele>
        <time>2021-07-17T09:27:05.000Z</time>
      </trkpt>
      <trkpt lat="47.15499" lon="-1.63375">
        <ele>69</ele>
        <time>2021-07-17T09:27:07.000Z</time>
      </trkpt>
      <trkpt lat="47.15511" lon="-1.63366">
        <ele>69</ele>
        <time>2021-07-17T09:27:09.000Z</time>
      </trkpt>
      <trkpt lat="47.15522" lon="-1.63356">
        <ele>68</ele>
        <time>2021-07-17T09:27:11.000Z</time>
      </trkpt>
      <trkpt lat="47.15535" lon="-1.63345">
        <ele>67</ele>
        <time>2021-07-17T09:27:13.000Z</time>
      </trkpt>
      <trkpt lat="47.15547" lon="-1.63335">
        <ele>67</ele>
        <time>2021-07-17T09:27:15.000Z</time>
      </trkpt>
      <trkpt lat="47.15559" lon="-1.63323">
        <ele>66</ele>
        <time>2021-07-17T09:27:17.000Z</time>
      </trkpt>
      <trkpt lat="47.15573" lon="-1.63312">
        <ele>66</ele>
        <time>2021-07-17T09:27:19.000Z</time>
      </trkpt>
      <trkpt lat="47.15585" lon="-1.633">
        <ele>65</ele>
        <time>2021-07-17T09:27:21.000Z</time>
      </trkpt>
      <trkpt lat="47.15598" lon="-1.63289">
        <ele>65</ele>
        <time>2021-07-17T09:27:23.000Z</time>
      </trkpt>
      <trkpt lat="47.1561" lon="-1.63277">
        <ele>65</ele>
        <time>2021-07-17T09:27:25.000Z</time>
      </trkpt>
      <trkpt lat="47.15623" lon="-1.63266">
        <ele>65</ele>
        <time>2021-07-17T09:27:27.000Z</time>
      </trkpt>
      <trkpt lat="47.15635" lon="-1.63256">
        <ele>66</ele>
        <time>2021-07-17T09:27:29.000Z</time>
      </trkpt>
      <trkpt lat="47.15647" lon="-1.63245">
        <ele>66</ele>
        <time>2021-07-17T09:27:31.000Z</time>
      </trkpt>
      <trkpt lat="47.15659" lon="-1.63234">
        <ele>66</ele>
        <time>2021-07-17T09:27:33.000Z</time>
      </trkpt>
      <trkpt lat="47.1567" lon="-1.63223">
        <ele>66</ele>
        <time>2021-07-17T09:27:35.000Z</time>
      </trkpt>
      <trkpt lat="47.15681" lon="-1.63213">
        <ele>66</ele>
        <time>2021-07-17T09:27:37.000Z</time>
      </trkpt>
      <trkpt lat="47.15693" lon="-1.63203">
        <ele>67</ele>
        <time>2021-07-17T09:27:39.000Z</time>
      </trkpt>
      <trkpt lat="47.15705" lon="-1.63193">
        <ele>67</ele>
        <time>2021-07-17T09:27:41.000Z</time>
      </trkpt>
      <trkpt lat="47.15716" lon="-1.63183">
        <ele>67</ele>
        <time>2021-07-17T09:27:43.000Z</time>
      </trkpt>
      <trkpt lat="47.15727" lon="-1.63173">
        <ele>67</ele>
        <time>2021-07-17T09:27:45.000Z</time>
      </trkpt>
      <trkpt lat="47.15737" lon="-1.63163">
        <ele>67</ele>
        <time>2021-07-17T09:27:47.000Z</time>
      </trkpt>
      <trkpt lat="47.15746" lon="-1.63151">
        <ele>67</ele>
        <time>2021-07-17T09:27:49.000Z</time>
      </trkpt>
      <trkpt lat="47.15757" lon="-1.63144">
        <ele>67</ele>
        <time>2021-07-17T09:27:51.000Z</time>
      </trkpt>
      <trkpt lat="47.15769" lon="-1.63138">
        <ele>66</ele>
        <time>2021-07-17T09:27:53.000Z</time>
      </trkpt>
      <trkpt lat="47.1578" lon="-1.63128">
        <ele>66</ele>
        <time>2021-07-17T09:27:55.000Z</time>
      </trkpt>
      <trkpt lat="47.15791" lon="-1.63118">
        <ele>65</ele>
        <time>2021-07-17T09:27:57.000Z</time>
      </trkpt>
      <trkpt lat="47.15803" lon="-1.63107">
        <ele>64</ele>
        <time>2021-07-17T09:27:59.000Z</time>
      </trkpt>
      <trkpt lat="47.15814" lon="-1.63096">
        <ele>64</ele>
        <time>2021-07-17T09:28:01.000Z</time>
      </trkpt>
      <trkpt lat="47.15826" lon="-1.63086">
        <ele>63</ele>
        <time>2021-07-17T09:28:03.000Z</time>
      </trkpt>
      <trkpt lat="47.15838" lon="-1.63075">
        <ele>62</ele>
        <time>2021-07-17T09:28:05.000Z</time>
      </trkpt>
      <trkpt lat="47.15851" lon="-1.63064">
        <ele>62</ele>
        <time>2021-07-17T09:28:07.000Z</time>
      </trkpt>
      <trkpt lat="47.1587" lon="-1.63047">
        <ele>61</ele>
        <time>2021-07-17T09:28:10.000Z</time>
      </trkpt>
      <trkpt lat="47.15883" lon="-1.63036">
        <ele>61</ele>
        <time>2021-07-17T09:28:12.000Z</time>
      </trkpt>
      <trkpt lat="47.15895" lon="-1.63025">
        <ele>61</ele>
        <time>2021-07-17T09:28:14.000Z</time>
      </trkpt>
      <trkpt lat="47.15907" lon="-1.63014">
        <ele>61</ele>
        <time>2021-07-17T09:28:16.000Z</time>
      </trkpt>
      <trkpt lat="47.15918" lon="-1.63004">
        <ele>61</ele>
        <time>2021-07-17T09:28:18.000Z</time>
      </trkpt>
      <trkpt lat="47.15928" lon="-1.62994">
        <ele>61</ele>
        <time>2021-07-17T09:28:20.000Z</time>
      </trkpt>
      <trkpt lat="47.15943" lon="-1.62981">
        <ele>62</ele>
        <time>2021-07-17T09:28:23.000Z</time>
      </trkpt>
      <trkpt lat="47.15952" lon="-1.62973">
        <ele>62</ele>
        <time>2021-07-17T09:28:25.000Z</time>
      </trkpt>
      <trkpt lat="47.15961" lon="-1.62964">
        <ele>62</ele>
        <time>2021-07-17T09:28:27.000Z</time>
      </trkpt>
      <trkpt lat="47.15971" lon="-1.62956">
        <ele>62</ele>
        <time>2021-07-17T09:28:29.000Z</time>
      </trkpt>
      <trkpt lat="47.1598" lon="-1.62948">
        <ele>63</ele>
        <time>2021-07-17T09:28:31.000Z</time>
      </trkpt>
      <trkpt lat="47.1599" lon="-1.62939">
        <ele>64</ele>
        <time>2021-07-17T09:28:33.000Z</time>
      </trkpt>
      <trkpt lat="47.15999" lon="-1.62931">
        <ele>64</ele>
        <time>2021-07-17T09:28:35.000Z</time>
      </trkpt>
      <trkpt lat="47.16008" lon="-1.62923">
        <ele>64</ele>
        <time>2021-07-17T09:28:37.000Z</time>
      </trkpt>
      <trkpt lat="47.16017" lon="-1.62915">
        <ele>65</ele>
        <time>2021-07-17T09:28:39.000Z</time>
      </trkpt>
      <trkpt lat="47.16026" lon="-1.62907">
        <ele>66</ele>
        <time>2021-07-17T09:28:41.000Z</time>
      </trkpt>
      <trkpt lat="47.16035" lon="-1.62899">
        <ele>66</ele>
        <time>2021-07-17T09:28:43.000Z</time>
      </trkpt>
      <trkpt lat="47.16044" lon="-1.62891">
        <ele>66</ele>
        <time>2021-07-17T09:28:45.000Z</time>
      </trkpt>
      <trkpt lat="47.16054" lon="-1.62883">
        <ele>66</ele>
        <time>2021-07-17T09:28:47.000Z</time>
      </trkpt>
      <trkpt lat="47.16063" lon="-1.62875">
        <ele>67</ele>
        <time>2021-07-17T09:28:49.000Z</time>
      </trkpt>
      <trkpt lat="47.16072" lon="-1.62867">
        <ele>67</ele>
        <time>2021-07-17T09:28:51.000Z</time>
      </trkpt>
      <trkpt lat="47.16081" lon="-1.62858">
        <ele>67</ele>
        <time>2021-07-17T09:28:53.000Z</time>
      </trkpt>
      <trkpt lat="47.1609" lon="-1.6285">
        <ele>67</ele>
        <time>2021-07-17T09:28:55.000Z</time>
      </trkpt>
      <trkpt lat="47.161" lon="-1.62842">
        <ele>68</ele>
        <time>2021-07-17T09:28:57.000Z</time>
      </trkpt>
      <trkpt lat="47.16108" lon="-1.62835">
        <ele>68</ele>
        <time>2021-07-17T09:28:59.000Z</time>
      </trkpt>
      <trkpt lat="47.16117" lon="-1.62827">
        <ele>69</ele>
        <time>2021-07-17T09:29:01.000Z</time>
      </trkpt>
      <trkpt lat="47.16127" lon="-1.6282">
        <ele>69</ele>
        <time>2021-07-17T09:29:03.000Z</time>
      </trkpt>
      <trkpt lat="47.16136" lon="-1.62812">
        <ele>69</ele>
        <time>2021-07-17T09:29:05.000Z</time>
      </trkpt>
      <trkpt lat="47.16145" lon="-1.62804">
        <ele>69</ele>
        <time>2021-07-17T09:29:07.000Z</time>
      </trkpt>
      <trkpt lat="47.16153" lon="-1.62797">
        <ele>70</ele>
        <time>2021-07-17T09:29:09.000Z</time>
      </trkpt>
      <trkpt lat="47.16162" lon="-1.62789">
        <ele>70</ele>
        <time>2021-07-17T09:29:11.000Z</time>
      </trkpt>
      <trkpt lat="47.16171" lon="-1.6278">
        <ele>70</ele>
        <time>2021-07-17T09:29:13.000Z</time>
      </trkpt>
      <trkpt lat="47.1618" lon="-1.62771">
        <ele>70</ele>
        <time>2021-07-17T09:29:15.000Z</time>
      </trkpt>
      <trkpt lat="47.16189" lon="-1.62763">
        <ele>70</ele>
        <time>2021-07-17T09:29:17.000Z</time>
      </trkpt>
      <trkpt lat="47.16198" lon="-1.62755">
        <ele>71</ele>
        <time>2021-07-17T09:29:19.000Z</time>
      </trkpt>
      <trkpt lat="47.16207" lon="-1.62747">
        <ele>71</ele>
        <time>2021-07-17T09:29:21.000Z</time>
      </trkpt>
      <trkpt lat="47.16217" lon="-1.62739">
        <ele>72</ele>
        <time>2021-07-17T09:29:23.000Z</time>
      </trkpt>
      <trkpt lat="47.16227" lon="-1.6273">
        <ele>72</ele>
        <time>2021-07-17T09:29:25.000Z</time>
      </trkpt>
      <trkpt lat="47.16236" lon="-1.62723">
        <ele>72</ele>
        <time>2021-07-17T09:29:27.000Z</time>
      </trkpt>
      <trkpt lat="47.16246" lon="-1.62715">
        <ele>73</ele>
        <time>2021-07-17T09:29:29.000Z</time>
      </trkpt>
      <trkpt lat="47.16255" lon="-1.62707">
        <ele>74</ele>
        <time>2021-07-17T09:29:31.000Z</time>
      </trkpt>
      <trkpt lat="47.16264" lon="-1.627">
        <ele>74</ele>
        <time>2021-07-17T09:29:33.000Z</time>
      </trkpt>
      <trkpt lat="47.16272" lon="-1.62693">
        <ele>74</ele>
        <time>2021-07-17T09:29:35.000Z</time>
      </trkpt>
      <trkpt lat="47.16277" lon="-1.62677">
        <ele>74</ele>
        <time>2021-07-17T09:29:38.000Z</time>
      </trkpt>
      <trkpt lat="47.16277" lon="-1.62661">
        <ele>73</ele>
        <time>2021-07-17T09:29:40.000Z</time>
      </trkpt>
      <trkpt lat="47.16279" lon="-1.62645">
        <ele>73</ele>
        <time>2021-07-17T09:29:42.000Z</time>
      </trkpt>
      <trkpt lat="47.1628" lon="-1.62629">
        <ele>73</ele>
        <time>2021-07-17T09:29:44.000Z</time>
      </trkpt>
      <trkpt lat="47.16283" lon="-1.62615">
        <ele>73</ele>
        <time>2021-07-17T09:29:46.000Z</time>
      </trkpt>
      <trkpt lat="47.16287" lon="-1.626">
        <ele>73</ele>
        <time>2021-07-17T09:29:48.000Z</time>
      </trkpt>
      <trkpt lat="47.16292" lon="-1.62587">
        <ele>73</ele>
        <time>2021-07-17T09:29:50.000Z</time>
      </trkpt>
      <trkpt lat="47.16299" lon="-1.62577">
        <ele>74</ele>
        <time>2021-07-17T09:29:52.000Z</time>
      </trkpt>
      <trkpt lat="47.16309" lon="-1.6257">
        <ele>74</ele>
        <time>2021-07-17T09:29:54.000Z</time>
      </trkpt>
      <trkpt lat="47.1632" lon="-1.62567">
        <ele>74</ele>
        <time>2021-07-17T09:29:56.000Z</time>
      </trkpt>
      <trkpt lat="47.16331" lon="-1.6257">
        <ele>74</ele>
        <time>2021-07-17T09:29:58.000Z</time>
      </trkpt>
      <trkpt lat="47.16342" lon="-1.62576">
        <ele>73</ele>
        <time>2021-07-17T09:30:00.000Z</time>
      </trkpt>
      <trkpt lat="47.16352" lon="-1.62579">
        <ele>74</ele>
        <time>2021-07-17T09:30:02.000Z</time>
      </trkpt>
      <trkpt lat="47.16363" lon="-1.62581">
        <ele>74</ele>
        <time>2021-07-17T09:30:04.000Z</time>
      </trkpt>
      <trkpt lat="47.16374" lon="-1.62582">
        <ele>74</ele>
        <time>2021-07-17T09:30:06.000Z</time>
      </trkpt>
      <trkpt lat="47.16385" lon="-1.62581">
        <ele>74</ele>
        <time>2021-07-17T09:30:08.000Z</time>
      </trkpt>
      <trkpt lat="47.16394" lon="-1.62576">
        <ele>74</ele>
        <time>2021-07-17T09:30:10.000Z</time>
      </trkpt>
      <trkpt lat="47.16404" lon="-1.62569">
        <ele>74</ele>
        <time>2021-07-17T09:30:12.000Z</time>
      </trkpt>
      <trkpt lat="47.16412" lon="-1.6256">
        <ele>75</ele>
        <time>2021-07-17T09:30:14.000Z</time>
      </trkpt>
      <trkpt lat="47.16421" lon="-1.62551">
        <ele>75</ele>
        <time>2021-07-17T09:30:16.000Z</time>
      </trkpt>
      <trkpt lat="47.1643" lon="-1.62542">
        <ele>75</ele>
        <time>2021-07-17T09:30:18.000Z</time>
      </trkpt>
      <trkpt lat="47.16441" lon="-1.62539">
        <ele>75</ele>
        <time>2021-07-17T09:30:20.000Z</time>
      </trkpt>
      <trkpt lat="47.16451" lon="-1.62541">
        <ele>76</ele>
        <time>2021-07-17T09:30:22.000Z</time>
      </trkpt>
      <trkpt lat="47.1646" lon="-1.62545">
        <ele>76</ele>
        <time>2021-07-17T09:30:24.000Z</time>
      </trkpt>
      <trkpt lat="47.16469" lon="-1.62548">
        <ele>76</ele>
        <time>2021-07-17T09:30:26.000Z</time>
      </trkpt>
      <trkpt lat="47.1648" lon="-1.62551">
        <ele>76</ele>
        <time>2021-07-17T09:30:28.000Z</time>
      </trkpt>
      <trkpt lat="47.16489" lon="-1.62554">
        <ele>76</ele>
        <time>2021-07-17T09:30:30.000Z</time>
      </trkpt>
      <trkpt lat="47.16499" lon="-1.62557">
        <ele>76</ele>
        <time>2021-07-17T09:30:32.000Z</time>
      </trkpt>
      <trkpt lat="47.1651" lon="-1.6256">
        <ele>76</ele>
        <time>2021-07-17T09:30:34.000Z</time>
      </trkpt>
      <trkpt lat="47.16521" lon="-1.62563">
        <ele>76</ele>
        <time>2021-07-17T09:30:36.000Z</time>
      </trkpt>
      <trkpt lat="47.1653" lon="-1.62563">
        <ele>76</ele>
        <time>2021-07-17T09:30:38.000Z</time>
      </trkpt>
      <trkpt lat="47.1654" lon="-1.62556">
        <ele>76</ele>
        <time>2021-07-17T09:30:40.000Z</time>
      </trkpt>
      <trkpt lat="47.16549" lon="-1.62546">
        <ele>76</ele>
        <time>2021-07-17T09:30:42.000Z</time>
      </trkpt>
      <trkpt lat="47.16558" lon="-1.62534">
        <ele>75</ele>
        <time>2021-07-17T09:30:44.000Z</time>
      </trkpt>
      <trkpt lat="47.16566" lon="-1.6252">
        <ele>75</ele>
        <time>2021-07-17T09:30:46.000Z</time>
      </trkpt>
      <trkpt lat="47.16572" lon="-1.62503">
        <ele>75</ele>
        <time>2021-07-17T09:30:48.000Z</time>
      </trkpt>
      <trkpt lat="47.16579" lon="-1.62487">
        <ele>74</ele>
        <time>2021-07-17T09:30:50.000Z</time>
      </trkpt>
      <trkpt lat="47.16585" lon="-1.62471">
        <ele>74</ele>
        <time>2021-07-17T09:30:52.000Z</time>
      </trkpt>
      <trkpt lat="47.16592" lon="-1.62455">
        <ele>74</ele>
        <time>2021-07-17T09:30:54.000Z</time>
      </trkpt>
      <trkpt lat="47.16599" lon="-1.62439">
        <ele>74</ele>
        <time>2021-07-17T09:30:56.000Z</time>
      </trkpt>
      <trkpt lat="47.16606" lon="-1.62423">
        <ele>73</ele>
        <time>2021-07-17T09:30:58.000Z</time>
      </trkpt>
      <trkpt lat="47.16614" lon="-1.62408">
        <ele>73</ele>
        <time>2021-07-17T09:31:00.000Z</time>
      </trkpt>
      <trkpt lat="47.16624" lon="-1.62393">
        <ele>72</ele>
        <time>2021-07-17T09:31:02.000Z</time>
      </trkpt>
      <trkpt lat="47.16634" lon="-1.6238">
        <ele>72</ele>
        <time>2021-07-17T09:31:04.000Z</time>
      </trkpt>
      <trkpt lat="47.16646" lon="-1.62369">
        <ele>72</ele>
        <time>2021-07-17T09:31:06.000Z</time>
      </trkpt>
      <trkpt lat="47.16657" lon="-1.6236">
        <ele>72</ele>
        <time>2021-07-17T09:31:08.000Z</time>
      </trkpt>
      <trkpt lat="47.16671" lon="-1.62356">
        <ele>71</ele>
        <time>2021-07-17T09:31:10.000Z</time>
      </trkpt>
      <trkpt lat="47.16685" lon="-1.62358">
        <ele>71</ele>
        <time>2021-07-17T09:31:12.000Z</time>
      </trkpt>
      <trkpt lat="47.16697" lon="-1.62368">
        <ele>70</ele>
        <time>2021-07-17T09:31:14.000Z</time>
      </trkpt>
      <trkpt lat="47.16707" lon="-1.62383">
        <ele>70</ele>
        <time>2021-07-17T09:31:16.000Z</time>
      </trkpt>
      <trkpt lat="47.16716" lon="-1.62397">
        <ele>70</ele>
        <time>2021-07-17T09:31:18.000Z</time>
      </trkpt>
      <trkpt lat="47.16723" lon="-1.6241">
        <ele>70</ele>
        <time>2021-07-17T09:31:20.000Z</time>
      </trkpt>
      <trkpt lat="47.16728" lon="-1.62422">
        <ele>70</ele>
        <time>2021-07-17T09:31:22.000Z</time>
      </trkpt>
      <trkpt lat="47.16725" lon="-1.62441">
        <ele>69</ele>
        <time>2021-07-17T09:31:25.000Z</time>
      </trkpt>
      <trkpt lat="47.1672" lon="-1.62457">
        <ele>69</ele>
        <time>2021-07-17T09:31:27.000Z</time>
      </trkpt>
      <trkpt lat="47.16717" lon="-1.62474">
        <ele>69</ele>
        <time>2021-07-17T09:31:29.000Z</time>
      </trkpt>
      <trkpt lat="47.16716" lon="-1.62492">
        <ele>69</ele>
        <time>2021-07-17T09:31:31.000Z</time>
      </trkpt>
      <trkpt lat="47.16727" lon="-1.625">
        <ele>69</ele>
        <time>2021-07-17T09:31:33.000Z</time>
      </trkpt>
      <trkpt lat="47.16739" lon="-1.62504">
        <ele>68</ele>
        <time>2021-07-17T09:31:35.000Z</time>
      </trkpt>
      <trkpt lat="47.1675" lon="-1.6251">
        <ele>68</ele>
        <time>2021-07-17T09:31:37.000Z</time>
      </trkpt>
      <trkpt lat="47.16763" lon="-1.62517">
        <ele>69</ele>
        <time>2021-07-17T09:31:39.000Z</time>
      </trkpt>
      <trkpt lat="47.16774" lon="-1.62524">
        <ele>69</ele>
        <time>2021-07-17T09:31:41.000Z</time>
      </trkpt>
      <trkpt lat="47.16785" lon="-1.62531">
        <ele>70</ele>
        <time>2021-07-17T09:31:43.000Z</time>
      </trkpt>
      <trkpt lat="47.16795" lon="-1.62537">
        <ele>70</ele>
        <time>2021-07-17T09:31:45.000Z</time>
      </trkpt>
      <trkpt lat="47.16806" lon="-1.62544">
        <ele>70</ele>
        <time>2021-07-17T09:31:47.000Z</time>
      </trkpt>
      <trkpt lat="47.16816" lon="-1.62553">
        <ele>70</ele>
        <time>2021-07-17T09:31:49.000Z</time>
      </trkpt>
      <trkpt lat="47.16825" lon="-1.62564">
        <ele>69</ele>
        <time>2021-07-17T09:31:51.000Z</time>
      </trkpt>
      <trkpt lat="47.16831" lon="-1.62579">
        <ele>69</ele>
        <time>2021-07-17T09:31:53.000Z</time>
      </trkpt>
      <trkpt lat="47.16826" lon="-1.62595">
        <ele>69</ele>
        <time>2021-07-17T09:31:55.000Z</time>
      </trkpt>
      <trkpt lat="47.16818" lon="-1.62608">
        <ele>70</ele>
        <time>2021-07-17T09:31:57.000Z</time>
      </trkpt>
      <trkpt lat="47.1681" lon="-1.62621">
        <ele>70</ele>
        <time>2021-07-17T09:31:59.000Z</time>
      </trkpt>
      <trkpt lat="47.16803" lon="-1.62633">
        <ele>71</ele>
        <time>2021-07-17T09:32:01.000Z</time>
      </trkpt>
      <trkpt lat="47.16796" lon="-1.62644">
        <ele>71</ele>
        <time>2021-07-17T09:32:03.000Z</time>
      </trkpt>
      <trkpt lat="47.16791" lon="-1.62655">
        <ele>71</ele>
        <time>2021-07-17T09:32:05.000Z</time>
      </trkpt>
      <trkpt lat="47.16781" lon="-1.6266">
        <ele>71</ele>
        <time>2021-07-17T09:32:08.000Z</time>
      </trkpt>
    </trkseg>
  </trk>
</gpx>